<?xml version="1.0" encoding="UTF-8" standalone="no" ?>
<gpx xmlns="http://www.topografix.com/GPX/1/1" xmlns:xsi="http://www.w3.org/2001/XMLSchema-instance" xsi:schemaLocation="http://www.topografix.com/GPX/1/1 http://www.topografix.com/GPX/1/1/gpx.xsd" version="1.1" creator="VisuGPX - https://www.visugpx.com">
  <metadata>
    <name>St Ouen l'Aumône -- Livilliers</name>
  </metadata>
  <trk>
    <name><![CDATA[St Ouen l'Aumône -- Livilliers_1]]></name>
    <trkseg>
      <trkpt lat="49.03433" lon="2.1313">
        <ele>83.1</ele>
        <time>2022-09-25T07:33:31Z</time>
      </trkpt>
      <trkpt lat="49.03431" lon="2.13137">
        <ele>82.5</ele>
        <time>2022-09-25T07:33:36Z</time>
      </trkpt>
      <trkpt lat="49.03426" lon="2.1315">
        <ele>81.9</ele>
        <time>2022-09-25T07:33:42Z</time>
      </trkpt>
      <trkpt lat="49.03426" lon="2.13158">
        <ele>81.5</ele>
        <time>2022-09-25T07:33:47Z</time>
      </trkpt>
      <trkpt lat="49.03429" lon="2.13166">
        <ele>81.1</ele>
        <time>2022-09-25T07:33:53Z</time>
      </trkpt>
      <trkpt lat="49.03433" lon="2.13172">
        <ele>80.8</ele>
        <time>2022-09-25T07:33:58Z</time>
      </trkpt>
      <trkpt lat="49.03438" lon="2.13182">
        <ele>80.6</ele>
        <time>2022-09-25T07:34:04Z</time>
      </trkpt>
      <trkpt lat="49.03442" lon="2.13192">
        <ele>80.4</ele>
        <time>2022-09-25T07:34:10Z</time>
      </trkpt>
      <trkpt lat="49.03446" lon="2.13202">
        <ele>80.3</ele>
        <time>2022-09-25T07:34:15Z</time>
      </trkpt>
      <trkpt lat="49.03449" lon="2.13212">
        <ele>80.1</ele>
        <time>2022-09-25T07:34:20Z</time>
      </trkpt>
      <trkpt lat="49.03453" lon="2.13224">
        <ele>79.9</ele>
        <time>2022-09-25T07:34:26Z</time>
      </trkpt>
      <trkpt lat="49.03458" lon="2.13235">
        <ele>79.4</ele>
        <time>2022-09-25T07:34:32Z</time>
      </trkpt>
      <trkpt lat="49.03463" lon="2.13244">
        <ele>79</ele>
        <time>2022-09-25T07:34:37Z</time>
      </trkpt>
      <trkpt lat="49.03467" lon="2.13256">
        <ele>78.5</ele>
        <time>2022-09-25T07:34:43Z</time>
      </trkpt>
      <trkpt lat="49.03471" lon="2.13266">
        <ele>78.1</ele>
        <time>2022-09-25T07:34:48Z</time>
      </trkpt>
      <trkpt lat="49.03475" lon="2.13277">
        <ele>77.8</ele>
        <time>2022-09-25T07:34:54Z</time>
      </trkpt>
      <trkpt lat="49.03479" lon="2.13286">
        <ele>77.5</ele>
        <time>2022-09-25T07:34:59Z</time>
      </trkpt>
      <trkpt lat="49.03475" lon="2.13291">
        <ele>77.1</ele>
        <time>2022-09-25T07:35:05Z</time>
      </trkpt>
      <trkpt lat="49.03471" lon="2.13282">
        <ele>76.7</ele>
        <time>2022-09-25T07:35:11Z</time>
      </trkpt>
      <trkpt lat="49.03465" lon="2.13269">
        <ele>76.5</ele>
        <time>2022-09-25T07:35:17Z</time>
      </trkpt>
      <trkpt lat="49.03462" lon="2.13264">
        <ele>76.4</ele>
        <time>2022-09-25T07:35:22Z</time>
      </trkpt>
      <trkpt lat="49.0346" lon="2.13262">
        <ele>76.3</ele>
        <time>2022-09-25T07:35:28Z</time>
      </trkpt>
      <trkpt lat="49.03457" lon="2.13254">
        <ele>76.3</ele>
        <time>2022-09-25T07:35:34Z</time>
      </trkpt>
      <trkpt lat="49.0345" lon="2.1325">
        <ele>76.2</ele>
        <time>2022-09-25T07:35:39Z</time>
      </trkpt>
      <trkpt lat="49.03443" lon="2.13248">
        <ele>76</ele>
        <time>2022-09-25T07:35:45Z</time>
      </trkpt>
      <trkpt lat="49.03436" lon="2.13244">
        <ele>75.8</ele>
        <time>2022-09-25T07:35:51Z</time>
      </trkpt>
      <trkpt lat="49.0343" lon="2.13245">
        <ele>75.4</ele>
        <time>2022-09-25T07:35:56Z</time>
      </trkpt>
      <trkpt lat="49.03425" lon="2.13248">
        <ele>75.1</ele>
        <time>2022-09-25T07:36:01Z</time>
      </trkpt>
      <trkpt lat="49.03419" lon="2.13252">
        <ele>74.7</ele>
        <time>2022-09-25T07:36:07Z</time>
      </trkpt>
      <trkpt lat="49.03413" lon="2.13256">
        <ele>74.5</ele>
        <time>2022-09-25T07:36:12Z</time>
      </trkpt>
      <trkpt lat="49.03405" lon="2.13262">
        <ele>74.2</ele>
        <time>2022-09-25T07:36:18Z</time>
      </trkpt>
      <trkpt lat="49.03396" lon="2.13266">
        <ele>74</ele>
        <time>2022-09-25T07:36:24Z</time>
      </trkpt>
      <trkpt lat="49.03389" lon="2.13268">
        <ele>73.9</ele>
        <time>2022-09-25T07:36:29Z</time>
      </trkpt>
      <trkpt lat="49.03383" lon="2.13271">
        <ele>73.7</ele>
        <time>2022-09-25T07:36:34Z</time>
      </trkpt>
      <trkpt lat="49.03376" lon="2.13273">
        <ele>73.5</ele>
        <time>2022-09-25T07:36:39Z</time>
      </trkpt>
      <trkpt lat="49.03367" lon="2.13273">
        <ele>73.1</ele>
        <time>2022-09-25T07:36:45Z</time>
      </trkpt>
      <trkpt lat="49.03362" lon="2.13273">
        <ele>72.8</ele>
        <time>2022-09-25T07:36:50Z</time>
      </trkpt>
      <trkpt lat="49.03356" lon="2.13271">
        <ele>72.7</ele>
        <time>2022-09-25T07:36:55Z</time>
      </trkpt>
      <trkpt lat="49.03348" lon="2.13271">
        <ele>72.7</ele>
        <time>2022-09-25T07:37:01Z</time>
      </trkpt>
      <trkpt lat="49.03344" lon="2.13275">
        <ele>72.5</ele>
        <time>2022-09-25T07:37:06Z</time>
      </trkpt>
      <trkpt lat="49.03342" lon="2.13284">
        <ele>72.1</ele>
        <time>2022-09-25T07:37:12Z</time>
      </trkpt>
      <trkpt lat="49.03342" lon="2.13295">
        <ele>71.6</ele>
        <time>2022-09-25T07:37:17Z</time>
      </trkpt>
      <trkpt lat="49.03343" lon="2.1331">
        <ele>71</ele>
        <time>2022-09-25T07:37:23Z</time>
      </trkpt>
      <trkpt lat="49.03345" lon="2.13321">
        <ele>70.6</ele>
        <time>2022-09-25T07:37:28Z</time>
      </trkpt>
      <trkpt lat="49.03348" lon="2.13334">
        <ele>70.3</ele>
        <time>2022-09-25T07:37:34Z</time>
      </trkpt>
      <trkpt lat="49.03349" lon="2.1334">
        <ele>70.3</ele>
        <time>2022-09-25T07:37:39Z</time>
      </trkpt>
      <trkpt lat="49.03349" lon="2.13345">
        <ele>70.3</ele>
        <time>2022-09-25T07:37:44Z</time>
      </trkpt>
      <trkpt lat="49.03346" lon="2.1335">
        <ele>70.2</ele>
        <time>2022-09-25T07:37:50Z</time>
      </trkpt>
      <trkpt lat="49.0334" lon="2.13348">
        <ele>69.9</ele>
        <time>2022-09-25T07:37:55Z</time>
      </trkpt>
      <trkpt lat="49.03333" lon="2.13347">
        <ele>69.6</ele>
        <time>2022-09-25T07:38:01Z</time>
      </trkpt>
      <trkpt lat="49.03328" lon="2.13347">
        <ele>69.5</ele>
        <time>2022-09-25T07:38:07Z</time>
      </trkpt>
      <trkpt lat="49.03321" lon="2.13346">
        <ele>69.2</ele>
        <time>2022-09-25T07:38:13Z</time>
      </trkpt>
      <trkpt lat="49.03314" lon="2.13342">
        <ele>68.9</ele>
        <time>2022-09-25T07:38:19Z</time>
      </trkpt>
      <trkpt lat="49.03311" lon="2.13338">
        <ele>68.9</ele>
        <time>2022-09-25T07:38:24Z</time>
      </trkpt>
      <trkpt lat="49.0331" lon="2.13335">
        <ele>69</ele>
        <time>2022-09-25T07:38:30Z</time>
      </trkpt>
      <trkpt lat="49.03309" lon="2.13334">
        <ele>69</ele>
        <time>2022-09-25T07:38:36Z</time>
      </trkpt>
      <trkpt lat="49.03309" lon="2.13333">
        <ele>69.1</ele>
        <time>2022-09-25T07:38:41Z</time>
      </trkpt>
      <trkpt lat="49.03308" lon="2.13332">
        <ele>69.3</ele>
        <time>2022-09-25T07:38:47Z</time>
      </trkpt>
      <trkpt lat="49.03307" lon="2.13331">
        <ele>69.5</ele>
        <time>2022-09-25T07:38:52Z</time>
      </trkpt>
      <trkpt lat="49.03306" lon="2.13329">
        <ele>69.8</ele>
        <time>2022-09-25T07:38:58Z</time>
      </trkpt>
      <trkpt lat="49.03309" lon="2.13323">
        <ele>70.2</ele>
        <time>2022-09-25T07:39:03Z</time>
      </trkpt>
      <trkpt lat="49.0331" lon="2.13313">
        <ele>70.5</ele>
        <time>2022-09-25T07:39:09Z</time>
      </trkpt>
      <trkpt lat="49.03309" lon="2.13304">
        <ele>70.9</ele>
        <time>2022-09-25T07:39:15Z</time>
      </trkpt>
      <trkpt lat="49.03306" lon="2.13297">
        <ele>71.2</ele>
        <time>2022-09-25T07:39:20Z</time>
      </trkpt>
      <trkpt lat="49.03304" lon="2.1329">
        <ele>71.3</ele>
        <time>2022-09-25T07:39:25Z</time>
      </trkpt>
      <trkpt lat="49.03304" lon="2.13281">
        <ele>71.3</ele>
        <time>2022-09-25T07:39:31Z</time>
      </trkpt>
      <trkpt lat="49.03305" lon="2.13272">
        <ele>71.4</ele>
        <time>2022-09-25T07:39:36Z</time>
      </trkpt>
      <trkpt lat="49.03307" lon="2.1326">
        <ele>71.4</ele>
        <time>2022-09-25T07:39:42Z</time>
      </trkpt>
      <trkpt lat="49.03307" lon="2.13253">
        <ele>71.5</ele>
        <time>2022-09-25T07:39:47Z</time>
      </trkpt>
      <trkpt lat="49.03307" lon="2.13245">
        <ele>71.8</ele>
        <time>2022-09-25T07:39:53Z</time>
      </trkpt>
      <trkpt lat="49.03307" lon="2.13237">
        <ele>72.1</ele>
        <time>2022-09-25T07:39:58Z</time>
      </trkpt>
      <trkpt lat="49.03307" lon="2.13227">
        <ele>72.3</ele>
        <time>2022-09-25T07:40:04Z</time>
      </trkpt>
      <trkpt lat="49.03308" lon="2.13218">
        <ele>72.5</ele>
        <time>2022-09-25T07:40:09Z</time>
      </trkpt>
      <trkpt lat="49.03308" lon="2.13204">
        <ele>72.7</ele>
        <time>2022-09-25T07:40:15Z</time>
      </trkpt>
      <trkpt lat="49.03306" lon="2.13194">
        <ele>73</ele>
        <time>2022-09-25T07:40:21Z</time>
      </trkpt>
      <trkpt lat="49.03302" lon="2.13187">
        <ele>73.3</ele>
        <time>2022-09-25T07:40:26Z</time>
      </trkpt>
      <trkpt lat="49.03294" lon="2.1318">
        <ele>73.7</ele>
        <time>2022-09-25T07:40:32Z</time>
      </trkpt>
      <trkpt lat="49.03287" lon="2.13172">
        <ele>74.2</ele>
        <time>2022-09-25T07:40:37Z</time>
      </trkpt>
      <trkpt lat="49.0328" lon="2.13164">
        <ele>74.8</ele>
        <time>2022-09-25T07:40:43Z</time>
      </trkpt>
      <trkpt lat="49.03274" lon="2.13157">
        <ele>75.4</ele>
        <time>2022-09-25T07:40:48Z</time>
      </trkpt>
      <trkpt lat="49.03269" lon="2.1315">
        <ele>75.8</ele>
        <time>2022-09-25T07:40:53Z</time>
      </trkpt>
      <trkpt lat="49.03262" lon="2.13143">
        <ele>76.4</ele>
        <time>2022-09-25T07:40:59Z</time>
      </trkpt>
      <trkpt lat="49.03256" lon="2.13135">
        <ele>76.9</ele>
        <time>2022-09-25T07:41:05Z</time>
      </trkpt>
      <trkpt lat="49.03251" lon="2.13128">
        <ele>77.3</ele>
        <time>2022-09-25T07:41:10Z</time>
      </trkpt>
      <trkpt lat="49.03245" lon="2.1312">
        <ele>77.8</ele>
        <time>2022-09-25T07:41:16Z</time>
      </trkpt>
      <trkpt lat="49.03239" lon="2.13111">
        <ele>78.3</ele>
        <time>2022-09-25T07:41:21Z</time>
      </trkpt>
      <trkpt lat="49.03232" lon="2.13099">
        <ele>79.3</ele>
        <time>2022-09-25T07:41:27Z</time>
      </trkpt>
      <trkpt lat="49.03226" lon="2.1309">
        <ele>80.5</ele>
        <time>2022-09-25T07:41:32Z</time>
      </trkpt>
      <trkpt lat="49.0322" lon="2.13081">
        <ele>81.7</ele>
        <time>2022-09-25T07:41:38Z</time>
      </trkpt>
      <trkpt lat="49.03215" lon="2.13074">
        <ele>82.6</ele>
        <time>2022-09-25T07:41:43Z</time>
      </trkpt>
      <trkpt lat="49.0321" lon="2.13066">
        <ele>83.4</ele>
        <time>2022-09-25T07:41:49Z</time>
      </trkpt>
      <trkpt lat="49.03204" lon="2.13063">
        <ele>84</ele>
        <time>2022-09-25T07:41:55Z</time>
      </trkpt>
      <trkpt lat="49.03198" lon="2.13068">
        <ele>84.2</ele>
        <time>2022-09-25T07:42:01Z</time>
      </trkpt>
      <trkpt lat="49.03192" lon="2.13074">
        <ele>84.2</ele>
        <time>2022-09-25T07:42:07Z</time>
      </trkpt>
      <trkpt lat="49.03188" lon="2.13081">
        <ele>84</ele>
        <time>2022-09-25T07:42:12Z</time>
      </trkpt>
      <trkpt lat="49.03182" lon="2.13089">
        <ele>83.5</ele>
        <time>2022-09-25T07:42:18Z</time>
      </trkpt>
      <trkpt lat="49.03176" lon="2.13095">
        <ele>82.9</ele>
        <time>2022-09-25T07:42:24Z</time>
      </trkpt>
      <trkpt lat="49.03169" lon="2.13103">
        <ele>82.2</ele>
        <time>2022-09-25T07:42:30Z</time>
      </trkpt>
      <trkpt lat="49.03163" lon="2.13111">
        <ele>81.7</ele>
        <time>2022-09-25T07:42:35Z</time>
      </trkpt>
      <trkpt lat="49.03157" lon="2.1312">
        <ele>81</ele>
        <time>2022-09-25T07:42:41Z</time>
      </trkpt>
      <trkpt lat="49.03151" lon="2.13128">
        <ele>80.2</ele>
        <time>2022-09-25T07:42:46Z</time>
      </trkpt>
      <trkpt lat="49.03144" lon="2.13136">
        <ele>79.6</ele>
        <time>2022-09-25T07:42:52Z</time>
      </trkpt>
      <trkpt lat="49.03137" lon="2.13144">
        <ele>79.3</ele>
        <time>2022-09-25T07:42:58Z</time>
      </trkpt>
      <trkpt lat="49.0313" lon="2.13151">
        <ele>79</ele>
        <time>2022-09-25T07:43:04Z</time>
      </trkpt>
      <trkpt lat="49.03123" lon="2.13158">
        <ele>78.4</ele>
        <time>2022-09-25T07:43:10Z</time>
      </trkpt>
      <trkpt lat="49.03116" lon="2.13165">
        <ele>78</ele>
        <time>2022-09-25T07:43:15Z</time>
      </trkpt>
      <trkpt lat="49.0311" lon="2.13172">
        <ele>77.6</ele>
        <time>2022-09-25T07:43:20Z</time>
      </trkpt>
      <trkpt lat="49.03102" lon="2.13181">
        <ele>77.1</ele>
        <time>2022-09-25T07:43:26Z</time>
      </trkpt>
      <trkpt lat="49.03095" lon="2.1319">
        <ele>77.1</ele>
        <time>2022-09-25T07:43:32Z</time>
      </trkpt>
      <trkpt lat="49.03091" lon="2.13199">
        <ele>77.1</ele>
        <time>2022-09-25T07:43:38Z</time>
      </trkpt>
      <trkpt lat="49.03091" lon="2.13208">
        <ele>77.1</ele>
        <time>2022-09-25T07:43:43Z</time>
      </trkpt>
      <trkpt lat="49.0309" lon="2.13218">
        <ele>77.2</ele>
        <time>2022-09-25T07:43:48Z</time>
      </trkpt>
      <trkpt lat="49.03087" lon="2.1323">
        <ele>77.5</ele>
        <time>2022-09-25T07:43:54Z</time>
      </trkpt>
      <trkpt lat="49.03085" lon="2.13244">
        <ele>77.8</ele>
        <time>2022-09-25T07:44:00Z</time>
      </trkpt>
      <trkpt lat="49.03083" lon="2.13255">
        <ele>78</ele>
        <time>2022-09-25T07:44:05Z</time>
      </trkpt>
      <trkpt lat="49.03081" lon="2.13267">
        <ele>78.2</ele>
        <time>2022-09-25T07:44:11Z</time>
      </trkpt>
      <trkpt lat="49.03078" lon="2.13273">
        <ele>78.2</ele>
        <time>2022-09-25T07:44:16Z</time>
      </trkpt>
      <trkpt lat="49.03072" lon="2.1328">
        <ele>77.7</ele>
        <time>2022-09-25T07:44:22Z</time>
      </trkpt>
      <trkpt lat="49.03065" lon="2.13282">
        <ele>77.3</ele>
        <time>2022-09-25T07:44:28Z</time>
      </trkpt>
      <trkpt lat="49.03063" lon="2.13282">
        <ele>77.1</ele>
        <time>2022-09-25T07:44:33Z</time>
      </trkpt>
      <trkpt lat="49.03063" lon="2.13282">
        <ele>77</ele>
        <time>2022-09-25T07:44:39Z</time>
      </trkpt>
      <trkpt lat="49.03063" lon="2.13281">
        <ele>77</ele>
        <time>2022-09-25T07:44:45Z</time>
      </trkpt>
      <trkpt lat="49.0306" lon="2.13282">
        <ele>77</ele>
        <time>2022-09-25T07:44:50Z</time>
      </trkpt>
      <trkpt lat="49.03058" lon="2.13285">
        <ele>76.9</ele>
        <time>2022-09-25T07:44:55Z</time>
      </trkpt>
      <trkpt lat="49.03055" lon="2.13291">
        <ele>76.6</ele>
        <time>2022-09-25T07:45:00Z</time>
      </trkpt>
      <trkpt lat="49.03049" lon="2.13298">
        <ele>76.4</ele>
        <time>2022-09-25T07:45:06Z</time>
      </trkpt>
      <trkpt lat="49.03048" lon="2.133">
        <ele>76.4</ele>
        <time>2022-09-25T07:45:12Z</time>
      </trkpt>
      <trkpt lat="49.03048" lon="2.13301">
        <ele>76.5</ele>
        <time>2022-09-25T07:45:17Z</time>
      </trkpt>
      <trkpt lat="49.03048" lon="2.13301">
        <ele>76.5</ele>
        <time>2022-09-25T07:45:23Z</time>
      </trkpt>
      <trkpt lat="49.03048" lon="2.133">
        <ele>76.6</ele>
        <time>2022-09-25T07:45:28Z</time>
      </trkpt>
      <trkpt lat="49.03049" lon="2.133">
        <ele>76.7</ele>
        <time>2022-09-25T07:45:34Z</time>
      </trkpt>
      <trkpt lat="49.03049" lon="2.133">
        <ele>76.8</ele>
        <time>2022-09-25T07:45:40Z</time>
      </trkpt>
      <trkpt lat="49.03049" lon="2.133">
        <ele>76.9</ele>
        <time>2022-09-25T07:45:46Z</time>
      </trkpt>
      <trkpt lat="49.03051" lon="2.133">
        <ele>77</ele>
        <time>2022-09-25T07:45:52Z</time>
      </trkpt>
      <trkpt lat="49.03051" lon="2.13301">
        <ele>77.3</ele>
        <time>2022-09-25T07:45:57Z</time>
      </trkpt>
      <trkpt lat="49.0305" lon="2.13302">
        <ele>77.9</ele>
        <time>2022-09-25T07:46:02Z</time>
      </trkpt>
      <trkpt lat="49.03047" lon="2.13304">
        <ele>78.1</ele>
        <time>2022-09-25T07:46:08Z</time>
      </trkpt>
      <trkpt lat="49.03047" lon="2.13304">
        <ele>78.2</ele>
        <time>2022-09-25T07:46:13Z</time>
      </trkpt>
      <trkpt lat="49.03047" lon="2.13304">
        <ele>78.4</ele>
        <time>2022-09-25T07:46:19Z</time>
      </trkpt>
      <trkpt lat="49.03047" lon="2.13304">
        <ele>78.5</ele>
        <time>2022-09-25T07:46:24Z</time>
      </trkpt>
      <trkpt lat="49.03047" lon="2.13304">
        <ele>78.6</ele>
        <time>2022-09-25T07:46:30Z</time>
      </trkpt>
      <trkpt lat="49.03047" lon="2.13304">
        <ele>78.7</ele>
        <time>2022-09-25T07:46:35Z</time>
      </trkpt>
      <trkpt lat="49.03046" lon="2.13303">
        <ele>79.6</ele>
        <time>2022-09-25T07:46:41Z</time>
      </trkpt>
      <trkpt lat="49.03045" lon="2.13305">
        <ele>79.7</ele>
        <time>2022-09-25T07:46:46Z</time>
      </trkpt>
      <trkpt lat="49.03044" lon="2.13305">
        <ele>79.7</ele>
        <time>2022-09-25T07:46:52Z</time>
      </trkpt>
      <trkpt lat="49.03044" lon="2.13305">
        <ele>79.8</ele>
        <time>2022-09-25T07:46:58Z</time>
      </trkpt>
      <trkpt lat="49.03045" lon="2.13304">
        <ele>79.7</ele>
        <time>2022-09-25T07:47:04Z</time>
      </trkpt>
      <trkpt lat="49.03045" lon="2.13304">
        <ele>79.7</ele>
        <time>2022-09-25T07:47:09Z</time>
      </trkpt>
      <trkpt lat="49.03045" lon="2.13304">
        <ele>79.6</ele>
        <time>2022-09-25T07:47:15Z</time>
      </trkpt>
      <trkpt lat="49.03045" lon="2.13304">
        <ele>79.6</ele>
        <time>2022-09-25T07:47:21Z</time>
      </trkpt>
      <trkpt lat="49.03045" lon="2.13305">
        <ele>79.3</ele>
        <time>2022-09-25T07:47:26Z</time>
      </trkpt>
      <trkpt lat="49.03042" lon="2.13313">
        <ele>78.9</ele>
        <time>2022-09-25T07:47:32Z</time>
      </trkpt>
      <trkpt lat="49.0304" lon="2.13321">
        <ele>78.8</ele>
        <time>2022-09-25T07:47:37Z</time>
      </trkpt>
      <trkpt lat="49.03037" lon="2.13332">
        <ele>78.4</ele>
        <time>2022-09-25T07:47:43Z</time>
      </trkpt>
      <trkpt lat="49.03033" lon="2.13344">
        <ele>77.8</ele>
        <time>2022-09-25T07:47:49Z</time>
      </trkpt>
      <trkpt lat="49.03031" lon="2.13352">
        <ele>77.5</ele>
        <time>2022-09-25T07:47:54Z</time>
      </trkpt>
      <trkpt lat="49.03028" lon="2.13361">
        <ele>77.2</ele>
        <time>2022-09-25T07:47:59Z</time>
      </trkpt>
      <trkpt lat="49.03023" lon="2.13372">
        <ele>76.8</ele>
        <time>2022-09-25T07:48:05Z</time>
      </trkpt>
      <trkpt lat="49.0302" lon="2.13378">
        <ele>76.3</ele>
        <time>2022-09-25T07:48:10Z</time>
      </trkpt>
      <trkpt lat="49.03017" lon="2.13388">
        <ele>75.5</ele>
        <time>2022-09-25T07:48:15Z</time>
      </trkpt>
      <trkpt lat="49.03012" lon="2.134">
        <ele>74.7</ele>
        <time>2022-09-25T07:48:21Z</time>
      </trkpt>
      <trkpt lat="49.03009" lon="2.13409">
        <ele>74.3</ele>
        <time>2022-09-25T07:48:26Z</time>
      </trkpt>
      <trkpt lat="49.03006" lon="2.13421">
        <ele>74</ele>
        <time>2022-09-25T07:48:32Z</time>
      </trkpt>
      <trkpt lat="49.03002" lon="2.13432">
        <ele>73.7</ele>
        <time>2022-09-25T07:48:38Z</time>
      </trkpt>
      <trkpt lat="49.02999" lon="2.1344">
        <ele>73.6</ele>
        <time>2022-09-25T07:48:43Z</time>
      </trkpt>
      <trkpt lat="49.02995" lon="2.13454">
        <ele>73.5</ele>
        <time>2022-09-25T07:48:49Z</time>
      </trkpt>
      <trkpt lat="49.02992" lon="2.13463">
        <ele>73.5</ele>
        <time>2022-09-25T07:48:54Z</time>
      </trkpt>
      <trkpt lat="49.02989" lon="2.13472">
        <ele>73.4</ele>
        <time>2022-09-25T07:48:59Z</time>
      </trkpt>
      <trkpt lat="49.02986" lon="2.13482">
        <ele>73.4</ele>
        <time>2022-09-25T07:49:05Z</time>
      </trkpt>
      <trkpt lat="49.02982" lon="2.13492">
        <ele>73.3</ele>
        <time>2022-09-25T07:49:10Z</time>
      </trkpt>
      <trkpt lat="49.02978" lon="2.13502">
        <ele>73.1</ele>
        <time>2022-09-25T07:49:15Z</time>
      </trkpt>
      <trkpt lat="49.02975" lon="2.13512">
        <ele>73.1</ele>
        <time>2022-09-25T07:49:21Z</time>
      </trkpt>
      <trkpt lat="49.02971" lon="2.13522">
        <ele>73.1</ele>
        <time>2022-09-25T07:49:27Z</time>
      </trkpt>
      <trkpt lat="49.02967" lon="2.13531">
        <ele>73.1</ele>
        <time>2022-09-25T07:49:32Z</time>
      </trkpt>
      <trkpt lat="49.02961" lon="2.13544">
        <ele>73</ele>
        <time>2022-09-25T07:49:38Z</time>
      </trkpt>
      <trkpt lat="49.02957" lon="2.13555">
        <ele>72.9</ele>
        <time>2022-09-25T07:49:43Z</time>
      </trkpt>
      <trkpt lat="49.02953" lon="2.13566">
        <ele>72.7</ele>
        <time>2022-09-25T07:49:48Z</time>
      </trkpt>
      <trkpt lat="49.02949" lon="2.13577">
        <ele>72.6</ele>
        <time>2022-09-25T07:49:54Z</time>
      </trkpt>
      <trkpt lat="49.02945" lon="2.13586">
        <ele>72.7</ele>
        <time>2022-09-25T07:49:59Z</time>
      </trkpt>
      <trkpt lat="49.0294" lon="2.13599">
        <ele>72.9</ele>
        <time>2022-09-25T07:50:05Z</time>
      </trkpt>
      <trkpt lat="49.02934" lon="2.13613">
        <ele>73.3</ele>
        <time>2022-09-25T07:50:11Z</time>
      </trkpt>
      <trkpt lat="49.0293" lon="2.13625">
        <ele>73.7</ele>
        <time>2022-09-25T07:50:17Z</time>
      </trkpt>
      <trkpt lat="49.02927" lon="2.13632">
        <ele>74.2</ele>
        <time>2022-09-25T07:50:22Z</time>
      </trkpt>
      <trkpt lat="49.02922" lon="2.13643">
        <ele>74.6</ele>
        <time>2022-09-25T07:50:28Z</time>
      </trkpt>
      <trkpt lat="49.02917" lon="2.13657">
        <ele>75</ele>
        <time>2022-09-25T07:50:34Z</time>
      </trkpt>
      <trkpt lat="49.02913" lon="2.13669">
        <ele>75.2</ele>
        <time>2022-09-25T07:50:40Z</time>
      </trkpt>
      <trkpt lat="49.02909" lon="2.13682">
        <ele>75.3</ele>
        <time>2022-09-25T07:50:46Z</time>
      </trkpt>
      <trkpt lat="49.02905" lon="2.1369">
        <ele>75.3</ele>
        <time>2022-09-25T07:50:51Z</time>
      </trkpt>
      <trkpt lat="49.02902" lon="2.13701">
        <ele>75.5</ele>
        <time>2022-09-25T07:50:57Z</time>
      </trkpt>
      <trkpt lat="49.02899" lon="2.13712">
        <ele>76.1</ele>
        <time>2022-09-25T07:51:02Z</time>
      </trkpt>
      <trkpt lat="49.02895" lon="2.13723">
        <ele>76.9</ele>
        <time>2022-09-25T07:51:08Z</time>
      </trkpt>
      <trkpt lat="49.0289" lon="2.13735">
        <ele>77.5</ele>
        <time>2022-09-25T07:51:14Z</time>
      </trkpt>
      <trkpt lat="49.02888" lon="2.13742">
        <ele>77.7</ele>
        <time>2022-09-25T07:51:19Z</time>
      </trkpt>
      <trkpt lat="49.02883" lon="2.13752">
        <ele>77.7</ele>
        <time>2022-09-25T07:51:25Z</time>
      </trkpt>
      <trkpt lat="49.02879" lon="2.13766">
        <ele>77.7</ele>
        <time>2022-09-25T07:51:31Z</time>
      </trkpt>
      <trkpt lat="49.02877" lon="2.13774">
        <ele>77.7</ele>
        <time>2022-09-25T07:51:36Z</time>
      </trkpt>
      <trkpt lat="49.02874" lon="2.13787">
        <ele>77.9</ele>
        <time>2022-09-25T07:51:42Z</time>
      </trkpt>
      <trkpt lat="49.02871" lon="2.13799">
        <ele>78.1</ele>
        <time>2022-09-25T07:51:48Z</time>
      </trkpt>
      <trkpt lat="49.02869" lon="2.1381">
        <ele>78.3</ele>
        <time>2022-09-25T07:51:54Z</time>
      </trkpt>
      <trkpt lat="49.02867" lon="2.1382">
        <ele>78.6</ele>
        <time>2022-09-25T07:52:00Z</time>
      </trkpt>
      <trkpt lat="49.02862" lon="2.13831">
        <ele>78.9</ele>
        <time>2022-09-25T07:52:06Z</time>
      </trkpt>
      <trkpt lat="49.02857" lon="2.1384">
        <ele>79.3</ele>
        <time>2022-09-25T07:52:12Z</time>
      </trkpt>
      <trkpt lat="49.02852" lon="2.1385">
        <ele>79.9</ele>
        <time>2022-09-25T07:52:18Z</time>
      </trkpt>
      <trkpt lat="49.02849" lon="2.1386">
        <ele>80.5</ele>
        <time>2022-09-25T07:52:24Z</time>
      </trkpt>
      <trkpt lat="49.02846" lon="2.13869">
        <ele>81</ele>
        <time>2022-09-25T07:52:29Z</time>
      </trkpt>
      <trkpt lat="49.02842" lon="2.13879">
        <ele>81.6</ele>
        <time>2022-09-25T07:52:35Z</time>
      </trkpt>
      <trkpt lat="49.02839" lon="2.13889">
        <ele>82.2</ele>
        <time>2022-09-25T07:52:40Z</time>
      </trkpt>
      <trkpt lat="49.02835" lon="2.13898">
        <ele>82.9</ele>
        <time>2022-09-25T07:52:46Z</time>
      </trkpt>
      <trkpt lat="49.02833" lon="2.13905">
        <ele>83.5</ele>
        <time>2022-09-25T07:52:51Z</time>
      </trkpt>
      <trkpt lat="49.02829" lon="2.1392">
        <ele>84</ele>
        <time>2022-09-25T07:52:58Z</time>
      </trkpt>
      <trkpt lat="49.02825" lon="2.13939">
        <ele>84.5</ele>
        <time>2022-09-25T07:53:03Z</time>
      </trkpt>
      <trkpt lat="49.02823" lon="2.1395">
        <ele>85</ele>
        <time>2022-09-25T07:53:08Z</time>
      </trkpt>
      <trkpt lat="49.02821" lon="2.13961">
        <ele>85.7</ele>
        <time>2022-09-25T07:53:14Z</time>
      </trkpt>
      <trkpt lat="49.0282" lon="2.13974">
        <ele>86.5</ele>
        <time>2022-09-25T07:53:20Z</time>
      </trkpt>
      <trkpt lat="49.02819" lon="2.13984">
        <ele>87.2</ele>
        <time>2022-09-25T07:53:26Z</time>
      </trkpt>
      <trkpt lat="49.02817" lon="2.13996">
        <ele>87.7</ele>
        <time>2022-09-25T07:53:31Z</time>
      </trkpt>
      <trkpt lat="49.02814" lon="2.14008">
        <ele>88</ele>
        <time>2022-09-25T07:53:36Z</time>
      </trkpt>
      <trkpt lat="49.02812" lon="2.14019">
        <ele>88.2</ele>
        <time>2022-09-25T07:53:42Z</time>
      </trkpt>
      <trkpt lat="49.0281" lon="2.14029">
        <ele>88.2</ele>
        <time>2022-09-25T07:53:47Z</time>
      </trkpt>
      <trkpt lat="49.02807" lon="2.1404">
        <ele>88.3</ele>
        <time>2022-09-25T07:53:53Z</time>
      </trkpt>
      <trkpt lat="49.02804" lon="2.14055">
        <ele>88.5</ele>
        <time>2022-09-25T07:53:59Z</time>
      </trkpt>
      <trkpt lat="49.02801" lon="2.14065">
        <ele>88.7</ele>
        <time>2022-09-25T07:54:04Z</time>
      </trkpt>
      <trkpt lat="49.02797" lon="2.1408">
        <ele>89</ele>
        <time>2022-09-25T07:54:10Z</time>
      </trkpt>
      <trkpt lat="49.02795" lon="2.14092">
        <ele>89.3</ele>
        <time>2022-09-25T07:54:16Z</time>
      </trkpt>
      <trkpt lat="49.02792" lon="2.14101">
        <ele>89.4</ele>
        <time>2022-09-25T07:54:22Z</time>
      </trkpt>
      <trkpt lat="49.02789" lon="2.14111">
        <ele>89.3</ele>
        <time>2022-09-25T07:54:27Z</time>
      </trkpt>
      <trkpt lat="49.02786" lon="2.14118">
        <ele>89</ele>
        <time>2022-09-25T07:54:33Z</time>
      </trkpt>
      <trkpt lat="49.02784" lon="2.14127">
        <ele>88.6</ele>
        <time>2022-09-25T07:54:38Z</time>
      </trkpt>
      <trkpt lat="49.02781" lon="2.1414">
        <ele>88</ele>
        <time>2022-09-25T07:54:43Z</time>
      </trkpt>
      <trkpt lat="49.02775" lon="2.14155">
        <ele>87.4</ele>
        <time>2022-09-25T07:54:49Z</time>
      </trkpt>
      <trkpt lat="49.02769" lon="2.14168">
        <ele>87</ele>
        <time>2022-09-25T07:54:56Z</time>
      </trkpt>
      <trkpt lat="49.02763" lon="2.14182">
        <ele>86.8</ele>
        <time>2022-09-25T07:55:01Z</time>
      </trkpt>
      <trkpt lat="49.02759" lon="2.1419">
        <ele>86.9</ele>
        <time>2022-09-25T07:55:07Z</time>
      </trkpt>
      <trkpt lat="49.02758" lon="2.14199">
        <ele>87.2</ele>
        <time>2022-09-25T07:55:12Z</time>
      </trkpt>
      <trkpt lat="49.02754" lon="2.14207">
        <ele>87.3</ele>
        <time>2022-09-25T07:55:17Z</time>
      </trkpt>
      <trkpt lat="49.02749" lon="2.14218">
        <ele>87.3</ele>
        <time>2022-09-25T07:55:22Z</time>
      </trkpt>
      <trkpt lat="49.02745" lon="2.1423">
        <ele>87.4</ele>
        <time>2022-09-25T07:55:28Z</time>
      </trkpt>
      <trkpt lat="49.02741" lon="2.14241">
        <ele>87.4</ele>
        <time>2022-09-25T07:55:34Z</time>
      </trkpt>
      <trkpt lat="49.02737" lon="2.14253">
        <ele>87.3</ele>
        <time>2022-09-25T07:55:40Z</time>
      </trkpt>
      <trkpt lat="49.02733" lon="2.14266">
        <ele>87</ele>
        <time>2022-09-25T07:55:46Z</time>
      </trkpt>
      <trkpt lat="49.0273" lon="2.14278">
        <ele>86.9</ele>
        <time>2022-09-25T07:55:52Z</time>
      </trkpt>
      <trkpt lat="49.02727" lon="2.14289">
        <ele>87.1</ele>
        <time>2022-09-25T07:55:57Z</time>
      </trkpt>
      <trkpt lat="49.02723" lon="2.143">
        <ele>87.4</ele>
        <time>2022-09-25T07:56:02Z</time>
      </trkpt>
      <trkpt lat="49.0272" lon="2.1431">
        <ele>88.1</ele>
        <time>2022-09-25T07:56:08Z</time>
      </trkpt>
      <trkpt lat="49.02715" lon="2.14323">
        <ele>88.8</ele>
        <time>2022-09-25T07:56:13Z</time>
      </trkpt>
      <trkpt lat="49.0271" lon="2.14336">
        <ele>89.6</ele>
        <time>2022-09-25T07:56:19Z</time>
      </trkpt>
      <trkpt lat="49.02707" lon="2.14345">
        <ele>90.2</ele>
        <time>2022-09-25T07:56:24Z</time>
      </trkpt>
      <trkpt lat="49.02705" lon="2.14352">
        <ele>90.8</ele>
        <time>2022-09-25T07:56:29Z</time>
      </trkpt>
      <trkpt lat="49.027" lon="2.14365">
        <ele>91.4</ele>
        <time>2022-09-25T07:56:35Z</time>
      </trkpt>
      <trkpt lat="49.02697" lon="2.14373">
        <ele>91.5</ele>
        <time>2022-09-25T07:56:40Z</time>
      </trkpt>
      <trkpt lat="49.02693" lon="2.14386">
        <ele>91.4</ele>
        <time>2022-09-25T07:56:46Z</time>
      </trkpt>
      <trkpt lat="49.0269" lon="2.144">
        <ele>91.3</ele>
        <time>2022-09-25T07:56:51Z</time>
      </trkpt>
      <trkpt lat="49.02686" lon="2.14412">
        <ele>91</ele>
        <time>2022-09-25T07:56:57Z</time>
      </trkpt>
      <trkpt lat="49.02683" lon="2.14422">
        <ele>90.8</ele>
        <time>2022-09-25T07:57:02Z</time>
      </trkpt>
      <trkpt lat="49.02678" lon="2.14434">
        <ele>90.6</ele>
        <time>2022-09-25T07:57:08Z</time>
      </trkpt>
      <trkpt lat="49.02675" lon="2.14446">
        <ele>90.3</ele>
        <time>2022-09-25T07:57:14Z</time>
      </trkpt>
      <trkpt lat="49.02671" lon="2.14457">
        <ele>90</ele>
        <time>2022-09-25T07:57:20Z</time>
      </trkpt>
      <trkpt lat="49.02668" lon="2.14466">
        <ele>89.5</ele>
        <time>2022-09-25T07:57:25Z</time>
      </trkpt>
      <trkpt lat="49.02665" lon="2.14476">
        <ele>89.2</ele>
        <time>2022-09-25T07:57:30Z</time>
      </trkpt>
      <trkpt lat="49.02661" lon="2.14489">
        <ele>89</ele>
        <time>2022-09-25T07:57:36Z</time>
      </trkpt>
      <trkpt lat="49.02657" lon="2.145">
        <ele>88.7</ele>
        <time>2022-09-25T07:57:41Z</time>
      </trkpt>
      <trkpt lat="49.02654" lon="2.14513">
        <ele>88.2</ele>
        <time>2022-09-25T07:57:47Z</time>
      </trkpt>
      <trkpt lat="49.02649" lon="2.14526">
        <ele>87.6</ele>
        <time>2022-09-25T07:57:53Z</time>
      </trkpt>
      <trkpt lat="49.02645" lon="2.1454">
        <ele>87.3</ele>
        <time>2022-09-25T07:57:59Z</time>
      </trkpt>
      <trkpt lat="49.02641" lon="2.1455">
        <ele>87.2</ele>
        <time>2022-09-25T07:58:04Z</time>
      </trkpt>
      <trkpt lat="49.02637" lon="2.14562">
        <ele>87</ele>
        <time>2022-09-25T07:58:10Z</time>
      </trkpt>
      <trkpt lat="49.02633" lon="2.14574">
        <ele>86.8</ele>
        <time>2022-09-25T07:58:16Z</time>
      </trkpt>
      <trkpt lat="49.02628" lon="2.14588">
        <ele>86.8</ele>
        <time>2022-09-25T07:58:22Z</time>
      </trkpt>
      <trkpt lat="49.02626" lon="2.14598">
        <ele>86.7</ele>
        <time>2022-09-25T07:58:27Z</time>
      </trkpt>
      <trkpt lat="49.02623" lon="2.14609">
        <ele>86.6</ele>
        <time>2022-09-25T07:58:32Z</time>
      </trkpt>
      <trkpt lat="49.0262" lon="2.14619">
        <ele>86.8</ele>
        <time>2022-09-25T07:58:37Z</time>
      </trkpt>
      <trkpt lat="49.02617" lon="2.14631">
        <ele>87</ele>
        <time>2022-09-25T07:58:43Z</time>
      </trkpt>
      <trkpt lat="49.02613" lon="2.14641">
        <ele>87.2</ele>
        <time>2022-09-25T07:58:48Z</time>
      </trkpt>
      <trkpt lat="49.02612" lon="2.14655">
        <ele>87.5</ele>
        <time>2022-09-25T07:58:54Z</time>
      </trkpt>
      <trkpt lat="49.02613" lon="2.14666">
        <ele>88</ele>
        <time>2022-09-25T07:58:59Z</time>
      </trkpt>
      <trkpt lat="49.02619" lon="2.14674">
        <ele>88.3</ele>
        <time>2022-09-25T07:59:05Z</time>
      </trkpt>
      <trkpt lat="49.02626" lon="2.14681">
        <ele>88.7</ele>
        <time>2022-09-25T07:59:11Z</time>
      </trkpt>
      <trkpt lat="49.02633" lon="2.14687">
        <ele>89</ele>
        <time>2022-09-25T07:59:17Z</time>
      </trkpt>
      <trkpt lat="49.02639" lon="2.14695">
        <ele>89.1</ele>
        <time>2022-09-25T07:59:23Z</time>
      </trkpt>
      <trkpt lat="49.02648" lon="2.14702">
        <ele>89.2</ele>
        <time>2022-09-25T07:59:29Z</time>
      </trkpt>
      <trkpt lat="49.02655" lon="2.14708">
        <ele>89.3</ele>
        <time>2022-09-25T07:59:34Z</time>
      </trkpt>
      <trkpt lat="49.02663" lon="2.14714">
        <ele>89.4</ele>
        <time>2022-09-25T07:59:39Z</time>
      </trkpt>
      <trkpt lat="49.02671" lon="2.14721">
        <ele>89.6</ele>
        <time>2022-09-25T07:59:45Z</time>
      </trkpt>
      <trkpt lat="49.02678" lon="2.14726">
        <ele>89.5</ele>
        <time>2022-09-25T07:59:51Z</time>
      </trkpt>
      <trkpt lat="49.02684" lon="2.14732">
        <ele>89.3</ele>
        <time>2022-09-25T07:59:56Z</time>
      </trkpt>
      <trkpt lat="49.02692" lon="2.14739">
        <ele>89.1</ele>
        <time>2022-09-25T08:00:02Z</time>
      </trkpt>
      <trkpt lat="49.02699" lon="2.14746">
        <ele>88.9</ele>
        <time>2022-09-25T08:00:07Z</time>
      </trkpt>
      <trkpt lat="49.02707" lon="2.14753">
        <ele>88.8</ele>
        <time>2022-09-25T08:00:12Z</time>
      </trkpt>
      <trkpt lat="49.02715" lon="2.14761">
        <ele>88.8</ele>
        <time>2022-09-25T08:00:18Z</time>
      </trkpt>
      <trkpt lat="49.0272" lon="2.14767">
        <ele>88.7</ele>
        <time>2022-09-25T08:00:23Z</time>
      </trkpt>
      <trkpt lat="49.02725" lon="2.14771">
        <ele>88.6</ele>
        <time>2022-09-25T08:00:29Z</time>
      </trkpt>
      <trkpt lat="49.02733" lon="2.14775">
        <ele>88.6</ele>
        <time>2022-09-25T08:00:35Z</time>
      </trkpt>
      <trkpt lat="49.02741" lon="2.14771">
        <ele>88.8</ele>
        <time>2022-09-25T08:00:40Z</time>
      </trkpt>
      <trkpt lat="49.02748" lon="2.14758">
        <ele>89.2</ele>
        <time>2022-09-25T08:00:46Z</time>
      </trkpt>
      <trkpt lat="49.02749" lon="2.1475">
        <ele>89.5</ele>
        <time>2022-09-25T08:00:52Z</time>
      </trkpt>
      <trkpt lat="49.02755" lon="2.14746">
        <ele>89.5</ele>
        <time>2022-09-25T08:00:57Z</time>
      </trkpt>
      <trkpt lat="49.0276" lon="2.14739">
        <ele>89.6</ele>
        <time>2022-09-25T08:01:02Z</time>
      </trkpt>
      <trkpt lat="49.02765" lon="2.14728">
        <ele>89.6</ele>
        <time>2022-09-25T08:01:08Z</time>
      </trkpt>
      <trkpt lat="49.0277" lon="2.14718">
        <ele>89.7</ele>
        <time>2022-09-25T08:01:13Z</time>
      </trkpt>
      <trkpt lat="49.02775" lon="2.1471">
        <ele>89.8</ele>
        <time>2022-09-25T08:01:19Z</time>
      </trkpt>
      <trkpt lat="49.02777" lon="2.14702">
        <ele>89.8</ele>
        <time>2022-09-25T08:01:24Z</time>
      </trkpt>
      <trkpt lat="49.02784" lon="2.14691">
        <ele>89.8</ele>
        <time>2022-09-25T08:01:30Z</time>
      </trkpt>
      <trkpt lat="49.02792" lon="2.14679">
        <ele>90</ele>
        <time>2022-09-25T08:01:36Z</time>
      </trkpt>
      <trkpt lat="49.02797" lon="2.14672">
        <ele>90.3</ele>
        <time>2022-09-25T08:01:41Z</time>
      </trkpt>
      <trkpt lat="49.02801" lon="2.14665">
        <ele>90.6</ele>
        <time>2022-09-25T08:01:46Z</time>
      </trkpt>
      <trkpt lat="49.02807" lon="2.14654">
        <ele>91</ele>
        <time>2022-09-25T08:01:52Z</time>
      </trkpt>
      <trkpt lat="49.02813" lon="2.14642">
        <ele>91.3</ele>
        <time>2022-09-25T08:01:58Z</time>
      </trkpt>
      <trkpt lat="49.02817" lon="2.14633">
        <ele>91.5</ele>
        <time>2022-09-25T08:02:04Z</time>
      </trkpt>
      <trkpt lat="49.02822" lon="2.14624">
        <ele>91.5</ele>
        <time>2022-09-25T08:02:10Z</time>
      </trkpt>
      <trkpt lat="49.0283" lon="2.14613">
        <ele>91.6</ele>
        <time>2022-09-25T08:02:16Z</time>
      </trkpt>
      <trkpt lat="49.02837" lon="2.14601">
        <ele>91.8</ele>
        <time>2022-09-25T08:02:22Z</time>
      </trkpt>
      <trkpt lat="49.02842" lon="2.14591">
        <ele>92</ele>
        <time>2022-09-25T08:02:28Z</time>
      </trkpt>
      <trkpt lat="49.02847" lon="2.14585">
        <ele>92.1</ele>
        <time>2022-09-25T08:02:33Z</time>
      </trkpt>
      <trkpt lat="49.02852" lon="2.14578">
        <ele>92.2</ele>
        <time>2022-09-25T08:02:38Z</time>
      </trkpt>
      <trkpt lat="49.02858" lon="2.14567">
        <ele>92.2</ele>
        <time>2022-09-25T08:02:44Z</time>
      </trkpt>
      <trkpt lat="49.02865" lon="2.14557">
        <ele>92.2</ele>
        <time>2022-09-25T08:02:49Z</time>
      </trkpt>
      <trkpt lat="49.0287" lon="2.14548">
        <ele>92.3</ele>
        <time>2022-09-25T08:02:54Z</time>
      </trkpt>
      <trkpt lat="49.02874" lon="2.1454">
        <ele>92.5</ele>
        <time>2022-09-25T08:02:59Z</time>
      </trkpt>
      <trkpt lat="49.02879" lon="2.14535">
        <ele>92.6</ele>
        <time>2022-09-25T08:03:04Z</time>
      </trkpt>
      <trkpt lat="49.02887" lon="2.14524">
        <ele>92.6</ele>
        <time>2022-09-25T08:03:10Z</time>
      </trkpt>
      <trkpt lat="49.02894" lon="2.14514">
        <ele>92.6</ele>
        <time>2022-09-25T08:03:16Z</time>
      </trkpt>
      <trkpt lat="49.02899" lon="2.14504">
        <ele>92.6</ele>
        <time>2022-09-25T08:03:22Z</time>
      </trkpt>
      <trkpt lat="49.02905" lon="2.14496">
        <ele>92.6</ele>
        <time>2022-09-25T08:03:28Z</time>
      </trkpt>
      <trkpt lat="49.02911" lon="2.14486">
        <ele>92.5</ele>
        <time>2022-09-25T08:03:34Z</time>
      </trkpt>
      <trkpt lat="49.02917" lon="2.14477">
        <ele>92.4</ele>
        <time>2022-09-25T08:03:39Z</time>
      </trkpt>
      <trkpt lat="49.02921" lon="2.14468">
        <ele>92.3</ele>
        <time>2022-09-25T08:03:44Z</time>
      </trkpt>
      <trkpt lat="49.02927" lon="2.14459">
        <ele>92.3</ele>
        <time>2022-09-25T08:03:50Z</time>
      </trkpt>
      <trkpt lat="49.02932" lon="2.14451">
        <ele>92.3</ele>
        <time>2022-09-25T08:03:55Z</time>
      </trkpt>
      <trkpt lat="49.02937" lon="2.14442">
        <ele>92.4</ele>
        <time>2022-09-25T08:04:00Z</time>
      </trkpt>
      <trkpt lat="49.02943" lon="2.14432">
        <ele>92.3</ele>
        <time>2022-09-25T08:04:06Z</time>
      </trkpt>
      <trkpt lat="49.02949" lon="2.14423">
        <ele>92.3</ele>
        <time>2022-09-25T08:04:11Z</time>
      </trkpt>
      <trkpt lat="49.02955" lon="2.14414">
        <ele>92.5</ele>
        <time>2022-09-25T08:04:16Z</time>
      </trkpt>
      <trkpt lat="49.0296" lon="2.14403">
        <ele>92.7</ele>
        <time>2022-09-25T08:04:22Z</time>
      </trkpt>
      <trkpt lat="49.02966" lon="2.14395">
        <ele>92.9</ele>
        <time>2022-09-25T08:04:27Z</time>
      </trkpt>
      <trkpt lat="49.0297" lon="2.14387">
        <ele>92.9</ele>
        <time>2022-09-25T08:04:32Z</time>
      </trkpt>
      <trkpt lat="49.02974" lon="2.14377">
        <ele>92.7</ele>
        <time>2022-09-25T08:04:38Z</time>
      </trkpt>
      <trkpt lat="49.02978" lon="2.14368">
        <ele>92.5</ele>
        <time>2022-09-25T08:04:43Z</time>
      </trkpt>
      <trkpt lat="49.02985" lon="2.14356">
        <ele>92.5</ele>
        <time>2022-09-25T08:04:49Z</time>
      </trkpt>
      <trkpt lat="49.02991" lon="2.14347">
        <ele>92.7</ele>
        <time>2022-09-25T08:04:54Z</time>
      </trkpt>
      <trkpt lat="49.02996" lon="2.14337">
        <ele>92.9</ele>
        <time>2022-09-25T08:05:00Z</time>
      </trkpt>
      <trkpt lat="49.03001" lon="2.14329">
        <ele>92.8</ele>
        <time>2022-09-25T08:05:05Z</time>
      </trkpt>
      <trkpt lat="49.03007" lon="2.14319">
        <ele>92.6</ele>
        <time>2022-09-25T08:05:11Z</time>
      </trkpt>
      <trkpt lat="49.03013" lon="2.14308">
        <ele>92.4</ele>
        <time>2022-09-25T08:05:17Z</time>
      </trkpt>
      <trkpt lat="49.03018" lon="2.14298">
        <ele>92.4</ele>
        <time>2022-09-25T08:05:22Z</time>
      </trkpt>
      <trkpt lat="49.03024" lon="2.14288">
        <ele>92.5</ele>
        <time>2022-09-25T08:05:28Z</time>
      </trkpt>
      <trkpt lat="49.03028" lon="2.14281">
        <ele>92.5</ele>
        <time>2022-09-25T08:05:34Z</time>
      </trkpt>
      <trkpt lat="49.03036" lon="2.14272">
        <ele>92.5</ele>
        <time>2022-09-25T08:05:40Z</time>
      </trkpt>
      <trkpt lat="49.03042" lon="2.14262">
        <ele>92.5</ele>
        <time>2022-09-25T08:05:45Z</time>
      </trkpt>
      <trkpt lat="49.03047" lon="2.14252">
        <ele>92.6</ele>
        <time>2022-09-25T08:05:51Z</time>
      </trkpt>
      <trkpt lat="49.03055" lon="2.14244">
        <ele>92.5</ele>
        <time>2022-09-25T08:05:57Z</time>
      </trkpt>
      <trkpt lat="49.03059" lon="2.14237">
        <ele>92.4</ele>
        <time>2022-09-25T08:06:02Z</time>
      </trkpt>
      <trkpt lat="49.03067" lon="2.14227">
        <ele>92.3</ele>
        <time>2022-09-25T08:06:08Z</time>
      </trkpt>
      <trkpt lat="49.03074" lon="2.14216">
        <ele>92.3</ele>
        <time>2022-09-25T08:06:14Z</time>
      </trkpt>
      <trkpt lat="49.03079" lon="2.14206">
        <ele>92.3</ele>
        <time>2022-09-25T08:06:19Z</time>
      </trkpt>
      <trkpt lat="49.03084" lon="2.14195">
        <ele>92.4</ele>
        <time>2022-09-25T08:06:25Z</time>
      </trkpt>
      <trkpt lat="49.0309" lon="2.14187">
        <ele>92.6</ele>
        <time>2022-09-25T08:06:30Z</time>
      </trkpt>
      <trkpt lat="49.03095" lon="2.1418">
        <ele>92.8</ele>
        <time>2022-09-25T08:06:36Z</time>
      </trkpt>
      <trkpt lat="49.03101" lon="2.14171">
        <ele>93</ele>
        <time>2022-09-25T08:06:41Z</time>
      </trkpt>
      <trkpt lat="49.03107" lon="2.1416">
        <ele>93.2</ele>
        <time>2022-09-25T08:06:47Z</time>
      </trkpt>
      <trkpt lat="49.03111" lon="2.14149">
        <ele>93.4</ele>
        <time>2022-09-25T08:06:52Z</time>
      </trkpt>
      <trkpt lat="49.03117" lon="2.14138">
        <ele>93.7</ele>
        <time>2022-09-25T08:06:58Z</time>
      </trkpt>
      <trkpt lat="49.03121" lon="2.1413">
        <ele>94</ele>
        <time>2022-09-25T08:07:03Z</time>
      </trkpt>
      <trkpt lat="49.03125" lon="2.14121">
        <ele>94.2</ele>
        <time>2022-09-25T08:07:09Z</time>
      </trkpt>
      <trkpt lat="49.0313" lon="2.14112">
        <ele>94.3</ele>
        <time>2022-09-25T08:07:14Z</time>
      </trkpt>
      <trkpt lat="49.03136" lon="2.14101">
        <ele>94.6</ele>
        <time>2022-09-25T08:07:20Z</time>
      </trkpt>
      <trkpt lat="49.03143" lon="2.1409">
        <ele>94.9</ele>
        <time>2022-09-25T08:07:26Z</time>
      </trkpt>
      <trkpt lat="49.0315" lon="2.14081">
        <ele>95</ele>
        <time>2022-09-25T08:07:31Z</time>
      </trkpt>
      <trkpt lat="49.03157" lon="2.1407">
        <ele>95.3</ele>
        <time>2022-09-25T08:07:37Z</time>
      </trkpt>
      <trkpt lat="49.03162" lon="2.14062">
        <ele>95.6</ele>
        <time>2022-09-25T08:07:42Z</time>
      </trkpt>
      <trkpt lat="49.03167" lon="2.14053">
        <ele>95.8</ele>
        <time>2022-09-25T08:07:48Z</time>
      </trkpt>
      <trkpt lat="49.03172" lon="2.14043">
        <ele>96.1</ele>
        <time>2022-09-25T08:07:54Z</time>
      </trkpt>
      <trkpt lat="49.03176" lon="2.14034">
        <ele>96.3</ele>
        <time>2022-09-25T08:07:59Z</time>
      </trkpt>
      <trkpt lat="49.03182" lon="2.14023">
        <ele>96.5</ele>
        <time>2022-09-25T08:08:05Z</time>
      </trkpt>
      <trkpt lat="49.03187" lon="2.14013">
        <ele>96.7</ele>
        <time>2022-09-25T08:08:10Z</time>
      </trkpt>
      <trkpt lat="49.03192" lon="2.14004">
        <ele>96.9</ele>
        <time>2022-09-25T08:08:15Z</time>
      </trkpt>
      <trkpt lat="49.03197" lon="2.13994">
        <ele>97.1</ele>
        <time>2022-09-25T08:08:21Z</time>
      </trkpt>
      <trkpt lat="49.03202" lon="2.13987">
        <ele>97.4</ele>
        <time>2022-09-25T08:08:26Z</time>
      </trkpt>
      <trkpt lat="49.03208" lon="2.13978">
        <ele>97.7</ele>
        <time>2022-09-25T08:08:32Z</time>
      </trkpt>
      <trkpt lat="49.03213" lon="2.13966">
        <ele>98</ele>
        <time>2022-09-25T08:08:37Z</time>
      </trkpt>
      <trkpt lat="49.03218" lon="2.13954">
        <ele>98.2</ele>
        <time>2022-09-25T08:08:43Z</time>
      </trkpt>
      <trkpt lat="49.03223" lon="2.13946">
        <ele>98.3</ele>
        <time>2022-09-25T08:08:48Z</time>
      </trkpt>
      <trkpt lat="49.03226" lon="2.13939">
        <ele>98.3</ele>
        <time>2022-09-25T08:08:53Z</time>
      </trkpt>
      <trkpt lat="49.03229" lon="2.13929">
        <ele>98.2</ele>
        <time>2022-09-25T08:08:59Z</time>
      </trkpt>
      <trkpt lat="49.03234" lon="2.13919">
        <ele>98.1</ele>
        <time>2022-09-25T08:09:04Z</time>
      </trkpt>
      <trkpt lat="49.0324" lon="2.13904">
        <ele>98</ele>
        <time>2022-09-25T08:09:10Z</time>
      </trkpt>
      <trkpt lat="49.03245" lon="2.13892">
        <ele>98.1</ele>
        <time>2022-09-25T08:09:15Z</time>
      </trkpt>
      <trkpt lat="49.0325" lon="2.13881">
        <ele>98.2</ele>
        <time>2022-09-25T08:09:21Z</time>
      </trkpt>
      <trkpt lat="49.03254" lon="2.13873">
        <ele>98.3</ele>
        <time>2022-09-25T08:09:27Z</time>
      </trkpt>
      <trkpt lat="49.03257" lon="2.13865">
        <ele>98.3</ele>
        <time>2022-09-25T08:09:32Z</time>
      </trkpt>
      <trkpt lat="49.03261" lon="2.13856">
        <ele>98.1</ele>
        <time>2022-09-25T08:09:38Z</time>
      </trkpt>
      <trkpt lat="49.03265" lon="2.13845">
        <ele>97.6</ele>
        <time>2022-09-25T08:09:44Z</time>
      </trkpt>
      <trkpt lat="49.0327" lon="2.13834">
        <ele>97.2</ele>
        <time>2022-09-25T08:09:49Z</time>
      </trkpt>
      <trkpt lat="49.03275" lon="2.13822">
        <ele>96.7</ele>
        <time>2022-09-25T08:09:54Z</time>
      </trkpt>
      <trkpt lat="49.0328" lon="2.13808">
        <ele>96.3</ele>
        <time>2022-09-25T08:10:00Z</time>
      </trkpt>
      <trkpt lat="49.03286" lon="2.13798">
        <ele>95.9</ele>
        <time>2022-09-25T08:10:05Z</time>
      </trkpt>
      <trkpt lat="49.03291" lon="2.13788">
        <ele>95.6</ele>
        <time>2022-09-25T08:10:11Z</time>
      </trkpt>
      <trkpt lat="49.03294" lon="2.13781">
        <ele>95.2</ele>
        <time>2022-09-25T08:10:16Z</time>
      </trkpt>
      <trkpt lat="49.03298" lon="2.13774">
        <ele>94.8</ele>
        <time>2022-09-25T08:10:21Z</time>
      </trkpt>
      <trkpt lat="49.03303" lon="2.13763">
        <ele>94.4</ele>
        <time>2022-09-25T08:10:27Z</time>
      </trkpt>
      <trkpt lat="49.03308" lon="2.13753">
        <ele>94</ele>
        <time>2022-09-25T08:10:32Z</time>
      </trkpt>
      <trkpt lat="49.03313" lon="2.1374">
        <ele>93.7</ele>
        <time>2022-09-25T08:10:38Z</time>
      </trkpt>
      <trkpt lat="49.03317" lon="2.13728">
        <ele>93.4</ele>
        <time>2022-09-25T08:10:43Z</time>
      </trkpt>
      <trkpt lat="49.03324" lon="2.13717">
        <ele>93.1</ele>
        <time>2022-09-25T08:10:49Z</time>
      </trkpt>
      <trkpt lat="49.03328" lon="2.13708">
        <ele>92.8</ele>
        <time>2022-09-25T08:10:55Z</time>
      </trkpt>
      <trkpt lat="49.03331" lon="2.137">
        <ele>92.4</ele>
        <time>2022-09-25T08:11:00Z</time>
      </trkpt>
      <trkpt lat="49.03335" lon="2.13692">
        <ele>92.2</ele>
        <time>2022-09-25T08:11:05Z</time>
      </trkpt>
      <trkpt lat="49.0334" lon="2.1368">
        <ele>91.9</ele>
        <time>2022-09-25T08:11:11Z</time>
      </trkpt>
      <trkpt lat="49.03346" lon="2.13666">
        <ele>91.9</ele>
        <time>2022-09-25T08:11:17Z</time>
      </trkpt>
      <trkpt lat="49.0335" lon="2.13654">
        <ele>91.9</ele>
        <time>2022-09-25T08:11:22Z</time>
      </trkpt>
      <trkpt lat="49.03355" lon="2.13643">
        <ele>91.9</ele>
        <time>2022-09-25T08:11:27Z</time>
      </trkpt>
      <trkpt lat="49.0336" lon="2.13632">
        <ele>92</ele>
        <time>2022-09-25T08:11:33Z</time>
      </trkpt>
      <trkpt lat="49.03363" lon="2.13622">
        <ele>91.8</ele>
        <time>2022-09-25T08:11:39Z</time>
      </trkpt>
      <trkpt lat="49.03366" lon="2.13615">
        <ele>91.6</ele>
        <time>2022-09-25T08:11:44Z</time>
      </trkpt>
      <trkpt lat="49.0337" lon="2.13606">
        <ele>91.3</ele>
        <time>2022-09-25T08:11:49Z</time>
      </trkpt>
      <trkpt lat="49.03374" lon="2.13598">
        <ele>91.1</ele>
        <time>2022-09-25T08:11:54Z</time>
      </trkpt>
      <trkpt lat="49.03379" lon="2.13584">
        <ele>90.9</ele>
        <time>2022-09-25T08:12:00Z</time>
      </trkpt>
      <trkpt lat="49.03385" lon="2.13571">
        <ele>90.8</ele>
        <time>2022-09-25T08:12:06Z</time>
      </trkpt>
      <trkpt lat="49.0339" lon="2.13559">
        <ele>90.8</ele>
        <time>2022-09-25T08:12:11Z</time>
      </trkpt>
      <trkpt lat="49.03395" lon="2.13548">
        <ele>90.9</ele>
        <time>2022-09-25T08:12:16Z</time>
      </trkpt>
      <trkpt lat="49.034" lon="2.13539">
        <ele>90.9</ele>
        <time>2022-09-25T08:12:21Z</time>
      </trkpt>
      <trkpt lat="49.03405" lon="2.13531">
        <ele>91</ele>
        <time>2022-09-25T08:12:27Z</time>
      </trkpt>
      <trkpt lat="49.03408" lon="2.13525">
        <ele>90.9</ele>
        <time>2022-09-25T08:12:32Z</time>
      </trkpt>
      <trkpt lat="49.03413" lon="2.13516">
        <ele>90.9</ele>
        <time>2022-09-25T08:12:38Z</time>
      </trkpt>
      <trkpt lat="49.03419" lon="2.13508">
        <ele>90.8</ele>
        <time>2022-09-25T08:12:43Z</time>
      </trkpt>
      <trkpt lat="49.03426" lon="2.13497">
        <ele>90.7</ele>
        <time>2022-09-25T08:12:49Z</time>
      </trkpt>
      <trkpt lat="49.03431" lon="2.13487">
        <ele>90.7</ele>
        <time>2022-09-25T08:12:54Z</time>
      </trkpt>
      <trkpt lat="49.03434" lon="2.13476">
        <ele>90.7</ele>
        <time>2022-09-25T08:12:59Z</time>
      </trkpt>
      <trkpt lat="49.03433" lon="2.13461">
        <ele>90.6</ele>
        <time>2022-09-25T08:13:05Z</time>
      </trkpt>
      <trkpt lat="49.0343" lon="2.13448">
        <ele>90.3</ele>
        <time>2022-09-25T08:13:11Z</time>
      </trkpt>
      <trkpt lat="49.03429" lon="2.13439">
        <ele>90</ele>
        <time>2022-09-25T08:13:16Z</time>
      </trkpt>
      <trkpt lat="49.03435" lon="2.13432">
        <ele>89.5</ele>
        <time>2022-09-25T08:13:22Z</time>
      </trkpt>
      <trkpt lat="49.0344" lon="2.13426">
        <ele>89.1</ele>
        <time>2022-09-25T08:13:27Z</time>
      </trkpt>
      <trkpt lat="49.03445" lon="2.13417">
        <ele>88.6</ele>
        <time>2022-09-25T08:13:33Z</time>
      </trkpt>
      <trkpt lat="49.03447" lon="2.13406">
        <ele>88.1</ele>
        <time>2022-09-25T08:13:39Z</time>
      </trkpt>
      <trkpt lat="49.0345" lon="2.13396">
        <ele>87.6</ele>
        <time>2022-09-25T08:13:44Z</time>
      </trkpt>
      <trkpt lat="49.03456" lon="2.13386">
        <ele>86.9</ele>
        <time>2022-09-25T08:13:50Z</time>
      </trkpt>
      <trkpt lat="49.0346" lon="2.13377">
        <ele>86.2</ele>
        <time>2022-09-25T08:13:55Z</time>
      </trkpt>
      <trkpt lat="49.03466" lon="2.13369">
        <ele>85.5</ele>
        <time>2022-09-25T08:14:00Z</time>
      </trkpt>
      <trkpt lat="49.03475" lon="2.13362">
        <ele>84.7</ele>
        <time>2022-09-25T08:14:06Z</time>
      </trkpt>
      <trkpt lat="49.03483" lon="2.13353">
        <ele>84</ele>
        <time>2022-09-25T08:14:12Z</time>
      </trkpt>
      <trkpt lat="49.0349" lon="2.13346">
        <ele>83.5</ele>
        <time>2022-09-25T08:14:17Z</time>
      </trkpt>
      <trkpt lat="49.03495" lon="2.13341">
        <ele>82.9</ele>
        <time>2022-09-25T08:14:23Z</time>
      </trkpt>
      <trkpt lat="49.03501" lon="2.13334">
        <ele>82.2</ele>
        <time>2022-09-25T08:14:29Z</time>
      </trkpt>
      <trkpt lat="49.03507" lon="2.13333">
        <ele>81.5</ele>
        <time>2022-09-25T08:14:34Z</time>
      </trkpt>
      <trkpt lat="49.03515" lon="2.13337">
        <ele>80.9</ele>
        <time>2022-09-25T08:14:40Z</time>
      </trkpt>
      <trkpt lat="49.03524" lon="2.1334">
        <ele>80.2</ele>
        <time>2022-09-25T08:14:45Z</time>
      </trkpt>
      <trkpt lat="49.0353" lon="2.13343">
        <ele>79.7</ele>
        <time>2022-09-25T08:14:50Z</time>
      </trkpt>
      <trkpt lat="49.0354" lon="2.13345">
        <ele>79.3</ele>
        <time>2022-09-25T08:14:56Z</time>
      </trkpt>
      <trkpt lat="49.03549" lon="2.13346">
        <ele>79.1</ele>
        <time>2022-09-25T08:15:01Z</time>
      </trkpt>
      <trkpt lat="49.03559" lon="2.13346">
        <ele>79.1</ele>
        <time>2022-09-25T08:15:07Z</time>
      </trkpt>
      <trkpt lat="49.03567" lon="2.13346">
        <ele>79</ele>
        <time>2022-09-25T08:15:12Z</time>
      </trkpt>
      <trkpt lat="49.03577" lon="2.13346">
        <ele>79</ele>
        <time>2022-09-25T08:15:18Z</time>
      </trkpt>
      <trkpt lat="49.03584" lon="2.13346">
        <ele>79</ele>
        <time>2022-09-25T08:15:23Z</time>
      </trkpt>
      <trkpt lat="49.03592" lon="2.13347">
        <ele>78.9</ele>
        <time>2022-09-25T08:15:29Z</time>
      </trkpt>
      <trkpt lat="49.036" lon="2.13348">
        <ele>78.8</ele>
        <time>2022-09-25T08:15:34Z</time>
      </trkpt>
      <trkpt lat="49.03608" lon="2.13352">
        <ele>78.7</ele>
        <time>2022-09-25T08:15:40Z</time>
      </trkpt>
      <trkpt lat="49.03616" lon="2.13358">
        <ele>78.7</ele>
        <time>2022-09-25T08:15:46Z</time>
      </trkpt>
      <trkpt lat="49.03622" lon="2.13364">
        <ele>78.8</ele>
        <time>2022-09-25T08:15:51Z</time>
      </trkpt>
      <trkpt lat="49.03628" lon="2.13371">
        <ele>78.9</ele>
        <time>2022-09-25T08:15:56Z</time>
      </trkpt>
      <trkpt lat="49.03634" lon="2.13378">
        <ele>79.1</ele>
        <time>2022-09-25T08:16:02Z</time>
      </trkpt>
      <trkpt lat="49.03639" lon="2.13385">
        <ele>79.2</ele>
        <time>2022-09-25T08:16:07Z</time>
      </trkpt>
      <trkpt lat="49.03646" lon="2.13397">
        <ele>79.4</ele>
        <time>2022-09-25T08:16:13Z</time>
      </trkpt>
      <trkpt lat="49.03653" lon="2.13407">
        <ele>79.4</ele>
        <time>2022-09-25T08:16:19Z</time>
      </trkpt>
      <trkpt lat="49.03657" lon="2.13414">
        <ele>79.3</ele>
        <time>2022-09-25T08:16:24Z</time>
      </trkpt>
      <trkpt lat="49.03663" lon="2.1342">
        <ele>79.3</ele>
        <time>2022-09-25T08:16:30Z</time>
      </trkpt>
      <trkpt lat="49.03669" lon="2.13428">
        <ele>79.3</ele>
        <time>2022-09-25T08:16:35Z</time>
      </trkpt>
      <trkpt lat="49.03677" lon="2.13436">
        <ele>79.3</ele>
        <time>2022-09-25T08:16:40Z</time>
      </trkpt>
      <trkpt lat="49.03686" lon="2.13445">
        <ele>79.5</ele>
        <time>2022-09-25T08:16:46Z</time>
      </trkpt>
      <trkpt lat="49.03692" lon="2.1345">
        <ele>79.7</ele>
        <time>2022-09-25T08:16:51Z</time>
      </trkpt>
      <trkpt lat="49.03699" lon="2.13457">
        <ele>80</ele>
        <time>2022-09-25T08:16:57Z</time>
      </trkpt>
      <trkpt lat="49.03707" lon="2.13464">
        <ele>80.3</ele>
        <time>2022-09-25T08:17:03Z</time>
      </trkpt>
      <trkpt lat="49.03715" lon="2.13473">
        <ele>80.4</ele>
        <time>2022-09-25T08:17:09Z</time>
      </trkpt>
      <trkpt lat="49.03722" lon="2.13482">
        <ele>80.6</ele>
        <time>2022-09-25T08:17:14Z</time>
      </trkpt>
      <trkpt lat="49.03729" lon="2.1349">
        <ele>80.9</ele>
        <time>2022-09-25T08:17:19Z</time>
      </trkpt>
      <trkpt lat="49.03735" lon="2.13496">
        <ele>81.3</ele>
        <time>2022-09-25T08:17:25Z</time>
      </trkpt>
      <trkpt lat="49.0374" lon="2.13501">
        <ele>81.8</ele>
        <time>2022-09-25T08:17:30Z</time>
      </trkpt>
      <trkpt lat="49.03749" lon="2.13509">
        <ele>82.3</ele>
        <time>2022-09-25T08:17:36Z</time>
      </trkpt>
      <trkpt lat="49.03756" lon="2.13519">
        <ele>82.7</ele>
        <time>2022-09-25T08:17:42Z</time>
      </trkpt>
      <trkpt lat="49.03763" lon="2.13528">
        <ele>83.1</ele>
        <time>2022-09-25T08:17:47Z</time>
      </trkpt>
      <trkpt lat="49.03768" lon="2.13536">
        <ele>83.5</ele>
        <time>2022-09-25T08:17:53Z</time>
      </trkpt>
      <trkpt lat="49.03773" lon="2.13542">
        <ele>83.9</ele>
        <time>2022-09-25T08:17:58Z</time>
      </trkpt>
      <trkpt lat="49.0378" lon="2.13551">
        <ele>84.4</ele>
        <time>2022-09-25T08:18:04Z</time>
      </trkpt>
      <trkpt lat="49.03788" lon="2.13558">
        <ele>85</ele>
        <time>2022-09-25T08:18:09Z</time>
      </trkpt>
      <trkpt lat="49.03795" lon="2.13566">
        <ele>85.5</ele>
        <time>2022-09-25T08:18:14Z</time>
      </trkpt>
      <trkpt lat="49.03802" lon="2.13574">
        <ele>86</ele>
        <time>2022-09-25T08:18:20Z</time>
      </trkpt>
      <trkpt lat="49.03808" lon="2.13578">
        <ele>86.5</ele>
        <time>2022-09-25T08:18:25Z</time>
      </trkpt>
      <trkpt lat="49.03814" lon="2.13585">
        <ele>87.1</ele>
        <time>2022-09-25T08:18:31Z</time>
      </trkpt>
      <trkpt lat="49.03822" lon="2.13594">
        <ele>87.3</ele>
        <time>2022-09-25T08:18:37Z</time>
      </trkpt>
      <trkpt lat="49.03829" lon="2.13603">
        <ele>87.4</ele>
        <time>2022-09-25T08:18:43Z</time>
      </trkpt>
      <trkpt lat="49.03837" lon="2.13611">
        <ele>87.3</ele>
        <time>2022-09-25T08:18:49Z</time>
      </trkpt>
      <trkpt lat="49.03843" lon="2.13616">
        <ele>87.3</ele>
        <time>2022-09-25T08:18:54Z</time>
      </trkpt>
      <trkpt lat="49.03851" lon="2.13619">
        <ele>87.5</ele>
        <time>2022-09-25T08:19:00Z</time>
      </trkpt>
      <trkpt lat="49.03858" lon="2.13621">
        <ele>87.5</ele>
        <time>2022-09-25T08:19:05Z</time>
      </trkpt>
      <trkpt lat="49.03866" lon="2.13625">
        <ele>87.8</ele>
        <time>2022-09-25T08:19:11Z</time>
      </trkpt>
      <trkpt lat="49.03876" lon="2.13628">
        <ele>88.2</ele>
        <time>2022-09-25T08:19:17Z</time>
      </trkpt>
      <trkpt lat="49.03884" lon="2.13628">
        <ele>88.6</ele>
        <time>2022-09-25T08:19:22Z</time>
      </trkpt>
      <trkpt lat="49.03893" lon="2.13627">
        <ele>89.1</ele>
        <time>2022-09-25T08:19:28Z</time>
      </trkpt>
      <trkpt lat="49.039" lon="2.13623">
        <ele>89.5</ele>
        <time>2022-09-25T08:19:34Z</time>
      </trkpt>
      <trkpt lat="49.03907" lon="2.13619">
        <ele>89.7</ele>
        <time>2022-09-25T08:19:39Z</time>
      </trkpt>
      <trkpt lat="49.03916" lon="2.13614">
        <ele>89.9</ele>
        <time>2022-09-25T08:19:45Z</time>
      </trkpt>
      <trkpt lat="49.03924" lon="2.13611">
        <ele>89.8</ele>
        <time>2022-09-25T08:19:51Z</time>
      </trkpt>
      <trkpt lat="49.03932" lon="2.13605">
        <ele>89.6</ele>
        <time>2022-09-25T08:19:57Z</time>
      </trkpt>
      <trkpt lat="49.03938" lon="2.13599">
        <ele>89.3</ele>
        <time>2022-09-25T08:20:02Z</time>
      </trkpt>
      <trkpt lat="49.03945" lon="2.13589">
        <ele>88.8</ele>
        <time>2022-09-25T08:20:09Z</time>
      </trkpt>
      <trkpt lat="49.0395" lon="2.13581">
        <ele>88.5</ele>
        <time>2022-09-25T08:20:14Z</time>
      </trkpt>
      <trkpt lat="49.03955" lon="2.13574">
        <ele>88.3</ele>
        <time>2022-09-25T08:20:19Z</time>
      </trkpt>
      <trkpt lat="49.03959" lon="2.13562">
        <ele>88.3</ele>
        <time>2022-09-25T08:20:25Z</time>
      </trkpt>
      <trkpt lat="49.03958" lon="2.13552">
        <ele>88.5</ele>
        <time>2022-09-25T08:20:31Z</time>
      </trkpt>
      <trkpt lat="49.03955" lon="2.13537">
        <ele>88.8</ele>
        <time>2022-09-25T08:20:37Z</time>
      </trkpt>
      <trkpt lat="49.03954" lon="2.13526">
        <ele>89.1</ele>
        <time>2022-09-25T08:20:42Z</time>
      </trkpt>
      <trkpt lat="49.03953" lon="2.13516">
        <ele>89.4</ele>
        <time>2022-09-25T08:20:47Z</time>
      </trkpt>
      <trkpt lat="49.03953" lon="2.13504">
        <ele>89.8</ele>
        <time>2022-09-25T08:20:53Z</time>
      </trkpt>
      <trkpt lat="49.03955" lon="2.13491">
        <ele>90.1</ele>
        <time>2022-09-25T08:20:58Z</time>
      </trkpt>
      <trkpt lat="49.03958" lon="2.13476">
        <ele>90.6</ele>
        <time>2022-09-25T08:21:04Z</time>
      </trkpt>
      <trkpt lat="49.03962" lon="2.13467">
        <ele>90.9</ele>
        <time>2022-09-25T08:21:09Z</time>
      </trkpt>
      <trkpt lat="49.03963" lon="2.13458">
        <ele>91.3</ele>
        <time>2022-09-25T08:21:14Z</time>
      </trkpt>
      <trkpt lat="49.03963" lon="2.13445">
        <ele>91.7</ele>
        <time>2022-09-25T08:21:20Z</time>
      </trkpt>
      <trkpt lat="49.03963" lon="2.13432">
        <ele>92</ele>
        <time>2022-09-25T08:21:25Z</time>
      </trkpt>
      <trkpt lat="49.03964" lon="2.13416">
        <ele>92.2</ele>
        <time>2022-09-25T08:21:31Z</time>
      </trkpt>
      <trkpt lat="49.03964" lon="2.13406">
        <ele>92.4</ele>
        <time>2022-09-25T08:21:36Z</time>
      </trkpt>
      <trkpt lat="49.03963" lon="2.13395">
        <ele>92.5</ele>
        <time>2022-09-25T08:21:42Z</time>
      </trkpt>
      <trkpt lat="49.03962" lon="2.13382">
        <ele>92.5</ele>
        <time>2022-09-25T08:21:48Z</time>
      </trkpt>
      <trkpt lat="49.03963" lon="2.13368">
        <ele>92.6</ele>
        <time>2022-09-25T08:21:53Z</time>
      </trkpt>
      <trkpt lat="49.03964" lon="2.13353">
        <ele>92.7</ele>
        <time>2022-09-25T08:21:59Z</time>
      </trkpt>
      <trkpt lat="49.03965" lon="2.1334">
        <ele>92.9</ele>
        <time>2022-09-25T08:22:05Z</time>
      </trkpt>
      <trkpt lat="49.03965" lon="2.13331">
        <ele>92.9</ele>
        <time>2022-09-25T08:22:10Z</time>
      </trkpt>
      <trkpt lat="49.03965" lon="2.13319">
        <ele>92.8</ele>
        <time>2022-09-25T08:22:16Z</time>
      </trkpt>
      <trkpt lat="49.03964" lon="2.13304">
        <ele>92.6</ele>
        <time>2022-09-25T08:22:22Z</time>
      </trkpt>
      <trkpt lat="49.03963" lon="2.1329">
        <ele>92.5</ele>
        <time>2022-09-25T08:22:27Z</time>
      </trkpt>
      <trkpt lat="49.03962" lon="2.13276">
        <ele>92.2</ele>
        <time>2022-09-25T08:22:33Z</time>
      </trkpt>
      <trkpt lat="49.03964" lon="2.13265">
        <ele>92.1</ele>
        <time>2022-09-25T08:22:38Z</time>
      </trkpt>
      <trkpt lat="49.03964" lon="2.13253">
        <ele>92.2</ele>
        <time>2022-09-25T08:22:44Z</time>
      </trkpt>
      <trkpt lat="49.03963" lon="2.13243">
        <ele>92.3</ele>
        <time>2022-09-25T08:22:49Z</time>
      </trkpt>
      <trkpt lat="49.03961" lon="2.13229">
        <ele>92.5</ele>
        <time>2022-09-25T08:22:55Z</time>
      </trkpt>
      <trkpt lat="49.03958" lon="2.13214">
        <ele>92.5</ele>
        <time>2022-09-25T08:23:01Z</time>
      </trkpt>
      <trkpt lat="49.03956" lon="2.13204">
        <ele>92.4</ele>
        <time>2022-09-25T08:23:06Z</time>
      </trkpt>
      <trkpt lat="49.03955" lon="2.13194">
        <ele>92.4</ele>
        <time>2022-09-25T08:23:12Z</time>
      </trkpt>
      <trkpt lat="49.03957" lon="2.13182">
        <ele>92.3</ele>
        <time>2022-09-25T08:23:17Z</time>
      </trkpt>
      <trkpt lat="49.03958" lon="2.13166">
        <ele>92.2</ele>
        <time>2022-09-25T08:23:23Z</time>
      </trkpt>
      <trkpt lat="49.03957" lon="2.13152">
        <ele>92.1</ele>
        <time>2022-09-25T08:23:29Z</time>
      </trkpt>
      <trkpt lat="49.03958" lon="2.13144">
        <ele>92.1</ele>
        <time>2022-09-25T08:23:34Z</time>
      </trkpt>
      <trkpt lat="49.03958" lon="2.1313">
        <ele>92.3</ele>
        <time>2022-09-25T08:23:40Z</time>
      </trkpt>
      <trkpt lat="49.03959" lon="2.13116">
        <ele>92.4</ele>
        <time>2022-09-25T08:23:45Z</time>
      </trkpt>
      <trkpt lat="49.03961" lon="2.13103">
        <ele>92.7</ele>
        <time>2022-09-25T08:23:51Z</time>
      </trkpt>
      <trkpt lat="49.03961" lon="2.13094">
        <ele>92.9</ele>
        <time>2022-09-25T08:23:56Z</time>
      </trkpt>
      <trkpt lat="49.03961" lon="2.13082">
        <ele>92.9</ele>
        <time>2022-09-25T08:24:02Z</time>
      </trkpt>
      <trkpt lat="49.03962" lon="2.13067">
        <ele>93</ele>
        <time>2022-09-25T08:24:08Z</time>
      </trkpt>
      <trkpt lat="49.03962" lon="2.13054">
        <ele>93</ele>
        <time>2022-09-25T08:24:13Z</time>
      </trkpt>
      <trkpt lat="49.03963" lon="2.13041">
        <ele>93.1</ele>
        <time>2022-09-25T08:24:18Z</time>
      </trkpt>
      <trkpt lat="49.03964" lon="2.13027">
        <ele>93.2</ele>
        <time>2022-09-25T08:24:24Z</time>
      </trkpt>
      <trkpt lat="49.03965" lon="2.13019">
        <ele>93.1</ele>
        <time>2022-09-25T08:24:29Z</time>
      </trkpt>
      <trkpt lat="49.03964" lon="2.13011">
        <ele>92.9</ele>
        <time>2022-09-25T08:24:34Z</time>
      </trkpt>
      <trkpt lat="49.03964" lon="2.12997">
        <ele>92.6</ele>
        <time>2022-09-25T08:24:40Z</time>
      </trkpt>
      <trkpt lat="49.03965" lon="2.12983">
        <ele>92.5</ele>
        <time>2022-09-25T08:24:45Z</time>
      </trkpt>
      <trkpt lat="49.03965" lon="2.1297">
        <ele>92.4</ele>
        <time>2022-09-25T08:24:50Z</time>
      </trkpt>
      <trkpt lat="49.03965" lon="2.12959">
        <ele>92.2</ele>
        <time>2022-09-25T08:24:55Z</time>
      </trkpt>
      <trkpt lat="49.03965" lon="2.12945">
        <ele>91.6</ele>
        <time>2022-09-25T08:25:01Z</time>
      </trkpt>
      <trkpt lat="49.03965" lon="2.12932">
        <ele>91.1</ele>
        <time>2022-09-25T08:25:06Z</time>
      </trkpt>
      <trkpt lat="49.03966" lon="2.12919">
        <ele>90.6</ele>
        <time>2022-09-25T08:25:12Z</time>
      </trkpt>
      <trkpt lat="49.03966" lon="2.1291">
        <ele>90.2</ele>
        <time>2022-09-25T08:25:17Z</time>
      </trkpt>
      <trkpt lat="49.03968" lon="2.12896">
        <ele>89.8</ele>
        <time>2022-09-25T08:25:23Z</time>
      </trkpt>
      <trkpt lat="49.0397" lon="2.12882">
        <ele>89.5</ele>
        <time>2022-09-25T08:25:29Z</time>
      </trkpt>
      <trkpt lat="49.03971" lon="2.12872">
        <ele>89.1</ele>
        <time>2022-09-25T08:25:34Z</time>
      </trkpt>
      <trkpt lat="49.03973" lon="2.12862">
        <ele>88.6</ele>
        <time>2022-09-25T08:25:39Z</time>
      </trkpt>
      <trkpt lat="49.03976" lon="2.12852">
        <ele>88</ele>
        <time>2022-09-25T08:25:45Z</time>
      </trkpt>
      <trkpt lat="49.03977" lon="2.12838">
        <ele>87.5</ele>
        <time>2022-09-25T08:25:51Z</time>
      </trkpt>
      <trkpt lat="49.03975" lon="2.12825">
        <ele>87</ele>
        <time>2022-09-25T08:25:56Z</time>
      </trkpt>
      <trkpt lat="49.03972" lon="2.12811">
        <ele>86.5</ele>
        <time>2022-09-25T08:26:02Z</time>
      </trkpt>
      <trkpt lat="49.0397" lon="2.12796">
        <ele>85.9</ele>
        <time>2022-09-25T08:26:08Z</time>
      </trkpt>
      <trkpt lat="49.03969" lon="2.12785">
        <ele>85.5</ele>
        <time>2022-09-25T08:26:13Z</time>
      </trkpt>
      <trkpt lat="49.03969" lon="2.12771">
        <ele>85</ele>
        <time>2022-09-25T08:26:18Z</time>
      </trkpt>
      <trkpt lat="49.03968" lon="2.12758">
        <ele>84.6</ele>
        <time>2022-09-25T08:26:24Z</time>
      </trkpt>
      <trkpt lat="49.03967" lon="2.12749">
        <ele>84.2</ele>
        <time>2022-09-25T08:26:29Z</time>
      </trkpt>
      <trkpt lat="49.03963" lon="2.12741">
        <ele>83.7</ele>
        <time>2022-09-25T08:26:35Z</time>
      </trkpt>
      <trkpt lat="49.03959" lon="2.12733">
        <ele>83.4</ele>
        <time>2022-09-25T08:26:40Z</time>
      </trkpt>
      <trkpt lat="49.03958" lon="2.1272">
        <ele>82.9</ele>
        <time>2022-09-25T08:26:46Z</time>
      </trkpt>
      <trkpt lat="49.0396" lon="2.12707">
        <ele>82.2</ele>
        <time>2022-09-25T08:26:52Z</time>
      </trkpt>
      <trkpt lat="49.03962" lon="2.12695">
        <ele>81.7</ele>
        <time>2022-09-25T08:26:58Z</time>
      </trkpt>
      <trkpt lat="49.03963" lon="2.12691">
        <ele>81.5</ele>
        <time>2022-09-25T08:27:03Z</time>
      </trkpt>
      <trkpt lat="49.03967" lon="2.12672">
        <ele>80.3</ele>
        <time>2022-09-25T08:27:21Z</time>
      </trkpt>
      <trkpt lat="49.03965" lon="2.12664">
        <ele>78</ele>
        <time>2022-09-25T08:27:27Z</time>
      </trkpt>
      <trkpt lat="49.03953" lon="2.12656">
        <ele>77.5</ele>
        <time>2022-09-25T08:27:32Z</time>
      </trkpt>
      <trkpt lat="49.03962" lon="2.12609">
        <ele>76.6</ele>
        <time>2022-09-25T08:27:38Z</time>
      </trkpt>
      <trkpt lat="49.03973" lon="2.12595">
        <ele>77.2</ele>
        <time>2022-09-25T08:27:44Z</time>
      </trkpt>
      <trkpt lat="49.0397" lon="2.12583">
        <ele>77.6</ele>
        <time>2022-09-25T08:27:50Z</time>
      </trkpt>
      <trkpt lat="49.0397" lon="2.12572">
        <ele>77.7</ele>
        <time>2022-09-25T08:27:55Z</time>
      </trkpt>
      <trkpt lat="49.0397" lon="2.12564">
        <ele>77.7</ele>
        <time>2022-09-25T08:28:00Z</time>
      </trkpt>
      <trkpt lat="49.03971" lon="2.12554">
        <ele>77.7</ele>
        <time>2022-09-25T08:28:05Z</time>
      </trkpt>
      <trkpt lat="49.03972" lon="2.12539">
        <ele>77.7</ele>
        <time>2022-09-25T08:28:11Z</time>
      </trkpt>
      <trkpt lat="49.03975" lon="2.12532">
        <ele>77.8</ele>
        <time>2022-09-25T08:28:16Z</time>
      </trkpt>
      <trkpt lat="49.03982" lon="2.12535">
        <ele>77.7</ele>
        <time>2022-09-25T08:28:22Z</time>
      </trkpt>
      <trkpt lat="49.0399" lon="2.12546">
        <ele>77.5</ele>
        <time>2022-09-25T08:28:28Z</time>
      </trkpt>
      <trkpt lat="49.03997" lon="2.12557">
        <ele>77.4</ele>
        <time>2022-09-25T08:28:33Z</time>
      </trkpt>
      <trkpt lat="49.04003" lon="2.12569">
        <ele>77.2</ele>
        <time>2022-09-25T08:28:39Z</time>
      </trkpt>
      <trkpt lat="49.04008" lon="2.12579">
        <ele>76.8</ele>
        <time>2022-09-25T08:28:45Z</time>
      </trkpt>
      <trkpt lat="49.04012" lon="2.12587">
        <ele>76.4</ele>
        <time>2022-09-25T08:28:50Z</time>
      </trkpt>
      <trkpt lat="49.04018" lon="2.12597">
        <ele>75.8</ele>
        <time>2022-09-25T08:28:56Z</time>
      </trkpt>
      <trkpt lat="49.04024" lon="2.12609">
        <ele>75.2</ele>
        <time>2022-09-25T08:29:02Z</time>
      </trkpt>
      <trkpt lat="49.04032" lon="2.1262">
        <ele>74.7</ele>
        <time>2022-09-25T08:29:08Z</time>
      </trkpt>
      <trkpt lat="49.04039" lon="2.12627">
        <ele>74.4</ele>
        <time>2022-09-25T08:29:13Z</time>
      </trkpt>
      <trkpt lat="49.04047" lon="2.12635">
        <ele>74</ele>
        <time>2022-09-25T08:29:19Z</time>
      </trkpt>
      <trkpt lat="49.04048" lon="2.12643">
        <ele>73.4</ele>
        <time>2022-09-25T08:29:25Z</time>
      </trkpt>
      <trkpt lat="49.04051" lon="2.12651">
        <ele>72.7</ele>
        <time>2022-09-25T08:29:31Z</time>
      </trkpt>
      <trkpt lat="49.04056" lon="2.12655">
        <ele>72.2</ele>
        <time>2022-09-25T08:29:36Z</time>
      </trkpt>
      <trkpt lat="49.04065" lon="2.12659">
        <ele>71.6</ele>
        <time>2022-09-25T08:29:42Z</time>
      </trkpt>
      <trkpt lat="49.04072" lon="2.12662">
        <ele>71</ele>
        <time>2022-09-25T08:29:48Z</time>
      </trkpt>
      <trkpt lat="49.04078" lon="2.12665">
        <ele>70.4</ele>
        <time>2022-09-25T08:29:53Z</time>
      </trkpt>
      <trkpt lat="49.04087" lon="2.12668">
        <ele>69.8</ele>
        <time>2022-09-25T08:29:59Z</time>
      </trkpt>
      <trkpt lat="49.04095" lon="2.12671">
        <ele>69.5</ele>
        <time>2022-09-25T08:30:04Z</time>
      </trkpt>
      <trkpt lat="49.04105" lon="2.12678">
        <ele>69.3</ele>
        <time>2022-09-25T08:30:10Z</time>
      </trkpt>
      <trkpt lat="49.04113" lon="2.12683">
        <ele>69.3</ele>
        <time>2022-09-25T08:30:15Z</time>
      </trkpt>
      <trkpt lat="49.0412" lon="2.12692">
        <ele>69.4</ele>
        <time>2022-09-25T08:30:21Z</time>
      </trkpt>
      <trkpt lat="49.04127" lon="2.12696">
        <ele>69.6</ele>
        <time>2022-09-25T08:30:26Z</time>
      </trkpt>
      <trkpt lat="49.04136" lon="2.12698">
        <ele>69.7</ele>
        <time>2022-09-25T08:30:32Z</time>
      </trkpt>
      <trkpt lat="49.04146" lon="2.12704">
        <ele>70.3</ele>
        <time>2022-09-25T08:30:38Z</time>
      </trkpt>
      <trkpt lat="49.04156" lon="2.12705">
        <ele>70.7</ele>
        <time>2022-09-25T08:30:43Z</time>
      </trkpt>
      <trkpt lat="49.04162" lon="2.12711">
        <ele>71.2</ele>
        <time>2022-09-25T08:30:49Z</time>
      </trkpt>
      <trkpt lat="49.04171" lon="2.12718">
        <ele>71.4</ele>
        <time>2022-09-25T08:30:55Z</time>
      </trkpt>
      <trkpt lat="49.0417" lon="2.12727">
        <ele>71.4</ele>
        <time>2022-09-25T08:31:01Z</time>
      </trkpt>
      <trkpt lat="49.04166" lon="2.1274">
        <ele>71.6</ele>
        <time>2022-09-25T08:31:06Z</time>
      </trkpt>
      <trkpt lat="49.04164" lon="2.12749">
        <ele>71.8</ele>
        <time>2022-09-25T08:31:11Z</time>
      </trkpt>
      <trkpt lat="49.04159" lon="2.1276">
        <ele>71.7</ele>
        <time>2022-09-25T08:31:17Z</time>
      </trkpt>
      <trkpt lat="49.04159" lon="2.12769">
        <ele>71.7</ele>
        <time>2022-09-25T08:31:22Z</time>
      </trkpt>
      <trkpt lat="49.04164" lon="2.12778">
        <ele>71.8</ele>
        <time>2022-09-25T08:31:28Z</time>
      </trkpt>
      <trkpt lat="49.0417" lon="2.12781">
        <ele>71.8</ele>
        <time>2022-09-25T08:31:34Z</time>
      </trkpt>
      <trkpt lat="49.0418" lon="2.12788">
        <ele>72</ele>
        <time>2022-09-25T08:31:40Z</time>
      </trkpt>
      <trkpt lat="49.04188" lon="2.12793">
        <ele>72.3</ele>
        <time>2022-09-25T08:31:45Z</time>
      </trkpt>
      <trkpt lat="49.04193" lon="2.12796">
        <ele>72.4</ele>
        <time>2022-09-25T08:31:51Z</time>
      </trkpt>
      <trkpt lat="49.042" lon="2.12798">
        <ele>72</ele>
        <time>2022-09-25T08:31:57Z</time>
      </trkpt>
      <trkpt lat="49.04209" lon="2.12798">
        <ele>71.8</ele>
        <time>2022-09-25T08:32:03Z</time>
      </trkpt>
      <trkpt lat="49.04217" lon="2.12794">
        <ele>71.9</ele>
        <time>2022-09-25T08:32:08Z</time>
      </trkpt>
      <trkpt lat="49.04229" lon="2.12791">
        <ele>71.9</ele>
        <time>2022-09-25T08:32:14Z</time>
      </trkpt>
      <trkpt lat="49.04236" lon="2.12786">
        <ele>71.8</ele>
        <time>2022-09-25T08:32:19Z</time>
      </trkpt>
      <trkpt lat="49.04243" lon="2.12777">
        <ele>71.4</ele>
        <time>2022-09-25T08:32:25Z</time>
      </trkpt>
      <trkpt lat="49.04248" lon="2.12767">
        <ele>71.1</ele>
        <time>2022-09-25T08:32:31Z</time>
      </trkpt>
      <trkpt lat="49.04252" lon="2.12758">
        <ele>71.2</ele>
        <time>2022-09-25T08:32:36Z</time>
      </trkpt>
      <trkpt lat="49.04257" lon="2.12748">
        <ele>71.6</ele>
        <time>2022-09-25T08:32:42Z</time>
      </trkpt>
      <trkpt lat="49.04259" lon="2.12736">
        <ele>71.6</ele>
        <time>2022-09-25T08:32:47Z</time>
      </trkpt>
      <trkpt lat="49.04266" lon="2.12721">
        <ele>72</ele>
        <time>2022-09-25T08:32:53Z</time>
      </trkpt>
      <trkpt lat="49.0427" lon="2.1271">
        <ele>72.4</ele>
        <time>2022-09-25T08:32:58Z</time>
      </trkpt>
      <trkpt lat="49.04276" lon="2.12701">
        <ele>72.8</ele>
        <time>2022-09-25T08:33:03Z</time>
      </trkpt>
      <trkpt lat="49.04282" lon="2.12692">
        <ele>73.1</ele>
        <time>2022-09-25T08:33:09Z</time>
      </trkpt>
      <trkpt lat="49.04286" lon="2.12681">
        <ele>73.3</ele>
        <time>2022-09-25T08:33:15Z</time>
      </trkpt>
      <trkpt lat="49.0429" lon="2.12672">
        <ele>73.5</ele>
        <time>2022-09-25T08:33:21Z</time>
      </trkpt>
      <trkpt lat="49.04294" lon="2.12665">
        <ele>73.4</ele>
        <time>2022-09-25T08:33:26Z</time>
      </trkpt>
      <trkpt lat="49.04298" lon="2.1265">
        <ele>73.2</ele>
        <time>2022-09-25T08:33:33Z</time>
      </trkpt>
      <trkpt lat="49.04298" lon="2.12638">
        <ele>73.4</ele>
        <time>2022-09-25T08:33:38Z</time>
      </trkpt>
      <trkpt lat="49.04302" lon="2.12625">
        <ele>73.6</ele>
        <time>2022-09-25T08:33:44Z</time>
      </trkpt>
      <trkpt lat="49.04308" lon="2.12613">
        <ele>73.6</ele>
        <time>2022-09-25T08:33:50Z</time>
      </trkpt>
      <trkpt lat="49.04311" lon="2.12604">
        <ele>73.4</ele>
        <time>2022-09-25T08:33:55Z</time>
      </trkpt>
      <trkpt lat="49.04313" lon="2.12591">
        <ele>73.5</ele>
        <time>2022-09-25T08:34:01Z</time>
      </trkpt>
      <trkpt lat="49.04317" lon="2.12581">
        <ele>73.7</ele>
        <time>2022-09-25T08:34:06Z</time>
      </trkpt>
      <trkpt lat="49.04318" lon="2.12565">
        <ele>74.1</ele>
        <time>2022-09-25T08:34:12Z</time>
      </trkpt>
      <trkpt lat="49.04319" lon="2.12552">
        <ele>74.4</ele>
        <time>2022-09-25T08:34:18Z</time>
      </trkpt>
      <trkpt lat="49.04319" lon="2.12536">
        <ele>74.5</ele>
        <time>2022-09-25T08:34:24Z</time>
      </trkpt>
      <trkpt lat="49.0432" lon="2.12526">
        <ele>74.4</ele>
        <time>2022-09-25T08:34:29Z</time>
      </trkpt>
      <trkpt lat="49.04321" lon="2.12515">
        <ele>74.4</ele>
        <time>2022-09-25T08:34:34Z</time>
      </trkpt>
      <trkpt lat="49.04322" lon="2.125">
        <ele>74.6</ele>
        <time>2022-09-25T08:34:40Z</time>
      </trkpt>
      <trkpt lat="49.04322" lon="2.12489">
        <ele>74.8</ele>
        <time>2022-09-25T08:34:45Z</time>
      </trkpt>
      <trkpt lat="49.04322" lon="2.12479">
        <ele>74.9</ele>
        <time>2022-09-25T08:34:51Z</time>
      </trkpt>
      <trkpt lat="49.04322" lon="2.12468">
        <ele>75</ele>
        <time>2022-09-25T08:34:56Z</time>
      </trkpt>
      <trkpt lat="49.04324" lon="2.12455">
        <ele>75.3</ele>
        <time>2022-09-25T08:35:02Z</time>
      </trkpt>
      <trkpt lat="49.04324" lon="2.12443">
        <ele>75.4</ele>
        <time>2022-09-25T08:35:07Z</time>
      </trkpt>
      <trkpt lat="49.04321" lon="2.12429">
        <ele>75.5</ele>
        <time>2022-09-25T08:35:13Z</time>
      </trkpt>
      <trkpt lat="49.04322" lon="2.12415">
        <ele>75.3</ele>
        <time>2022-09-25T08:35:19Z</time>
      </trkpt>
      <trkpt lat="49.04326" lon="2.12399">
        <ele>75.2</ele>
        <time>2022-09-25T08:35:25Z</time>
      </trkpt>
      <trkpt lat="49.04326" lon="2.12387">
        <ele>75.3</ele>
        <time>2022-09-25T08:35:31Z</time>
      </trkpt>
      <trkpt lat="49.04324" lon="2.12376">
        <ele>75.8</ele>
        <time>2022-09-25T08:35:37Z</time>
      </trkpt>
      <trkpt lat="49.04322" lon="2.12367">
        <ele>76.2</ele>
        <time>2022-09-25T08:35:42Z</time>
      </trkpt>
      <trkpt lat="49.04319" lon="2.12356">
        <ele>76.4</ele>
        <time>2022-09-25T08:35:47Z</time>
      </trkpt>
      <trkpt lat="49.04318" lon="2.12342">
        <ele>76.3</ele>
        <time>2022-09-25T08:35:53Z</time>
      </trkpt>
      <trkpt lat="49.04318" lon="2.12326">
        <ele>76.2</ele>
        <time>2022-09-25T08:35:59Z</time>
      </trkpt>
      <trkpt lat="49.0432" lon="2.12309">
        <ele>76</ele>
        <time>2022-09-25T08:36:07Z</time>
      </trkpt>
      <trkpt lat="49.04319" lon="2.12294">
        <ele>76</ele>
        <time>2022-09-25T08:36:12Z</time>
      </trkpt>
      <trkpt lat="49.04322" lon="2.12282">
        <ele>76</ele>
        <time>2022-09-25T08:36:18Z</time>
      </trkpt>
      <trkpt lat="49.04326" lon="2.12269">
        <ele>76</ele>
        <time>2022-09-25T08:36:25Z</time>
      </trkpt>
      <trkpt lat="49.04326" lon="2.12254">
        <ele>76</ele>
        <time>2022-09-25T08:36:31Z</time>
      </trkpt>
      <trkpt lat="49.04328" lon="2.12241">
        <ele>75.8</ele>
        <time>2022-09-25T08:36:37Z</time>
      </trkpt>
      <trkpt lat="49.04328" lon="2.12229">
        <ele>75.4</ele>
        <time>2022-09-25T08:36:42Z</time>
      </trkpt>
      <trkpt lat="49.04322" lon="2.12204">
        <ele>70.9</ele>
        <time>2022-09-25T08:36:55Z</time>
      </trkpt>
      <trkpt lat="49.0432" lon="2.12198">
        <ele>70.7</ele>
        <time>2022-09-25T08:37:00Z</time>
      </trkpt>
      <trkpt lat="49.04327" lon="2.12185">
        <ele>70.4</ele>
        <time>2022-09-25T08:37:06Z</time>
      </trkpt>
      <trkpt lat="49.04321" lon="2.12176">
        <ele>70.7</ele>
        <time>2022-09-25T08:37:12Z</time>
      </trkpt>
      <trkpt lat="49.04315" lon="2.12173">
        <ele>71</ele>
        <time>2022-09-25T08:37:17Z</time>
      </trkpt>
      <trkpt lat="49.04308" lon="2.12169">
        <ele>71.2</ele>
        <time>2022-09-25T08:37:23Z</time>
      </trkpt>
      <trkpt lat="49.043" lon="2.12165">
        <ele>71.3</ele>
        <time>2022-09-25T08:37:29Z</time>
      </trkpt>
      <trkpt lat="49.04294" lon="2.12161">
        <ele>71.5</ele>
        <time>2022-09-25T08:37:34Z</time>
      </trkpt>
      <trkpt lat="49.04288" lon="2.12155">
        <ele>71.7</ele>
        <time>2022-09-25T08:37:39Z</time>
      </trkpt>
      <trkpt lat="49.04282" lon="2.12152">
        <ele>71.7</ele>
        <time>2022-09-25T08:37:45Z</time>
      </trkpt>
      <trkpt lat="49.04278" lon="2.12148">
        <ele>72</ele>
        <time>2022-09-25T08:37:51Z</time>
      </trkpt>
      <trkpt lat="49.04278" lon="2.12139">
        <ele>72</ele>
        <time>2022-09-25T08:37:57Z</time>
      </trkpt>
      <trkpt lat="49.0428" lon="2.12133">
        <ele>71.5</ele>
        <time>2022-09-25T08:38:03Z</time>
      </trkpt>
      <trkpt lat="49.04286" lon="2.12124">
        <ele>71.3</ele>
        <time>2022-09-25T08:38:08Z</time>
      </trkpt>
      <trkpt lat="49.04294" lon="2.12114">
        <ele>70.8</ele>
        <time>2022-09-25T08:38:14Z</time>
      </trkpt>
      <trkpt lat="49.04298" lon="2.12108">
        <ele>70.2</ele>
        <time>2022-09-25T08:38:19Z</time>
      </trkpt>
      <trkpt lat="49.04305" lon="2.12098">
        <ele>69.9</ele>
        <time>2022-09-25T08:38:25Z</time>
      </trkpt>
      <trkpt lat="49.04308" lon="2.1209">
        <ele>69.6</ele>
        <time>2022-09-25T08:38:30Z</time>
      </trkpt>
      <trkpt lat="49.04314" lon="2.12077">
        <ele>69.4</ele>
        <time>2022-09-25T08:38:36Z</time>
      </trkpt>
      <trkpt lat="49.04319" lon="2.12068">
        <ele>69.3</ele>
        <time>2022-09-25T08:38:42Z</time>
      </trkpt>
      <trkpt lat="49.04325" lon="2.12059">
        <ele>69.1</ele>
        <time>2022-09-25T08:38:47Z</time>
      </trkpt>
      <trkpt lat="49.04334" lon="2.12047">
        <ele>69.1</ele>
        <time>2022-09-25T08:38:53Z</time>
      </trkpt>
      <trkpt lat="49.04338" lon="2.12039">
        <ele>69.1</ele>
        <time>2022-09-25T08:38:58Z</time>
      </trkpt>
      <trkpt lat="49.04344" lon="2.12029">
        <ele>69.3</ele>
        <time>2022-09-25T08:39:04Z</time>
      </trkpt>
      <trkpt lat="49.04351" lon="2.12016">
        <ele>69.4</ele>
        <time>2022-09-25T08:39:10Z</time>
      </trkpt>
      <trkpt lat="49.04357" lon="2.12007">
        <ele>69.6</ele>
        <time>2022-09-25T08:39:15Z</time>
      </trkpt>
      <trkpt lat="49.04363" lon="2.11996">
        <ele>69.6</ele>
        <time>2022-09-25T08:39:21Z</time>
      </trkpt>
      <trkpt lat="49.04367" lon="2.11987">
        <ele>69.4</ele>
        <time>2022-09-25T08:39:27Z</time>
      </trkpt>
      <trkpt lat="49.04372" lon="2.11975">
        <ele>69.5</ele>
        <time>2022-09-25T08:39:33Z</time>
      </trkpt>
      <trkpt lat="49.04382" lon="2.11974">
        <ele>69.2</ele>
        <time>2022-09-25T08:39:39Z</time>
      </trkpt>
      <trkpt lat="49.04387" lon="2.11979">
        <ele>68.7</ele>
        <time>2022-09-25T08:39:44Z</time>
      </trkpt>
      <trkpt lat="49.04392" lon="2.11986">
        <ele>68.1</ele>
        <time>2022-09-25T08:39:50Z</time>
      </trkpt>
      <trkpt lat="49.04399" lon="2.11982">
        <ele>68</ele>
        <time>2022-09-25T08:39:55Z</time>
      </trkpt>
      <trkpt lat="49.04407" lon="2.1198">
        <ele>68.1</ele>
        <time>2022-09-25T08:40:01Z</time>
      </trkpt>
      <trkpt lat="49.04412" lon="2.11977">
        <ele>67.8</ele>
        <time>2022-09-25T08:40:06Z</time>
      </trkpt>
      <trkpt lat="49.04422" lon="2.11973">
        <ele>67.4</ele>
        <time>2022-09-25T08:40:12Z</time>
      </trkpt>
      <trkpt lat="49.04432" lon="2.1197">
        <ele>67.3</ele>
        <time>2022-09-25T08:40:18Z</time>
      </trkpt>
      <trkpt lat="49.0444" lon="2.11967">
        <ele>66.9</ele>
        <time>2022-09-25T08:40:23Z</time>
      </trkpt>
      <trkpt lat="49.04449" lon="2.11974">
        <ele>66.7</ele>
        <time>2022-09-25T08:40:29Z</time>
      </trkpt>
      <trkpt lat="49.04458" lon="2.1198">
        <ele>66.7</ele>
        <time>2022-09-25T08:40:34Z</time>
      </trkpt>
      <trkpt lat="49.04465" lon="2.11974">
        <ele>67.1</ele>
        <time>2022-09-25T08:40:40Z</time>
      </trkpt>
      <trkpt lat="49.04471" lon="2.11969">
        <ele>67.4</ele>
        <time>2022-09-25T08:40:46Z</time>
      </trkpt>
      <trkpt lat="49.04474" lon="2.11959">
        <ele>67.5</ele>
        <time>2022-09-25T08:40:51Z</time>
      </trkpt>
      <trkpt lat="49.04482" lon="2.11955">
        <ele>67.7</ele>
        <time>2022-09-25T08:40:56Z</time>
      </trkpt>
      <trkpt lat="49.0449" lon="2.11956">
        <ele>67.9</ele>
        <time>2022-09-25T08:41:02Z</time>
      </trkpt>
      <trkpt lat="49.04497" lon="2.11954">
        <ele>67.9</ele>
        <time>2022-09-25T08:41:08Z</time>
      </trkpt>
      <trkpt lat="49.04502" lon="2.11952">
        <ele>67.7</ele>
        <time>2022-09-25T08:41:13Z</time>
      </trkpt>
      <trkpt lat="49.0451" lon="2.11951">
        <ele>67.3</ele>
        <time>2022-09-25T08:41:18Z</time>
      </trkpt>
      <trkpt lat="49.04517" lon="2.11948">
        <ele>67.1</ele>
        <time>2022-09-25T08:41:23Z</time>
      </trkpt>
      <trkpt lat="49.04523" lon="2.11943">
        <ele>67.1</ele>
        <time>2022-09-25T08:41:29Z</time>
      </trkpt>
      <trkpt lat="49.04533" lon="2.11938">
        <ele>66.9</ele>
        <time>2022-09-25T08:41:36Z</time>
      </trkpt>
      <trkpt lat="49.04542" lon="2.11935">
        <ele>66.6</ele>
        <time>2022-09-25T08:41:42Z</time>
      </trkpt>
      <trkpt lat="49.04545" lon="2.1192">
        <ele>66.5</ele>
        <time>2022-09-25T08:41:48Z</time>
      </trkpt>
      <trkpt lat="49.04541" lon="2.11919">
        <ele>66.4</ele>
        <time>2022-09-25T08:41:53Z</time>
      </trkpt>
      <trkpt lat="49.04533" lon="2.11922">
        <ele>66.1</ele>
        <time>2022-09-25T08:41:59Z</time>
      </trkpt>
      <trkpt lat="49.04523" lon="2.11925">
        <ele>66.1</ele>
        <time>2022-09-25T08:42:05Z</time>
      </trkpt>
      <trkpt lat="49.04514" lon="2.11928">
        <ele>66.3</ele>
        <time>2022-09-25T08:42:10Z</time>
      </trkpt>
      <trkpt lat="49.04506" lon="2.11933">
        <ele>66.7</ele>
        <time>2022-09-25T08:42:16Z</time>
      </trkpt>
      <trkpt lat="49.04499" lon="2.11933">
        <ele>66.6</ele>
        <time>2022-09-25T08:42:21Z</time>
      </trkpt>
      <trkpt lat="49.04488" lon="2.11934">
        <ele>66.7</ele>
        <time>2022-09-25T08:42:27Z</time>
      </trkpt>
      <trkpt lat="49.04479" lon="2.11934">
        <ele>67</ele>
        <time>2022-09-25T08:42:32Z</time>
      </trkpt>
      <trkpt lat="49.0447" lon="2.11936">
        <ele>67.3</ele>
        <time>2022-09-25T08:42:37Z</time>
      </trkpt>
      <trkpt lat="49.04461" lon="2.11939">
        <ele>67.9</ele>
        <time>2022-09-25T08:42:43Z</time>
      </trkpt>
      <trkpt lat="49.04453" lon="2.11942">
        <ele>68.5</ele>
        <time>2022-09-25T08:42:49Z</time>
      </trkpt>
      <trkpt lat="49.04446" lon="2.11946">
        <ele>69.1</ele>
        <time>2022-09-25T08:42:54Z</time>
      </trkpt>
      <trkpt lat="49.04441" lon="2.1195">
        <ele>69.7</ele>
        <time>2022-09-25T08:42:59Z</time>
      </trkpt>
      <trkpt lat="49.04435" lon="2.1195">
        <ele>70.3</ele>
        <time>2022-09-25T08:43:04Z</time>
      </trkpt>
      <trkpt lat="49.04435" lon="2.11943">
        <ele>70.6</ele>
        <time>2022-09-25T08:43:10Z</time>
      </trkpt>
      <trkpt lat="49.04442" lon="2.11936">
        <ele>70.2</ele>
        <time>2022-09-25T08:43:16Z</time>
      </trkpt>
      <trkpt lat="49.04449" lon="2.11929">
        <ele>70.2</ele>
        <time>2022-09-25T08:43:22Z</time>
      </trkpt>
      <trkpt lat="49.04457" lon="2.11923">
        <ele>70.1</ele>
        <time>2022-09-25T08:43:27Z</time>
      </trkpt>
      <trkpt lat="49.04467" lon="2.11916">
        <ele>70</ele>
        <time>2022-09-25T08:43:33Z</time>
      </trkpt>
      <trkpt lat="49.04475" lon="2.1191">
        <ele>69.8</ele>
        <time>2022-09-25T08:43:39Z</time>
      </trkpt>
      <trkpt lat="49.04481" lon="2.11905">
        <ele>69.8</ele>
        <time>2022-09-25T08:43:44Z</time>
      </trkpt>
      <trkpt lat="49.04484" lon="2.11901">
        <ele>69.6</ele>
        <time>2022-09-25T08:43:49Z</time>
      </trkpt>
      <trkpt lat="49.04492" lon="2.11895">
        <ele>69.4</ele>
        <time>2022-09-25T08:43:55Z</time>
      </trkpt>
      <trkpt lat="49.04501" lon="2.11886">
        <ele>69.5</ele>
        <time>2022-09-25T08:44:01Z</time>
      </trkpt>
      <trkpt lat="49.04509" lon="2.11878">
        <ele>69.6</ele>
        <time>2022-09-25T08:44:06Z</time>
      </trkpt>
      <trkpt lat="49.04515" lon="2.11874">
        <ele>69.6</ele>
        <time>2022-09-25T08:44:12Z</time>
      </trkpt>
      <trkpt lat="49.04521" lon="2.11868">
        <ele>69.6</ele>
        <time>2022-09-25T08:44:17Z</time>
      </trkpt>
      <trkpt lat="49.04528" lon="2.11864">
        <ele>69.6</ele>
        <time>2022-09-25T08:44:23Z</time>
      </trkpt>
      <trkpt lat="49.04536" lon="2.11863">
        <ele>70.1</ele>
        <time>2022-09-25T08:44:29Z</time>
      </trkpt>
      <trkpt lat="49.04539" lon="2.1186">
        <ele>70.7</ele>
        <time>2022-09-25T08:44:35Z</time>
      </trkpt>
      <trkpt lat="49.04546" lon="2.11855">
        <ele>71.2</ele>
        <time>2022-09-25T08:44:41Z</time>
      </trkpt>
      <trkpt lat="49.0455" lon="2.11855">
        <ele>71.5</ele>
        <time>2022-09-25T08:44:47Z</time>
      </trkpt>
      <trkpt lat="49.04555" lon="2.1185">
        <ele>71.8</ele>
        <time>2022-09-25T08:44:53Z</time>
      </trkpt>
      <trkpt lat="49.0456" lon="2.11846">
        <ele>72</ele>
        <time>2022-09-25T08:44:59Z</time>
      </trkpt>
      <trkpt lat="49.04566" lon="2.11846">
        <ele>72</ele>
        <time>2022-09-25T08:45:05Z</time>
      </trkpt>
      <trkpt lat="49.04572" lon="2.1185">
        <ele>71.9</ele>
        <time>2022-09-25T08:45:10Z</time>
      </trkpt>
      <trkpt lat="49.04575" lon="2.11861">
        <ele>71.7</ele>
        <time>2022-09-25T08:45:15Z</time>
      </trkpt>
      <trkpt lat="49.04577" lon="2.11876">
        <ele>71.6</ele>
        <time>2022-09-25T08:45:21Z</time>
      </trkpt>
      <trkpt lat="49.04577" lon="2.11886">
        <ele>71.7</ele>
        <time>2022-09-25T08:45:26Z</time>
      </trkpt>
      <trkpt lat="49.04578" lon="2.11898">
        <ele>71.9</ele>
        <time>2022-09-25T08:45:32Z</time>
      </trkpt>
      <trkpt lat="49.0458" lon="2.11907">
        <ele>72</ele>
        <time>2022-09-25T08:45:37Z</time>
      </trkpt>
      <trkpt lat="49.04585" lon="2.1192">
        <ele>72.1</ele>
        <time>2022-09-25T08:45:43Z</time>
      </trkpt>
      <trkpt lat="49.04591" lon="2.11929">
        <ele>72</ele>
        <time>2022-09-25T08:45:49Z</time>
      </trkpt>
      <trkpt lat="49.04596" lon="2.11931">
        <ele>71.8</ele>
        <time>2022-09-25T08:45:54Z</time>
      </trkpt>
      <trkpt lat="49.04598" lon="2.11927">
        <ele>71</ele>
        <time>2022-09-25T08:46:00Z</time>
      </trkpt>
      <trkpt lat="49.04603" lon="2.11921">
        <ele>69.9</ele>
        <time>2022-09-25T08:46:05Z</time>
      </trkpt>
      <trkpt lat="49.04608" lon="2.11915">
        <ele>68.9</ele>
        <time>2022-09-25T08:46:11Z</time>
      </trkpt>
      <trkpt lat="49.04612" lon="2.11917">
        <ele>67.8</ele>
        <time>2022-09-25T08:46:16Z</time>
      </trkpt>
      <trkpt lat="49.04615" lon="2.11918">
        <ele>66.6</ele>
        <time>2022-09-25T08:46:21Z</time>
      </trkpt>
      <trkpt lat="49.04618" lon="2.11918">
        <ele>65.3</ele>
        <time>2022-09-25T08:46:26Z</time>
      </trkpt>
      <trkpt lat="49.04627" lon="2.1192">
        <ele>63.4</ele>
        <time>2022-09-25T08:46:32Z</time>
      </trkpt>
      <trkpt lat="49.04634" lon="2.11924">
        <ele>61.9</ele>
        <time>2022-09-25T08:46:37Z</time>
      </trkpt>
      <trkpt lat="49.0464" lon="2.1193">
        <ele>60.3</ele>
        <time>2022-09-25T08:46:43Z</time>
      </trkpt>
      <trkpt lat="49.04649" lon="2.11934">
        <ele>59</ele>
        <time>2022-09-25T08:46:48Z</time>
      </trkpt>
      <trkpt lat="49.0466" lon="2.1194">
        <ele>57.7</ele>
        <time>2022-09-25T08:46:54Z</time>
      </trkpt>
      <trkpt lat="49.04668" lon="2.11948">
        <ele>56.7</ele>
        <time>2022-09-25T08:47:00Z</time>
      </trkpt>
      <trkpt lat="49.04673" lon="2.11955">
        <ele>56.1</ele>
        <time>2022-09-25T08:47:05Z</time>
      </trkpt>
      <trkpt lat="49.04678" lon="2.11963">
        <ele>55.6</ele>
        <time>2022-09-25T08:47:11Z</time>
      </trkpt>
      <trkpt lat="49.04684" lon="2.11974">
        <ele>55.3</ele>
        <time>2022-09-25T08:47:16Z</time>
      </trkpt>
      <trkpt lat="49.04689" lon="2.11982">
        <ele>55.4</ele>
        <time>2022-09-25T08:47:21Z</time>
      </trkpt>
      <trkpt lat="49.04694" lon="2.11993">
        <ele>55.6</ele>
        <time>2022-09-25T08:47:26Z</time>
      </trkpt>
      <trkpt lat="49.04698" lon="2.12004">
        <ele>56</ele>
        <time>2022-09-25T08:47:32Z</time>
      </trkpt>
      <trkpt lat="49.047" lon="2.12014">
        <ele>56.2</ele>
        <time>2022-09-25T08:47:37Z</time>
      </trkpt>
      <trkpt lat="49.04704" lon="2.12026">
        <ele>56.5</ele>
        <time>2022-09-25T08:47:43Z</time>
      </trkpt>
      <trkpt lat="49.04711" lon="2.12032">
        <ele>56.7</ele>
        <time>2022-09-25T08:47:48Z</time>
      </trkpt>
      <trkpt lat="49.04721" lon="2.12029">
        <ele>56.9</ele>
        <time>2022-09-25T08:47:54Z</time>
      </trkpt>
      <trkpt lat="49.04727" lon="2.12025">
        <ele>56.8</ele>
        <time>2022-09-25T08:47:59Z</time>
      </trkpt>
      <trkpt lat="49.04733" lon="2.12017">
        <ele>56.5</ele>
        <time>2022-09-25T08:48:05Z</time>
      </trkpt>
      <trkpt lat="49.04738" lon="2.1201">
        <ele>56.1</ele>
        <time>2022-09-25T08:48:10Z</time>
      </trkpt>
      <trkpt lat="49.04742" lon="2.11999">
        <ele>55.6</ele>
        <time>2022-09-25T08:48:16Z</time>
      </trkpt>
      <trkpt lat="49.04748" lon="2.1199">
        <ele>55.1</ele>
        <time>2022-09-25T08:48:22Z</time>
      </trkpt>
      <trkpt lat="49.04756" lon="2.1198">
        <ele>54.5</ele>
        <time>2022-09-25T08:48:28Z</time>
      </trkpt>
      <trkpt lat="49.04764" lon="2.1197">
        <ele>53.9</ele>
        <time>2022-09-25T08:48:34Z</time>
      </trkpt>
      <trkpt lat="49.04769" lon="2.1196">
        <ele>53.7</ele>
        <time>2022-09-25T08:48:39Z</time>
      </trkpt>
      <trkpt lat="49.04774" lon="2.11953">
        <ele>53.7</ele>
        <time>2022-09-25T08:48:44Z</time>
      </trkpt>
      <trkpt lat="49.04778" lon="2.11948">
        <ele>54.1</ele>
        <time>2022-09-25T08:48:50Z</time>
      </trkpt>
      <trkpt lat="49.04783" lon="2.11939">
        <ele>54.3</ele>
        <time>2022-09-25T08:48:56Z</time>
      </trkpt>
      <trkpt lat="49.04785" lon="2.11932">
        <ele>54.3</ele>
        <time>2022-09-25T08:49:01Z</time>
      </trkpt>
      <trkpt lat="49.0479" lon="2.1192">
        <ele>54</ele>
        <time>2022-09-25T08:49:07Z</time>
      </trkpt>
      <trkpt lat="49.04795" lon="2.1191">
        <ele>53.4</ele>
        <time>2022-09-25T08:49:12Z</time>
      </trkpt>
      <trkpt lat="49.04803" lon="2.119">
        <ele>52.5</ele>
        <time>2022-09-25T08:49:18Z</time>
      </trkpt>
      <trkpt lat="49.04812" lon="2.11893">
        <ele>51.5</ele>
        <time>2022-09-25T08:49:24Z</time>
      </trkpt>
      <trkpt lat="49.04816" lon="2.11886">
        <ele>50.6</ele>
        <time>2022-09-25T08:49:29Z</time>
      </trkpt>
      <trkpt lat="49.04816" lon="2.11874">
        <ele>49.5</ele>
        <time>2022-09-25T08:49:35Z</time>
      </trkpt>
      <trkpt lat="49.04812" lon="2.11864">
        <ele>48.8</ele>
        <time>2022-09-25T08:49:41Z</time>
      </trkpt>
      <trkpt lat="49.04808" lon="2.11857">
        <ele>48.5</ele>
        <time>2022-09-25T08:49:47Z</time>
      </trkpt>
      <trkpt lat="49.04805" lon="2.11849">
        <ele>48.6</ele>
        <time>2022-09-25T08:49:52Z</time>
      </trkpt>
      <trkpt lat="49.048" lon="2.1184">
        <ele>49.1</ele>
        <time>2022-09-25T08:49:57Z</time>
      </trkpt>
      <trkpt lat="49.04795" lon="2.11832">
        <ele>49.8</ele>
        <time>2022-09-25T08:50:03Z</time>
      </trkpt>
      <trkpt lat="49.04789" lon="2.11823">
        <ele>50.4</ele>
        <time>2022-09-25T08:50:09Z</time>
      </trkpt>
      <trkpt lat="49.04784" lon="2.11817">
        <ele>51</ele>
        <time>2022-09-25T08:50:14Z</time>
      </trkpt>
      <trkpt lat="49.04778" lon="2.11806">
        <ele>51.8</ele>
        <time>2022-09-25T08:50:20Z</time>
      </trkpt>
      <trkpt lat="49.04773" lon="2.11795">
        <ele>52.4</ele>
        <time>2022-09-25T08:50:25Z</time>
      </trkpt>
      <trkpt lat="49.0477" lon="2.11782">
        <ele>52.9</ele>
        <time>2022-09-25T08:50:31Z</time>
      </trkpt>
      <trkpt lat="49.04771" lon="2.11774">
        <ele>53.2</ele>
        <time>2022-09-25T08:50:36Z</time>
      </trkpt>
      <trkpt lat="49.04768" lon="2.11762">
        <ele>53.4</ele>
        <time>2022-09-25T08:50:42Z</time>
      </trkpt>
      <trkpt lat="49.04763" lon="2.11752">
        <ele>53.6</ele>
        <time>2022-09-25T08:50:48Z</time>
      </trkpt>
      <trkpt lat="49.04757" lon="2.11745">
        <ele>53.8</ele>
        <time>2022-09-25T08:50:53Z</time>
      </trkpt>
      <trkpt lat="49.04749" lon="2.11738">
        <ele>54</ele>
        <time>2022-09-25T08:50:59Z</time>
      </trkpt>
      <trkpt lat="49.04748" lon="2.11726">
        <ele>53.9</ele>
        <time>2022-09-25T08:51:05Z</time>
      </trkpt>
      <trkpt lat="49.04752" lon="2.11717">
        <ele>53.8</ele>
        <time>2022-09-25T08:51:10Z</time>
      </trkpt>
      <trkpt lat="49.04757" lon="2.11705">
        <ele>53.5</ele>
        <time>2022-09-25T08:51:16Z</time>
      </trkpt>
      <trkpt lat="49.04764" lon="2.11705">
        <ele>53.3</ele>
        <time>2022-09-25T08:51:21Z</time>
      </trkpt>
      <trkpt lat="49.04771" lon="2.11708">
        <ele>53.1</ele>
        <time>2022-09-25T08:51:27Z</time>
      </trkpt>
      <trkpt lat="49.04775" lon="2.11707">
        <ele>53.1</ele>
        <time>2022-09-25T08:51:32Z</time>
      </trkpt>
      <trkpt lat="49.04781" lon="2.11706">
        <ele>52.9</ele>
        <time>2022-09-25T08:51:38Z</time>
      </trkpt>
      <trkpt lat="49.04787" lon="2.11705">
        <ele>52.6</ele>
        <time>2022-09-25T08:51:43Z</time>
      </trkpt>
      <trkpt lat="49.04794" lon="2.11701">
        <ele>52.5</ele>
        <time>2022-09-25T08:51:49Z</time>
      </trkpt>
      <trkpt lat="49.04801" lon="2.11693">
        <ele>52.4</ele>
        <time>2022-09-25T08:51:55Z</time>
      </trkpt>
      <trkpt lat="49.04806" lon="2.11681">
        <ele>51.9</ele>
        <time>2022-09-25T08:52:01Z</time>
      </trkpt>
      <trkpt lat="49.04809" lon="2.11672">
        <ele>51.4</ele>
        <time>2022-09-25T08:52:06Z</time>
      </trkpt>
      <trkpt lat="49.04814" lon="2.11662">
        <ele>50.8</ele>
        <time>2022-09-25T08:52:12Z</time>
      </trkpt>
      <trkpt lat="49.04821" lon="2.11654">
        <ele>50.3</ele>
        <time>2022-09-25T08:52:18Z</time>
      </trkpt>
      <trkpt lat="49.04828" lon="2.11644">
        <ele>50</ele>
        <time>2022-09-25T08:52:24Z</time>
      </trkpt>
      <trkpt lat="49.04835" lon="2.11633">
        <ele>49.6</ele>
        <time>2022-09-25T08:52:30Z</time>
      </trkpt>
      <trkpt lat="49.04841" lon="2.11623">
        <ele>49.2</ele>
        <time>2022-09-25T08:52:35Z</time>
      </trkpt>
      <trkpt lat="49.04848" lon="2.1161">
        <ele>49.1</ele>
        <time>2022-09-25T08:52:41Z</time>
      </trkpt>
      <trkpt lat="49.04852" lon="2.116">
        <ele>49.1</ele>
        <time>2022-09-25T08:52:46Z</time>
      </trkpt>
      <trkpt lat="49.04856" lon="2.11592">
        <ele>49.2</ele>
        <time>2022-09-25T08:52:52Z</time>
      </trkpt>
      <trkpt lat="49.04859" lon="2.11582">
        <ele>49.3</ele>
        <time>2022-09-25T08:52:58Z</time>
      </trkpt>
      <trkpt lat="49.04864" lon="2.11577">
        <ele>49.9</ele>
        <time>2022-09-25T08:53:05Z</time>
      </trkpt>
      <trkpt lat="49.04871" lon="2.11573">
        <ele>49.5</ele>
        <time>2022-09-25T08:53:11Z</time>
      </trkpt>
      <trkpt lat="49.04876" lon="2.11563">
        <ele>48.7</ele>
        <time>2022-09-25T08:53:16Z</time>
      </trkpt>
      <trkpt lat="49.04883" lon="2.11563">
        <ele>48.1</ele>
        <time>2022-09-25T08:53:21Z</time>
      </trkpt>
      <trkpt lat="49.04891" lon="2.11566">
        <ele>47.7</ele>
        <time>2022-09-25T08:53:26Z</time>
      </trkpt>
      <trkpt lat="49.04899" lon="2.11569">
        <ele>47.7</ele>
        <time>2022-09-25T08:53:32Z</time>
      </trkpt>
      <trkpt lat="49.04907" lon="2.11576">
        <ele>47.7</ele>
        <time>2022-09-25T08:53:37Z</time>
      </trkpt>
      <trkpt lat="49.04915" lon="2.11585">
        <ele>47.8</ele>
        <time>2022-09-25T08:53:43Z</time>
      </trkpt>
      <trkpt lat="49.04923" lon="2.11589">
        <ele>48.2</ele>
        <time>2022-09-25T08:53:48Z</time>
      </trkpt>
      <trkpt lat="49.04932" lon="2.11598">
        <ele>49</ele>
        <time>2022-09-25T08:53:54Z</time>
      </trkpt>
      <trkpt lat="49.04939" lon="2.11605">
        <ele>49.4</ele>
        <time>2022-09-25T08:54:00Z</time>
      </trkpt>
      <trkpt lat="49.04942" lon="2.11609">
        <ele>49.5</ele>
        <time>2022-09-25T08:54:05Z</time>
      </trkpt>
      <trkpt lat="49.04947" lon="2.11616">
        <ele>49.5</ele>
        <time>2022-09-25T08:54:11Z</time>
      </trkpt>
      <trkpt lat="49.04953" lon="2.11621">
        <ele>49.5</ele>
        <time>2022-09-25T08:54:16Z</time>
      </trkpt>
      <trkpt lat="49.0496" lon="2.11628">
        <ele>49.5</ele>
        <time>2022-09-25T08:54:22Z</time>
      </trkpt>
      <trkpt lat="49.04967" lon="2.11633">
        <ele>49.8</ele>
        <time>2022-09-25T08:54:27Z</time>
      </trkpt>
      <trkpt lat="49.04975" lon="2.1164">
        <ele>50.3</ele>
        <time>2022-09-25T08:54:33Z</time>
      </trkpt>
      <trkpt lat="49.04983" lon="2.11648">
        <ele>50.8</ele>
        <time>2022-09-25T08:54:38Z</time>
      </trkpt>
      <trkpt lat="49.04991" lon="2.11654">
        <ele>51.4</ele>
        <time>2022-09-25T08:54:44Z</time>
      </trkpt>
      <trkpt lat="49.04998" lon="2.11658">
        <ele>51.9</ele>
        <time>2022-09-25T08:54:49Z</time>
      </trkpt>
      <trkpt lat="49.05008" lon="2.11663">
        <ele>52.4</ele>
        <time>2022-09-25T08:54:55Z</time>
      </trkpt>
      <trkpt lat="49.05018" lon="2.1167">
        <ele>52.9</ele>
        <time>2022-09-25T08:55:01Z</time>
      </trkpt>
      <trkpt lat="49.05025" lon="2.11675">
        <ele>53.4</ele>
        <time>2022-09-25T08:55:06Z</time>
      </trkpt>
      <trkpt lat="49.05033" lon="2.1168">
        <ele>54</ele>
        <time>2022-09-25T08:55:12Z</time>
      </trkpt>
      <trkpt lat="49.05041" lon="2.11685">
        <ele>54.5</ele>
        <time>2022-09-25T08:55:17Z</time>
      </trkpt>
      <trkpt lat="49.05053" lon="2.1169">
        <ele>55.6</ele>
        <time>2022-09-25T08:55:24Z</time>
      </trkpt>
      <trkpt lat="49.05062" lon="2.11695">
        <ele>56.7</ele>
        <time>2022-09-25T08:55:30Z</time>
      </trkpt>
      <trkpt lat="49.0507" lon="2.11692">
        <ele>58</ele>
        <time>2022-09-25T08:55:36Z</time>
      </trkpt>
      <trkpt lat="49.05075" lon="2.1169">
        <ele>59.1</ele>
        <time>2022-09-25T08:55:41Z</time>
      </trkpt>
      <trkpt lat="49.05084" lon="2.11688">
        <ele>60.3</ele>
        <time>2022-09-25T08:55:47Z</time>
      </trkpt>
      <trkpt lat="49.05092" lon="2.11684">
        <ele>61.5</ele>
        <time>2022-09-25T08:55:53Z</time>
      </trkpt>
      <trkpt lat="49.051" lon="2.11679">
        <ele>62.6</ele>
        <time>2022-09-25T08:55:59Z</time>
      </trkpt>
      <trkpt lat="49.05108" lon="2.11674">
        <ele>63.5</ele>
        <time>2022-09-25T08:56:05Z</time>
      </trkpt>
      <trkpt lat="49.05115" lon="2.11671">
        <ele>64.3</ele>
        <time>2022-09-25T08:56:10Z</time>
      </trkpt>
      <trkpt lat="49.05124" lon="2.11665">
        <ele>65.3</ele>
        <time>2022-09-25T08:56:16Z</time>
      </trkpt>
      <trkpt lat="49.05134" lon="2.1166">
        <ele>66.3</ele>
        <time>2022-09-25T08:56:22Z</time>
      </trkpt>
      <trkpt lat="49.05142" lon="2.11653">
        <ele>67.4</ele>
        <time>2022-09-25T08:56:28Z</time>
      </trkpt>
      <trkpt lat="49.05148" lon="2.11647">
        <ele>68.2</ele>
        <time>2022-09-25T08:56:33Z</time>
      </trkpt>
      <trkpt lat="49.0515" lon="2.1164">
        <ele>68.8</ele>
        <time>2022-09-25T08:56:38Z</time>
      </trkpt>
      <trkpt lat="49.05154" lon="2.11628">
        <ele>69.4</ele>
        <time>2022-09-25T08:56:44Z</time>
      </trkpt>
      <trkpt lat="49.05159" lon="2.11616">
        <ele>69.9</ele>
        <time>2022-09-25T08:56:50Z</time>
      </trkpt>
      <trkpt lat="49.0516" lon="2.11604">
        <ele>70.2</ele>
        <time>2022-09-25T08:56:56Z</time>
      </trkpt>
      <trkpt lat="49.0516" lon="2.11593">
        <ele>70.3</ele>
        <time>2022-09-25T08:57:01Z</time>
      </trkpt>
      <trkpt lat="49.05163" lon="2.11581">
        <ele>70.2</ele>
        <time>2022-09-25T08:57:07Z</time>
      </trkpt>
      <trkpt lat="49.05167" lon="2.1157">
        <ele>70.2</ele>
        <time>2022-09-25T08:57:12Z</time>
      </trkpt>
      <trkpt lat="49.05172" lon="2.11559">
        <ele>70.1</ele>
        <time>2022-09-25T08:57:18Z</time>
      </trkpt>
      <trkpt lat="49.05175" lon="2.1155">
        <ele>69.9</ele>
        <time>2022-09-25T08:57:25Z</time>
      </trkpt>
      <trkpt lat="49.0518" lon="2.11536">
        <ele>69.6</ele>
        <time>2022-09-25T08:57:30Z</time>
      </trkpt>
      <trkpt lat="49.05183" lon="2.11526">
        <ele>69</ele>
        <time>2022-09-25T08:57:35Z</time>
      </trkpt>
      <trkpt lat="49.05187" lon="2.11516">
        <ele>68.3</ele>
        <time>2022-09-25T08:57:40Z</time>
      </trkpt>
      <trkpt lat="49.05191" lon="2.11502">
        <ele>67.5</ele>
        <time>2022-09-25T08:57:46Z</time>
      </trkpt>
      <trkpt lat="49.05193" lon="2.11492">
        <ele>66.7</ele>
        <time>2022-09-25T08:57:51Z</time>
      </trkpt>
      <trkpt lat="49.05196" lon="2.11482">
        <ele>66</ele>
        <time>2022-09-25T08:57:57Z</time>
      </trkpt>
      <trkpt lat="49.05202" lon="2.11471">
        <ele>65.7</ele>
        <time>2022-09-25T08:58:03Z</time>
      </trkpt>
      <trkpt lat="49.05209" lon="2.11467">
        <ele>65.7</ele>
        <time>2022-09-25T08:58:08Z</time>
      </trkpt>
      <trkpt lat="49.05214" lon="2.11472">
        <ele>65.8</ele>
        <time>2022-09-25T08:58:14Z</time>
      </trkpt>
      <trkpt lat="49.05218" lon="2.11484">
        <ele>65.8</ele>
        <time>2022-09-25T08:58:20Z</time>
      </trkpt>
      <trkpt lat="49.05224" lon="2.1149">
        <ele>65.9</ele>
        <time>2022-09-25T08:58:26Z</time>
      </trkpt>
      <trkpt lat="49.05231" lon="2.11489">
        <ele>66.2</ele>
        <time>2022-09-25T08:58:31Z</time>
      </trkpt>
      <trkpt lat="49.05239" lon="2.11493">
        <ele>66.7</ele>
        <time>2022-09-25T08:58:37Z</time>
      </trkpt>
      <trkpt lat="49.05248" lon="2.11492">
        <ele>67.3</ele>
        <time>2022-09-25T08:58:43Z</time>
      </trkpt>
      <trkpt lat="49.05256" lon="2.11489">
        <ele>67.8</ele>
        <time>2022-09-25T08:58:48Z</time>
      </trkpt>
      <trkpt lat="49.05264" lon="2.11485">
        <ele>68.4</ele>
        <time>2022-09-25T08:58:54Z</time>
      </trkpt>
      <trkpt lat="49.05272" lon="2.11481">
        <ele>68.9</ele>
        <time>2022-09-25T08:58:59Z</time>
      </trkpt>
      <trkpt lat="49.05281" lon="2.11476">
        <ele>69.3</ele>
        <time>2022-09-25T08:59:05Z</time>
      </trkpt>
      <trkpt lat="49.05288" lon="2.11472">
        <ele>69.6</ele>
        <time>2022-09-25T08:59:10Z</time>
      </trkpt>
      <trkpt lat="49.05292" lon="2.11467">
        <ele>69.8</ele>
        <time>2022-09-25T08:59:15Z</time>
      </trkpt>
      <trkpt lat="49.05298" lon="2.11459">
        <ele>70.1</ele>
        <time>2022-09-25T08:59:21Z</time>
      </trkpt>
      <trkpt lat="49.05304" lon="2.11451">
        <ele>70.3</ele>
        <time>2022-09-25T08:59:26Z</time>
      </trkpt>
      <trkpt lat="49.05311" lon="2.11439">
        <ele>70.6</ele>
        <time>2022-09-25T08:59:32Z</time>
      </trkpt>
      <trkpt lat="49.05317" lon="2.1143">
        <ele>71</ele>
        <time>2022-09-25T08:59:38Z</time>
      </trkpt>
      <trkpt lat="49.05324" lon="2.11424">
        <ele>71.4</ele>
        <time>2022-09-25T08:59:44Z</time>
      </trkpt>
      <trkpt lat="49.0533" lon="2.11416">
        <ele>72</ele>
        <time>2022-09-25T08:59:50Z</time>
      </trkpt>
      <trkpt lat="49.05336" lon="2.11411">
        <ele>72.4</ele>
        <time>2022-09-25T08:59:55Z</time>
      </trkpt>
      <trkpt lat="49.05343" lon="2.11405">
        <ele>72.7</ele>
        <time>2022-09-25T09:00:00Z</time>
      </trkpt>
      <trkpt lat="49.05353" lon="2.11401">
        <ele>73</ele>
        <time>2022-09-25T09:00:06Z</time>
      </trkpt>
      <trkpt lat="49.05359" lon="2.11401">
        <ele>73</ele>
        <time>2022-09-25T09:00:11Z</time>
      </trkpt>
      <trkpt lat="49.05365" lon="2.11399">
        <ele>72.9</ele>
        <time>2022-09-25T09:00:17Z</time>
      </trkpt>
      <trkpt lat="49.05371" lon="2.11393">
        <ele>72.9</ele>
        <time>2022-09-25T09:00:22Z</time>
      </trkpt>
      <trkpt lat="49.05379" lon="2.11384">
        <ele>72.8</ele>
        <time>2022-09-25T09:00:27Z</time>
      </trkpt>
      <trkpt lat="49.05386" lon="2.11374">
        <ele>72.6</ele>
        <time>2022-09-25T09:00:33Z</time>
      </trkpt>
      <trkpt lat="49.0539" lon="2.11366">
        <ele>72.2</ele>
        <time>2022-09-25T09:00:39Z</time>
      </trkpt>
      <trkpt lat="49.05393" lon="2.11358">
        <ele>71.7</ele>
        <time>2022-09-25T09:00:45Z</time>
      </trkpt>
      <trkpt lat="49.05391" lon="2.11352">
        <ele>71.3</ele>
        <time>2022-09-25T09:00:50Z</time>
      </trkpt>
      <trkpt lat="49.05385" lon="2.11343">
        <ele>70.7</ele>
        <time>2022-09-25T09:00:56Z</time>
      </trkpt>
      <trkpt lat="49.05381" lon="2.11334">
        <ele>70.2</ele>
        <time>2022-09-25T09:01:02Z</time>
      </trkpt>
      <trkpt lat="49.05377" lon="2.11327">
        <ele>70</ele>
        <time>2022-09-25T09:01:07Z</time>
      </trkpt>
      <trkpt lat="49.05371" lon="2.1132">
        <ele>69.8</ele>
        <time>2022-09-25T09:01:12Z</time>
      </trkpt>
      <trkpt lat="49.05365" lon="2.11311">
        <ele>69.3</ele>
        <time>2022-09-25T09:01:18Z</time>
      </trkpt>
      <trkpt lat="49.05359" lon="2.11303">
        <ele>68.9</ele>
        <time>2022-09-25T09:01:23Z</time>
      </trkpt>
      <trkpt lat="49.05354" lon="2.11295">
        <ele>68.6</ele>
        <time>2022-09-25T09:01:28Z</time>
      </trkpt>
      <trkpt lat="49.05349" lon="2.11288">
        <ele>68.2</ele>
        <time>2022-09-25T09:01:34Z</time>
      </trkpt>
      <trkpt lat="49.05345" lon="2.11282">
        <ele>67.9</ele>
        <time>2022-09-25T09:01:39Z</time>
      </trkpt>
      <trkpt lat="49.05341" lon="2.11275">
        <ele>67.5</ele>
        <time>2022-09-25T09:01:45Z</time>
      </trkpt>
      <trkpt lat="49.05333" lon="2.11263">
        <ele>67.1</ele>
        <time>2022-09-25T09:01:51Z</time>
      </trkpt>
      <trkpt lat="49.05327" lon="2.11252">
        <ele>67</ele>
        <time>2022-09-25T09:01:56Z</time>
      </trkpt>
      <trkpt lat="49.05317" lon="2.11239">
        <ele>66.8</ele>
        <time>2022-09-25T09:02:02Z</time>
      </trkpt>
      <trkpt lat="49.05311" lon="2.1123">
        <ele>66.8</ele>
        <time>2022-09-25T09:02:08Z</time>
      </trkpt>
      <trkpt lat="49.05305" lon="2.11222">
        <ele>66.8</ele>
        <time>2022-09-25T09:02:14Z</time>
      </trkpt>
      <trkpt lat="49.05299" lon="2.11213">
        <ele>66.9</ele>
        <time>2022-09-25T09:02:20Z</time>
      </trkpt>
      <trkpt lat="49.05292" lon="2.11201">
        <ele>66.9</ele>
        <time>2022-09-25T09:02:26Z</time>
      </trkpt>
      <trkpt lat="49.05285" lon="2.11192">
        <ele>66.8</ele>
        <time>2022-09-25T09:02:31Z</time>
      </trkpt>
      <trkpt lat="49.05279" lon="2.11182">
        <ele>66.6</ele>
        <time>2022-09-25T09:02:37Z</time>
      </trkpt>
      <trkpt lat="49.05274" lon="2.11174">
        <ele>66.3</ele>
        <time>2022-09-25T09:02:42Z</time>
      </trkpt>
      <trkpt lat="49.0527" lon="2.11167">
        <ele>66</ele>
        <time>2022-09-25T09:02:48Z</time>
      </trkpt>
      <trkpt lat="49.05264" lon="2.11158">
        <ele>65.6</ele>
        <time>2022-09-25T09:02:54Z</time>
      </trkpt>
      <trkpt lat="49.05256" lon="2.11149">
        <ele>65.5</ele>
        <time>2022-09-25T09:03:00Z</time>
      </trkpt>
      <trkpt lat="49.0525" lon="2.1114">
        <ele>65.5</ele>
        <time>2022-09-25T09:03:05Z</time>
      </trkpt>
      <trkpt lat="49.05245" lon="2.11129">
        <ele>65.5</ele>
        <time>2022-09-25T09:03:11Z</time>
      </trkpt>
      <trkpt lat="49.05239" lon="2.11123">
        <ele>65.6</ele>
        <time>2022-09-25T09:03:16Z</time>
      </trkpt>
      <trkpt lat="49.05232" lon="2.11114">
        <ele>65.7</ele>
        <time>2022-09-25T09:03:22Z</time>
      </trkpt>
      <trkpt lat="49.05227" lon="2.11105">
        <ele>65.7</ele>
        <time>2022-09-25T09:03:28Z</time>
      </trkpt>
      <trkpt lat="49.0522" lon="2.11097">
        <ele>65.8</ele>
        <time>2022-09-25T09:03:33Z</time>
      </trkpt>
      <trkpt lat="49.05214" lon="2.11091">
        <ele>65.9</ele>
        <time>2022-09-25T09:03:38Z</time>
      </trkpt>
      <trkpt lat="49.05208" lon="2.11083">
        <ele>66</ele>
        <time>2022-09-25T09:03:44Z</time>
      </trkpt>
      <trkpt lat="49.05202" lon="2.11076">
        <ele>66.1</ele>
        <time>2022-09-25T09:03:49Z</time>
      </trkpt>
      <trkpt lat="49.05195" lon="2.11068">
        <ele>66.3</ele>
        <time>2022-09-25T09:03:55Z</time>
      </trkpt>
      <trkpt lat="49.05188" lon="2.11057">
        <ele>66.3</ele>
        <time>2022-09-25T09:04:01Z</time>
      </trkpt>
      <trkpt lat="49.05181" lon="2.11048">
        <ele>66.3</ele>
        <time>2022-09-25T09:04:06Z</time>
      </trkpt>
      <trkpt lat="49.05175" lon="2.1104">
        <ele>66.3</ele>
        <time>2022-09-25T09:04:11Z</time>
      </trkpt>
      <trkpt lat="49.05169" lon="2.1103">
        <ele>66.4</ele>
        <time>2022-09-25T09:04:17Z</time>
      </trkpt>
      <trkpt lat="49.05165" lon="2.11023">
        <ele>66.4</ele>
        <time>2022-09-25T09:04:22Z</time>
      </trkpt>
      <trkpt lat="49.0516" lon="2.11015">
        <ele>66.3</ele>
        <time>2022-09-25T09:04:28Z</time>
      </trkpt>
      <trkpt lat="49.05155" lon="2.11006">
        <ele>66.4</ele>
        <time>2022-09-25T09:04:33Z</time>
      </trkpt>
      <trkpt lat="49.05149" lon="2.10998">
        <ele>66.3</ele>
        <time>2022-09-25T09:04:38Z</time>
      </trkpt>
      <trkpt lat="49.05142" lon="2.1099">
        <ele>66.2</ele>
        <time>2022-09-25T09:04:44Z</time>
      </trkpt>
      <trkpt lat="49.05136" lon="2.10981">
        <ele>66</ele>
        <time>2022-09-25T09:04:50Z</time>
      </trkpt>
      <trkpt lat="49.05128" lon="2.10972">
        <ele>65.8</ele>
        <time>2022-09-25T09:04:56Z</time>
      </trkpt>
      <trkpt lat="49.05122" lon="2.10964">
        <ele>65.8</ele>
        <time>2022-09-25T09:05:01Z</time>
      </trkpt>
      <trkpt lat="49.05116" lon="2.10955">
        <ele>65.8</ele>
        <time>2022-09-25T09:05:06Z</time>
      </trkpt>
      <trkpt lat="49.05108" lon="2.10943">
        <ele>65.8</ele>
        <time>2022-09-25T09:05:12Z</time>
      </trkpt>
      <trkpt lat="49.05102" lon="2.10931">
        <ele>65.8</ele>
        <time>2022-09-25T09:05:18Z</time>
      </trkpt>
      <trkpt lat="49.05096" lon="2.10922">
        <ele>65.8</ele>
        <time>2022-09-25T09:05:24Z</time>
      </trkpt>
      <trkpt lat="49.05091" lon="2.10914">
        <ele>65.8</ele>
        <time>2022-09-25T09:05:30Z</time>
      </trkpt>
      <trkpt lat="49.05086" lon="2.10908">
        <ele>65.8</ele>
        <time>2022-09-25T09:05:35Z</time>
      </trkpt>
      <trkpt lat="49.05078" lon="2.10897">
        <ele>66</ele>
        <time>2022-09-25T09:05:41Z</time>
      </trkpt>
      <trkpt lat="49.05074" lon="2.10888">
        <ele>66.5</ele>
        <time>2022-09-25T09:05:47Z</time>
      </trkpt>
      <trkpt lat="49.05072" lon="2.10878">
        <ele>67.2</ele>
        <time>2022-09-25T09:05:52Z</time>
      </trkpt>
      <trkpt lat="49.05066" lon="2.10867">
        <ele>68.6</ele>
        <time>2022-09-25T09:05:58Z</time>
      </trkpt>
      <trkpt lat="49.0506" lon="2.10858">
        <ele>69.7</ele>
        <time>2022-09-25T09:06:03Z</time>
      </trkpt>
      <trkpt lat="49.05055" lon="2.10851">
        <ele>70.5</ele>
        <time>2022-09-25T09:06:08Z</time>
      </trkpt>
      <trkpt lat="49.05051" lon="2.10844">
        <ele>71</ele>
        <time>2022-09-25T09:06:13Z</time>
      </trkpt>
      <trkpt lat="49.05044" lon="2.10834">
        <ele>71.3</ele>
        <time>2022-09-25T09:06:19Z</time>
      </trkpt>
      <trkpt lat="49.05036" lon="2.10824">
        <ele>71.4</ele>
        <time>2022-09-25T09:06:25Z</time>
      </trkpt>
      <trkpt lat="49.0503" lon="2.10812">
        <ele>71.5</ele>
        <time>2022-09-25T09:06:31Z</time>
      </trkpt>
      <trkpt lat="49.05025" lon="2.108">
        <ele>71.9</ele>
        <time>2022-09-25T09:06:37Z</time>
      </trkpt>
      <trkpt lat="49.0502" lon="2.1079">
        <ele>72.2</ele>
        <time>2022-09-25T09:06:43Z</time>
      </trkpt>
      <trkpt lat="49.05016" lon="2.1078">
        <ele>72.5</ele>
        <time>2022-09-25T09:06:48Z</time>
      </trkpt>
      <trkpt lat="49.05013" lon="2.10771">
        <ele>72.8</ele>
        <time>2022-09-25T09:06:54Z</time>
      </trkpt>
      <trkpt lat="49.05011" lon="2.1076">
        <ele>72.9</ele>
        <time>2022-09-25T09:06:59Z</time>
      </trkpt>
      <trkpt lat="49.05009" lon="2.10749">
        <ele>73.3</ele>
        <time>2022-09-25T09:07:05Z</time>
      </trkpt>
      <trkpt lat="49.05004" lon="2.1074">
        <ele>73.6</ele>
        <time>2022-09-25T09:07:10Z</time>
      </trkpt>
      <trkpt lat="49.04999" lon="2.10727">
        <ele>73.9</ele>
        <time>2022-09-25T09:07:15Z</time>
      </trkpt>
      <trkpt lat="49.04994" lon="2.10717">
        <ele>74</ele>
        <time>2022-09-25T09:07:21Z</time>
      </trkpt>
      <trkpt lat="49.04992" lon="2.10712">
        <ele>73.8</ele>
        <time>2022-09-25T09:07:27Z</time>
      </trkpt>
      <trkpt lat="49.0499" lon="2.107">
        <ele>73.5</ele>
        <time>2022-09-25T09:07:32Z</time>
      </trkpt>
      <trkpt lat="49.04984" lon="2.10685">
        <ele>73.4</ele>
        <time>2022-09-25T09:07:38Z</time>
      </trkpt>
      <trkpt lat="49.04981" lon="2.10673">
        <ele>73.4</ele>
        <time>2022-09-25T09:07:43Z</time>
      </trkpt>
      <trkpt lat="49.04978" lon="2.10661">
        <ele>73.8</ele>
        <time>2022-09-25T09:07:49Z</time>
      </trkpt>
      <trkpt lat="49.04972" lon="2.1065">
        <ele>73.9</ele>
        <time>2022-09-25T09:07:55Z</time>
      </trkpt>
      <trkpt lat="49.04965" lon="2.10635">
        <ele>73.6</ele>
        <time>2022-09-25T09:08:00Z</time>
      </trkpt>
      <trkpt lat="49.04967" lon="2.10627">
        <ele>73.6</ele>
        <time>2022-09-25T09:08:06Z</time>
      </trkpt>
      <trkpt lat="49.04965" lon="2.10619">
        <ele>73.9</ele>
        <time>2022-09-25T09:08:11Z</time>
      </trkpt>
      <trkpt lat="49.04959" lon="2.10607">
        <ele>74.2</ele>
        <time>2022-09-25T09:08:17Z</time>
      </trkpt>
      <trkpt lat="49.04951" lon="2.10591">
        <ele>74.2</ele>
        <time>2022-09-25T09:08:23Z</time>
      </trkpt>
      <trkpt lat="49.04946" lon="2.1058">
        <ele>74.1</ele>
        <time>2022-09-25T09:08:28Z</time>
      </trkpt>
      <trkpt lat="49.04942" lon="2.10568">
        <ele>74.1</ele>
        <time>2022-09-25T09:08:34Z</time>
      </trkpt>
      <trkpt lat="49.04937" lon="2.10556">
        <ele>74</ele>
        <time>2022-09-25T09:08:40Z</time>
      </trkpt>
      <trkpt lat="49.04933" lon="2.10546">
        <ele>74.3</ele>
        <time>2022-09-25T09:08:45Z</time>
      </trkpt>
      <trkpt lat="49.0493" lon="2.10537">
        <ele>74.6</ele>
        <time>2022-09-25T09:08:51Z</time>
      </trkpt>
      <trkpt lat="49.04924" lon="2.10527">
        <ele>74.8</ele>
        <time>2022-09-25T09:08:56Z</time>
      </trkpt>
      <trkpt lat="49.0492" lon="2.10514">
        <ele>74.8</ele>
        <time>2022-09-25T09:09:02Z</time>
      </trkpt>
      <trkpt lat="49.04922" lon="2.10503">
        <ele>75.4</ele>
        <time>2022-09-25T09:09:08Z</time>
      </trkpt>
      <trkpt lat="49.0492" lon="2.10494">
        <ele>76.6</ele>
        <time>2022-09-25T09:09:14Z</time>
      </trkpt>
      <trkpt lat="49.04917" lon="2.10488">
        <ele>77.7</ele>
        <time>2022-09-25T09:09:20Z</time>
      </trkpt>
      <trkpt lat="49.04909" lon="2.1048">
        <ele>78.2</ele>
        <time>2022-09-25T09:09:25Z</time>
      </trkpt>
      <trkpt lat="49.04901" lon="2.10467">
        <ele>78.3</ele>
        <time>2022-09-25T09:09:31Z</time>
      </trkpt>
      <trkpt lat="49.04899" lon="2.10456">
        <ele>78.1</ele>
        <time>2022-09-25T09:09:36Z</time>
      </trkpt>
      <trkpt lat="49.04894" lon="2.10445">
        <ele>78.2</ele>
        <time>2022-09-25T09:09:42Z</time>
      </trkpt>
      <trkpt lat="49.04893" lon="2.10434">
        <ele>78.7</ele>
        <time>2022-09-25T09:09:48Z</time>
      </trkpt>
      <trkpt lat="49.04892" lon="2.10428">
        <ele>79.2</ele>
        <time>2022-09-25T09:09:53Z</time>
      </trkpt>
      <trkpt lat="49.04886" lon="2.1042">
        <ele>79.8</ele>
        <time>2022-09-25T09:09:59Z</time>
      </trkpt>
      <trkpt lat="49.04875" lon="2.10406">
        <ele>80</ele>
        <time>2022-09-25T09:10:04Z</time>
      </trkpt>
      <trkpt lat="49.04868" lon="2.10392">
        <ele>80.1</ele>
        <time>2022-09-25T09:10:10Z</time>
      </trkpt>
      <trkpt lat="49.04862" lon="2.10383">
        <ele>80</ele>
        <time>2022-09-25T09:10:15Z</time>
      </trkpt>
      <trkpt lat="49.04857" lon="2.10375">
        <ele>79.8</ele>
        <time>2022-09-25T09:10:20Z</time>
      </trkpt>
      <trkpt lat="49.04849" lon="2.10364">
        <ele>79.4</ele>
        <time>2022-09-25T09:10:26Z</time>
      </trkpt>
      <trkpt lat="49.04844" lon="2.10352">
        <ele>78.9</ele>
        <time>2022-09-25T09:10:32Z</time>
      </trkpt>
      <trkpt lat="49.04838" lon="2.1034">
        <ele>78.6</ele>
        <time>2022-09-25T09:10:38Z</time>
      </trkpt>
      <trkpt lat="49.04832" lon="2.10331">
        <ele>78.1</ele>
        <time>2022-09-25T09:10:44Z</time>
      </trkpt>
      <trkpt lat="49.04827" lon="2.10321">
        <ele>77.6</ele>
        <time>2022-09-25T09:10:50Z</time>
      </trkpt>
      <trkpt lat="49.04821" lon="2.10313">
        <ele>77</ele>
        <time>2022-09-25T09:10:56Z</time>
      </trkpt>
      <trkpt lat="49.04815" lon="2.10303">
        <ele>76.6</ele>
        <time>2022-09-25T09:11:01Z</time>
      </trkpt>
      <trkpt lat="49.0481" lon="2.10296">
        <ele>76.3</ele>
        <time>2022-09-25T09:11:06Z</time>
      </trkpt>
      <trkpt lat="49.04805" lon="2.10292">
        <ele>75.9</ele>
        <time>2022-09-25T09:11:11Z</time>
      </trkpt>
      <trkpt lat="49.04798" lon="2.10286">
        <ele>75.5</ele>
        <time>2022-09-25T09:11:17Z</time>
      </trkpt>
      <trkpt lat="49.04794" lon="2.10274">
        <ele>75.3</ele>
        <time>2022-09-25T09:11:23Z</time>
      </trkpt>
      <trkpt lat="49.04798" lon="2.10265">
        <ele>75.1</ele>
        <time>2022-09-25T09:11:28Z</time>
      </trkpt>
      <trkpt lat="49.04802" lon="2.10255">
        <ele>74.8</ele>
        <time>2022-09-25T09:11:33Z</time>
      </trkpt>
      <trkpt lat="49.04808" lon="2.10241">
        <ele>74.1</ele>
        <time>2022-09-25T09:11:39Z</time>
      </trkpt>
      <trkpt lat="49.04812" lon="2.10232">
        <ele>73.7</ele>
        <time>2022-09-25T09:11:44Z</time>
      </trkpt>
      <trkpt lat="49.04817" lon="2.10221">
        <ele>73.5</ele>
        <time>2022-09-25T09:11:50Z</time>
      </trkpt>
      <trkpt lat="49.04821" lon="2.10212">
        <ele>73.5</ele>
        <time>2022-09-25T09:11:55Z</time>
      </trkpt>
      <trkpt lat="49.04824" lon="2.10199">
        <ele>73.5</ele>
        <time>2022-09-25T09:12:01Z</time>
      </trkpt>
      <trkpt lat="49.04828" lon="2.10192">
        <ele>73.4</ele>
        <time>2022-09-25T09:12:06Z</time>
      </trkpt>
      <trkpt lat="49.04833" lon="2.10181">
        <ele>72.9</ele>
        <time>2022-09-25T09:12:12Z</time>
      </trkpt>
      <trkpt lat="49.04836" lon="2.1017">
        <ele>72.6</ele>
        <time>2022-09-25T09:12:17Z</time>
      </trkpt>
      <trkpt lat="49.04841" lon="2.10154">
        <ele>72.3</ele>
        <time>2022-09-25T09:12:24Z</time>
      </trkpt>
      <trkpt lat="49.04847" lon="2.10149">
        <ele>72.5</ele>
        <time>2022-09-25T09:12:29Z</time>
      </trkpt>
      <trkpt lat="49.04851" lon="2.10157">
        <ele>72.5</ele>
        <time>2022-09-25T09:12:34Z</time>
      </trkpt>
      <trkpt lat="49.04858" lon="2.10167">
        <ele>72.3</ele>
        <time>2022-09-25T09:12:40Z</time>
      </trkpt>
      <trkpt lat="49.04868" lon="2.10174">
        <ele>72.1</ele>
        <time>2022-09-25T09:12:46Z</time>
      </trkpt>
      <trkpt lat="49.04878" lon="2.10182">
        <ele>71.9</ele>
        <time>2022-09-25T09:12:52Z</time>
      </trkpt>
      <trkpt lat="49.04883" lon="2.1019">
        <ele>72.1</ele>
        <time>2022-09-25T09:12:58Z</time>
      </trkpt>
      <trkpt lat="49.04889" lon="2.10199">
        <ele>71.9</ele>
        <time>2022-09-25T09:13:04Z</time>
      </trkpt>
      <trkpt lat="49.04895" lon="2.1021">
        <ele>71.8</ele>
        <time>2022-09-25T09:13:09Z</time>
      </trkpt>
      <trkpt lat="49.04902" lon="2.10223">
        <ele>71.5</ele>
        <time>2022-09-25T09:13:15Z</time>
      </trkpt>
      <trkpt lat="49.04906" lon="2.10234">
        <ele>71.5</ele>
        <time>2022-09-25T09:13:20Z</time>
      </trkpt>
      <trkpt lat="49.04909" lon="2.10243">
        <ele>71.4</ele>
        <time>2022-09-25T09:13:26Z</time>
      </trkpt>
      <trkpt lat="49.04912" lon="2.1025">
        <ele>71.3</ele>
        <time>2022-09-25T09:13:31Z</time>
      </trkpt>
      <trkpt lat="49.04918" lon="2.10258">
        <ele>71.2</ele>
        <time>2022-09-25T09:13:37Z</time>
      </trkpt>
      <trkpt lat="49.04924" lon="2.10269">
        <ele>71.4</ele>
        <time>2022-09-25T09:13:42Z</time>
      </trkpt>
      <trkpt lat="49.04931" lon="2.1028">
        <ele>71.6</ele>
        <time>2022-09-25T09:13:48Z</time>
      </trkpt>
      <trkpt lat="49.04938" lon="2.10293">
        <ele>71.7</ele>
        <time>2022-09-25T09:13:54Z</time>
      </trkpt>
      <trkpt lat="49.04943" lon="2.103">
        <ele>71.6</ele>
        <time>2022-09-25T09:13:59Z</time>
      </trkpt>
      <trkpt lat="49.04951" lon="2.10306">
        <ele>71.8</ele>
        <time>2022-09-25T09:14:05Z</time>
      </trkpt>
      <trkpt lat="49.04956" lon="2.10316">
        <ele>72</ele>
        <time>2022-09-25T09:14:10Z</time>
      </trkpt>
      <trkpt lat="49.04958" lon="2.10326">
        <ele>72.1</ele>
        <time>2022-09-25T09:14:15Z</time>
      </trkpt>
      <trkpt lat="49.04964" lon="2.10338">
        <ele>71.9</ele>
        <time>2022-09-25T09:14:21Z</time>
      </trkpt>
      <trkpt lat="49.04971" lon="2.1035">
        <ele>71.8</ele>
        <time>2022-09-25T09:14:27Z</time>
      </trkpt>
      <trkpt lat="49.04976" lon="2.1036">
        <ele>71.9</ele>
        <time>2022-09-25T09:14:32Z</time>
      </trkpt>
      <trkpt lat="49.04981" lon="2.10371">
        <ele>71.8</ele>
        <time>2022-09-25T09:14:38Z</time>
      </trkpt>
      <trkpt lat="49.04985" lon="2.10378">
        <ele>71.6</ele>
        <time>2022-09-25T09:14:43Z</time>
      </trkpt>
      <trkpt lat="49.04989" lon="2.10385">
        <ele>71.3</ele>
        <time>2022-09-25T09:14:48Z</time>
      </trkpt>
      <trkpt lat="49.04996" lon="2.10392">
        <ele>71.1</ele>
        <time>2022-09-25T09:14:54Z</time>
      </trkpt>
      <trkpt lat="49.05001" lon="2.10402">
        <ele>71</ele>
        <time>2022-09-25T09:14:59Z</time>
      </trkpt>
      <trkpt lat="49.05006" lon="2.10412">
        <ele>70.8</ele>
        <time>2022-09-25T09:15:04Z</time>
      </trkpt>
      <trkpt lat="49.05013" lon="2.10423">
        <ele>70.7</ele>
        <time>2022-09-25T09:15:10Z</time>
      </trkpt>
      <trkpt lat="49.05017" lon="2.1043">
        <ele>70.7</ele>
        <time>2022-09-25T09:15:15Z</time>
      </trkpt>
      <trkpt lat="49.05023" lon="2.10437">
        <ele>70.6</ele>
        <time>2022-09-25T09:15:21Z</time>
      </trkpt>
      <trkpt lat="49.05029" lon="2.10449">
        <ele>71</ele>
        <time>2022-09-25T09:15:27Z</time>
      </trkpt>
      <trkpt lat="49.05035" lon="2.10462">
        <ele>71</ele>
        <time>2022-09-25T09:15:33Z</time>
      </trkpt>
      <trkpt lat="49.05039" lon="2.10472">
        <ele>70.9</ele>
        <time>2022-09-25T09:15:38Z</time>
      </trkpt>
      <trkpt lat="49.05044" lon="2.10483">
        <ele>70.8</ele>
        <time>2022-09-25T09:15:44Z</time>
      </trkpt>
      <trkpt lat="49.05048" lon="2.1049">
        <ele>70.8</ele>
        <time>2022-09-25T09:15:49Z</time>
      </trkpt>
      <trkpt lat="49.05053" lon="2.105">
        <ele>70.7</ele>
        <time>2022-09-25T09:15:54Z</time>
      </trkpt>
      <trkpt lat="49.05056" lon="2.10509">
        <ele>70.4</ele>
        <time>2022-09-25T09:15:59Z</time>
      </trkpt>
      <trkpt lat="49.05062" lon="2.10521">
        <ele>70</ele>
        <time>2022-09-25T09:16:05Z</time>
      </trkpt>
      <trkpt lat="49.05067" lon="2.10533">
        <ele>69.7</ele>
        <time>2022-09-25T09:16:10Z</time>
      </trkpt>
      <trkpt lat="49.0507" lon="2.10542">
        <ele>69.8</ele>
        <time>2022-09-25T09:16:16Z</time>
      </trkpt>
      <trkpt lat="49.05074" lon="2.10549">
        <ele>69.9</ele>
        <time>2022-09-25T09:16:21Z</time>
      </trkpt>
      <trkpt lat="49.05079" lon="2.1056">
        <ele>69.8</ele>
        <time>2022-09-25T09:16:26Z</time>
      </trkpt>
      <trkpt lat="49.05084" lon="2.10572">
        <ele>69.2</ele>
        <time>2022-09-25T09:16:32Z</time>
      </trkpt>
      <trkpt lat="49.05091" lon="2.10581">
        <ele>68.9</ele>
        <time>2022-09-25T09:16:37Z</time>
      </trkpt>
      <trkpt lat="49.05098" lon="2.10572">
        <ele>68.8</ele>
        <time>2022-09-25T09:16:43Z</time>
      </trkpt>
      <trkpt lat="49.051" lon="2.10556">
        <ele>68.7</ele>
        <time>2022-09-25T09:16:49Z</time>
      </trkpt>
      <trkpt lat="49.05105" lon="2.10551">
        <ele>68.5</ele>
        <time>2022-09-25T09:16:54Z</time>
      </trkpt>
      <trkpt lat="49.05111" lon="2.1055">
        <ele>68.5</ele>
        <time>2022-09-25T09:16:59Z</time>
      </trkpt>
      <trkpt lat="49.05116" lon="2.1055">
        <ele>68.6</ele>
        <time>2022-09-25T09:17:05Z</time>
      </trkpt>
      <trkpt lat="49.05123" lon="2.10549">
        <ele>68.8</ele>
        <time>2022-09-25T09:17:11Z</time>
      </trkpt>
      <trkpt lat="49.05133" lon="2.10547">
        <ele>69</ele>
        <time>2022-09-25T09:17:16Z</time>
      </trkpt>
      <trkpt lat="49.05144" lon="2.10546">
        <ele>69.3</ele>
        <time>2022-09-25T09:17:22Z</time>
      </trkpt>
      <trkpt lat="49.05156" lon="2.10547">
        <ele>69.5</ele>
        <time>2022-09-25T09:17:28Z</time>
      </trkpt>
      <trkpt lat="49.05164" lon="2.10545">
        <ele>69.8</ele>
        <time>2022-09-25T09:17:33Z</time>
      </trkpt>
      <trkpt lat="49.05171" lon="2.10541">
        <ele>70</ele>
        <time>2022-09-25T09:17:38Z</time>
      </trkpt>
      <trkpt lat="49.0518" lon="2.10535">
        <ele>70.3</ele>
        <time>2022-09-25T09:17:44Z</time>
      </trkpt>
      <trkpt lat="49.05189" lon="2.10533">
        <ele>70.6</ele>
        <time>2022-09-25T09:17:50Z</time>
      </trkpt>
      <trkpt lat="49.05196" lon="2.1053">
        <ele>70.7</ele>
        <time>2022-09-25T09:17:56Z</time>
      </trkpt>
      <trkpt lat="49.05203" lon="2.10526">
        <ele>70.7</ele>
        <time>2022-09-25T09:18:02Z</time>
      </trkpt>
      <trkpt lat="49.05212" lon="2.10526">
        <ele>70.9</ele>
        <time>2022-09-25T09:18:08Z</time>
      </trkpt>
      <trkpt lat="49.05221" lon="2.10524">
        <ele>71.3</ele>
        <time>2022-09-25T09:18:14Z</time>
      </trkpt>
      <trkpt lat="49.05229" lon="2.10524">
        <ele>71.6</ele>
        <time>2022-09-25T09:18:19Z</time>
      </trkpt>
      <trkpt lat="49.05239" lon="2.10527">
        <ele>71.9</ele>
        <time>2022-09-25T09:18:24Z</time>
      </trkpt>
      <trkpt lat="49.0525" lon="2.10529">
        <ele>71.9</ele>
        <time>2022-09-25T09:18:30Z</time>
      </trkpt>
      <trkpt lat="49.05258" lon="2.10528">
        <ele>72</ele>
        <time>2022-09-25T09:18:35Z</time>
      </trkpt>
      <trkpt lat="49.05265" lon="2.10525">
        <ele>72.1</ele>
        <time>2022-09-25T09:18:40Z</time>
      </trkpt>
      <trkpt lat="49.05274" lon="2.10521">
        <ele>72.1</ele>
        <time>2022-09-25T09:18:46Z</time>
      </trkpt>
      <trkpt lat="49.05283" lon="2.1052">
        <ele>72.1</ele>
        <time>2022-09-25T09:18:51Z</time>
      </trkpt>
      <trkpt lat="49.05291" lon="2.10518">
        <ele>71.8</ele>
        <time>2022-09-25T09:18:57Z</time>
      </trkpt>
      <trkpt lat="49.05298" lon="2.10516">
        <ele>71.5</ele>
        <time>2022-09-25T09:19:03Z</time>
      </trkpt>
      <trkpt lat="49.05304" lon="2.10519">
        <ele>70.6</ele>
        <time>2022-09-25T09:19:09Z</time>
      </trkpt>
      <trkpt lat="49.05313" lon="2.10524">
        <ele>70.2</ele>
        <time>2022-09-25T09:19:14Z</time>
      </trkpt>
      <trkpt lat="49.05321" lon="2.10538">
        <ele>69.5</ele>
        <time>2022-09-25T09:19:20Z</time>
      </trkpt>
      <trkpt lat="49.05327" lon="2.10551">
        <ele>69.2</ele>
        <time>2022-09-25T09:19:25Z</time>
      </trkpt>
      <trkpt lat="49.05333" lon="2.10561">
        <ele>69.1</ele>
        <time>2022-09-25T09:19:31Z</time>
      </trkpt>
      <trkpt lat="49.05336" lon="2.1057">
        <ele>69</ele>
        <time>2022-09-25T09:19:36Z</time>
      </trkpt>
      <trkpt lat="49.0534" lon="2.1058">
        <ele>68.9</ele>
        <time>2022-09-25T09:19:42Z</time>
      </trkpt>
      <trkpt lat="49.05343" lon="2.10588">
        <ele>68.8</ele>
        <time>2022-09-25T09:19:47Z</time>
      </trkpt>
      <trkpt lat="49.05349" lon="2.10597">
        <ele>68.8</ele>
        <time>2022-09-25T09:19:53Z</time>
      </trkpt>
      <trkpt lat="49.05351" lon="2.10606">
        <ele>69.1</ele>
        <time>2022-09-25T09:19:59Z</time>
      </trkpt>
      <trkpt lat="49.05352" lon="2.1061">
        <ele>69.3</ele>
        <time>2022-09-25T09:20:04Z</time>
      </trkpt>
      <trkpt lat="49.05355" lon="2.10618">
        <ele>69.6</ele>
        <time>2022-09-25T09:20:10Z</time>
      </trkpt>
      <trkpt lat="49.05358" lon="2.10621">
        <ele>69.5</ele>
        <time>2022-09-25T09:20:15Z</time>
      </trkpt>
      <trkpt lat="49.05365" lon="2.10632">
        <ele>69.3</ele>
        <time>2022-09-25T09:20:20Z</time>
      </trkpt>
      <trkpt lat="49.05376" lon="2.10644">
        <ele>69.2</ele>
        <time>2022-09-25T09:20:26Z</time>
      </trkpt>
      <trkpt lat="49.05382" lon="2.10655">
        <ele>69.3</ele>
        <time>2022-09-25T09:20:32Z</time>
      </trkpt>
      <trkpt lat="49.05383" lon="2.10668">
        <ele>69.7</ele>
        <time>2022-09-25T09:20:37Z</time>
      </trkpt>
      <trkpt lat="49.05382" lon="2.1068">
        <ele>70</ele>
        <time>2022-09-25T09:20:43Z</time>
      </trkpt>
      <trkpt lat="49.05383" lon="2.1069">
        <ele>70.2</ele>
        <time>2022-09-25T09:20:49Z</time>
      </trkpt>
      <trkpt lat="49.05386" lon="2.10701">
        <ele>70.4</ele>
        <time>2022-09-25T09:20:55Z</time>
      </trkpt>
      <trkpt lat="49.05388" lon="2.10713">
        <ele>70.6</ele>
        <time>2022-09-25T09:21:01Z</time>
      </trkpt>
      <trkpt lat="49.05389" lon="2.10718">
        <ele>71</ele>
        <time>2022-09-25T09:21:07Z</time>
      </trkpt>
      <trkpt lat="49.0539" lon="2.10711">
        <ele>71.7</ele>
        <time>2022-09-25T09:21:13Z</time>
      </trkpt>
      <trkpt lat="49.05392" lon="2.10707">
        <ele>72.1</ele>
        <time>2022-09-25T09:21:18Z</time>
      </trkpt>
      <trkpt lat="49.05397" lon="2.1071">
        <ele>72.8</ele>
        <time>2022-09-25T09:21:24Z</time>
      </trkpt>
      <trkpt lat="49.05402" lon="2.10711">
        <ele>73</ele>
        <time>2022-09-25T09:21:30Z</time>
      </trkpt>
      <trkpt lat="49.05407" lon="2.10713">
        <ele>73.2</ele>
        <time>2022-09-25T09:21:36Z</time>
      </trkpt>
      <trkpt lat="49.05414" lon="2.10718">
        <ele>73.4</ele>
        <time>2022-09-25T09:21:41Z</time>
      </trkpt>
      <trkpt lat="49.05423" lon="2.10725">
        <ele>74.2</ele>
        <time>2022-09-25T09:21:47Z</time>
      </trkpt>
      <trkpt lat="49.0543" lon="2.10733">
        <ele>75</ele>
        <time>2022-09-25T09:21:52Z</time>
      </trkpt>
      <trkpt lat="49.05436" lon="2.10739">
        <ele>75.8</ele>
        <time>2022-09-25T09:21:57Z</time>
      </trkpt>
      <trkpt lat="49.0544" lon="2.10744">
        <ele>77.4</ele>
        <time>2022-09-25T09:22:05Z</time>
      </trkpt>
      <trkpt lat="49.05441" lon="2.10744">
        <ele>77.9</ele>
        <time>2022-09-25T09:22:10Z</time>
      </trkpt>
      <trkpt lat="49.05448" lon="2.10751">
        <ele>78.9</ele>
        <time>2022-09-25T09:22:16Z</time>
      </trkpt>
      <trkpt lat="49.05453" lon="2.1076">
        <ele>79.5</ele>
        <time>2022-09-25T09:22:22Z</time>
      </trkpt>
      <trkpt lat="49.05457" lon="2.10766">
        <ele>79.7</ele>
        <time>2022-09-25T09:22:27Z</time>
      </trkpt>
      <trkpt lat="49.05465" lon="2.10775">
        <ele>80</ele>
        <time>2022-09-25T09:22:32Z</time>
      </trkpt>
      <trkpt lat="49.05478" lon="2.10784">
        <ele>80.6</ele>
        <time>2022-09-25T09:22:38Z</time>
      </trkpt>
      <trkpt lat="49.05487" lon="2.10792">
        <ele>81.1</ele>
        <time>2022-09-25T09:22:44Z</time>
      </trkpt>
      <trkpt lat="49.0549" lon="2.10796">
        <ele>81.5</ele>
        <time>2022-09-25T09:22:49Z</time>
      </trkpt>
      <trkpt lat="49.05498" lon="2.108">
        <ele>81.8</ele>
        <time>2022-09-25T09:22:55Z</time>
      </trkpt>
      <trkpt lat="49.05504" lon="2.10802">
        <ele>82</ele>
        <time>2022-09-25T09:23:00Z</time>
      </trkpt>
      <trkpt lat="49.05507" lon="2.10802">
        <ele>82.3</ele>
        <time>2022-09-25T09:23:06Z</time>
      </trkpt>
      <trkpt lat="49.05514" lon="2.10806">
        <ele>82.6</ele>
        <time>2022-09-25T09:23:11Z</time>
      </trkpt>
      <trkpt lat="49.05521" lon="2.10811">
        <ele>83</ele>
        <time>2022-09-25T09:23:17Z</time>
      </trkpt>
      <trkpt lat="49.0553" lon="2.10813">
        <ele>83.3</ele>
        <time>2022-09-25T09:23:23Z</time>
      </trkpt>
      <trkpt lat="49.05536" lon="2.10814">
        <ele>83.8</ele>
        <time>2022-09-25T09:23:28Z</time>
      </trkpt>
      <trkpt lat="49.05543" lon="2.10814">
        <ele>84.5</ele>
        <time>2022-09-25T09:23:34Z</time>
      </trkpt>
      <trkpt lat="49.0555" lon="2.10816">
        <ele>85.2</ele>
        <time>2022-09-25T09:23:39Z</time>
      </trkpt>
      <trkpt lat="49.05559" lon="2.10819">
        <ele>86.4</ele>
        <time>2022-09-25T09:23:45Z</time>
      </trkpt>
      <trkpt lat="49.05563" lon="2.10818">
        <ele>87</ele>
        <time>2022-09-25T09:23:50Z</time>
      </trkpt>
      <trkpt lat="49.05572" lon="2.10822">
        <ele>88.2</ele>
        <time>2022-09-25T09:23:57Z</time>
      </trkpt>
      <trkpt lat="49.05578" lon="2.10824">
        <ele>89</ele>
        <time>2022-09-25T09:24:02Z</time>
      </trkpt>
      <trkpt lat="49.05587" lon="2.10825">
        <ele>90.2</ele>
        <time>2022-09-25T09:24:08Z</time>
      </trkpt>
      <trkpt lat="49.05597" lon="2.10829">
        <ele>91.2</ele>
        <time>2022-09-25T09:24:13Z</time>
      </trkpt>
      <trkpt lat="49.05606" lon="2.10833">
        <ele>92.3</ele>
        <time>2022-09-25T09:24:18Z</time>
      </trkpt>
      <trkpt lat="49.05615" lon="2.10838">
        <ele>93.4</ele>
        <time>2022-09-25T09:24:24Z</time>
      </trkpt>
      <trkpt lat="49.05624" lon="2.1084">
        <ele>94.5</ele>
        <time>2022-09-25T09:24:30Z</time>
      </trkpt>
      <trkpt lat="49.05633" lon="2.10843">
        <ele>95.6</ele>
        <time>2022-09-25T09:24:36Z</time>
      </trkpt>
      <trkpt lat="49.0564" lon="2.10845">
        <ele>96.4</ele>
        <time>2022-09-25T09:24:41Z</time>
      </trkpt>
      <trkpt lat="49.05648" lon="2.10848">
        <ele>97</ele>
        <time>2022-09-25T09:24:46Z</time>
      </trkpt>
      <trkpt lat="49.05657" lon="2.1085">
        <ele>97.5</ele>
        <time>2022-09-25T09:24:51Z</time>
      </trkpt>
      <trkpt lat="49.05663" lon="2.10851">
        <ele>98</ele>
        <time>2022-09-25T09:24:57Z</time>
      </trkpt>
      <trkpt lat="49.05667" lon="2.10851">
        <ele>98.4</ele>
        <time>2022-09-25T09:25:03Z</time>
      </trkpt>
      <trkpt lat="49.05672" lon="2.10852">
        <ele>98.5</ele>
        <time>2022-09-25T09:25:09Z</time>
      </trkpt>
      <trkpt lat="49.05682" lon="2.10857">
        <ele>98.9</ele>
        <time>2022-09-25T09:25:15Z</time>
      </trkpt>
      <trkpt lat="49.05693" lon="2.10866">
        <ele>99.4</ele>
        <time>2022-09-25T09:25:21Z</time>
      </trkpt>
      <trkpt lat="49.05702" lon="2.1087">
        <ele>100</ele>
        <time>2022-09-25T09:25:27Z</time>
      </trkpt>
      <trkpt lat="49.0571" lon="2.10873">
        <ele>100.6</ele>
        <time>2022-09-25T09:25:33Z</time>
      </trkpt>
      <trkpt lat="49.05714" lon="2.10873">
        <ele>101.1</ele>
        <time>2022-09-25T09:25:38Z</time>
      </trkpt>
      <trkpt lat="49.05713" lon="2.10872">
        <ele>101.5</ele>
        <time>2022-09-25T09:25:44Z</time>
      </trkpt>
      <trkpt lat="49.0571" lon="2.10872">
        <ele>101.8</ele>
        <time>2022-09-25T09:25:49Z</time>
      </trkpt>
      <trkpt lat="49.05709" lon="2.10872">
        <ele>101.8</ele>
        <time>2022-09-25T09:25:55Z</time>
      </trkpt>
      <trkpt lat="49.05709" lon="2.10873">
        <ele>101.8</ele>
        <time>2022-09-25T09:26:00Z</time>
      </trkpt>
      <trkpt lat="49.05709" lon="2.10873">
        <ele>101.9</ele>
        <time>2022-09-25T09:26:06Z</time>
      </trkpt>
      <trkpt lat="49.05709" lon="2.10873">
        <ele>101.9</ele>
        <time>2022-09-25T09:26:12Z</time>
      </trkpt>
      <trkpt lat="49.05709" lon="2.10872">
        <ele>102</ele>
        <time>2022-09-25T09:26:18Z</time>
      </trkpt>
      <trkpt lat="49.05709" lon="2.10872">
        <ele>102.2</ele>
        <time>2022-09-25T09:26:23Z</time>
      </trkpt>
      <trkpt lat="49.05709" lon="2.10874">
        <ele>102.6</ele>
        <time>2022-09-25T09:26:29Z</time>
      </trkpt>
      <trkpt lat="49.05709" lon="2.10874">
        <ele>102.6</ele>
        <time>2022-09-25T09:26:35Z</time>
      </trkpt>
      <trkpt lat="49.05709" lon="2.10874">
        <ele>102.6</ele>
        <time>2022-09-25T09:26:41Z</time>
      </trkpt>
      <trkpt lat="49.05709" lon="2.10874">
        <ele>102.6</ele>
        <time>2022-09-25T09:26:46Z</time>
      </trkpt>
      <trkpt lat="49.0571" lon="2.10874">
        <ele>102.7</ele>
        <time>2022-09-25T09:26:52Z</time>
      </trkpt>
      <trkpt lat="49.0571" lon="2.10874">
        <ele>102.7</ele>
        <time>2022-09-25T09:26:58Z</time>
      </trkpt>
      <trkpt lat="49.0571" lon="2.10874">
        <ele>102.7</ele>
        <time>2022-09-25T09:27:03Z</time>
      </trkpt>
      <trkpt lat="49.0571" lon="2.10874">
        <ele>102.8</ele>
        <time>2022-09-25T09:27:09Z</time>
      </trkpt>
      <trkpt lat="49.0571" lon="2.10874">
        <ele>102.8</ele>
        <time>2022-09-25T09:27:15Z</time>
      </trkpt>
      <trkpt lat="49.0571" lon="2.10874">
        <ele>102.8</ele>
        <time>2022-09-25T09:27:20Z</time>
      </trkpt>
      <trkpt lat="49.0571" lon="2.10874">
        <ele>102.8</ele>
        <time>2022-09-25T09:27:25Z</time>
      </trkpt>
      <trkpt lat="49.0571" lon="2.10875">
        <ele>102.7</ele>
        <time>2022-09-25T09:27:30Z</time>
      </trkpt>
      <trkpt lat="49.05711" lon="2.10875">
        <ele>102.7</ele>
        <time>2022-09-25T09:27:36Z</time>
      </trkpt>
      <trkpt lat="49.05711" lon="2.10876">
        <ele>102.7</ele>
        <time>2022-09-25T09:27:41Z</time>
      </trkpt>
      <trkpt lat="49.0571" lon="2.10876">
        <ele>102.8</ele>
        <time>2022-09-25T09:27:47Z</time>
      </trkpt>
      <trkpt lat="49.0571" lon="2.10876">
        <ele>102.8</ele>
        <time>2022-09-25T09:27:52Z</time>
      </trkpt>
      <trkpt lat="49.0571" lon="2.10876">
        <ele>102.9</ele>
        <time>2022-09-25T09:27:58Z</time>
      </trkpt>
      <trkpt lat="49.0571" lon="2.10876">
        <ele>102.9</ele>
        <time>2022-09-25T09:28:04Z</time>
      </trkpt>
      <trkpt lat="49.0571" lon="2.10877">
        <ele>103</ele>
        <time>2022-09-25T09:28:09Z</time>
      </trkpt>
      <trkpt lat="49.0571" lon="2.10877">
        <ele>103.1</ele>
        <time>2022-09-25T09:28:15Z</time>
      </trkpt>
      <trkpt lat="49.05709" lon="2.10877">
        <ele>103.2</ele>
        <time>2022-09-25T09:28:21Z</time>
      </trkpt>
      <trkpt lat="49.05709" lon="2.10877">
        <ele>103.3</ele>
        <time>2022-09-25T09:28:26Z</time>
      </trkpt>
      <trkpt lat="49.05709" lon="2.10877">
        <ele>103.4</ele>
        <time>2022-09-25T09:28:31Z</time>
      </trkpt>
      <trkpt lat="49.05709" lon="2.10877">
        <ele>103.5</ele>
        <time>2022-09-25T09:28:37Z</time>
      </trkpt>
      <trkpt lat="49.05708" lon="2.10877">
        <ele>103.6</ele>
        <time>2022-09-25T09:28:42Z</time>
      </trkpt>
      <trkpt lat="49.05708" lon="2.10877">
        <ele>103.7</ele>
        <time>2022-09-25T09:28:48Z</time>
      </trkpt>
      <trkpt lat="49.0571" lon="2.10875">
        <ele>104.2</ele>
        <time>2022-09-25T09:28:53Z</time>
      </trkpt>
      <trkpt lat="49.05713" lon="2.10874">
        <ele>104.9</ele>
        <time>2022-09-25T09:28:59Z</time>
      </trkpt>
      <trkpt lat="49.05713" lon="2.10874">
        <ele>105.3</ele>
        <time>2022-09-25T09:29:04Z</time>
      </trkpt>
      <trkpt lat="49.05714" lon="2.10876">
        <ele>105.7</ele>
        <time>2022-09-25T09:29:10Z</time>
      </trkpt>
      <trkpt lat="49.05721" lon="2.10884">
        <ele>105.9</ele>
        <time>2022-09-25T09:29:15Z</time>
      </trkpt>
      <trkpt lat="49.05728" lon="2.10891">
        <ele>105.7</ele>
        <time>2022-09-25T09:29:21Z</time>
      </trkpt>
      <trkpt lat="49.05735" lon="2.10898">
        <ele>105.8</ele>
        <time>2022-09-25T09:29:27Z</time>
      </trkpt>
      <trkpt lat="49.05743" lon="2.10903">
        <ele>106</ele>
        <time>2022-09-25T09:29:33Z</time>
      </trkpt>
      <trkpt lat="49.05748" lon="2.10909">
        <ele>106.4</ele>
        <time>2022-09-25T09:29:38Z</time>
      </trkpt>
      <trkpt lat="49.05754" lon="2.10917">
        <ele>106.7</ele>
        <time>2022-09-25T09:29:43Z</time>
      </trkpt>
      <trkpt lat="49.05761" lon="2.10924">
        <ele>106.9</ele>
        <time>2022-09-25T09:29:49Z</time>
      </trkpt>
      <trkpt lat="49.05769" lon="2.10931">
        <ele>107.2</ele>
        <time>2022-09-25T09:29:55Z</time>
      </trkpt>
      <trkpt lat="49.05777" lon="2.10938">
        <ele>107.7</ele>
        <time>2022-09-25T09:30:01Z</time>
      </trkpt>
      <trkpt lat="49.05783" lon="2.10942">
        <ele>108.2</ele>
        <time>2022-09-25T09:30:06Z</time>
      </trkpt>
      <trkpt lat="49.05792" lon="2.10947">
        <ele>109</ele>
        <time>2022-09-25T09:30:12Z</time>
      </trkpt>
      <trkpt lat="49.05798" lon="2.10951">
        <ele>109.7</ele>
        <time>2022-09-25T09:30:18Z</time>
      </trkpt>
      <trkpt lat="49.05805" lon="2.10955">
        <ele>110.3</ele>
        <time>2022-09-25T09:30:24Z</time>
      </trkpt>
      <trkpt lat="49.05812" lon="2.1096">
        <ele>110.9</ele>
        <time>2022-09-25T09:30:29Z</time>
      </trkpt>
      <trkpt lat="49.0582" lon="2.10966">
        <ele>111.5</ele>
        <time>2022-09-25T09:30:35Z</time>
      </trkpt>
      <trkpt lat="49.05826" lon="2.10972">
        <ele>112.2</ele>
        <time>2022-09-25T09:30:40Z</time>
      </trkpt>
      <trkpt lat="49.05834" lon="2.10976">
        <ele>113.2</ele>
        <time>2022-09-25T09:30:46Z</time>
      </trkpt>
      <trkpt lat="49.05838" lon="2.10981">
        <ele>114</ele>
        <time>2022-09-25T09:30:51Z</time>
      </trkpt>
      <trkpt lat="49.05844" lon="2.10991">
        <ele>114.8</ele>
        <time>2022-09-25T09:30:57Z</time>
      </trkpt>
      <trkpt lat="49.05849" lon="2.10998">
        <ele>115.5</ele>
        <time>2022-09-25T09:31:02Z</time>
      </trkpt>
      <trkpt lat="49.05855" lon="2.11008">
        <ele>116.1</ele>
        <time>2022-09-25T09:31:08Z</time>
      </trkpt>
      <trkpt lat="49.05858" lon="2.11015">
        <ele>116.5</ele>
        <time>2022-09-25T09:31:13Z</time>
      </trkpt>
      <trkpt lat="49.05863" lon="2.11023">
        <ele>116.8</ele>
        <time>2022-09-25T09:31:19Z</time>
      </trkpt>
      <trkpt lat="49.05867" lon="2.11032">
        <ele>117</ele>
        <time>2022-09-25T09:31:25Z</time>
      </trkpt>
      <trkpt lat="49.05873" lon="2.11039">
        <ele>117.2</ele>
        <time>2022-09-25T09:31:31Z</time>
      </trkpt>
      <trkpt lat="49.05879" lon="2.11046">
        <ele>117.5</ele>
        <time>2022-09-25T09:31:36Z</time>
      </trkpt>
      <trkpt lat="49.05887" lon="2.1105">
        <ele>118</ele>
        <time>2022-09-25T09:31:42Z</time>
      </trkpt>
      <trkpt lat="49.05896" lon="2.11054">
        <ele>118.6</ele>
        <time>2022-09-25T09:31:49Z</time>
      </trkpt>
      <trkpt lat="49.05904" lon="2.11057">
        <ele>119.2</ele>
        <time>2022-09-25T09:31:54Z</time>
      </trkpt>
      <trkpt lat="49.05911" lon="2.1106">
        <ele>119.7</ele>
        <time>2022-09-25T09:32:00Z</time>
      </trkpt>
      <trkpt lat="49.05917" lon="2.11064">
        <ele>119.7</ele>
        <time>2022-09-25T09:32:07Z</time>
      </trkpt>
      <trkpt lat="49.05926" lon="2.11068">
        <ele>119.7</ele>
        <time>2022-09-25T09:32:12Z</time>
      </trkpt>
      <trkpt lat="49.05934" lon="2.11072">
        <ele>119.8</ele>
        <time>2022-09-25T09:32:18Z</time>
      </trkpt>
      <trkpt lat="49.05943" lon="2.11079">
        <ele>120.2</ele>
        <time>2022-09-25T09:32:24Z</time>
      </trkpt>
      <trkpt lat="49.05951" lon="2.11086">
        <ele>120.5</ele>
        <time>2022-09-25T09:32:29Z</time>
      </trkpt>
      <trkpt lat="49.05957" lon="2.11091">
        <ele>120.7</ele>
        <time>2022-09-25T09:32:35Z</time>
      </trkpt>
      <trkpt lat="49.05963" lon="2.11094">
        <ele>120.7</ele>
        <time>2022-09-25T09:32:40Z</time>
      </trkpt>
      <trkpt lat="49.0597" lon="2.11102">
        <ele>120.9</ele>
        <time>2022-09-25T09:32:46Z</time>
      </trkpt>
      <trkpt lat="49.05972" lon="2.11095">
        <ele>121.1</ele>
        <time>2022-09-25T09:32:52Z</time>
      </trkpt>
      <trkpt lat="49.05975" lon="2.11082">
        <ele>121.5</ele>
        <time>2022-09-25T09:32:57Z</time>
      </trkpt>
      <trkpt lat="49.05978" lon="2.11071">
        <ele>122.2</ele>
        <time>2022-09-25T09:33:03Z</time>
      </trkpt>
      <trkpt lat="49.05981" lon="2.11062">
        <ele>122.7</ele>
        <time>2022-09-25T09:33:08Z</time>
      </trkpt>
      <trkpt lat="49.05981" lon="2.11051">
        <ele>123.1</ele>
        <time>2022-09-25T09:33:13Z</time>
      </trkpt>
      <trkpt lat="49.0598" lon="2.11036">
        <ele>123.1</ele>
        <time>2022-09-25T09:33:19Z</time>
      </trkpt>
      <trkpt lat="49.0598" lon="2.11019">
        <ele>122.9</ele>
        <time>2022-09-25T09:33:25Z</time>
      </trkpt>
      <trkpt lat="49.05981" lon="2.11009">
        <ele>122.7</ele>
        <time>2022-09-25T09:33:30Z</time>
      </trkpt>
      <trkpt lat="49.05983" lon="2.11001">
        <ele>122.5</ele>
        <time>2022-09-25T09:33:35Z</time>
      </trkpt>
      <trkpt lat="49.05984" lon="2.1099">
        <ele>122.4</ele>
        <time>2022-09-25T09:33:41Z</time>
      </trkpt>
      <trkpt lat="49.05987" lon="2.10981">
        <ele>122.5</ele>
        <time>2022-09-25T09:33:47Z</time>
      </trkpt>
      <trkpt lat="49.05989" lon="2.10973">
        <ele>122.8</ele>
        <time>2022-09-25T09:33:52Z</time>
      </trkpt>
      <trkpt lat="49.05989" lon="2.10964">
        <ele>122.8</ele>
        <time>2022-09-25T09:33:58Z</time>
      </trkpt>
      <trkpt lat="49.05991" lon="2.10952">
        <ele>122.3</ele>
        <time>2022-09-25T09:34:04Z</time>
      </trkpt>
      <trkpt lat="49.05991" lon="2.10943">
        <ele>121.6</ele>
        <time>2022-09-25T09:34:09Z</time>
      </trkpt>
      <trkpt lat="49.05992" lon="2.10937">
        <ele>120.5</ele>
        <time>2022-09-25T09:34:15Z</time>
      </trkpt>
      <trkpt lat="49.05994" lon="2.10923">
        <ele>119.7</ele>
        <time>2022-09-25T09:34:21Z</time>
      </trkpt>
      <trkpt lat="49.05995" lon="2.10914">
        <ele>119</ele>
        <time>2022-09-25T09:34:26Z</time>
      </trkpt>
      <trkpt lat="49.05993" lon="2.10904">
        <ele>117.8</ele>
        <time>2022-09-25T09:34:32Z</time>
      </trkpt>
      <trkpt lat="49.05991" lon="2.10894">
        <ele>116.8</ele>
        <time>2022-09-25T09:34:37Z</time>
      </trkpt>
      <trkpt lat="49.05994" lon="2.10884">
        <ele>115.7</ele>
        <time>2022-09-25T09:34:43Z</time>
      </trkpt>
      <trkpt lat="49.05996" lon="2.10873">
        <ele>114.4</ele>
        <time>2022-09-25T09:34:49Z</time>
      </trkpt>
      <trkpt lat="49.05995" lon="2.10867">
        <ele>113.4</ele>
        <time>2022-09-25T09:34:54Z</time>
      </trkpt>
      <trkpt lat="49.05993" lon="2.1086">
        <ele>112</ele>
        <time>2022-09-25T09:35:00Z</time>
      </trkpt>
      <trkpt lat="49.05993" lon="2.1085">
        <ele>110.9</ele>
        <time>2022-09-25T09:35:05Z</time>
      </trkpt>
      <trkpt lat="49.05995" lon="2.10841">
        <ele>109.7</ele>
        <time>2022-09-25T09:35:11Z</time>
      </trkpt>
      <trkpt lat="49.06001" lon="2.10833">
        <ele>108.9</ele>
        <time>2022-09-25T09:35:17Z</time>
      </trkpt>
      <trkpt lat="49.0601" lon="2.10831">
        <ele>108.2</ele>
        <time>2022-09-25T09:35:23Z</time>
      </trkpt>
      <trkpt lat="49.06018" lon="2.10833">
        <ele>107.7</ele>
        <time>2022-09-25T09:35:28Z</time>
      </trkpt>
      <trkpt lat="49.06026" lon="2.10829">
        <ele>107.2</ele>
        <time>2022-09-25T09:35:34Z</time>
      </trkpt>
      <trkpt lat="49.06032" lon="2.10823">
        <ele>106.6</ele>
        <time>2022-09-25T09:35:40Z</time>
      </trkpt>
      <trkpt lat="49.06039" lon="2.10816">
        <ele>106.2</ele>
        <time>2022-09-25T09:35:45Z</time>
      </trkpt>
      <trkpt lat="49.06047" lon="2.10812">
        <ele>105.8</ele>
        <time>2022-09-25T09:35:51Z</time>
      </trkpt>
      <trkpt lat="49.06052" lon="2.1081">
        <ele>105.2</ele>
        <time>2022-09-25T09:35:56Z</time>
      </trkpt>
      <trkpt lat="49.06057" lon="2.10802">
        <ele>104.5</ele>
        <time>2022-09-25T09:36:02Z</time>
      </trkpt>
      <trkpt lat="49.06062" lon="2.10796">
        <ele>103.8</ele>
        <time>2022-09-25T09:36:07Z</time>
      </trkpt>
      <trkpt lat="49.0607" lon="2.10788">
        <ele>103</ele>
        <time>2022-09-25T09:36:13Z</time>
      </trkpt>
      <trkpt lat="49.06078" lon="2.10783">
        <ele>102.4</ele>
        <time>2022-09-25T09:36:19Z</time>
      </trkpt>
      <trkpt lat="49.06082" lon="2.10777">
        <ele>102</ele>
        <time>2022-09-25T09:36:24Z</time>
      </trkpt>
      <trkpt lat="49.06088" lon="2.10771">
        <ele>101.5</ele>
        <time>2022-09-25T09:36:30Z</time>
      </trkpt>
      <trkpt lat="49.06094" lon="2.10763">
        <ele>101.1</ele>
        <time>2022-09-25T09:36:36Z</time>
      </trkpt>
      <trkpt lat="49.061" lon="2.10757">
        <ele>100.6</ele>
        <time>2022-09-25T09:36:42Z</time>
      </trkpt>
      <trkpt lat="49.06106" lon="2.10755">
        <ele>100.4</ele>
        <time>2022-09-25T09:36:48Z</time>
      </trkpt>
      <trkpt lat="49.06107" lon="2.10753">
        <ele>100.4</ele>
        <time>2022-09-25T09:36:54Z</time>
      </trkpt>
      <trkpt lat="49.06107" lon="2.1075">
        <ele>100.5</ele>
        <time>2022-09-25T09:36:59Z</time>
      </trkpt>
      <trkpt lat="49.06106" lon="2.10748">
        <ele>100.6</ele>
        <time>2022-09-25T09:37:05Z</time>
      </trkpt>
      <trkpt lat="49.06105" lon="2.10748">
        <ele>100.8</ele>
        <time>2022-09-25T09:37:10Z</time>
      </trkpt>
      <trkpt lat="49.06103" lon="2.10748">
        <ele>101.3</ele>
        <time>2022-09-25T09:37:16Z</time>
      </trkpt>
      <trkpt lat="49.06101" lon="2.10748">
        <ele>101.7</ele>
        <time>2022-09-25T09:37:21Z</time>
      </trkpt>
      <trkpt lat="49.06099" lon="2.10748">
        <ele>102</ele>
        <time>2022-09-25T09:37:27Z</time>
      </trkpt>
      <trkpt lat="49.06098" lon="2.1075">
        <ele>102.3</ele>
        <time>2022-09-25T09:37:33Z</time>
      </trkpt>
      <trkpt lat="49.06099" lon="2.10751">
        <ele>102.3</ele>
        <time>2022-09-25T09:37:38Z</time>
      </trkpt>
      <trkpt lat="49.06099" lon="2.10751">
        <ele>102.4</ele>
        <time>2022-09-25T09:37:43Z</time>
      </trkpt>
      <trkpt lat="49.06099" lon="2.10751">
        <ele>102.6</ele>
        <time>2022-09-25T09:37:49Z</time>
      </trkpt>
      <trkpt lat="49.06099" lon="2.10751">
        <ele>102.6</ele>
        <time>2022-09-25T09:37:54Z</time>
      </trkpt>
      <trkpt lat="49.06099" lon="2.10751">
        <ele>102.7</ele>
        <time>2022-09-25T09:38:00Z</time>
      </trkpt>
      <trkpt lat="49.06099" lon="2.10751">
        <ele>102.8</ele>
        <time>2022-09-25T09:38:06Z</time>
      </trkpt>
      <trkpt lat="49.06099" lon="2.10753">
        <ele>102.9</ele>
        <time>2022-09-25T09:38:11Z</time>
      </trkpt>
      <trkpt lat="49.06106" lon="2.10752">
        <ele>103</ele>
        <time>2022-09-25T09:38:16Z</time>
      </trkpt>
      <trkpt lat="49.06113" lon="2.10738">
        <ele>102.9</ele>
        <time>2022-09-25T09:38:22Z</time>
      </trkpt>
      <trkpt lat="49.06117" lon="2.10732">
        <ele>102.7</ele>
        <time>2022-09-25T09:38:27Z</time>
      </trkpt>
      <trkpt lat="49.06122" lon="2.10727">
        <ele>102.5</ele>
        <time>2022-09-25T09:38:33Z</time>
      </trkpt>
      <trkpt lat="49.06127" lon="2.10723">
        <ele>102.3</ele>
        <time>2022-09-25T09:38:38Z</time>
      </trkpt>
      <trkpt lat="49.06132" lon="2.10714">
        <ele>102.2</ele>
        <time>2022-09-25T09:38:44Z</time>
      </trkpt>
      <trkpt lat="49.06138" lon="2.1071">
        <ele>102.2</ele>
        <time>2022-09-25T09:38:49Z</time>
      </trkpt>
      <trkpt lat="49.06146" lon="2.10704">
        <ele>102.2</ele>
        <time>2022-09-25T09:38:55Z</time>
      </trkpt>
      <trkpt lat="49.06152" lon="2.107">
        <ele>102</ele>
        <time>2022-09-25T09:39:00Z</time>
      </trkpt>
      <trkpt lat="49.0616" lon="2.10697">
        <ele>101.8</ele>
        <time>2022-09-25T09:39:06Z</time>
      </trkpt>
      <trkpt lat="49.06165" lon="2.10688">
        <ele>101.7</ele>
        <time>2022-09-25T09:39:12Z</time>
      </trkpt>
      <trkpt lat="49.06167" lon="2.10676">
        <ele>101.6</ele>
        <time>2022-09-25T09:39:18Z</time>
      </trkpt>
      <trkpt lat="49.06173" lon="2.1067">
        <ele>101.9</ele>
        <time>2022-09-25T09:39:24Z</time>
      </trkpt>
      <trkpt lat="49.06181" lon="2.10665">
        <ele>102</ele>
        <time>2022-09-25T09:39:30Z</time>
      </trkpt>
      <trkpt lat="49.06189" lon="2.10658">
        <ele>101.8</ele>
        <time>2022-09-25T09:39:36Z</time>
      </trkpt>
      <trkpt lat="49.06196" lon="2.10654">
        <ele>101.8</ele>
        <time>2022-09-25T09:39:42Z</time>
      </trkpt>
      <trkpt lat="49.06202" lon="2.10652">
        <ele>102</ele>
        <time>2022-09-25T09:39:48Z</time>
      </trkpt>
      <trkpt lat="49.06208" lon="2.10652">
        <ele>102</ele>
        <time>2022-09-25T09:39:53Z</time>
      </trkpt>
      <trkpt lat="49.06215" lon="2.10658">
        <ele>102.2</ele>
        <time>2022-09-25T09:39:59Z</time>
      </trkpt>
      <trkpt lat="49.06223" lon="2.10663">
        <ele>102.3</ele>
        <time>2022-09-25T09:40:04Z</time>
      </trkpt>
      <trkpt lat="49.06233" lon="2.10666">
        <ele>103</ele>
        <time>2022-09-25T09:40:10Z</time>
      </trkpt>
      <trkpt lat="49.06241" lon="2.10669">
        <ele>103.8</ele>
        <time>2022-09-25T09:40:16Z</time>
      </trkpt>
      <trkpt lat="49.06247" lon="2.10668">
        <ele>104.5</ele>
        <time>2022-09-25T09:40:21Z</time>
      </trkpt>
      <trkpt lat="49.06255" lon="2.10674">
        <ele>105.2</ele>
        <time>2022-09-25T09:40:27Z</time>
      </trkpt>
      <trkpt lat="49.06264" lon="2.10678">
        <ele>106</ele>
        <time>2022-09-25T09:40:33Z</time>
      </trkpt>
      <trkpt lat="49.0627" lon="2.10686">
        <ele>106.4</ele>
        <time>2022-09-25T09:40:39Z</time>
      </trkpt>
      <trkpt lat="49.06275" lon="2.10688">
        <ele>106.7</ele>
        <time>2022-09-25T09:40:45Z</time>
      </trkpt>
      <trkpt lat="49.06279" lon="2.10692">
        <ele>107.3</ele>
        <time>2022-09-25T09:40:51Z</time>
      </trkpt>
      <trkpt lat="49.06286" lon="2.10699">
        <ele>107.5</ele>
        <time>2022-09-25T09:40:56Z</time>
      </trkpt>
      <trkpt lat="49.06295" lon="2.10706">
        <ele>107.8</ele>
        <time>2022-09-25T09:41:02Z</time>
      </trkpt>
      <trkpt lat="49.063" lon="2.10708">
        <ele>108</ele>
        <time>2022-09-25T09:41:07Z</time>
      </trkpt>
      <trkpt lat="49.06304" lon="2.10717">
        <ele>108.2</ele>
        <time>2022-09-25T09:41:13Z</time>
      </trkpt>
      <trkpt lat="49.06309" lon="2.10722">
        <ele>108.5</ele>
        <time>2022-09-25T09:41:18Z</time>
      </trkpt>
      <trkpt lat="49.06317" lon="2.10727">
        <ele>109.2</ele>
        <time>2022-09-25T09:41:24Z</time>
      </trkpt>
      <trkpt lat="49.06324" lon="2.10732">
        <ele>109.6</ele>
        <time>2022-09-25T09:41:29Z</time>
      </trkpt>
      <trkpt lat="49.06334" lon="2.10736">
        <ele>110.1</ele>
        <time>2022-09-25T09:41:35Z</time>
      </trkpt>
      <trkpt lat="49.06341" lon="2.10739">
        <ele>110.3</ele>
        <time>2022-09-25T09:41:40Z</time>
      </trkpt>
      <trkpt lat="49.06351" lon="2.10744">
        <ele>110.6</ele>
        <time>2022-09-25T09:41:46Z</time>
      </trkpt>
      <trkpt lat="49.06357" lon="2.10751">
        <ele>110.6</ele>
        <time>2022-09-25T09:41:51Z</time>
      </trkpt>
      <trkpt lat="49.06363" lon="2.10753">
        <ele>110.8</ele>
        <time>2022-09-25T09:41:56Z</time>
      </trkpt>
      <trkpt lat="49.0637" lon="2.10759">
        <ele>111.4</ele>
        <time>2022-09-25T09:42:02Z</time>
      </trkpt>
      <trkpt lat="49.06375" lon="2.10759">
        <ele>111.8</ele>
        <time>2022-09-25T09:42:07Z</time>
      </trkpt>
      <trkpt lat="49.06384" lon="2.10763">
        <ele>112.7</ele>
        <time>2022-09-25T09:42:13Z</time>
      </trkpt>
      <trkpt lat="49.06393" lon="2.10765">
        <ele>113.2</ele>
        <time>2022-09-25T09:42:18Z</time>
      </trkpt>
      <trkpt lat="49.06397" lon="2.10776">
        <ele>114.1</ele>
        <time>2022-09-25T09:42:24Z</time>
      </trkpt>
      <trkpt lat="49.06404" lon="2.10778">
        <ele>114.7</ele>
        <time>2022-09-25T09:42:29Z</time>
      </trkpt>
      <trkpt lat="49.06411" lon="2.1078">
        <ele>115.2</ele>
        <time>2022-09-25T09:42:35Z</time>
      </trkpt>
      <trkpt lat="49.06415" lon="2.10782">
        <ele>115.4</ele>
        <time>2022-09-25T09:42:40Z</time>
      </trkpt>
      <trkpt lat="49.06421" lon="2.10783">
        <ele>115.5</ele>
        <time>2022-09-25T09:42:46Z</time>
      </trkpt>
      <trkpt lat="49.06427" lon="2.10784">
        <ele>115.7</ele>
        <time>2022-09-25T09:42:51Z</time>
      </trkpt>
      <trkpt lat="49.06434" lon="2.10788">
        <ele>116</ele>
        <time>2022-09-25T09:42:57Z</time>
      </trkpt>
      <trkpt lat="49.0644" lon="2.10793">
        <ele>116.4</ele>
        <time>2022-09-25T09:43:02Z</time>
      </trkpt>
      <trkpt lat="49.06447" lon="2.10797">
        <ele>117.1</ele>
        <time>2022-09-25T09:43:07Z</time>
      </trkpt>
      <trkpt lat="49.06456" lon="2.108">
        <ele>117.8</ele>
        <time>2022-09-25T09:43:13Z</time>
      </trkpt>
      <trkpt lat="49.06467" lon="2.10804">
        <ele>118.3</ele>
        <time>2022-09-25T09:43:19Z</time>
      </trkpt>
      <trkpt lat="49.06474" lon="2.10806">
        <ele>118.3</ele>
        <time>2022-09-25T09:43:24Z</time>
      </trkpt>
      <trkpt lat="49.0648" lon="2.1081">
        <ele>118.4</ele>
        <time>2022-09-25T09:43:30Z</time>
      </trkpt>
      <trkpt lat="49.06486" lon="2.10817">
        <ele>118.4</ele>
        <time>2022-09-25T09:43:35Z</time>
      </trkpt>
      <trkpt lat="49.06492" lon="2.10819">
        <ele>118.2</ele>
        <time>2022-09-25T09:43:40Z</time>
      </trkpt>
      <trkpt lat="49.06499" lon="2.10818">
        <ele>118</ele>
        <time>2022-09-25T09:43:46Z</time>
      </trkpt>
      <trkpt lat="49.06507" lon="2.10819">
        <ele>117.8</ele>
        <time>2022-09-25T09:43:52Z</time>
      </trkpt>
      <trkpt lat="49.06509" lon="2.10821">
        <ele>117.4</ele>
        <time>2022-09-25T09:43:57Z</time>
      </trkpt>
      <trkpt lat="49.06515" lon="2.10821">
        <ele>116.9</ele>
        <time>2022-09-25T09:44:03Z</time>
      </trkpt>
      <trkpt lat="49.06522" lon="2.1082">
        <ele>116.5</ele>
        <time>2022-09-25T09:44:08Z</time>
      </trkpt>
      <trkpt lat="49.06532" lon="2.10822">
        <ele>116.1</ele>
        <time>2022-09-25T09:44:14Z</time>
      </trkpt>
      <trkpt lat="49.0654" lon="2.10825">
        <ele>115.9</ele>
        <time>2022-09-25T09:44:19Z</time>
      </trkpt>
      <trkpt lat="49.06548" lon="2.10825">
        <ele>115.6</ele>
        <time>2022-09-25T09:44:25Z</time>
      </trkpt>
      <trkpt lat="49.06556" lon="2.10822">
        <ele>115.3</ele>
        <time>2022-09-25T09:44:30Z</time>
      </trkpt>
      <trkpt lat="49.06564" lon="2.10822">
        <ele>114.9</ele>
        <time>2022-09-25T09:44:35Z</time>
      </trkpt>
      <trkpt lat="49.06573" lon="2.1082">
        <ele>114.5</ele>
        <time>2022-09-25T09:44:41Z</time>
      </trkpt>
      <trkpt lat="49.06579" lon="2.10819">
        <ele>114.1</ele>
        <time>2022-09-25T09:44:46Z</time>
      </trkpt>
      <trkpt lat="49.06588" lon="2.10826">
        <ele>113.6</ele>
        <time>2022-09-25T09:44:52Z</time>
      </trkpt>
      <trkpt lat="49.06595" lon="2.1083">
        <ele>113.2</ele>
        <time>2022-09-25T09:44:57Z</time>
      </trkpt>
      <trkpt lat="49.06603" lon="2.10836">
        <ele>112.9</ele>
        <time>2022-09-25T09:45:03Z</time>
      </trkpt>
      <trkpt lat="49.06608" lon="2.10842">
        <ele>112.5</ele>
        <time>2022-09-25T09:45:08Z</time>
      </trkpt>
      <trkpt lat="49.06613" lon="2.10848">
        <ele>112.3</ele>
        <time>2022-09-25T09:45:14Z</time>
      </trkpt>
      <trkpt lat="49.06619" lon="2.10859">
        <ele>112</ele>
        <time>2022-09-25T09:45:20Z</time>
      </trkpt>
      <trkpt lat="49.06626" lon="2.10868">
        <ele>111.7</ele>
        <time>2022-09-25T09:45:28Z</time>
      </trkpt>
      <trkpt lat="49.06631" lon="2.1087">
        <ele>111.5</ele>
        <time>2022-09-25T09:45:33Z</time>
      </trkpt>
      <trkpt lat="49.06637" lon="2.10872">
        <ele>111.2</ele>
        <time>2022-09-25T09:45:39Z</time>
      </trkpt>
      <trkpt lat="49.06645" lon="2.10867">
        <ele>110.8</ele>
        <time>2022-09-25T09:45:46Z</time>
      </trkpt>
      <trkpt lat="49.0665" lon="2.10864">
        <ele>110</ele>
        <time>2022-09-25T09:45:51Z</time>
      </trkpt>
      <trkpt lat="49.06658" lon="2.10866">
        <ele>109.2</ele>
        <time>2022-09-25T09:45:57Z</time>
      </trkpt>
      <trkpt lat="49.06666" lon="2.10871">
        <ele>108.7</ele>
        <time>2022-09-25T09:46:03Z</time>
      </trkpt>
      <trkpt lat="49.06669" lon="2.10877">
        <ele>108.7</ele>
        <time>2022-09-25T09:46:08Z</time>
      </trkpt>
      <trkpt lat="49.06672" lon="2.10883">
        <ele>108.5</ele>
        <time>2022-09-25T09:46:14Z</time>
      </trkpt>
      <trkpt lat="49.06676" lon="2.10897">
        <ele>108.6</ele>
        <time>2022-09-25T09:46:20Z</time>
      </trkpt>
      <trkpt lat="49.06682" lon="2.10905">
        <ele>108.7</ele>
        <time>2022-09-25T09:46:26Z</time>
      </trkpt>
      <trkpt lat="49.06687" lon="2.10913">
        <ele>108.5</ele>
        <time>2022-09-25T09:46:32Z</time>
      </trkpt>
      <trkpt lat="49.06691" lon="2.10918">
        <ele>108.4</ele>
        <time>2022-09-25T09:46:37Z</time>
      </trkpt>
      <trkpt lat="49.06697" lon="2.10924">
        <ele>108.4</ele>
        <time>2022-09-25T09:46:42Z</time>
      </trkpt>
      <trkpt lat="49.06701" lon="2.10923">
        <ele>108.5</ele>
        <time>2022-09-25T09:46:48Z</time>
      </trkpt>
      <trkpt lat="49.06708" lon="2.10921">
        <ele>108.8</ele>
        <time>2022-09-25T09:46:53Z</time>
      </trkpt>
      <trkpt lat="49.06716" lon="2.10922">
        <ele>108.8</ele>
        <time>2022-09-25T09:46:58Z</time>
      </trkpt>
      <trkpt lat="49.06725" lon="2.10918">
        <ele>108.8</ele>
        <time>2022-09-25T09:47:04Z</time>
      </trkpt>
      <trkpt lat="49.06733" lon="2.10913">
        <ele>108.8</ele>
        <time>2022-09-25T09:47:10Z</time>
      </trkpt>
      <trkpt lat="49.06738" lon="2.1091">
        <ele>108.8</ele>
        <time>2022-09-25T09:47:15Z</time>
      </trkpt>
      <trkpt lat="49.06746" lon="2.10908">
        <ele>108.8</ele>
        <time>2022-09-25T09:47:21Z</time>
      </trkpt>
      <trkpt lat="49.06752" lon="2.10905">
        <ele>109</ele>
        <time>2022-09-25T09:47:26Z</time>
      </trkpt>
      <trkpt lat="49.06758" lon="2.10902">
        <ele>109.3</ele>
        <time>2022-09-25T09:47:31Z</time>
      </trkpt>
      <trkpt lat="49.06766" lon="2.10897">
        <ele>109.5</ele>
        <time>2022-09-25T09:47:37Z</time>
      </trkpt>
      <trkpt lat="49.06772" lon="2.10894">
        <ele>109.7</ele>
        <time>2022-09-25T09:47:42Z</time>
      </trkpt>
      <trkpt lat="49.0678" lon="2.1089">
        <ele>110</ele>
        <time>2022-09-25T09:47:48Z</time>
      </trkpt>
      <trkpt lat="49.06787" lon="2.10887">
        <ele>110.1</ele>
        <time>2022-09-25T09:47:53Z</time>
      </trkpt>
      <trkpt lat="49.06794" lon="2.10884">
        <ele>110.3</ele>
        <time>2022-09-25T09:47:59Z</time>
      </trkpt>
      <trkpt lat="49.06801" lon="2.10881">
        <ele>110.5</ele>
        <time>2022-09-25T09:48:05Z</time>
      </trkpt>
      <trkpt lat="49.06808" lon="2.10877">
        <ele>110.6</ele>
        <time>2022-09-25T09:48:11Z</time>
      </trkpt>
      <trkpt lat="49.06817" lon="2.10872">
        <ele>110.7</ele>
        <time>2022-09-25T09:48:17Z</time>
      </trkpt>
      <trkpt lat="49.06825" lon="2.10869">
        <ele>110.8</ele>
        <time>2022-09-25T09:48:23Z</time>
      </trkpt>
      <trkpt lat="49.06833" lon="2.10866">
        <ele>111.1</ele>
        <time>2022-09-25T09:48:28Z</time>
      </trkpt>
      <trkpt lat="49.06841" lon="2.10863">
        <ele>111.5</ele>
        <time>2022-09-25T09:48:34Z</time>
      </trkpt>
      <trkpt lat="49.06846" lon="2.1086">
        <ele>111.9</ele>
        <time>2022-09-25T09:48:39Z</time>
      </trkpt>
      <trkpt lat="49.06855" lon="2.10855">
        <ele>112.3</ele>
        <time>2022-09-25T09:48:45Z</time>
      </trkpt>
      <trkpt lat="49.06863" lon="2.10854">
        <ele>112.9</ele>
        <time>2022-09-25T09:48:50Z</time>
      </trkpt>
      <trkpt lat="49.06869" lon="2.10853">
        <ele>113.7</ele>
        <time>2022-09-25T09:48:55Z</time>
      </trkpt>
      <trkpt lat="49.06879" lon="2.10845">
        <ele>114.6</ele>
        <time>2022-09-25T09:49:02Z</time>
      </trkpt>
      <trkpt lat="49.06885" lon="2.1084">
        <ele>115.3</ele>
        <time>2022-09-25T09:49:07Z</time>
      </trkpt>
      <trkpt lat="49.06892" lon="2.10835">
        <ele>115.6</ele>
        <time>2022-09-25T09:49:13Z</time>
      </trkpt>
      <trkpt lat="49.06901" lon="2.10832">
        <ele>115.9</ele>
        <time>2022-09-25T09:49:18Z</time>
      </trkpt>
      <trkpt lat="49.06911" lon="2.10826">
        <ele>116.3</ele>
        <time>2022-09-25T09:49:24Z</time>
      </trkpt>
      <trkpt lat="49.06917" lon="2.10824">
        <ele>116.6</ele>
        <time>2022-09-25T09:49:29Z</time>
      </trkpt>
      <trkpt lat="49.06923" lon="2.10819">
        <ele>117</ele>
        <time>2022-09-25T09:49:35Z</time>
      </trkpt>
      <trkpt lat="49.06928" lon="2.1081">
        <ele>117.2</ele>
        <time>2022-09-25T09:49:40Z</time>
      </trkpt>
      <trkpt lat="49.0693" lon="2.108">
        <ele>117.4</ele>
        <time>2022-09-25T09:49:46Z</time>
      </trkpt>
      <trkpt lat="49.06934" lon="2.10789">
        <ele>117.4</ele>
        <time>2022-09-25T09:49:51Z</time>
      </trkpt>
      <trkpt lat="49.06936" lon="2.1078">
        <ele>117.4</ele>
        <time>2022-09-25T09:49:56Z</time>
      </trkpt>
      <trkpt lat="49.06939" lon="2.10771">
        <ele>117.5</ele>
        <time>2022-09-25T09:50:01Z</time>
      </trkpt>
      <trkpt lat="49.06943" lon="2.1076">
        <ele>117.6</ele>
        <time>2022-09-25T09:50:06Z</time>
      </trkpt>
      <trkpt lat="49.06947" lon="2.1075">
        <ele>117.7</ele>
        <time>2022-09-25T09:50:11Z</time>
      </trkpt>
      <trkpt lat="49.06951" lon="2.10741">
        <ele>117.9</ele>
        <time>2022-09-25T09:50:16Z</time>
      </trkpt>
      <trkpt lat="49.06956" lon="2.10731">
        <ele>118.1</ele>
        <time>2022-09-25T09:50:22Z</time>
      </trkpt>
      <trkpt lat="49.0696" lon="2.10721">
        <ele>118.2</ele>
        <time>2022-09-25T09:50:28Z</time>
      </trkpt>
      <trkpt lat="49.0696" lon="2.10718">
        <ele>118.5</ele>
        <time>2022-09-25T09:50:33Z</time>
      </trkpt>
      <trkpt lat="49.0696" lon="2.1072">
        <ele>118.7</ele>
        <time>2022-09-25T09:50:39Z</time>
      </trkpt>
      <trkpt lat="49.06962" lon="2.10716">
        <ele>119</ele>
        <time>2022-09-25T09:50:44Z</time>
      </trkpt>
      <trkpt lat="49.06965" lon="2.10706">
        <ele>119.2</ele>
        <time>2022-09-25T09:50:50Z</time>
      </trkpt>
      <trkpt lat="49.06968" lon="2.10698">
        <ele>119.5</ele>
        <time>2022-09-25T09:50:55Z</time>
      </trkpt>
      <trkpt lat="49.06972" lon="2.10689">
        <ele>119.8</ele>
        <time>2022-09-25T09:51:01Z</time>
      </trkpt>
      <trkpt lat="49.06979" lon="2.10679">
        <ele>120.3</ele>
        <time>2022-09-25T09:51:07Z</time>
      </trkpt>
      <trkpt lat="49.06984" lon="2.10672">
        <ele>120.6</ele>
        <time>2022-09-25T09:51:12Z</time>
      </trkpt>
      <trkpt lat="49.0699" lon="2.10664">
        <ele>121.1</ele>
        <time>2022-09-25T09:51:18Z</time>
      </trkpt>
      <trkpt lat="49.06994" lon="2.10658">
        <ele>121.4</ele>
        <time>2022-09-25T09:51:23Z</time>
      </trkpt>
      <trkpt lat="49.07001" lon="2.10647">
        <ele>121.7</ele>
        <time>2022-09-25T09:51:29Z</time>
      </trkpt>
      <trkpt lat="49.07005" lon="2.10641">
        <ele>121.8</ele>
        <time>2022-09-25T09:51:34Z</time>
      </trkpt>
      <trkpt lat="49.07012" lon="2.10633">
        <ele>121.9</ele>
        <time>2022-09-25T09:51:40Z</time>
      </trkpt>
      <trkpt lat="49.07018" lon="2.10626">
        <ele>122</ele>
        <time>2022-09-25T09:51:46Z</time>
      </trkpt>
      <trkpt lat="49.07025" lon="2.10618">
        <ele>122</ele>
        <time>2022-09-25T09:51:52Z</time>
      </trkpt>
      <trkpt lat="49.07031" lon="2.10612">
        <ele>122</ele>
        <time>2022-09-25T09:51:58Z</time>
      </trkpt>
      <trkpt lat="49.07036" lon="2.10608">
        <ele>122</ele>
        <time>2022-09-25T09:52:03Z</time>
      </trkpt>
      <trkpt lat="49.07043" lon="2.10601">
        <ele>122.1</ele>
        <time>2022-09-25T09:52:09Z</time>
      </trkpt>
      <trkpt lat="49.07048" lon="2.10594">
        <ele>122.2</ele>
        <time>2022-09-25T09:52:14Z</time>
      </trkpt>
      <trkpt lat="49.07054" lon="2.10584">
        <ele>122.3</ele>
        <time>2022-09-25T09:52:19Z</time>
      </trkpt>
      <trkpt lat="49.07061" lon="2.10578">
        <ele>122.4</ele>
        <time>2022-09-25T09:52:25Z</time>
      </trkpt>
      <trkpt lat="49.07068" lon="2.1057">
        <ele>122.8</ele>
        <time>2022-09-25T09:52:30Z</time>
      </trkpt>
      <trkpt lat="49.07073" lon="2.10563">
        <ele>123.3</ele>
        <time>2022-09-25T09:52:36Z</time>
      </trkpt>
      <trkpt lat="49.07078" lon="2.10556">
        <ele>123.7</ele>
        <time>2022-09-25T09:52:41Z</time>
      </trkpt>
      <trkpt lat="49.07084" lon="2.10547">
        <ele>124.1</ele>
        <time>2022-09-25T09:52:47Z</time>
      </trkpt>
      <trkpt lat="49.0709" lon="2.10543">
        <ele>124.5</ele>
        <time>2022-09-25T09:52:52Z</time>
      </trkpt>
      <trkpt lat="49.07097" lon="2.10536">
        <ele>124.9</ele>
        <time>2022-09-25T09:52:57Z</time>
      </trkpt>
      <trkpt lat="49.07103" lon="2.10531">
        <ele>125.4</ele>
        <time>2022-09-25T09:53:03Z</time>
      </trkpt>
      <trkpt lat="49.07109" lon="2.10523">
        <ele>125.6</ele>
        <time>2022-09-25T09:53:08Z</time>
      </trkpt>
      <trkpt lat="49.07114" lon="2.10518">
        <ele>125.8</ele>
        <time>2022-09-25T09:53:13Z</time>
      </trkpt>
      <trkpt lat="49.07121" lon="2.10512">
        <ele>126.1</ele>
        <time>2022-09-25T09:53:19Z</time>
      </trkpt>
      <trkpt lat="49.07128" lon="2.10505">
        <ele>126.2</ele>
        <time>2022-09-25T09:53:24Z</time>
      </trkpt>
      <trkpt lat="49.07135" lon="2.10501">
        <ele>126.6</ele>
        <time>2022-09-25T09:53:30Z</time>
      </trkpt>
      <trkpt lat="49.07144" lon="2.10495">
        <ele>127.2</ele>
        <time>2022-09-25T09:53:36Z</time>
      </trkpt>
      <trkpt lat="49.07153" lon="2.10491">
        <ele>127.7</ele>
        <time>2022-09-25T09:53:42Z</time>
      </trkpt>
      <trkpt lat="49.07157" lon="2.10487">
        <ele>128</ele>
        <time>2022-09-25T09:53:47Z</time>
      </trkpt>
      <trkpt lat="49.07166" lon="2.10482">
        <ele>128.2</ele>
        <time>2022-09-25T09:53:53Z</time>
      </trkpt>
      <trkpt lat="49.07174" lon="2.10476">
        <ele>128.4</ele>
        <time>2022-09-25T09:53:59Z</time>
      </trkpt>
      <trkpt lat="49.07181" lon="2.10473">
        <ele>128.4</ele>
        <time>2022-09-25T09:54:05Z</time>
      </trkpt>
      <trkpt lat="49.07189" lon="2.10469">
        <ele>128.4</ele>
        <time>2022-09-25T09:54:10Z</time>
      </trkpt>
      <trkpt lat="49.07196" lon="2.10466">
        <ele>128.4</ele>
        <time>2022-09-25T09:54:16Z</time>
      </trkpt>
      <trkpt lat="49.07202" lon="2.1046">
        <ele>128.4</ele>
        <time>2022-09-25T09:54:22Z</time>
      </trkpt>
      <trkpt lat="49.07209" lon="2.10459">
        <ele>128.5</ele>
        <time>2022-09-25T09:54:27Z</time>
      </trkpt>
      <trkpt lat="49.07215" lon="2.10454">
        <ele>128.7</ele>
        <time>2022-09-25T09:54:33Z</time>
      </trkpt>
      <trkpt lat="49.07216" lon="2.10447">
        <ele>128.8</ele>
        <time>2022-09-25T09:54:39Z</time>
      </trkpt>
      <trkpt lat="49.07214" lon="2.10436">
        <ele>129</ele>
        <time>2022-09-25T09:54:44Z</time>
      </trkpt>
      <trkpt lat="49.07206" lon="2.1043">
        <ele>129.2</ele>
        <time>2022-09-25T09:54:50Z</time>
      </trkpt>
      <trkpt lat="49.07198" lon="2.10425">
        <ele>129.4</ele>
        <time>2022-09-25T09:54:56Z</time>
      </trkpt>
      <trkpt lat="49.0719" lon="2.10421">
        <ele>129.5</ele>
        <time>2022-09-25T09:55:02Z</time>
      </trkpt>
      <trkpt lat="49.07184" lon="2.10416">
        <ele>129.4</ele>
        <time>2022-09-25T09:55:07Z</time>
      </trkpt>
      <trkpt lat="49.07177" lon="2.1041">
        <ele>129.4</ele>
        <time>2022-09-25T09:55:13Z</time>
      </trkpt>
      <trkpt lat="49.07168" lon="2.10406">
        <ele>129.3</ele>
        <time>2022-09-25T09:55:19Z</time>
      </trkpt>
      <trkpt lat="49.07163" lon="2.10402">
        <ele>129.1</ele>
        <time>2022-09-25T09:55:24Z</time>
      </trkpt>
      <trkpt lat="49.07155" lon="2.10396">
        <ele>129</ele>
        <time>2022-09-25T09:55:30Z</time>
      </trkpt>
      <trkpt lat="49.07146" lon="2.1039">
        <ele>129.1</ele>
        <time>2022-09-25T09:55:36Z</time>
      </trkpt>
      <trkpt lat="49.07141" lon="2.10387">
        <ele>129.1</ele>
        <time>2022-09-25T09:55:41Z</time>
      </trkpt>
      <trkpt lat="49.07132" lon="2.10382">
        <ele>129.1</ele>
        <time>2022-09-25T09:55:47Z</time>
      </trkpt>
      <trkpt lat="49.07127" lon="2.10379">
        <ele>129</ele>
        <time>2022-09-25T09:55:52Z</time>
      </trkpt>
      <trkpt lat="49.07121" lon="2.10374">
        <ele>128.7</ele>
        <time>2022-09-25T09:55:58Z</time>
      </trkpt>
      <trkpt lat="49.07113" lon="2.1037">
        <ele>128.4</ele>
        <time>2022-09-25T09:56:03Z</time>
      </trkpt>
      <trkpt lat="49.07106" lon="2.10365">
        <ele>128.2</ele>
        <time>2022-09-25T09:56:08Z</time>
      </trkpt>
      <trkpt lat="49.071" lon="2.10358">
        <ele>127.9</ele>
        <time>2022-09-25T09:56:14Z</time>
      </trkpt>
      <trkpt lat="49.07096" lon="2.10352">
        <ele>127.6</ele>
        <time>2022-09-25T09:56:19Z</time>
      </trkpt>
      <trkpt lat="49.07088" lon="2.10343">
        <ele>127.4</ele>
        <time>2022-09-25T09:56:25Z</time>
      </trkpt>
      <trkpt lat="49.07082" lon="2.10334">
        <ele>127.2</ele>
        <time>2022-09-25T09:56:30Z</time>
      </trkpt>
      <trkpt lat="49.07077" lon="2.10324">
        <ele>127.1</ele>
        <time>2022-09-25T09:56:36Z</time>
      </trkpt>
      <trkpt lat="49.07072" lon="2.10319">
        <ele>126.9</ele>
        <time>2022-09-25T09:56:42Z</time>
      </trkpt>
      <trkpt lat="49.07065" lon="2.10311">
        <ele>126.6</ele>
        <time>2022-09-25T09:56:47Z</time>
      </trkpt>
      <trkpt lat="49.07058" lon="2.10302">
        <ele>126.2</ele>
        <time>2022-09-25T09:56:53Z</time>
      </trkpt>
      <trkpt lat="49.07052" lon="2.10294">
        <ele>125.9</ele>
        <time>2022-09-25T09:56:59Z</time>
      </trkpt>
      <trkpt lat="49.07046" lon="2.10285">
        <ele>125.4</ele>
        <time>2022-09-25T09:57:05Z</time>
      </trkpt>
      <trkpt lat="49.07042" lon="2.10276">
        <ele>125.2</ele>
        <time>2022-09-25T09:57:10Z</time>
      </trkpt>
      <trkpt lat="49.07036" lon="2.10264">
        <ele>124.8</ele>
        <time>2022-09-25T09:57:16Z</time>
      </trkpt>
      <trkpt lat="49.07032" lon="2.10258">
        <ele>124.3</ele>
        <time>2022-09-25T09:57:21Z</time>
      </trkpt>
      <trkpt lat="49.07026" lon="2.10249">
        <ele>123.7</ele>
        <time>2022-09-25T09:57:27Z</time>
      </trkpt>
      <trkpt lat="49.07019" lon="2.10238">
        <ele>123.3</ele>
        <time>2022-09-25T09:57:33Z</time>
      </trkpt>
      <trkpt lat="49.07015" lon="2.10229">
        <ele>123.2</ele>
        <time>2022-09-25T09:57:38Z</time>
      </trkpt>
      <trkpt lat="49.07013" lon="2.10218">
        <ele>123.1</ele>
        <time>2022-09-25T09:57:43Z</time>
      </trkpt>
      <trkpt lat="49.07013" lon="2.10208">
        <ele>123</ele>
        <time>2022-09-25T09:57:48Z</time>
      </trkpt>
      <trkpt lat="49.07014" lon="2.10199">
        <ele>122.9</ele>
        <time>2022-09-25T09:57:53Z</time>
      </trkpt>
      <trkpt lat="49.07014" lon="2.10189">
        <ele>122.8</ele>
        <time>2022-09-25T09:57:58Z</time>
      </trkpt>
      <trkpt lat="49.07012" lon="2.10177">
        <ele>122.6</ele>
        <time>2022-09-25T09:58:04Z</time>
      </trkpt>
      <trkpt lat="49.07008" lon="2.10171">
        <ele>122.4</ele>
        <time>2022-09-25T09:58:09Z</time>
      </trkpt>
      <trkpt lat="49.07001" lon="2.10166">
        <ele>121.7</ele>
        <time>2022-09-25T09:58:15Z</time>
      </trkpt>
      <trkpt lat="49.06996" lon="2.10163">
        <ele>121</ele>
        <time>2022-09-25T09:58:20Z</time>
      </trkpt>
      <trkpt lat="49.06993" lon="2.10155">
        <ele>120.1</ele>
        <time>2022-09-25T09:58:26Z</time>
      </trkpt>
      <trkpt lat="49.06988" lon="2.10149">
        <ele>119.3</ele>
        <time>2022-09-25T09:58:31Z</time>
      </trkpt>
      <trkpt lat="49.06987" lon="2.10141">
        <ele>118.3</ele>
        <time>2022-09-25T09:58:37Z</time>
      </trkpt>
      <trkpt lat="49.06982" lon="2.1013">
        <ele>117.7</ele>
        <time>2022-09-25T09:58:42Z</time>
      </trkpt>
      <trkpt lat="49.06979" lon="2.1012">
        <ele>117.2</ele>
        <time>2022-09-25T09:58:48Z</time>
      </trkpt>
      <trkpt lat="49.06977" lon="2.10109">
        <ele>117</ele>
        <time>2022-09-25T09:58:53Z</time>
      </trkpt>
      <trkpt lat="49.06979" lon="2.10101">
        <ele>116.6</ele>
        <time>2022-09-25T09:58:59Z</time>
      </trkpt>
      <trkpt lat="49.0698" lon="2.10094">
        <ele>116</ele>
        <time>2022-09-25T09:59:04Z</time>
      </trkpt>
      <trkpt lat="49.06985" lon="2.10086">
        <ele>115.3</ele>
        <time>2022-09-25T09:59:10Z</time>
      </trkpt>
      <trkpt lat="49.06989" lon="2.10076">
        <ele>114.5</ele>
        <time>2022-09-25T09:59:15Z</time>
      </trkpt>
      <trkpt lat="49.06993" lon="2.10064">
        <ele>113.3</ele>
        <time>2022-09-25T09:59:21Z</time>
      </trkpt>
      <trkpt lat="49.06998" lon="2.10055">
        <ele>111.9</ele>
        <time>2022-09-25T09:59:27Z</time>
      </trkpt>
      <trkpt lat="49.07002" lon="2.10046">
        <ele>110.6</ele>
        <time>2022-09-25T09:59:33Z</time>
      </trkpt>
      <trkpt lat="49.07005" lon="2.10038">
        <ele>109.5</ele>
        <time>2022-09-25T09:59:38Z</time>
      </trkpt>
      <trkpt lat="49.07011" lon="2.10026">
        <ele>108.3</ele>
        <time>2022-09-25T09:59:44Z</time>
      </trkpt>
      <trkpt lat="49.07016" lon="2.10018">
        <ele>107.1</ele>
        <time>2022-09-25T09:59:50Z</time>
      </trkpt>
      <trkpt lat="49.0702" lon="2.10008">
        <ele>106</ele>
        <time>2022-09-25T09:59:55Z</time>
      </trkpt>
      <trkpt lat="49.07026" lon="2.09999">
        <ele>104.7</ele>
        <time>2022-09-25T10:00:00Z</time>
      </trkpt>
      <trkpt lat="49.07029" lon="2.09988">
        <ele>103.4</ele>
        <time>2022-09-25T10:00:05Z</time>
      </trkpt>
      <trkpt lat="49.07033" lon="2.09976">
        <ele>102.3</ele>
        <time>2022-09-25T10:00:11Z</time>
      </trkpt>
      <trkpt lat="49.07035" lon="2.09963">
        <ele>101.5</ele>
        <time>2022-09-25T10:00:17Z</time>
      </trkpt>
      <trkpt lat="49.07039" lon="2.09954">
        <ele>100.9</ele>
        <time>2022-09-25T10:00:22Z</time>
      </trkpt>
      <trkpt lat="49.07042" lon="2.09942">
        <ele>100.3</ele>
        <time>2022-09-25T10:00:28Z</time>
      </trkpt>
      <trkpt lat="49.07045" lon="2.09932">
        <ele>99.8</ele>
        <time>2022-09-25T10:00:33Z</time>
      </trkpt>
      <trkpt lat="49.07048" lon="2.09919">
        <ele>99.1</ele>
        <time>2022-09-25T10:00:39Z</time>
      </trkpt>
      <trkpt lat="49.0705" lon="2.09908">
        <ele>98.6</ele>
        <time>2022-09-25T10:00:45Z</time>
      </trkpt>
      <trkpt lat="49.07046" lon="2.09899">
        <ele>98.6</ele>
        <time>2022-09-25T10:00:50Z</time>
      </trkpt>
      <trkpt lat="49.0704" lon="2.09895">
        <ele>98.7</ele>
        <time>2022-09-25T10:00:55Z</time>
      </trkpt>
      <trkpt lat="49.0703" lon="2.09885">
        <ele>98.7</ele>
        <time>2022-09-25T10:01:01Z</time>
      </trkpt>
      <trkpt lat="49.07029" lon="2.0988">
        <ele>98.7</ele>
        <time>2022-09-25T10:01:06Z</time>
      </trkpt>
      <trkpt lat="49.07028" lon="2.09879">
        <ele>98.4</ele>
        <time>2022-09-25T10:01:11Z</time>
      </trkpt>
      <trkpt lat="49.07026" lon="2.09878">
        <ele>97.3</ele>
        <time>2022-09-25T10:01:17Z</time>
      </trkpt>
      <trkpt lat="49.07028" lon="2.09877">
        <ele>96.5</ele>
        <time>2022-09-25T10:01:22Z</time>
      </trkpt>
      <trkpt lat="49.0703" lon="2.09874">
        <ele>95.8</ele>
        <time>2022-09-25T10:01:28Z</time>
      </trkpt>
      <trkpt lat="49.07034" lon="2.09872">
        <ele>95.2</ele>
        <time>2022-09-25T10:01:34Z</time>
      </trkpt>
      <trkpt lat="49.07039" lon="2.09867">
        <ele>94.7</ele>
        <time>2022-09-25T10:01:40Z</time>
      </trkpt>
      <trkpt lat="49.07045" lon="2.09858">
        <ele>94.4</ele>
        <time>2022-09-25T10:01:46Z</time>
      </trkpt>
      <trkpt lat="49.0705" lon="2.09852">
        <ele>94.1</ele>
        <time>2022-09-25T10:01:51Z</time>
      </trkpt>
      <trkpt lat="49.07057" lon="2.09846">
        <ele>93.6</ele>
        <time>2022-09-25T10:01:57Z</time>
      </trkpt>
      <trkpt lat="49.07063" lon="2.09841">
        <ele>93.5</ele>
        <time>2022-09-25T10:02:02Z</time>
      </trkpt>
      <trkpt lat="49.07069" lon="2.09836">
        <ele>93.7</ele>
        <time>2022-09-25T10:02:08Z</time>
      </trkpt>
      <trkpt lat="49.07077" lon="2.09833">
        <ele>94.3</ele>
        <time>2022-09-25T10:02:14Z</time>
      </trkpt>
      <trkpt lat="49.07084" lon="2.09832">
        <ele>94.9</ele>
        <time>2022-09-25T10:02:19Z</time>
      </trkpt>
      <trkpt lat="49.07092" lon="2.0983">
        <ele>95.7</ele>
        <time>2022-09-25T10:02:25Z</time>
      </trkpt>
      <trkpt lat="49.071" lon="2.09823">
        <ele>96.2</ele>
        <time>2022-09-25T10:02:31Z</time>
      </trkpt>
      <trkpt lat="49.0711" lon="2.09815">
        <ele>96.6</ele>
        <time>2022-09-25T10:02:37Z</time>
      </trkpt>
      <trkpt lat="49.07118" lon="2.09804">
        <ele>96.9</ele>
        <time>2022-09-25T10:02:43Z</time>
      </trkpt>
      <trkpt lat="49.07121" lon="2.09792">
        <ele>96.9</ele>
        <time>2022-09-25T10:02:49Z</time>
      </trkpt>
      <trkpt lat="49.07123" lon="2.09778">
        <ele>96.8</ele>
        <time>2022-09-25T10:02:55Z</time>
      </trkpt>
      <trkpt lat="49.07124" lon="2.09764">
        <ele>96.4</ele>
        <time>2022-09-25T10:03:00Z</time>
      </trkpt>
      <trkpt lat="49.07125" lon="2.09752">
        <ele>96</ele>
        <time>2022-09-25T10:03:05Z</time>
      </trkpt>
      <trkpt lat="49.07127" lon="2.0974">
        <ele>95.4</ele>
        <time>2022-09-25T10:03:11Z</time>
      </trkpt>
      <trkpt lat="49.07129" lon="2.09728">
        <ele>94.7</ele>
        <time>2022-09-25T10:03:17Z</time>
      </trkpt>
      <trkpt lat="49.07132" lon="2.09716">
        <ele>94.5</ele>
        <time>2022-09-25T10:03:23Z</time>
      </trkpt>
      <trkpt lat="49.07136" lon="2.09708">
        <ele>94.4</ele>
        <time>2022-09-25T10:03:28Z</time>
      </trkpt>
      <trkpt lat="49.07142" lon="2.09697">
        <ele>93.9</ele>
        <time>2022-09-25T10:03:34Z</time>
      </trkpt>
      <trkpt lat="49.07146" lon="2.09688">
        <ele>93.5</ele>
        <time>2022-09-25T10:03:39Z</time>
      </trkpt>
      <trkpt lat="49.0715" lon="2.09678">
        <ele>93.1</ele>
        <time>2022-09-25T10:03:45Z</time>
      </trkpt>
      <trkpt lat="49.07155" lon="2.09666">
        <ele>92.9</ele>
        <time>2022-09-25T10:03:51Z</time>
      </trkpt>
      <trkpt lat="49.07158" lon="2.09658">
        <ele>92.9</ele>
        <time>2022-09-25T10:03:56Z</time>
      </trkpt>
      <trkpt lat="49.07163" lon="2.09647">
        <ele>92.7</ele>
        <time>2022-09-25T10:04:02Z</time>
      </trkpt>
      <trkpt lat="49.07166" lon="2.09641">
        <ele>92.3</ele>
        <time>2022-09-25T10:04:07Z</time>
      </trkpt>
      <trkpt lat="49.07173" lon="2.09635">
        <ele>91.8</ele>
        <time>2022-09-25T10:04:13Z</time>
      </trkpt>
      <trkpt lat="49.07179" lon="2.0963">
        <ele>91.6</ele>
        <time>2022-09-25T10:04:19Z</time>
      </trkpt>
      <trkpt lat="49.07187" lon="2.09623">
        <ele>91.4</ele>
        <time>2022-09-25T10:04:24Z</time>
      </trkpt>
      <trkpt lat="49.07193" lon="2.09617">
        <ele>91.1</ele>
        <time>2022-09-25T10:04:30Z</time>
      </trkpt>
      <trkpt lat="49.07198" lon="2.09613">
        <ele>91</ele>
        <time>2022-09-25T10:04:36Z</time>
      </trkpt>
      <trkpt lat="49.07205" lon="2.09607">
        <ele>91</ele>
        <time>2022-09-25T10:04:41Z</time>
      </trkpt>
      <trkpt lat="49.07213" lon="2.09597">
        <ele>90.8</ele>
        <time>2022-09-25T10:04:48Z</time>
      </trkpt>
      <trkpt lat="49.07219" lon="2.09588">
        <ele>90.7</ele>
        <time>2022-09-25T10:04:53Z</time>
      </trkpt>
      <trkpt lat="49.07224" lon="2.09579">
        <ele>90.9</ele>
        <time>2022-09-25T10:04:58Z</time>
      </trkpt>
      <trkpt lat="49.07231" lon="2.09569">
        <ele>91.2</ele>
        <time>2022-09-25T10:05:04Z</time>
      </trkpt>
      <trkpt lat="49.07237" lon="2.09563">
        <ele>91.4</ele>
        <time>2022-09-25T10:05:09Z</time>
      </trkpt>
      <trkpt lat="49.07244" lon="2.09554">
        <ele>91.7</ele>
        <time>2022-09-25T10:05:15Z</time>
      </trkpt>
      <trkpt lat="49.07249" lon="2.09547">
        <ele>92.1</ele>
        <time>2022-09-25T10:05:20Z</time>
      </trkpt>
      <trkpt lat="49.07254" lon="2.09538">
        <ele>92.5</ele>
        <time>2022-09-25T10:05:25Z</time>
      </trkpt>
      <trkpt lat="49.07258" lon="2.09527">
        <ele>92.6</ele>
        <time>2022-09-25T10:05:30Z</time>
      </trkpt>
      <trkpt lat="49.07263" lon="2.09512">
        <ele>92.6</ele>
        <time>2022-09-25T10:05:36Z</time>
      </trkpt>
      <trkpt lat="49.07266" lon="2.09497">
        <ele>93</ele>
        <time>2022-09-25T10:05:42Z</time>
      </trkpt>
      <trkpt lat="49.07268" lon="2.09486">
        <ele>93.3</ele>
        <time>2022-09-25T10:05:47Z</time>
      </trkpt>
      <trkpt lat="49.07271" lon="2.09475">
        <ele>94</ele>
        <time>2022-09-25T10:05:53Z</time>
      </trkpt>
      <trkpt lat="49.07273" lon="2.09462">
        <ele>94.7</ele>
        <time>2022-09-25T10:05:59Z</time>
      </trkpt>
      <trkpt lat="49.07275" lon="2.09452">
        <ele>95.1</ele>
        <time>2022-09-25T10:06:04Z</time>
      </trkpt>
      <trkpt lat="49.07278" lon="2.09442">
        <ele>95.5</ele>
        <time>2022-09-25T10:06:10Z</time>
      </trkpt>
      <trkpt lat="49.0728" lon="2.09431">
        <ele>95.7</ele>
        <time>2022-09-25T10:06:15Z</time>
      </trkpt>
      <trkpt lat="49.07281" lon="2.09416">
        <ele>95.7</ele>
        <time>2022-09-25T10:06:21Z</time>
      </trkpt>
      <trkpt lat="49.07279" lon="2.09405">
        <ele>95.8</ele>
        <time>2022-09-25T10:06:26Z</time>
      </trkpt>
      <trkpt lat="49.07275" lon="2.09392">
        <ele>96.2</ele>
        <time>2022-09-25T10:06:32Z</time>
      </trkpt>
      <trkpt lat="49.07271" lon="2.09382">
        <ele>96.8</ele>
        <time>2022-09-25T10:06:38Z</time>
      </trkpt>
      <trkpt lat="49.07269" lon="2.09371">
        <ele>97.2</ele>
        <time>2022-09-25T10:06:43Z</time>
      </trkpt>
      <trkpt lat="49.0727" lon="2.09359">
        <ele>97.5</ele>
        <time>2022-09-25T10:06:49Z</time>
      </trkpt>
      <trkpt lat="49.07272" lon="2.0935">
        <ele>97.6</ele>
        <time>2022-09-25T10:06:54Z</time>
      </trkpt>
      <trkpt lat="49.07275" lon="2.0934">
        <ele>97.4</ele>
        <time>2022-09-25T10:07:00Z</time>
      </trkpt>
      <trkpt lat="49.07279" lon="2.09329">
        <ele>97.1</ele>
        <time>2022-09-25T10:07:05Z</time>
      </trkpt>
      <trkpt lat="49.07286" lon="2.09318">
        <ele>96.7</ele>
        <time>2022-09-25T10:07:11Z</time>
      </trkpt>
      <trkpt lat="49.07291" lon="2.09309">
        <ele>96.3</ele>
        <time>2022-09-25T10:07:16Z</time>
      </trkpt>
      <trkpt lat="49.07294" lon="2.09299">
        <ele>96.4</ele>
        <time>2022-09-25T10:07:22Z</time>
      </trkpt>
      <trkpt lat="49.07299" lon="2.0929">
        <ele>96.4</ele>
        <time>2022-09-25T10:07:28Z</time>
      </trkpt>
      <trkpt lat="49.07304" lon="2.09283">
        <ele>96.2</ele>
        <time>2022-09-25T10:07:33Z</time>
      </trkpt>
      <trkpt lat="49.0731" lon="2.0928">
        <ele>96.2</ele>
        <time>2022-09-25T10:07:38Z</time>
      </trkpt>
      <trkpt lat="49.07317" lon="2.09275">
        <ele>96.3</ele>
        <time>2022-09-25T10:07:44Z</time>
      </trkpt>
      <trkpt lat="49.07325" lon="2.09268">
        <ele>96.4</ele>
        <time>2022-09-25T10:07:50Z</time>
      </trkpt>
      <trkpt lat="49.07332" lon="2.0926">
        <ele>96.3</ele>
        <time>2022-09-25T10:07:55Z</time>
      </trkpt>
      <trkpt lat="49.07339" lon="2.09249">
        <ele>96.2</ele>
        <time>2022-09-25T10:08:01Z</time>
      </trkpt>
      <trkpt lat="49.07344" lon="2.09239">
        <ele>96</ele>
        <time>2022-09-25T10:08:06Z</time>
      </trkpt>
      <trkpt lat="49.07346" lon="2.09223">
        <ele>96</ele>
        <time>2022-09-25T10:08:12Z</time>
      </trkpt>
      <trkpt lat="49.07346" lon="2.0921">
        <ele>95.9</ele>
        <time>2022-09-25T10:08:17Z</time>
      </trkpt>
      <trkpt lat="49.07345" lon="2.09197">
        <ele>96</ele>
        <time>2022-09-25T10:08:23Z</time>
      </trkpt>
      <trkpt lat="49.07345" lon="2.09185">
        <ele>96.2</ele>
        <time>2022-09-25T10:08:29Z</time>
      </trkpt>
      <trkpt lat="49.07346" lon="2.09175">
        <ele>96.6</ele>
        <time>2022-09-25T10:08:34Z</time>
      </trkpt>
      <trkpt lat="49.07349" lon="2.09164">
        <ele>96.7</ele>
        <time>2022-09-25T10:08:40Z</time>
      </trkpt>
      <trkpt lat="49.07353" lon="2.09156">
        <ele>96.2</ele>
        <time>2022-09-25T10:08:45Z</time>
      </trkpt>
      <trkpt lat="49.0736" lon="2.09149">
        <ele>95.4</ele>
        <time>2022-09-25T10:08:51Z</time>
      </trkpt>
      <trkpt lat="49.07367" lon="2.09144">
        <ele>94.8</ele>
        <time>2022-09-25T10:08:56Z</time>
      </trkpt>
      <trkpt lat="49.07374" lon="2.09138">
        <ele>94.4</ele>
        <time>2022-09-25T10:09:01Z</time>
      </trkpt>
      <trkpt lat="49.07379" lon="2.09134">
        <ele>94.3</ele>
        <time>2022-09-25T10:09:06Z</time>
      </trkpt>
      <trkpt lat="49.07384" lon="2.09134">
        <ele>94.5</ele>
        <time>2022-09-25T10:09:11Z</time>
      </trkpt>
      <trkpt lat="49.07392" lon="2.09135">
        <ele>95</ele>
        <time>2022-09-25T10:09:17Z</time>
      </trkpt>
      <trkpt lat="49.07397" lon="2.09135">
        <ele>95.4</ele>
        <time>2022-09-25T10:09:22Z</time>
      </trkpt>
      <trkpt lat="49.07403" lon="2.0913">
        <ele>95.8</ele>
        <time>2022-09-25T10:09:27Z</time>
      </trkpt>
      <trkpt lat="49.07407" lon="2.09121">
        <ele>96.3</ele>
        <time>2022-09-25T10:09:33Z</time>
      </trkpt>
      <trkpt lat="49.0741" lon="2.0911">
        <ele>96.6</ele>
        <time>2022-09-25T10:09:38Z</time>
      </trkpt>
      <trkpt lat="49.07413" lon="2.091">
        <ele>96.8</ele>
        <time>2022-09-25T10:09:44Z</time>
      </trkpt>
      <trkpt lat="49.07417" lon="2.09096">
        <ele>96.9</ele>
        <time>2022-09-25T10:09:50Z</time>
      </trkpt>
      <trkpt lat="49.07422" lon="2.09092">
        <ele>96.8</ele>
        <time>2022-09-25T10:09:57Z</time>
      </trkpt>
      <trkpt lat="49.07427" lon="2.09093">
        <ele>96.1</ele>
        <time>2022-09-25T10:10:03Z</time>
      </trkpt>
      <trkpt lat="49.07434" lon="2.09084">
        <ele>95.5</ele>
        <time>2022-09-25T10:10:08Z</time>
      </trkpt>
      <trkpt lat="49.07441" lon="2.09072">
        <ele>95.2</ele>
        <time>2022-09-25T10:10:14Z</time>
      </trkpt>
      <trkpt lat="49.07447" lon="2.09063">
        <ele>95.3</ele>
        <time>2022-09-25T10:10:19Z</time>
      </trkpt>
      <trkpt lat="49.07454" lon="2.09054">
        <ele>95.7</ele>
        <time>2022-09-25T10:10:25Z</time>
      </trkpt>
      <trkpt lat="49.0746" lon="2.09046">
        <ele>96.1</ele>
        <time>2022-09-25T10:10:30Z</time>
      </trkpt>
      <trkpt lat="49.07466" lon="2.09036">
        <ele>96.7</ele>
        <time>2022-09-25T10:10:36Z</time>
      </trkpt>
      <trkpt lat="49.07471" lon="2.09029">
        <ele>97.1</ele>
        <time>2022-09-25T10:10:41Z</time>
      </trkpt>
      <trkpt lat="49.07476" lon="2.09019">
        <ele>97.5</ele>
        <time>2022-09-25T10:10:47Z</time>
      </trkpt>
      <trkpt lat="49.07479" lon="2.09009">
        <ele>97.9</ele>
        <time>2022-09-25T10:10:52Z</time>
      </trkpt>
      <trkpt lat="49.07483" lon="2.08998">
        <ele>98.6</ele>
        <time>2022-09-25T10:10:58Z</time>
      </trkpt>
      <trkpt lat="49.07485" lon="2.08987">
        <ele>99.3</ele>
        <time>2022-09-25T10:11:04Z</time>
      </trkpt>
      <trkpt lat="49.07486" lon="2.08976">
        <ele>99.9</ele>
        <time>2022-09-25T10:11:09Z</time>
      </trkpt>
      <trkpt lat="49.0749" lon="2.08963">
        <ele>100.4</ele>
        <time>2022-09-25T10:11:15Z</time>
      </trkpt>
      <trkpt lat="49.07494" lon="2.08954">
        <ele>100.7</ele>
        <time>2022-09-25T10:11:20Z</time>
      </trkpt>
      <trkpt lat="49.075" lon="2.08949">
        <ele>100.9</ele>
        <time>2022-09-25T10:11:25Z</time>
      </trkpt>
      <trkpt lat="49.07507" lon="2.08936">
        <ele>101.6</ele>
        <time>2022-09-25T10:11:33Z</time>
      </trkpt>
      <trkpt lat="49.07512" lon="2.08929">
        <ele>101.8</ele>
        <time>2022-09-25T10:11:39Z</time>
      </trkpt>
      <trkpt lat="49.07518" lon="2.08921">
        <ele>102</ele>
        <time>2022-09-25T10:11:45Z</time>
      </trkpt>
      <trkpt lat="49.07523" lon="2.08913">
        <ele>102.1</ele>
        <time>2022-09-25T10:11:50Z</time>
      </trkpt>
      <trkpt lat="49.07532" lon="2.08905">
        <ele>102.1</ele>
        <time>2022-09-25T10:11:56Z</time>
      </trkpt>
      <trkpt lat="49.07538" lon="2.08899">
        <ele>102.4</ele>
        <time>2022-09-25T10:12:01Z</time>
      </trkpt>
      <trkpt lat="49.07543" lon="2.08888">
        <ele>102.6</ele>
        <time>2022-09-25T10:12:07Z</time>
      </trkpt>
      <trkpt lat="49.07548" lon="2.08877">
        <ele>102.7</ele>
        <time>2022-09-25T10:12:12Z</time>
      </trkpt>
      <trkpt lat="49.07554" lon="2.08868">
        <ele>103</ele>
        <time>2022-09-25T10:12:17Z</time>
      </trkpt>
      <trkpt lat="49.07561" lon="2.08859">
        <ele>103.3</ele>
        <time>2022-09-25T10:12:22Z</time>
      </trkpt>
      <trkpt lat="49.07567" lon="2.08851">
        <ele>103.6</ele>
        <time>2022-09-25T10:12:28Z</time>
      </trkpt>
      <trkpt lat="49.07571" lon="2.08848">
        <ele>103.8</ele>
        <time>2022-09-25T10:12:33Z</time>
      </trkpt>
      <trkpt lat="49.0758" lon="2.08845">
        <ele>104.1</ele>
        <time>2022-09-25T10:12:39Z</time>
      </trkpt>
      <trkpt lat="49.07588" lon="2.0884">
        <ele>104.3</ele>
        <time>2022-09-25T10:12:44Z</time>
      </trkpt>
      <trkpt lat="49.07595" lon="2.08837">
        <ele>104.2</ele>
        <time>2022-09-25T10:12:50Z</time>
      </trkpt>
      <trkpt lat="49.07602" lon="2.08834">
        <ele>103.9</ele>
        <time>2022-09-25T10:12:55Z</time>
      </trkpt>
      <trkpt lat="49.07608" lon="2.08828">
        <ele>103.8</ele>
        <time>2022-09-25T10:13:01Z</time>
      </trkpt>
      <trkpt lat="49.07615" lon="2.08828">
        <ele>103.9</ele>
        <time>2022-09-25T10:13:06Z</time>
      </trkpt>
      <trkpt lat="49.07624" lon="2.08822">
        <ele>104.2</ele>
        <time>2022-09-25T10:13:12Z</time>
      </trkpt>
      <trkpt lat="49.07631" lon="2.08819">
        <ele>104.3</ele>
        <time>2022-09-25T10:13:17Z</time>
      </trkpt>
      <trkpt lat="49.07638" lon="2.08817">
        <ele>104.4</ele>
        <time>2022-09-25T10:13:22Z</time>
      </trkpt>
      <trkpt lat="49.07647" lon="2.08815">
        <ele>104.7</ele>
        <time>2022-09-25T10:13:28Z</time>
      </trkpt>
      <trkpt lat="49.07654" lon="2.08811">
        <ele>105</ele>
        <time>2022-09-25T10:13:34Z</time>
      </trkpt>
      <trkpt lat="49.0766" lon="2.08809">
        <ele>105.3</ele>
        <time>2022-09-25T10:13:39Z</time>
      </trkpt>
      <trkpt lat="49.07669" lon="2.08805">
        <ele>105.6</ele>
        <time>2022-09-25T10:13:45Z</time>
      </trkpt>
      <trkpt lat="49.07677" lon="2.08801">
        <ele>105.8</ele>
        <time>2022-09-25T10:13:50Z</time>
      </trkpt>
      <trkpt lat="49.07682" lon="2.08801">
        <ele>106</ele>
        <time>2022-09-25T10:13:55Z</time>
      </trkpt>
      <trkpt lat="49.07692" lon="2.08794">
        <ele>106</ele>
        <time>2022-09-25T10:14:01Z</time>
      </trkpt>
      <trkpt lat="49.07702" lon="2.08788">
        <ele>106</ele>
        <time>2022-09-25T10:14:07Z</time>
      </trkpt>
      <trkpt lat="49.07709" lon="2.08784">
        <ele>106.1</ele>
        <time>2022-09-25T10:14:13Z</time>
      </trkpt>
      <trkpt lat="49.07716" lon="2.08781">
        <ele>106.1</ele>
        <time>2022-09-25T10:14:18Z</time>
      </trkpt>
      <trkpt lat="49.07724" lon="2.08777">
        <ele>106</ele>
        <time>2022-09-25T10:14:24Z</time>
      </trkpt>
      <trkpt lat="49.07733" lon="2.08768">
        <ele>105.9</ele>
        <time>2022-09-25T10:14:30Z</time>
      </trkpt>
      <trkpt lat="49.0774" lon="2.08761">
        <ele>105.7</ele>
        <time>2022-09-25T10:14:36Z</time>
      </trkpt>
      <trkpt lat="49.07743" lon="2.08754">
        <ele>105.8</ele>
        <time>2022-09-25T10:14:41Z</time>
      </trkpt>
      <trkpt lat="49.07747" lon="2.08742">
        <ele>105.8</ele>
        <time>2022-09-25T10:14:47Z</time>
      </trkpt>
      <trkpt lat="49.07751" lon="2.08728">
        <ele>105.8</ele>
        <time>2022-09-25T10:14:53Z</time>
      </trkpt>
      <trkpt lat="49.07755" lon="2.0872">
        <ele>105.8</ele>
        <time>2022-09-25T10:14:59Z</time>
      </trkpt>
      <trkpt lat="49.0776" lon="2.08707">
        <ele>105.8</ele>
        <time>2022-09-25T10:15:05Z</time>
      </trkpt>
      <trkpt lat="49.07766" lon="2.08699">
        <ele>105.8</ele>
        <time>2022-09-25T10:15:10Z</time>
      </trkpt>
      <trkpt lat="49.07772" lon="2.08691">
        <ele>105.8</ele>
        <time>2022-09-25T10:15:16Z</time>
      </trkpt>
      <trkpt lat="49.07777" lon="2.08685">
        <ele>105.9</ele>
        <time>2022-09-25T10:15:21Z</time>
      </trkpt>
      <trkpt lat="49.07785" lon="2.08676">
        <ele>106</ele>
        <time>2022-09-25T10:15:27Z</time>
      </trkpt>
      <trkpt lat="49.07791" lon="2.08668">
        <ele>106.2</ele>
        <time>2022-09-25T10:15:32Z</time>
      </trkpt>
      <trkpt lat="49.07797" lon="2.0866">
        <ele>106.4</ele>
        <time>2022-09-25T10:15:38Z</time>
      </trkpt>
      <trkpt lat="49.07802" lon="2.08655">
        <ele>106.5</ele>
        <time>2022-09-25T10:15:43Z</time>
      </trkpt>
      <trkpt lat="49.07807" lon="2.08647">
        <ele>106.5</ele>
        <time>2022-09-25T10:15:49Z</time>
      </trkpt>
      <trkpt lat="49.07814" lon="2.0864">
        <ele>106.5</ele>
        <time>2022-09-25T10:15:55Z</time>
      </trkpt>
      <trkpt lat="49.0782" lon="2.08635">
        <ele>106.4</ele>
        <time>2022-09-25T10:16:00Z</time>
      </trkpt>
      <trkpt lat="49.07828" lon="2.08632">
        <ele>106.3</ele>
        <time>2022-09-25T10:16:06Z</time>
      </trkpt>
      <trkpt lat="49.07834" lon="2.0863">
        <ele>106</ele>
        <time>2022-09-25T10:16:12Z</time>
      </trkpt>
      <trkpt lat="49.07841" lon="2.08626">
        <ele>105.2</ele>
        <time>2022-09-25T10:16:18Z</time>
      </trkpt>
      <trkpt lat="49.07847" lon="2.08624">
        <ele>104.7</ele>
        <time>2022-09-25T10:16:23Z</time>
      </trkpt>
      <trkpt lat="49.07855" lon="2.08622">
        <ele>104.3</ele>
        <time>2022-09-25T10:16:29Z</time>
      </trkpt>
      <trkpt lat="49.07865" lon="2.08621">
        <ele>103.7</ele>
        <time>2022-09-25T10:16:35Z</time>
      </trkpt>
      <trkpt lat="49.07873" lon="2.0862">
        <ele>103.3</ele>
        <time>2022-09-25T10:16:40Z</time>
      </trkpt>
      <trkpt lat="49.07884" lon="2.08619">
        <ele>103.2</ele>
        <time>2022-09-25T10:16:46Z</time>
      </trkpt>
      <trkpt lat="49.07893" lon="2.08618">
        <ele>103.2</ele>
        <time>2022-09-25T10:16:52Z</time>
      </trkpt>
      <trkpt lat="49.07901" lon="2.08618">
        <ele>103.3</ele>
        <time>2022-09-25T10:16:58Z</time>
      </trkpt>
      <trkpt lat="49.07909" lon="2.08618">
        <ele>103.6</ele>
        <time>2022-09-25T10:17:03Z</time>
      </trkpt>
      <trkpt lat="49.07917" lon="2.0862">
        <ele>104.3</ele>
        <time>2022-09-25T10:17:09Z</time>
      </trkpt>
      <trkpt lat="49.07924" lon="2.08622">
        <ele>104.8</ele>
        <time>2022-09-25T10:17:14Z</time>
      </trkpt>
      <trkpt lat="49.07931" lon="2.08625">
        <ele>105.5</ele>
        <time>2022-09-25T10:17:20Z</time>
      </trkpt>
      <trkpt lat="49.0794" lon="2.08626">
        <ele>106.2</ele>
        <time>2022-09-25T10:17:26Z</time>
      </trkpt>
      <trkpt lat="49.07948" lon="2.08628">
        <ele>106.7</ele>
        <time>2022-09-25T10:17:31Z</time>
      </trkpt>
      <trkpt lat="49.07956" lon="2.08631">
        <ele>107.4</ele>
        <time>2022-09-25T10:17:37Z</time>
      </trkpt>
      <trkpt lat="49.07964" lon="2.08635">
        <ele>108</ele>
        <time>2022-09-25T10:17:43Z</time>
      </trkpt>
      <trkpt lat="49.07971" lon="2.08637">
        <ele>108.3</ele>
        <time>2022-09-25T10:17:48Z</time>
      </trkpt>
      <trkpt lat="49.07979" lon="2.08641">
        <ele>108.7</ele>
        <time>2022-09-25T10:17:54Z</time>
      </trkpt>
      <trkpt lat="49.07987" lon="2.08644">
        <ele>108.9</ele>
        <time>2022-09-25T10:17:59Z</time>
      </trkpt>
      <trkpt lat="49.07995" lon="2.08646">
        <ele>108.7</ele>
        <time>2022-09-25T10:18:05Z</time>
      </trkpt>
      <trkpt lat="49.08002" lon="2.08648">
        <ele>108.4</ele>
        <time>2022-09-25T10:18:10Z</time>
      </trkpt>
      <trkpt lat="49.08011" lon="2.0865">
        <ele>108.1</ele>
        <time>2022-09-25T10:18:16Z</time>
      </trkpt>
      <trkpt lat="49.08018" lon="2.08652">
        <ele>107.8</ele>
        <time>2022-09-25T10:18:21Z</time>
      </trkpt>
      <trkpt lat="49.08026" lon="2.08654">
        <ele>107.7</ele>
        <time>2022-09-25T10:18:27Z</time>
      </trkpt>
      <trkpt lat="49.08033" lon="2.08656">
        <ele>107.9</ele>
        <time>2022-09-25T10:18:32Z</time>
      </trkpt>
      <trkpt lat="49.08042" lon="2.08659">
        <ele>108.1</ele>
        <time>2022-09-25T10:18:38Z</time>
      </trkpt>
      <trkpt lat="49.0805" lon="2.08661">
        <ele>108.2</ele>
        <time>2022-09-25T10:18:44Z</time>
      </trkpt>
      <trkpt lat="49.08056" lon="2.08661">
        <ele>108</ele>
        <time>2022-09-25T10:18:49Z</time>
      </trkpt>
      <trkpt lat="49.08064" lon="2.08658">
        <ele>107.7</ele>
        <time>2022-09-25T10:18:55Z</time>
      </trkpt>
      <trkpt lat="49.08072" lon="2.08655">
        <ele>107.2</ele>
        <time>2022-09-25T10:19:01Z</time>
      </trkpt>
      <trkpt lat="49.08082" lon="2.0865">
        <ele>106.5</ele>
        <time>2022-09-25T10:19:07Z</time>
      </trkpt>
      <trkpt lat="49.08087" lon="2.08647">
        <ele>106</ele>
        <time>2022-09-25T10:19:12Z</time>
      </trkpt>
      <trkpt lat="49.08084" lon="2.0865">
        <ele>105.6</ele>
        <time>2022-09-25T10:19:18Z</time>
      </trkpt>
      <trkpt lat="49.08083" lon="2.08656">
        <ele>105.5</ele>
        <time>2022-09-25T10:19:23Z</time>
      </trkpt>
      <trkpt lat="49.08086" lon="2.0866">
        <ele>105.7</ele>
        <time>2022-09-25T10:19:29Z</time>
      </trkpt>
      <trkpt lat="49.08093" lon="2.08661">
        <ele>106.1</ele>
        <time>2022-09-25T10:19:34Z</time>
      </trkpt>
      <trkpt lat="49.081" lon="2.08664">
        <ele>106.6</ele>
        <time>2022-09-25T10:19:40Z</time>
      </trkpt>
      <trkpt lat="49.08107" lon="2.08665">
        <ele>107.5</ele>
        <time>2022-09-25T10:19:46Z</time>
      </trkpt>
      <trkpt lat="49.08118" lon="2.08664">
        <ele>108.5</ele>
        <time>2022-09-25T10:19:52Z</time>
      </trkpt>
      <trkpt lat="49.08125" lon="2.08666">
        <ele>109.2</ele>
        <time>2022-09-25T10:19:58Z</time>
      </trkpt>
      <trkpt lat="49.08133" lon="2.08668">
        <ele>109.9</ele>
        <time>2022-09-25T10:20:03Z</time>
      </trkpt>
      <trkpt lat="49.0814" lon="2.08669">
        <ele>110.6</ele>
        <time>2022-09-25T10:20:09Z</time>
      </trkpt>
      <trkpt lat="49.08147" lon="2.08667">
        <ele>111.2</ele>
        <time>2022-09-25T10:20:15Z</time>
      </trkpt>
      <trkpt lat="49.08154" lon="2.08667">
        <ele>111.9</ele>
        <time>2022-09-25T10:20:21Z</time>
      </trkpt>
      <trkpt lat="49.08162" lon="2.0867">
        <ele>112.4</ele>
        <time>2022-09-25T10:20:27Z</time>
      </trkpt>
      <trkpt lat="49.0817" lon="2.08671">
        <ele>112.6</ele>
        <time>2022-09-25T10:20:33Z</time>
      </trkpt>
      <trkpt lat="49.08175" lon="2.0867">
        <ele>112.2</ele>
        <time>2022-09-25T10:20:38Z</time>
      </trkpt>
      <trkpt lat="49.0818" lon="2.08668">
        <ele>111.4</ele>
        <time>2022-09-25T10:20:43Z</time>
      </trkpt>
      <trkpt lat="49.08187" lon="2.08667">
        <ele>110</ele>
        <time>2022-09-25T10:20:49Z</time>
      </trkpt>
      <trkpt lat="49.08192" lon="2.08666">
        <ele>108.7</ele>
        <time>2022-09-25T10:20:54Z</time>
      </trkpt>
      <trkpt lat="49.08198" lon="2.08666">
        <ele>106.6</ele>
        <time>2022-09-25T10:21:00Z</time>
      </trkpt>
      <trkpt lat="49.08205" lon="2.08662">
        <ele>104.2</ele>
        <time>2022-09-25T10:21:05Z</time>
      </trkpt>
      <trkpt lat="49.08215" lon="2.08654">
        <ele>101.5</ele>
        <time>2022-09-25T10:21:11Z</time>
      </trkpt>
      <trkpt lat="49.08226" lon="2.08646">
        <ele>99.6</ele>
        <time>2022-09-25T10:21:17Z</time>
      </trkpt>
      <trkpt lat="49.08233" lon="2.08639">
        <ele>98.2</ele>
        <time>2022-09-25T10:21:22Z</time>
      </trkpt>
      <trkpt lat="49.08239" lon="2.08632">
        <ele>97</ele>
        <time>2022-09-25T10:21:28Z</time>
      </trkpt>
      <trkpt lat="49.08244" lon="2.08628">
        <ele>96.6</ele>
        <time>2022-09-25T10:21:33Z</time>
      </trkpt>
      <trkpt lat="49.0825" lon="2.08624">
        <ele>96.1</ele>
        <time>2022-09-25T10:21:39Z</time>
      </trkpt>
      <trkpt lat="49.08255" lon="2.0862">
        <ele>96.1</ele>
        <time>2022-09-25T10:21:44Z</time>
      </trkpt>
      <trkpt lat="49.08261" lon="2.0862">
        <ele>96.6</ele>
        <time>2022-09-25T10:21:50Z</time>
      </trkpt>
      <trkpt lat="49.08266" lon="2.08619">
        <ele>97.6</ele>
        <time>2022-09-25T10:21:56Z</time>
      </trkpt>
      <trkpt lat="49.08272" lon="2.0862">
        <ele>98.7</ele>
        <time>2022-09-25T10:22:02Z</time>
      </trkpt>
      <trkpt lat="49.08279" lon="2.08619">
        <ele>99.8</ele>
        <time>2022-09-25T10:22:08Z</time>
      </trkpt>
      <trkpt lat="49.08286" lon="2.08617">
        <ele>101</ele>
        <time>2022-09-25T10:22:13Z</time>
      </trkpt>
      <trkpt lat="49.08294" lon="2.08617">
        <ele>102.3</ele>
        <time>2022-09-25T10:22:18Z</time>
      </trkpt>
      <trkpt lat="49.08302" lon="2.08617">
        <ele>104.1</ele>
        <time>2022-09-25T10:22:24Z</time>
      </trkpt>
      <trkpt lat="49.08308" lon="2.08616">
        <ele>105.8</ele>
        <time>2022-09-25T10:22:29Z</time>
      </trkpt>
      <trkpt lat="49.08315" lon="2.08616">
        <ele>107.7</ele>
        <time>2022-09-25T10:22:35Z</time>
      </trkpt>
      <trkpt lat="49.08321" lon="2.08616">
        <ele>109.4</ele>
        <time>2022-09-25T10:22:40Z</time>
      </trkpt>
      <trkpt lat="49.0833" lon="2.08617">
        <ele>111.3</ele>
        <time>2022-09-25T10:22:46Z</time>
      </trkpt>
      <trkpt lat="49.08338" lon="2.08619">
        <ele>112.5</ele>
        <time>2022-09-25T10:22:51Z</time>
      </trkpt>
      <trkpt lat="49.08347" lon="2.0862">
        <ele>113.6</ele>
        <time>2022-09-25T10:22:57Z</time>
      </trkpt>
      <trkpt lat="49.08352" lon="2.0862">
        <ele>114.6</ele>
        <time>2022-09-25T10:23:02Z</time>
      </trkpt>
      <trkpt lat="49.08357" lon="2.08619">
        <ele>115.2</ele>
        <time>2022-09-25T10:23:08Z</time>
      </trkpt>
      <trkpt lat="49.08364" lon="2.08617">
        <ele>115.8</ele>
        <time>2022-09-25T10:23:13Z</time>
      </trkpt>
      <trkpt lat="49.0837" lon="2.08614">
        <ele>116.5</ele>
        <time>2022-09-25T10:23:19Z</time>
      </trkpt>
      <trkpt lat="49.08374" lon="2.08611">
        <ele>116.8</ele>
        <time>2022-09-25T10:23:24Z</time>
      </trkpt>
      <trkpt lat="49.08382" lon="2.08609">
        <ele>117.4</ele>
        <time>2022-09-25T10:23:29Z</time>
      </trkpt>
      <trkpt lat="49.0839" lon="2.08609">
        <ele>118.1</ele>
        <time>2022-09-25T10:23:35Z</time>
      </trkpt>
      <trkpt lat="49.08394" lon="2.08612">
        <ele>118.5</ele>
        <time>2022-09-25T10:23:41Z</time>
      </trkpt>
      <trkpt lat="49.08399" lon="2.08615">
        <ele>118.9</ele>
        <time>2022-09-25T10:23:46Z</time>
      </trkpt>
      <trkpt lat="49.08407" lon="2.08619">
        <ele>119.3</ele>
        <time>2022-09-25T10:23:52Z</time>
      </trkpt>
      <trkpt lat="49.08415" lon="2.08623">
        <ele>119.6</ele>
        <time>2022-09-25T10:23:57Z</time>
      </trkpt>
      <trkpt lat="49.08422" lon="2.08626">
        <ele>120</ele>
        <time>2022-09-25T10:24:03Z</time>
      </trkpt>
      <trkpt lat="49.08429" lon="2.08628">
        <ele>120.2</ele>
        <time>2022-09-25T10:24:08Z</time>
      </trkpt>
      <trkpt lat="49.08437" lon="2.08629">
        <ele>120.4</ele>
        <time>2022-09-25T10:24:14Z</time>
      </trkpt>
      <trkpt lat="49.08445" lon="2.08631">
        <ele>120.6</ele>
        <time>2022-09-25T10:24:19Z</time>
      </trkpt>
      <trkpt lat="49.08451" lon="2.08631">
        <ele>120.8</ele>
        <time>2022-09-25T10:24:24Z</time>
      </trkpt>
      <trkpt lat="49.08458" lon="2.08631">
        <ele>120.8</ele>
        <time>2022-09-25T10:24:30Z</time>
      </trkpt>
      <trkpt lat="49.08468" lon="2.08628">
        <ele>120.9</ele>
        <time>2022-09-25T10:24:36Z</time>
      </trkpt>
      <trkpt lat="49.08474" lon="2.08628">
        <ele>120.8</ele>
        <time>2022-09-25T10:24:41Z</time>
      </trkpt>
      <trkpt lat="49.08483" lon="2.08627">
        <ele>120.7</ele>
        <time>2022-09-25T10:24:47Z</time>
      </trkpt>
      <trkpt lat="49.0849" lon="2.08626">
        <ele>120.6</ele>
        <time>2022-09-25T10:24:52Z</time>
      </trkpt>
      <trkpt lat="49.08498" lon="2.08625">
        <ele>120.5</ele>
        <time>2022-09-25T10:24:57Z</time>
      </trkpt>
      <trkpt lat="49.08506" lon="2.08625">
        <ele>120.4</ele>
        <time>2022-09-25T10:25:03Z</time>
      </trkpt>
      <trkpt lat="49.08513" lon="2.08622">
        <ele>120.4</ele>
        <time>2022-09-25T10:25:08Z</time>
      </trkpt>
      <trkpt lat="49.08523" lon="2.08621">
        <ele>120.4</ele>
        <time>2022-09-25T10:25:14Z</time>
      </trkpt>
      <trkpt lat="49.08531" lon="2.08621">
        <ele>120.4</ele>
        <time>2022-09-25T10:25:20Z</time>
      </trkpt>
      <trkpt lat="49.08538" lon="2.08622">
        <ele>120.6</ele>
        <time>2022-09-25T10:25:25Z</time>
      </trkpt>
      <trkpt lat="49.08545" lon="2.08622">
        <ele>120.7</ele>
        <time>2022-09-25T10:25:31Z</time>
      </trkpt>
      <trkpt lat="49.08551" lon="2.08625">
        <ele>121</ele>
        <time>2022-09-25T10:25:37Z</time>
      </trkpt>
      <trkpt lat="49.08557" lon="2.08626">
        <ele>121.2</ele>
        <time>2022-09-25T10:25:42Z</time>
      </trkpt>
      <trkpt lat="49.08564" lon="2.08626">
        <ele>121.5</ele>
        <time>2022-09-25T10:25:48Z</time>
      </trkpt>
      <trkpt lat="49.08573" lon="2.08628">
        <ele>121.9</ele>
        <time>2022-09-25T10:25:54Z</time>
      </trkpt>
      <trkpt lat="49.08579" lon="2.08631">
        <ele>122.2</ele>
        <time>2022-09-25T10:25:59Z</time>
      </trkpt>
      <trkpt lat="49.08587" lon="2.08636">
        <ele>122.5</ele>
        <time>2022-09-25T10:26:05Z</time>
      </trkpt>
      <trkpt lat="49.08596" lon="2.0864">
        <ele>122.8</ele>
        <time>2022-09-25T10:26:11Z</time>
      </trkpt>
      <trkpt lat="49.08603" lon="2.08644">
        <ele>123.1</ele>
        <time>2022-09-25T10:26:17Z</time>
      </trkpt>
      <trkpt lat="49.08611" lon="2.08646">
        <ele>123.4</ele>
        <time>2022-09-25T10:26:22Z</time>
      </trkpt>
      <trkpt lat="49.0862" lon="2.08649">
        <ele>123.6</ele>
        <time>2022-09-25T10:26:28Z</time>
      </trkpt>
      <trkpt lat="49.08625" lon="2.08652">
        <ele>123.7</ele>
        <time>2022-09-25T10:26:33Z</time>
      </trkpt>
      <trkpt lat="49.08634" lon="2.08656">
        <ele>123.8</ele>
        <time>2022-09-25T10:26:39Z</time>
      </trkpt>
      <trkpt lat="49.0864" lon="2.08658">
        <ele>123.9</ele>
        <time>2022-09-25T10:26:44Z</time>
      </trkpt>
      <trkpt lat="49.08643" lon="2.08658">
        <ele>124</ele>
        <time>2022-09-25T10:26:49Z</time>
      </trkpt>
      <trkpt lat="49.08649" lon="2.0866">
        <ele>124.1</ele>
        <time>2022-09-25T10:26:54Z</time>
      </trkpt>
      <trkpt lat="49.08656" lon="2.08665">
        <ele>124.4</ele>
        <time>2022-09-25T10:27:00Z</time>
      </trkpt>
      <trkpt lat="49.08661" lon="2.08669">
        <ele>124.7</ele>
        <time>2022-09-25T10:27:05Z</time>
      </trkpt>
      <trkpt lat="49.08669" lon="2.08673">
        <ele>125.2</ele>
        <time>2022-09-25T10:27:11Z</time>
      </trkpt>
      <trkpt lat="49.08675" lon="2.08677">
        <ele>125.6</ele>
        <time>2022-09-25T10:27:16Z</time>
      </trkpt>
      <trkpt lat="49.08683" lon="2.08683">
        <ele>126</ele>
        <time>2022-09-25T10:27:22Z</time>
      </trkpt>
      <trkpt lat="49.08688" lon="2.08688">
        <ele>126.4</ele>
        <time>2022-09-25T10:27:27Z</time>
      </trkpt>
      <trkpt lat="49.08694" lon="2.08692">
        <ele>126.7</ele>
        <time>2022-09-25T10:27:33Z</time>
      </trkpt>
      <trkpt lat="49.08701" lon="2.08699">
        <ele>127</ele>
        <time>2022-09-25T10:27:38Z</time>
      </trkpt>
      <trkpt lat="49.08709" lon="2.08706">
        <ele>127.2</ele>
        <time>2022-09-25T10:27:44Z</time>
      </trkpt>
      <trkpt lat="49.08715" lon="2.0871">
        <ele>127.3</ele>
        <time>2022-09-25T10:27:49Z</time>
      </trkpt>
      <trkpt lat="49.08722" lon="2.08718">
        <ele>127.4</ele>
        <time>2022-09-25T10:27:55Z</time>
      </trkpt>
      <trkpt lat="49.0873" lon="2.08724">
        <ele>127.4</ele>
        <time>2022-09-25T10:28:00Z</time>
      </trkpt>
      <trkpt lat="49.08736" lon="2.0873">
        <ele>127.3</ele>
        <time>2022-09-25T10:28:05Z</time>
      </trkpt>
      <trkpt lat="49.08741" lon="2.08738">
        <ele>127.3</ele>
        <time>2022-09-25T10:28:10Z</time>
      </trkpt>
      <trkpt lat="49.08747" lon="2.08746">
        <ele>127.3</ele>
        <time>2022-09-25T10:28:16Z</time>
      </trkpt>
      <trkpt lat="49.08754" lon="2.08753">
        <ele>127.4</ele>
        <time>2022-09-25T10:28:21Z</time>
      </trkpt>
      <trkpt lat="49.08761" lon="2.08763">
        <ele>127.7</ele>
        <time>2022-09-25T10:28:27Z</time>
      </trkpt>
      <trkpt lat="49.08765" lon="2.08771">
        <ele>128</ele>
        <time>2022-09-25T10:28:32Z</time>
      </trkpt>
      <trkpt lat="49.08771" lon="2.08779">
        <ele>128.4</ele>
        <time>2022-09-25T10:28:38Z</time>
      </trkpt>
      <trkpt lat="49.08778" lon="2.08788">
        <ele>128.8</ele>
        <time>2022-09-25T10:28:44Z</time>
      </trkpt>
      <trkpt lat="49.08784" lon="2.08795">
        <ele>129</ele>
        <time>2022-09-25T10:28:49Z</time>
      </trkpt>
      <trkpt lat="49.0879" lon="2.08804">
        <ele>129.1</ele>
        <time>2022-09-25T10:28:55Z</time>
      </trkpt>
      <trkpt lat="49.08795" lon="2.08813">
        <ele>129.2</ele>
        <time>2022-09-25T10:29:00Z</time>
      </trkpt>
      <trkpt lat="49.08802" lon="2.08823">
        <ele>129.3</ele>
        <time>2022-09-25T10:29:06Z</time>
      </trkpt>
      <trkpt lat="49.08805" lon="2.08832">
        <ele>129.4</ele>
        <time>2022-09-25T10:29:11Z</time>
      </trkpt>
      <trkpt lat="49.08811" lon="2.08841">
        <ele>129.5</ele>
        <time>2022-09-25T10:29:17Z</time>
      </trkpt>
      <trkpt lat="49.08818" lon="2.08849">
        <ele>129.5</ele>
        <time>2022-09-25T10:29:22Z</time>
      </trkpt>
      <trkpt lat="49.08825" lon="2.08858">
        <ele>129.5</ele>
        <time>2022-09-25T10:29:28Z</time>
      </trkpt>
      <trkpt lat="49.08829" lon="2.08863">
        <ele>129.4</ele>
        <time>2022-09-25T10:29:33Z</time>
      </trkpt>
      <trkpt lat="49.08834" lon="2.08872">
        <ele>129.3</ele>
        <time>2022-09-25T10:29:38Z</time>
      </trkpt>
      <trkpt lat="49.0884" lon="2.08882">
        <ele>129.1</ele>
        <time>2022-09-25T10:29:44Z</time>
      </trkpt>
      <trkpt lat="49.08844" lon="2.08891">
        <ele>128.9</ele>
        <time>2022-09-25T10:29:49Z</time>
      </trkpt>
      <trkpt lat="49.08849" lon="2.089">
        <ele>128.8</ele>
        <time>2022-09-25T10:29:55Z</time>
      </trkpt>
      <trkpt lat="49.08856" lon="2.08909">
        <ele>128.8</ele>
        <time>2022-09-25T10:30:00Z</time>
      </trkpt>
      <trkpt lat="49.08863" lon="2.08921">
        <ele>129</ele>
        <time>2022-09-25T10:30:06Z</time>
      </trkpt>
      <trkpt lat="49.08867" lon="2.08931">
        <ele>129.2</ele>
        <time>2022-09-25T10:30:12Z</time>
      </trkpt>
      <trkpt lat="49.08872" lon="2.08937">
        <ele>129.4</ele>
        <time>2022-09-25T10:30:17Z</time>
      </trkpt>
      <trkpt lat="49.08879" lon="2.08946">
        <ele>129.6</ele>
        <time>2022-09-25T10:30:23Z</time>
      </trkpt>
      <trkpt lat="49.08887" lon="2.08953">
        <ele>129.8</ele>
        <time>2022-09-25T10:30:29Z</time>
      </trkpt>
      <trkpt lat="49.08892" lon="2.08958">
        <ele>129.9</ele>
        <time>2022-09-25T10:30:34Z</time>
      </trkpt>
      <trkpt lat="49.08899" lon="2.08961">
        <ele>129.9</ele>
        <time>2022-09-25T10:30:40Z</time>
      </trkpt>
      <trkpt lat="49.08906" lon="2.08963">
        <ele>129.9</ele>
        <time>2022-09-25T10:30:45Z</time>
      </trkpt>
      <trkpt lat="49.08915" lon="2.08965">
        <ele>129.7</ele>
        <time>2022-09-25T10:30:51Z</time>
      </trkpt>
      <trkpt lat="49.08923" lon="2.08967">
        <ele>129.5</ele>
        <time>2022-09-25T10:30:56Z</time>
      </trkpt>
      <trkpt lat="49.08932" lon="2.0897">
        <ele>129.3</ele>
        <time>2022-09-25T10:31:03Z</time>
      </trkpt>
      <trkpt lat="49.0894" lon="2.08973">
        <ele>129.1</ele>
        <time>2022-09-25T10:31:08Z</time>
      </trkpt>
      <trkpt lat="49.08948" lon="2.08977">
        <ele>129</ele>
        <time>2022-09-25T10:31:13Z</time>
      </trkpt>
      <trkpt lat="49.08957" lon="2.08981">
        <ele>129.1</ele>
        <time>2022-09-25T10:31:18Z</time>
      </trkpt>
      <trkpt lat="49.08966" lon="2.08986">
        <ele>129.2</ele>
        <time>2022-09-25T10:31:24Z</time>
      </trkpt>
      <trkpt lat="49.08972" lon="2.08988">
        <ele>129.3</ele>
        <time>2022-09-25T10:31:29Z</time>
      </trkpt>
      <trkpt lat="49.08979" lon="2.08991">
        <ele>129.6</ele>
        <time>2022-09-25T10:31:35Z</time>
      </trkpt>
      <trkpt lat="49.08987" lon="2.08994">
        <ele>129.8</ele>
        <time>2022-09-25T10:31:40Z</time>
      </trkpt>
      <trkpt lat="49.08998" lon="2.08996">
        <ele>130.1</ele>
        <time>2022-09-25T10:31:46Z</time>
      </trkpt>
      <trkpt lat="49.09005" lon="2.08998">
        <ele>130.2</ele>
        <time>2022-09-25T10:31:51Z</time>
      </trkpt>
      <trkpt lat="49.09012" lon="2.09">
        <ele>130.4</ele>
        <time>2022-09-25T10:31:57Z</time>
      </trkpt>
      <trkpt lat="49.0902" lon="2.09003">
        <ele>130.5</ele>
        <time>2022-09-25T10:32:02Z</time>
      </trkpt>
      <trkpt lat="49.09029" lon="2.09006">
        <ele>130.7</ele>
        <time>2022-09-25T10:32:07Z</time>
      </trkpt>
      <trkpt lat="49.09037" lon="2.09009">
        <ele>131.1</ele>
        <time>2022-09-25T10:32:12Z</time>
      </trkpt>
      <trkpt lat="49.09045" lon="2.09013">
        <ele>131.6</ele>
        <time>2022-09-25T10:32:18Z</time>
      </trkpt>
      <trkpt lat="49.09051" lon="2.09016">
        <ele>131.9</ele>
        <time>2022-09-25T10:32:23Z</time>
      </trkpt>
      <trkpt lat="49.09058" lon="2.09019">
        <ele>132.4</ele>
        <time>2022-09-25T10:32:29Z</time>
      </trkpt>
      <trkpt lat="49.09066" lon="2.0902">
        <ele>132.8</ele>
        <time>2022-09-25T10:32:34Z</time>
      </trkpt>
      <trkpt lat="49.09068" lon="2.09013">
        <ele>133.2</ele>
        <time>2022-09-25T10:32:39Z</time>
      </trkpt>
      <trkpt lat="49.09064" lon="2.09001">
        <ele>133.4</ele>
        <time>2022-09-25T10:32:45Z</time>
      </trkpt>
      <trkpt lat="49.09062" lon="2.08996">
        <ele>133.4</ele>
        <time>2022-09-25T10:32:50Z</time>
      </trkpt>
      <trkpt lat="49.09058" lon="2.08984">
        <ele>133.4</ele>
        <time>2022-09-25T10:32:56Z</time>
      </trkpt>
      <trkpt lat="49.09056" lon="2.08971">
        <ele>133.3</ele>
        <time>2022-09-25T10:33:02Z</time>
      </trkpt>
      <trkpt lat="49.09054" lon="2.0896">
        <ele>133.1</ele>
        <time>2022-09-25T10:33:07Z</time>
      </trkpt>
      <trkpt lat="49.09052" lon="2.08949">
        <ele>133.1</ele>
        <time>2022-09-25T10:33:12Z</time>
      </trkpt>
      <trkpt lat="49.09048" lon="2.08935">
        <ele>133</ele>
        <time>2022-09-25T10:33:18Z</time>
      </trkpt>
      <trkpt lat="49.09044" lon="2.08924">
        <ele>132.8</ele>
        <time>2022-09-25T10:33:23Z</time>
      </trkpt>
      <trkpt lat="49.09042" lon="2.08912">
        <ele>132.7</ele>
        <time>2022-09-25T10:33:29Z</time>
      </trkpt>
      <trkpt lat="49.0904" lon="2.08901">
        <ele>132.6</ele>
        <time>2022-09-25T10:33:35Z</time>
      </trkpt>
      <trkpt lat="49.09036" lon="2.0889">
        <ele>132.6</ele>
        <time>2022-09-25T10:33:41Z</time>
      </trkpt>
      <trkpt lat="49.09032" lon="2.08879">
        <ele>132.6</ele>
        <time>2022-09-25T10:33:46Z</time>
      </trkpt>
      <trkpt lat="49.09027" lon="2.08865">
        <ele>132.4</ele>
        <time>2022-09-25T10:33:52Z</time>
      </trkpt>
      <trkpt lat="49.09023" lon="2.08854">
        <ele>132</ele>
        <time>2022-09-25T10:33:57Z</time>
      </trkpt>
      <trkpt lat="49.09021" lon="2.08841">
        <ele>131.4</ele>
        <time>2022-09-25T10:34:03Z</time>
      </trkpt>
      <trkpt lat="49.09019" lon="2.08831">
        <ele>131.1</ele>
        <time>2022-09-25T10:34:08Z</time>
      </trkpt>
      <trkpt lat="49.09015" lon="2.08818">
        <ele>130.7</ele>
        <time>2022-09-25T10:34:14Z</time>
      </trkpt>
      <trkpt lat="49.09012" lon="2.08809">
        <ele>130.4</ele>
        <time>2022-09-25T10:34:19Z</time>
      </trkpt>
      <trkpt lat="49.09008" lon="2.08798">
        <ele>129.9</ele>
        <time>2022-09-25T10:34:25Z</time>
      </trkpt>
      <trkpt lat="49.09003" lon="2.08787">
        <ele>129.5</ele>
        <time>2022-09-25T10:34:31Z</time>
      </trkpt>
      <trkpt lat="49.08999" lon="2.08774">
        <ele>129.3</ele>
        <time>2022-09-25T10:34:37Z</time>
      </trkpt>
      <trkpt lat="49.08995" lon="2.08763">
        <ele>129.1</ele>
        <time>2022-09-25T10:34:42Z</time>
      </trkpt>
      <trkpt lat="49.08991" lon="2.08752">
        <ele>129</ele>
        <time>2022-09-25T10:34:48Z</time>
      </trkpt>
      <trkpt lat="49.08987" lon="2.0874">
        <ele>128.8</ele>
        <time>2022-09-25T10:34:54Z</time>
      </trkpt>
      <trkpt lat="49.08982" lon="2.0873">
        <ele>128.3</ele>
        <time>2022-09-25T10:35:00Z</time>
      </trkpt>
      <trkpt lat="49.08978" lon="2.08723">
        <ele>128</ele>
        <time>2022-09-25T10:35:05Z</time>
      </trkpt>
      <trkpt lat="49.08976" lon="2.08713">
        <ele>127.5</ele>
        <time>2022-09-25T10:35:11Z</time>
      </trkpt>
      <trkpt lat="49.08971" lon="2.08699">
        <ele>127.1</ele>
        <time>2022-09-25T10:35:17Z</time>
      </trkpt>
      <trkpt lat="49.08966" lon="2.08686">
        <ele>126.8</ele>
        <time>2022-09-25T10:35:22Z</time>
      </trkpt>
      <trkpt lat="49.08961" lon="2.08675">
        <ele>126.4</ele>
        <time>2022-09-25T10:35:28Z</time>
      </trkpt>
      <trkpt lat="49.08955" lon="2.08665">
        <ele>126</ele>
        <time>2022-09-25T10:35:34Z</time>
      </trkpt>
      <trkpt lat="49.08951" lon="2.08658">
        <ele>125.8</ele>
        <time>2022-09-25T10:35:39Z</time>
      </trkpt>
      <trkpt lat="49.08947" lon="2.08649">
        <ele>125.7</ele>
        <time>2022-09-25T10:35:45Z</time>
      </trkpt>
      <trkpt lat="49.08945" lon="2.0864">
        <ele>125.5</ele>
        <time>2022-09-25T10:35:50Z</time>
      </trkpt>
      <trkpt lat="49.08943" lon="2.08632">
        <ele>125.3</ele>
        <time>2022-09-25T10:35:55Z</time>
      </trkpt>
      <trkpt lat="49.08937" lon="2.08621">
        <ele>125.2</ele>
        <time>2022-09-25T10:36:01Z</time>
      </trkpt>
      <trkpt lat="49.0893" lon="2.08612">
        <ele>124.9</ele>
        <time>2022-09-25T10:36:06Z</time>
      </trkpt>
      <trkpt lat="49.08922" lon="2.08606">
        <ele>124.3</ele>
        <time>2022-09-25T10:36:12Z</time>
      </trkpt>
      <trkpt lat="49.08916" lon="2.08599">
        <ele>123.8</ele>
        <time>2022-09-25T10:36:17Z</time>
      </trkpt>
      <trkpt lat="49.08907" lon="2.08592">
        <ele>123</ele>
        <time>2022-09-25T10:36:23Z</time>
      </trkpt>
      <trkpt lat="49.08899" lon="2.08585">
        <ele>122.2</ele>
        <time>2022-09-25T10:36:29Z</time>
      </trkpt>
      <trkpt lat="49.08893" lon="2.08581">
        <ele>121.6</ele>
        <time>2022-09-25T10:36:34Z</time>
      </trkpt>
      <trkpt lat="49.08886" lon="2.08576">
        <ele>120.9</ele>
        <time>2022-09-25T10:36:40Z</time>
      </trkpt>
      <trkpt lat="49.0888" lon="2.0857">
        <ele>120.5</ele>
        <time>2022-09-25T10:36:45Z</time>
      </trkpt>
      <trkpt lat="49.08874" lon="2.08561">
        <ele>120.1</ele>
        <time>2022-09-25T10:36:51Z</time>
      </trkpt>
      <trkpt lat="49.08872" lon="2.08552">
        <ele>119.8</ele>
        <time>2022-09-25T10:36:56Z</time>
      </trkpt>
      <trkpt lat="49.08873" lon="2.08545">
        <ele>119.4</ele>
        <time>2022-09-25T10:37:01Z</time>
      </trkpt>
      <trkpt lat="49.08881" lon="2.08543">
        <ele>118.6</ele>
        <time>2022-09-25T10:37:07Z</time>
      </trkpt>
      <trkpt lat="49.08888" lon="2.08542">
        <ele>117.8</ele>
        <time>2022-09-25T10:37:12Z</time>
      </trkpt>
      <trkpt lat="49.08897" lon="2.08539">
        <ele>117</ele>
        <time>2022-09-25T10:37:18Z</time>
      </trkpt>
      <trkpt lat="49.08905" lon="2.08536">
        <ele>116.4</ele>
        <time>2022-09-25T10:37:23Z</time>
      </trkpt>
      <trkpt lat="49.08911" lon="2.08535">
        <ele>116</ele>
        <time>2022-09-25T10:37:29Z</time>
      </trkpt>
      <trkpt lat="49.08918" lon="2.08535">
        <ele>115.7</ele>
        <time>2022-09-25T10:37:34Z</time>
      </trkpt>
      <trkpt lat="49.08928" lon="2.08534">
        <ele>115.4</ele>
        <time>2022-09-25T10:37:39Z</time>
      </trkpt>
      <trkpt lat="49.08939" lon="2.08536">
        <ele>115.1</ele>
        <time>2022-09-25T10:37:45Z</time>
      </trkpt>
      <trkpt lat="49.08948" lon="2.08536">
        <ele>115</ele>
        <time>2022-09-25T10:37:51Z</time>
      </trkpt>
      <trkpt lat="49.08955" lon="2.08536">
        <ele>114.7</ele>
        <time>2022-09-25T10:37:56Z</time>
      </trkpt>
      <trkpt lat="49.08963" lon="2.08536">
        <ele>114.4</ele>
        <time>2022-09-25T10:38:02Z</time>
      </trkpt>
      <trkpt lat="49.08968" lon="2.08533">
        <ele>114</ele>
        <time>2022-09-25T10:38:07Z</time>
      </trkpt>
      <trkpt lat="49.08974" lon="2.08533">
        <ele>113.4</ele>
        <time>2022-09-25T10:38:12Z</time>
      </trkpt>
      <trkpt lat="49.08981" lon="2.08533">
        <ele>112.5</ele>
        <time>2022-09-25T10:38:17Z</time>
      </trkpt>
      <trkpt lat="49.0899" lon="2.08534">
        <ele>111.4</ele>
        <time>2022-09-25T10:38:23Z</time>
      </trkpt>
      <trkpt lat="49.08997" lon="2.08535">
        <ele>110.2</ele>
        <time>2022-09-25T10:38:28Z</time>
      </trkpt>
      <trkpt lat="49.09006" lon="2.08536">
        <ele>109</ele>
        <time>2022-09-25T10:38:34Z</time>
      </trkpt>
      <trkpt lat="49.09015" lon="2.08535">
        <ele>107.9</ele>
        <time>2022-09-25T10:38:40Z</time>
      </trkpt>
      <trkpt lat="49.09023" lon="2.08536">
        <ele>107.3</ele>
        <time>2022-09-25T10:38:45Z</time>
      </trkpt>
      <trkpt lat="49.0903" lon="2.08539">
        <ele>106.8</ele>
        <time>2022-09-25T10:38:51Z</time>
      </trkpt>
      <trkpt lat="49.09033" lon="2.08544">
        <ele>106.4</ele>
        <time>2022-09-25T10:38:56Z</time>
      </trkpt>
      <trkpt lat="49.09041" lon="2.0855">
        <ele>106</ele>
        <time>2022-09-25T10:39:01Z</time>
      </trkpt>
      <trkpt lat="49.09048" lon="2.08553">
        <ele>105.3</ele>
        <time>2022-09-25T10:39:06Z</time>
      </trkpt>
      <trkpt lat="49.09058" lon="2.08553">
        <ele>104.1</ele>
        <time>2022-09-25T10:39:12Z</time>
      </trkpt>
      <trkpt lat="49.09064" lon="2.08551">
        <ele>102.9</ele>
        <time>2022-09-25T10:39:17Z</time>
      </trkpt>
      <trkpt lat="49.09074" lon="2.08548">
        <ele>101.5</ele>
        <time>2022-09-25T10:39:23Z</time>
      </trkpt>
      <trkpt lat="49.09081" lon="2.08544">
        <ele>100.2</ele>
        <time>2022-09-25T10:39:28Z</time>
      </trkpt>
      <trkpt lat="49.09089" lon="2.08536">
        <ele>98.8</ele>
        <time>2022-09-25T10:39:34Z</time>
      </trkpt>
      <trkpt lat="49.09097" lon="2.0853">
        <ele>97.6</ele>
        <time>2022-09-25T10:39:40Z</time>
      </trkpt>
      <trkpt lat="49.09104" lon="2.08525">
        <ele>96.8</ele>
        <time>2022-09-25T10:39:45Z</time>
      </trkpt>
      <trkpt lat="49.09111" lon="2.08518">
        <ele>95.9</ele>
        <time>2022-09-25T10:39:51Z</time>
      </trkpt>
      <trkpt lat="49.0912" lon="2.08509">
        <ele>95.2</ele>
        <time>2022-09-25T10:39:57Z</time>
      </trkpt>
      <trkpt lat="49.09125" lon="2.08504">
        <ele>94.7</ele>
        <time>2022-09-25T10:40:02Z</time>
      </trkpt>
      <trkpt lat="49.09131" lon="2.08492">
        <ele>94.2</ele>
        <time>2022-09-25T10:40:08Z</time>
      </trkpt>
      <trkpt lat="49.09138" lon="2.0848">
        <ele>94.3</ele>
        <time>2022-09-25T10:40:14Z</time>
      </trkpt>
      <trkpt lat="49.09143" lon="2.08473">
        <ele>94.7</ele>
        <time>2022-09-25T10:40:19Z</time>
      </trkpt>
      <trkpt lat="49.0915" lon="2.08464">
        <ele>95.2</ele>
        <time>2022-09-25T10:40:25Z</time>
      </trkpt>
      <trkpt lat="49.09156" lon="2.08453">
        <ele>95.9</ele>
        <time>2022-09-25T10:40:30Z</time>
      </trkpt>
      <trkpt lat="49.09162" lon="2.08441">
        <ele>96.8</ele>
        <time>2022-09-25T10:40:36Z</time>
      </trkpt>
      <trkpt lat="49.09167" lon="2.08433">
        <ele>97.9</ele>
        <time>2022-09-25T10:40:42Z</time>
      </trkpt>
      <trkpt lat="49.09172" lon="2.08422">
        <ele>98.4</ele>
        <time>2022-09-25T10:40:48Z</time>
      </trkpt>
      <trkpt lat="49.09178" lon="2.08413">
        <ele>98.3</ele>
        <time>2022-09-25T10:40:54Z</time>
      </trkpt>
      <trkpt lat="49.09184" lon="2.08406">
        <ele>98.2</ele>
        <time>2022-09-25T10:40:59Z</time>
      </trkpt>
      <trkpt lat="49.09191" lon="2.08398">
        <ele>98.2</ele>
        <time>2022-09-25T10:41:05Z</time>
      </trkpt>
      <trkpt lat="49.09197" lon="2.08388">
        <ele>98.2</ele>
        <time>2022-09-25T10:41:11Z</time>
      </trkpt>
      <trkpt lat="49.09204" lon="2.08381">
        <ele>98.2</ele>
        <time>2022-09-25T10:41:16Z</time>
      </trkpt>
      <trkpt lat="49.09212" lon="2.08371">
        <ele>98.4</ele>
        <time>2022-09-25T10:41:22Z</time>
      </trkpt>
      <trkpt lat="49.09217" lon="2.08362">
        <ele>98.6</ele>
        <time>2022-09-25T10:41:27Z</time>
      </trkpt>
      <trkpt lat="49.09223" lon="2.08358">
        <ele>98.7</ele>
        <time>2022-09-25T10:41:33Z</time>
      </trkpt>
      <trkpt lat="49.09229" lon="2.08354">
        <ele>98.6</ele>
        <time>2022-09-25T10:41:38Z</time>
      </trkpt>
      <trkpt lat="49.09237" lon="2.08349">
        <ele>98.5</ele>
        <time>2022-09-25T10:41:44Z</time>
      </trkpt>
      <trkpt lat="49.09244" lon="2.08345">
        <ele>98.7</ele>
        <time>2022-09-25T10:41:50Z</time>
      </trkpt>
      <trkpt lat="49.09252" lon="2.08338">
        <ele>99.2</ele>
        <time>2022-09-25T10:41:55Z</time>
      </trkpt>
      <trkpt lat="49.09249" lon="2.08328">
        <ele>99.9</ele>
        <time>2022-09-25T10:42:01Z</time>
      </trkpt>
      <trkpt lat="49.09244" lon="2.0832">
        <ele>100.8</ele>
        <time>2022-09-25T10:42:06Z</time>
      </trkpt>
      <trkpt lat="49.09238" lon="2.08311">
        <ele>101.6</ele>
        <time>2022-09-25T10:42:11Z</time>
      </trkpt>
      <trkpt lat="49.09232" lon="2.083">
        <ele>102.6</ele>
        <time>2022-09-25T10:42:17Z</time>
      </trkpt>
      <trkpt lat="49.09228" lon="2.08289">
        <ele>103.3</ele>
        <time>2022-09-25T10:42:22Z</time>
      </trkpt>
      <trkpt lat="49.09224" lon="2.08277">
        <ele>104</ele>
        <time>2022-09-25T10:42:28Z</time>
      </trkpt>
      <trkpt lat="49.09221" lon="2.08264">
        <ele>104.4</ele>
        <time>2022-09-25T10:42:33Z</time>
      </trkpt>
      <trkpt lat="49.09218" lon="2.08251">
        <ele>104.9</ele>
        <time>2022-09-25T10:42:39Z</time>
      </trkpt>
      <trkpt lat="49.09216" lon="2.08241">
        <ele>105.2</ele>
        <time>2022-09-25T10:42:44Z</time>
      </trkpt>
      <trkpt lat="49.09214" lon="2.08229">
        <ele>105.5</ele>
        <time>2022-09-25T10:42:50Z</time>
      </trkpt>
      <trkpt lat="49.09211" lon="2.08216">
        <ele>105.9</ele>
        <time>2022-09-25T10:42:56Z</time>
      </trkpt>
      <trkpt lat="49.09215" lon="2.08205">
        <ele>106.2</ele>
        <time>2022-09-25T10:43:02Z</time>
      </trkpt>
      <trkpt lat="49.09222" lon="2.08199">
        <ele>106.4</ele>
        <time>2022-09-25T10:43:07Z</time>
      </trkpt>
      <trkpt lat="49.09229" lon="2.08192">
        <ele>106.5</ele>
        <time>2022-09-25T10:43:12Z</time>
      </trkpt>
      <trkpt lat="49.09235" lon="2.08184">
        <ele>106.4</ele>
        <time>2022-09-25T10:43:17Z</time>
      </trkpt>
      <trkpt lat="49.09242" lon="2.08177">
        <ele>106.4</ele>
        <time>2022-09-25T10:43:23Z</time>
      </trkpt>
      <trkpt lat="49.09248" lon="2.08172">
        <ele>106.4</ele>
        <time>2022-09-25T10:43:28Z</time>
      </trkpt>
      <trkpt lat="49.09257" lon="2.08165">
        <ele>106.4</ele>
        <time>2022-09-25T10:43:34Z</time>
      </trkpt>
      <trkpt lat="49.09263" lon="2.08161">
        <ele>106.2</ele>
        <time>2022-09-25T10:43:39Z</time>
      </trkpt>
      <trkpt lat="49.0927" lon="2.08156">
        <ele>105.6</ele>
        <time>2022-09-25T10:43:45Z</time>
      </trkpt>
      <trkpt lat="49.09278" lon="2.08152">
        <ele>104.7</ele>
        <time>2022-09-25T10:43:51Z</time>
      </trkpt>
      <trkpt lat="49.09285" lon="2.08145">
        <ele>104</ele>
        <time>2022-09-25T10:43:56Z</time>
      </trkpt>
      <trkpt lat="49.09292" lon="2.08135">
        <ele>103.4</ele>
        <time>2022-09-25T10:44:02Z</time>
      </trkpt>
      <trkpt lat="49.09298" lon="2.08128">
        <ele>102.9</ele>
        <time>2022-09-25T10:44:08Z</time>
      </trkpt>
      <trkpt lat="49.09303" lon="2.08117">
        <ele>102.5</ele>
        <time>2022-09-25T10:44:14Z</time>
      </trkpt>
      <trkpt lat="49.09309" lon="2.0811">
        <ele>102.5</ele>
        <time>2022-09-25T10:44:19Z</time>
      </trkpt>
      <trkpt lat="49.09315" lon="2.08103">
        <ele>102.6</ele>
        <time>2022-09-25T10:44:25Z</time>
      </trkpt>
      <trkpt lat="49.0932" lon="2.08096">
        <ele>102.7</ele>
        <time>2022-09-25T10:44:30Z</time>
      </trkpt>
      <trkpt lat="49.09325" lon="2.08084">
        <ele>103</ele>
        <time>2022-09-25T10:44:36Z</time>
      </trkpt>
      <trkpt lat="49.0933" lon="2.08072">
        <ele>103.3</ele>
        <time>2022-09-25T10:44:42Z</time>
      </trkpt>
      <trkpt lat="49.09335" lon="2.08063">
        <ele>103.6</ele>
        <time>2022-09-25T10:44:47Z</time>
      </trkpt>
      <trkpt lat="49.0934" lon="2.08051">
        <ele>103.8</ele>
        <time>2022-09-25T10:44:53Z</time>
      </trkpt>
      <trkpt lat="49.09345" lon="2.08041">
        <ele>103.9</ele>
        <time>2022-09-25T10:44:59Z</time>
      </trkpt>
      <trkpt lat="49.09351" lon="2.08037">
        <ele>104.1</ele>
        <time>2022-09-25T10:45:04Z</time>
      </trkpt>
      <trkpt lat="49.09358" lon="2.08029">
        <ele>104.2</ele>
        <time>2022-09-25T10:45:10Z</time>
      </trkpt>
      <trkpt lat="49.09364" lon="2.08019">
        <ele>104.1</ele>
        <time>2022-09-25T10:45:16Z</time>
      </trkpt>
      <trkpt lat="49.09373" lon="2.08008">
        <ele>103.5</ele>
        <time>2022-09-25T10:45:22Z</time>
      </trkpt>
      <trkpt lat="49.09379" lon="2.08001">
        <ele>102.9</ele>
        <time>2022-09-25T10:45:27Z</time>
      </trkpt>
      <trkpt lat="49.09383" lon="2.07992">
        <ele>102.5</ele>
        <time>2022-09-25T10:45:33Z</time>
      </trkpt>
      <trkpt lat="49.09387" lon="2.0799">
        <ele>102.4</ele>
        <time>2022-09-25T10:45:39Z</time>
      </trkpt>
      <trkpt lat="49.09391" lon="2.07982">
        <ele>102.3</ele>
        <time>2022-09-25T10:45:44Z</time>
      </trkpt>
      <trkpt lat="49.09395" lon="2.07969">
        <ele>102.4</ele>
        <time>2022-09-25T10:45:50Z</time>
      </trkpt>
      <trkpt lat="49.09399" lon="2.07955">
        <ele>102.5</ele>
        <time>2022-09-25T10:45:56Z</time>
      </trkpt>
      <trkpt lat="49.09404" lon="2.07942">
        <ele>102.7</ele>
        <time>2022-09-25T10:46:02Z</time>
      </trkpt>
      <trkpt lat="49.09407" lon="2.07931">
        <ele>102.9</ele>
        <time>2022-09-25T10:46:07Z</time>
      </trkpt>
      <trkpt lat="49.09409" lon="2.07921">
        <ele>103.1</ele>
        <time>2022-09-25T10:46:12Z</time>
      </trkpt>
      <trkpt lat="49.09411" lon="2.07906">
        <ele>103</ele>
        <time>2022-09-25T10:46:18Z</time>
      </trkpt>
      <trkpt lat="49.09414" lon="2.07894">
        <ele>102.7</ele>
        <time>2022-09-25T10:46:23Z</time>
      </trkpt>
      <trkpt lat="49.09416" lon="2.07884">
        <ele>102.8</ele>
        <time>2022-09-25T10:46:28Z</time>
      </trkpt>
      <trkpt lat="49.09418" lon="2.07869">
        <ele>103.1</ele>
        <time>2022-09-25T10:46:34Z</time>
      </trkpt>
      <trkpt lat="49.09421" lon="2.07856">
        <ele>103.5</ele>
        <time>2022-09-25T10:46:40Z</time>
      </trkpt>
      <trkpt lat="49.09422" lon="2.07844">
        <ele>103.8</ele>
        <time>2022-09-25T10:46:45Z</time>
      </trkpt>
      <trkpt lat="49.09425" lon="2.07833">
        <ele>104.1</ele>
        <time>2022-09-25T10:46:50Z</time>
      </trkpt>
      <trkpt lat="49.09428" lon="2.07821">
        <ele>104.6</ele>
        <time>2022-09-25T10:46:56Z</time>
      </trkpt>
      <trkpt lat="49.09432" lon="2.07812">
        <ele>105.3</ele>
        <time>2022-09-25T10:47:02Z</time>
      </trkpt>
      <trkpt lat="49.09436" lon="2.07801">
        <ele>105.8</ele>
        <time>2022-09-25T10:47:08Z</time>
      </trkpt>
      <trkpt lat="49.09439" lon="2.07791">
        <ele>106.1</ele>
        <time>2022-09-25T10:47:13Z</time>
      </trkpt>
      <trkpt lat="49.09442" lon="2.07778">
        <ele>106.5</ele>
        <time>2022-09-25T10:47:19Z</time>
      </trkpt>
      <trkpt lat="49.09445" lon="2.07767">
        <ele>106.8</ele>
        <time>2022-09-25T10:47:24Z</time>
      </trkpt>
      <trkpt lat="49.0945" lon="2.07755">
        <ele>107.1</ele>
        <time>2022-09-25T10:47:30Z</time>
      </trkpt>
      <trkpt lat="49.09455" lon="2.07747">
        <ele>107.7</ele>
        <time>2022-09-25T10:47:35Z</time>
      </trkpt>
      <trkpt lat="49.09459" lon="2.07735">
        <ele>107.9</ele>
        <time>2022-09-25T10:47:41Z</time>
      </trkpt>
      <trkpt lat="49.09464" lon="2.07723">
        <ele>108</ele>
        <time>2022-09-25T10:47:47Z</time>
      </trkpt>
      <trkpt lat="49.09468" lon="2.07713">
        <ele>108</ele>
        <time>2022-09-25T10:47:52Z</time>
      </trkpt>
      <trkpt lat="49.09474" lon="2.07705">
        <ele>108</ele>
        <time>2022-09-25T10:47:58Z</time>
      </trkpt>
      <trkpt lat="49.09479" lon="2.07698">
        <ele>108.1</ele>
        <time>2022-09-25T10:48:03Z</time>
      </trkpt>
      <trkpt lat="49.09484" lon="2.0769">
        <ele>108.4</ele>
        <time>2022-09-25T10:48:09Z</time>
      </trkpt>
      <trkpt lat="49.09489" lon="2.07683">
        <ele>108.3</ele>
        <time>2022-09-25T10:48:15Z</time>
      </trkpt>
      <trkpt lat="49.09494" lon="2.07676">
        <ele>107.9</ele>
        <time>2022-09-25T10:48:20Z</time>
      </trkpt>
      <trkpt lat="49.09502" lon="2.07666">
        <ele>107.7</ele>
        <time>2022-09-25T10:48:26Z</time>
      </trkpt>
      <trkpt lat="49.09509" lon="2.07659">
        <ele>107.7</ele>
        <time>2022-09-25T10:48:31Z</time>
      </trkpt>
      <trkpt lat="49.09516" lon="2.07652">
        <ele>107.6</ele>
        <time>2022-09-25T10:48:37Z</time>
      </trkpt>
      <trkpt lat="49.09522" lon="2.07645">
        <ele>106.9</ele>
        <time>2022-09-25T10:48:43Z</time>
      </trkpt>
      <trkpt lat="49.09527" lon="2.07638">
        <ele>105.9</ele>
        <time>2022-09-25T10:48:48Z</time>
      </trkpt>
      <trkpt lat="49.09533" lon="2.07631">
        <ele>105</ele>
        <time>2022-09-25T10:48:54Z</time>
      </trkpt>
      <trkpt lat="49.0954" lon="2.07624">
        <ele>104.4</ele>
        <time>2022-09-25T10:48:59Z</time>
      </trkpt>
      <trkpt lat="49.09546" lon="2.07617">
        <ele>103.9</ele>
        <time>2022-09-25T10:49:04Z</time>
      </trkpt>
      <trkpt lat="49.09552" lon="2.07605">
        <ele>103.6</ele>
        <time>2022-09-25T10:49:10Z</time>
      </trkpt>
      <trkpt lat="49.09557" lon="2.07596">
        <ele>103.3</ele>
        <time>2022-09-25T10:49:15Z</time>
      </trkpt>
      <trkpt lat="49.09563" lon="2.07585">
        <ele>102.8</ele>
        <time>2022-09-25T10:49:21Z</time>
      </trkpt>
      <trkpt lat="49.09569" lon="2.07574">
        <ele>102.7</ele>
        <time>2022-09-25T10:49:27Z</time>
      </trkpt>
      <trkpt lat="49.09574" lon="2.07564">
        <ele>102.6</ele>
        <time>2022-09-25T10:49:32Z</time>
      </trkpt>
      <trkpt lat="49.0958" lon="2.07553">
        <ele>102.7</ele>
        <time>2022-09-25T10:49:38Z</time>
      </trkpt>
      <trkpt lat="49.09586" lon="2.07544">
        <ele>102.7</ele>
        <time>2022-09-25T10:49:43Z</time>
      </trkpt>
      <trkpt lat="49.09591" lon="2.07533">
        <ele>102.6</ele>
        <time>2022-09-25T10:49:49Z</time>
      </trkpt>
      <trkpt lat="49.09596" lon="2.07523">
        <ele>102.6</ele>
        <time>2022-09-25T10:49:54Z</time>
      </trkpt>
      <trkpt lat="49.09601" lon="2.07513">
        <ele>102.5</ele>
        <time>2022-09-25T10:49:59Z</time>
      </trkpt>
      <trkpt lat="49.09605" lon="2.07504">
        <ele>102.5</ele>
        <time>2022-09-25T10:50:04Z</time>
      </trkpt>
      <trkpt lat="49.0961" lon="2.07494">
        <ele>102.8</ele>
        <time>2022-09-25T10:50:10Z</time>
      </trkpt>
      <trkpt lat="49.09615" lon="2.07484">
        <ele>103.3</ele>
        <time>2022-09-25T10:50:16Z</time>
      </trkpt>
      <trkpt lat="49.09619" lon="2.07475">
        <ele>103.7</ele>
        <time>2022-09-25T10:50:21Z</time>
      </trkpt>
      <trkpt lat="49.09623" lon="2.07463">
        <ele>104.1</ele>
        <time>2022-09-25T10:50:27Z</time>
      </trkpt>
      <trkpt lat="49.09627" lon="2.07454">
        <ele>104.2</ele>
        <time>2022-09-25T10:50:32Z</time>
      </trkpt>
      <trkpt lat="49.09632" lon="2.07447">
        <ele>104.1</ele>
        <time>2022-09-25T10:50:38Z</time>
      </trkpt>
      <trkpt lat="49.09637" lon="2.07439">
        <ele>103.9</ele>
        <time>2022-09-25T10:50:43Z</time>
      </trkpt>
      <trkpt lat="49.09642" lon="2.07429">
        <ele>103.5</ele>
        <time>2022-09-25T10:50:48Z</time>
      </trkpt>
      <trkpt lat="49.09648" lon="2.07417">
        <ele>102.9</ele>
        <time>2022-09-25T10:50:54Z</time>
      </trkpt>
      <trkpt lat="49.09654" lon="2.07408">
        <ele>102.8</ele>
        <time>2022-09-25T10:50:59Z</time>
      </trkpt>
      <trkpt lat="49.09659" lon="2.074">
        <ele>102.8</ele>
        <time>2022-09-25T10:51:04Z</time>
      </trkpt>
      <trkpt lat="49.09664" lon="2.07392">
        <ele>103</ele>
        <time>2022-09-25T10:51:09Z</time>
      </trkpt>
      <trkpt lat="49.09669" lon="2.07385">
        <ele>103.3</ele>
        <time>2022-09-25T10:51:14Z</time>
      </trkpt>
      <trkpt lat="49.09674" lon="2.07376">
        <ele>103.6</ele>
        <time>2022-09-25T10:51:19Z</time>
      </trkpt>
      <trkpt lat="49.0968" lon="2.07365">
        <ele>104.2</ele>
        <time>2022-09-25T10:51:25Z</time>
      </trkpt>
      <trkpt lat="49.09687" lon="2.07355">
        <ele>104.7</ele>
        <time>2022-09-25T10:51:31Z</time>
      </trkpt>
      <trkpt lat="49.09693" lon="2.07345">
        <ele>105.2</ele>
        <time>2022-09-25T10:51:37Z</time>
      </trkpt>
      <trkpt lat="49.09698" lon="2.07336">
        <ele>105.7</ele>
        <time>2022-09-25T10:51:42Z</time>
      </trkpt>
      <trkpt lat="49.09703" lon="2.07328">
        <ele>106</ele>
        <time>2022-09-25T10:51:48Z</time>
      </trkpt>
      <trkpt lat="49.09709" lon="2.0732">
        <ele>106.1</ele>
        <time>2022-09-25T10:51:54Z</time>
      </trkpt>
      <trkpt lat="49.09714" lon="2.07312">
        <ele>106</ele>
        <time>2022-09-25T10:51:59Z</time>
      </trkpt>
      <trkpt lat="49.09719" lon="2.07304">
        <ele>106</ele>
        <time>2022-09-25T10:52:04Z</time>
      </trkpt>
      <trkpt lat="49.09726" lon="2.07297">
        <ele>106.4</ele>
        <time>2022-09-25T10:52:10Z</time>
      </trkpt>
      <trkpt lat="49.09732" lon="2.07291">
        <ele>106.6</ele>
        <time>2022-09-25T10:52:16Z</time>
      </trkpt>
      <trkpt lat="49.09738" lon="2.0729">
        <ele>106.6</ele>
        <time>2022-09-25T10:52:21Z</time>
      </trkpt>
      <trkpt lat="49.09746" lon="2.07289">
        <ele>106.5</ele>
        <time>2022-09-25T10:52:27Z</time>
      </trkpt>
      <trkpt lat="49.09753" lon="2.07289">
        <ele>106.2</ele>
        <time>2022-09-25T10:52:32Z</time>
      </trkpt>
      <trkpt lat="49.09761" lon="2.0729">
        <ele>105.6</ele>
        <time>2022-09-25T10:52:37Z</time>
      </trkpt>
      <trkpt lat="49.09768" lon="2.07291">
        <ele>105</ele>
        <time>2022-09-25T10:52:42Z</time>
      </trkpt>
      <trkpt lat="49.09775" lon="2.07292">
        <ele>104.7</ele>
        <time>2022-09-25T10:52:48Z</time>
      </trkpt>
      <trkpt lat="49.09783" lon="2.07294">
        <ele>104.3</ele>
        <time>2022-09-25T10:52:54Z</time>
      </trkpt>
      <trkpt lat="49.0979" lon="2.07295">
        <ele>103.9</ele>
        <time>2022-09-25T10:53:00Z</time>
      </trkpt>
      <trkpt lat="49.09797" lon="2.07295">
        <ele>103.2</ele>
        <time>2022-09-25T10:53:06Z</time>
      </trkpt>
      <trkpt lat="49.09806" lon="2.07296">
        <ele>103.2</ele>
        <time>2022-09-25T10:53:11Z</time>
      </trkpt>
      <trkpt lat="49.09815" lon="2.07298">
        <ele>103.6</ele>
        <time>2022-09-25T10:53:17Z</time>
      </trkpt>
      <trkpt lat="49.09822" lon="2.07303">
        <ele>103.8</ele>
        <time>2022-09-25T10:53:22Z</time>
      </trkpt>
      <trkpt lat="49.09827" lon="2.07307">
        <ele>104.1</ele>
        <time>2022-09-25T10:53:27Z</time>
      </trkpt>
      <trkpt lat="49.09836" lon="2.07307">
        <ele>104.7</ele>
        <time>2022-09-25T10:53:33Z</time>
      </trkpt>
      <trkpt lat="49.09845" lon="2.07306">
        <ele>105.1</ele>
        <time>2022-09-25T10:53:39Z</time>
      </trkpt>
      <trkpt lat="49.09854" lon="2.07301">
        <ele>105.2</ele>
        <time>2022-09-25T10:53:45Z</time>
      </trkpt>
      <trkpt lat="49.09861" lon="2.07297">
        <ele>105.3</ele>
        <time>2022-09-25T10:53:50Z</time>
      </trkpt>
      <trkpt lat="49.09868" lon="2.07292">
        <ele>105.3</ele>
        <time>2022-09-25T10:53:55Z</time>
      </trkpt>
      <trkpt lat="49.09878" lon="2.07286">
        <ele>105.5</ele>
        <time>2022-09-25T10:54:01Z</time>
      </trkpt>
      <trkpt lat="49.09887" lon="2.07279">
        <ele>105.7</ele>
        <time>2022-09-25T10:54:07Z</time>
      </trkpt>
      <trkpt lat="49.09896" lon="2.07273">
        <ele>106</ele>
        <time>2022-09-25T10:54:13Z</time>
      </trkpt>
      <trkpt lat="49.09904" lon="2.07266">
        <ele>106.2</ele>
        <time>2022-09-25T10:54:19Z</time>
      </trkpt>
      <trkpt lat="49.09911" lon="2.07261">
        <ele>106.4</ele>
        <time>2022-09-25T10:54:25Z</time>
      </trkpt>
      <trkpt lat="49.09917" lon="2.07256">
        <ele>106.3</ele>
        <time>2022-09-25T10:54:30Z</time>
      </trkpt>
      <trkpt lat="49.09922" lon="2.07246">
        <ele>106.3</ele>
        <time>2022-09-25T10:54:36Z</time>
      </trkpt>
      <trkpt lat="49.09925" lon="2.07236">
        <ele>106.4</ele>
        <time>2022-09-25T10:54:41Z</time>
      </trkpt>
      <trkpt lat="49.09928" lon="2.07222">
        <ele>106.5</ele>
        <time>2022-09-25T10:54:47Z</time>
      </trkpt>
      <trkpt lat="49.09929" lon="2.07209">
        <ele>106.8</ele>
        <time>2022-09-25T10:54:52Z</time>
      </trkpt>
      <trkpt lat="49.09931" lon="2.07193">
        <ele>107.2</ele>
        <time>2022-09-25T10:54:58Z</time>
      </trkpt>
      <trkpt lat="49.09936" lon="2.07189">
        <ele>107.6</ele>
        <time>2022-09-25T10:55:03Z</time>
      </trkpt>
      <trkpt lat="49.09942" lon="2.0719">
        <ele>108.1</ele>
        <time>2022-09-25T10:55:09Z</time>
      </trkpt>
      <trkpt lat="49.09948" lon="2.07195">
        <ele>108.5</ele>
        <time>2022-09-25T10:55:14Z</time>
      </trkpt>
      <trkpt lat="49.09954" lon="2.07203">
        <ele>108.6</ele>
        <time>2022-09-25T10:55:20Z</time>
      </trkpt>
      <trkpt lat="49.0996" lon="2.07211">
        <ele>108.4</ele>
        <time>2022-09-25T10:55:25Z</time>
      </trkpt>
      <trkpt lat="49.09967" lon="2.07218">
        <ele>108.2</ele>
        <time>2022-09-25T10:55:31Z</time>
      </trkpt>
      <trkpt lat="49.09974" lon="2.07222">
        <ele>108.1</ele>
        <time>2022-09-25T10:55:36Z</time>
      </trkpt>
      <trkpt lat="49.09983" lon="2.07227">
        <ele>107.9</ele>
        <time>2022-09-25T10:55:42Z</time>
      </trkpt>
      <trkpt lat="49.0999" lon="2.0723">
        <ele>107.8</ele>
        <time>2022-09-25T10:55:47Z</time>
      </trkpt>
      <trkpt lat="49.09996" lon="2.07234">
        <ele>107.8</ele>
        <time>2022-09-25T10:55:52Z</time>
      </trkpt>
      <trkpt lat="49.10005" lon="2.07238">
        <ele>107.9</ele>
        <time>2022-09-25T10:55:58Z</time>
      </trkpt>
      <trkpt lat="49.10015" lon="2.07242">
        <ele>108</ele>
        <time>2022-09-25T10:56:04Z</time>
      </trkpt>
      <trkpt lat="49.10023" lon="2.07247">
        <ele>108.1</ele>
        <time>2022-09-25T10:56:10Z</time>
      </trkpt>
      <trkpt lat="49.10031" lon="2.0725">
        <ele>107.9</ele>
        <time>2022-09-25T10:56:16Z</time>
      </trkpt>
      <trkpt lat="49.10037" lon="2.07252">
        <ele>107.8</ele>
        <time>2022-09-25T10:56:21Z</time>
      </trkpt>
      <trkpt lat="49.10045" lon="2.07257">
        <ele>107.7</ele>
        <time>2022-09-25T10:56:27Z</time>
      </trkpt>
      <trkpt lat="49.10051" lon="2.07261">
        <ele>107.5</ele>
        <time>2022-09-25T10:56:32Z</time>
      </trkpt>
      <trkpt lat="49.10059" lon="2.07264">
        <ele>107.5</ele>
        <time>2022-09-25T10:56:38Z</time>
      </trkpt>
      <trkpt lat="49.10068" lon="2.07269">
        <ele>107.9</ele>
        <time>2022-09-25T10:56:44Z</time>
      </trkpt>
      <trkpt lat="49.10077" lon="2.0727">
        <ele>108.4</ele>
        <time>2022-09-25T10:56:50Z</time>
      </trkpt>
      <trkpt lat="49.10082" lon="2.07274">
        <ele>108.7</ele>
        <time>2022-09-25T10:56:55Z</time>
      </trkpt>
      <trkpt lat="49.10087" lon="2.07279">
        <ele>109</ele>
        <time>2022-09-25T10:57:00Z</time>
      </trkpt>
      <trkpt lat="49.10093" lon="2.07283">
        <ele>109.3</ele>
        <time>2022-09-25T10:57:05Z</time>
      </trkpt>
      <trkpt lat="49.10101" lon="2.07288">
        <ele>109.3</ele>
        <time>2022-09-25T10:57:11Z</time>
      </trkpt>
      <trkpt lat="49.10108" lon="2.07292">
        <ele>109.4</ele>
        <time>2022-09-25T10:57:16Z</time>
      </trkpt>
      <trkpt lat="49.10117" lon="2.07296">
        <ele>109.6</ele>
        <time>2022-09-25T10:57:22Z</time>
      </trkpt>
      <trkpt lat="49.10126" lon="2.07302">
        <ele>109.7</ele>
        <time>2022-09-25T10:57:28Z</time>
      </trkpt>
      <trkpt lat="49.10134" lon="2.07306">
        <ele>109.6</ele>
        <time>2022-09-25T10:57:33Z</time>
      </trkpt>
      <trkpt lat="49.10142" lon="2.07312">
        <ele>109.4</ele>
        <time>2022-09-25T10:57:39Z</time>
      </trkpt>
      <trkpt lat="49.1015" lon="2.07317">
        <ele>109.3</ele>
        <time>2022-09-25T10:57:44Z</time>
      </trkpt>
      <trkpt lat="49.10159" lon="2.07323">
        <ele>109.4</ele>
        <time>2022-09-25T10:57:50Z</time>
      </trkpt>
      <trkpt lat="49.10166" lon="2.07327">
        <ele>109.4</ele>
        <time>2022-09-25T10:57:55Z</time>
      </trkpt>
      <trkpt lat="49.10174" lon="2.07331">
        <ele>109.4</ele>
        <time>2022-09-25T10:58:00Z</time>
      </trkpt>
      <trkpt lat="49.1018" lon="2.07334">
        <ele>109.4</ele>
        <time>2022-09-25T10:58:05Z</time>
      </trkpt>
      <trkpt lat="49.10187" lon="2.07338">
        <ele>109.2</ele>
        <time>2022-09-25T10:58:11Z</time>
      </trkpt>
      <trkpt lat="49.10193" lon="2.07341">
        <ele>109</ele>
        <time>2022-09-25T10:58:16Z</time>
      </trkpt>
      <trkpt lat="49.10201" lon="2.07345">
        <ele>109</ele>
        <time>2022-09-25T10:58:22Z</time>
      </trkpt>
      <trkpt lat="49.10205" lon="2.07346">
        <ele>109</ele>
        <time>2022-09-25T10:58:28Z</time>
      </trkpt>
      <trkpt lat="49.10206" lon="2.07347">
        <ele>109.1</ele>
        <time>2022-09-25T10:58:34Z</time>
      </trkpt>
      <trkpt lat="49.10209" lon="2.07349">
        <ele>109.4</ele>
        <time>2022-09-25T10:58:40Z</time>
      </trkpt>
      <trkpt lat="49.10213" lon="2.07352">
        <ele>109.8</ele>
        <time>2022-09-25T10:58:45Z</time>
      </trkpt>
      <trkpt lat="49.1022" lon="2.07355">
        <ele>110.2</ele>
        <time>2022-09-25T10:58:51Z</time>
      </trkpt>
      <trkpt lat="49.10227" lon="2.07359">
        <ele>110.7</ele>
        <time>2022-09-25T10:58:57Z</time>
      </trkpt>
      <trkpt lat="49.10228" lon="2.0736">
        <ele>110.8</ele>
        <time>2022-09-25T10:59:03Z</time>
      </trkpt>
      <trkpt lat="49.10228" lon="2.0736">
        <ele>110.9</ele>
        <time>2022-09-25T10:59:09Z</time>
      </trkpt>
      <trkpt lat="49.10227" lon="2.07359">
        <ele>110.8</ele>
        <time>2022-09-25T10:59:15Z</time>
      </trkpt>
      <trkpt lat="49.10227" lon="2.0736">
        <ele>110.5</ele>
        <time>2022-09-25T10:59:20Z</time>
      </trkpt>
      <trkpt lat="49.10226" lon="2.07362">
        <ele>110.6</ele>
        <time>2022-09-25T10:59:26Z</time>
      </trkpt>
      <trkpt lat="49.10225" lon="2.07371">
        <ele>110.5</ele>
        <time>2022-09-25T10:59:32Z</time>
      </trkpt>
      <trkpt lat="49.10225" lon="2.0738">
        <ele>110.2</ele>
        <time>2022-09-25T10:59:38Z</time>
      </trkpt>
      <trkpt lat="49.10225" lon="2.07388">
        <ele>110.2</ele>
        <time>2022-09-25T10:59:44Z</time>
      </trkpt>
      <trkpt lat="49.10225" lon="2.07395">
        <ele>110.7</ele>
        <time>2022-09-25T10:59:49Z</time>
      </trkpt>
      <trkpt lat="49.10223" lon="2.07404">
        <ele>111.4</ele>
        <time>2022-09-25T10:59:55Z</time>
      </trkpt>
      <trkpt lat="49.1022" lon="2.07414">
        <ele>112.3</ele>
        <time>2022-09-25T11:00:01Z</time>
      </trkpt>
      <trkpt lat="49.10218" lon="2.07419">
        <ele>113.3</ele>
        <time>2022-09-25T11:00:08Z</time>
      </trkpt>
      <trkpt lat="49.10213" lon="2.07427">
        <ele>114</ele>
        <time>2022-09-25T11:00:14Z</time>
      </trkpt>
      <trkpt lat="49.10211" lon="2.07435">
        <ele>114.6</ele>
        <time>2022-09-25T11:00:19Z</time>
      </trkpt>
      <trkpt lat="49.1021" lon="2.07446">
        <ele>115.4</ele>
        <time>2022-09-25T11:00:25Z</time>
      </trkpt>
      <trkpt lat="49.10211" lon="2.07452">
        <ele>116</ele>
        <time>2022-09-25T11:00:30Z</time>
      </trkpt>
      <trkpt lat="49.10211" lon="2.07457">
        <ele>116.6</ele>
        <time>2022-09-25T11:00:35Z</time>
      </trkpt>
      <trkpt lat="49.10211" lon="2.07461">
        <ele>116.9</ele>
        <time>2022-09-25T11:00:41Z</time>
      </trkpt>
      <trkpt lat="49.10211" lon="2.07469">
        <ele>117</ele>
        <time>2022-09-25T11:00:46Z</time>
      </trkpt>
      <trkpt lat="49.10212" lon="2.07481">
        <ele>117.1</ele>
        <time>2022-09-25T11:00:51Z</time>
      </trkpt>
      <trkpt lat="49.1021" lon="2.07494">
        <ele>117.5</ele>
        <time>2022-09-25T11:00:57Z</time>
      </trkpt>
      <trkpt lat="49.10209" lon="2.07501">
        <ele>118.1</ele>
        <time>2022-09-25T11:01:02Z</time>
      </trkpt>
      <trkpt lat="49.1021" lon="2.07507">
        <ele>119.1</ele>
        <time>2022-09-25T11:01:08Z</time>
      </trkpt>
      <trkpt lat="49.10211" lon="2.07512">
        <ele>120</ele>
        <time>2022-09-25T11:01:13Z</time>
      </trkpt>
      <trkpt lat="49.10213" lon="2.0752">
        <ele>120.8</ele>
        <time>2022-09-25T11:01:18Z</time>
      </trkpt>
      <trkpt lat="49.10208" lon="2.07532">
        <ele>120.8</ele>
        <time>2022-09-25T11:01:24Z</time>
      </trkpt>
      <trkpt lat="49.10202" lon="2.07543">
        <ele>120.7</ele>
        <time>2022-09-25T11:01:30Z</time>
      </trkpt>
      <trkpt lat="49.102" lon="2.07551">
        <ele>120.6</ele>
        <time>2022-09-25T11:01:35Z</time>
      </trkpt>
      <trkpt lat="49.10198" lon="2.07562">
        <ele>120.7</ele>
        <time>2022-09-25T11:01:41Z</time>
      </trkpt>
      <trkpt lat="49.10197" lon="2.07571">
        <ele>121</ele>
        <time>2022-09-25T11:01:47Z</time>
      </trkpt>
      <trkpt lat="49.10197" lon="2.07574">
        <ele>121.3</ele>
        <time>2022-09-25T11:01:53Z</time>
      </trkpt>
      <trkpt lat="49.10197" lon="2.07576">
        <ele>121.5</ele>
        <time>2022-09-25T11:01:58Z</time>
      </trkpt>
      <trkpt lat="49.10197" lon="2.07576">
        <ele>121.6</ele>
        <time>2022-09-25T11:02:04Z</time>
      </trkpt>
      <trkpt lat="49.10197" lon="2.07576">
        <ele>121.6</ele>
        <time>2022-09-25T11:02:10Z</time>
      </trkpt>
      <trkpt lat="49.10197" lon="2.07576">
        <ele>121.8</ele>
        <time>2022-09-25T11:02:16Z</time>
      </trkpt>
      <trkpt lat="49.10196" lon="2.07577">
        <ele>121.9</ele>
        <time>2022-09-25T11:02:21Z</time>
      </trkpt>
      <trkpt lat="49.10196" lon="2.07578">
        <ele>122.1</ele>
        <time>2022-09-25T11:02:27Z</time>
      </trkpt>
      <trkpt lat="49.10196" lon="2.07579">
        <ele>122.4</ele>
        <time>2022-09-25T11:02:34Z</time>
      </trkpt>
      <trkpt lat="49.10195" lon="2.0758">
        <ele>122.7</ele>
        <time>2022-09-25T11:02:40Z</time>
      </trkpt>
      <trkpt lat="49.10187" lon="2.07583">
        <ele>122.9</ele>
        <time>2022-09-25T11:02:46Z</time>
      </trkpt>
      <trkpt lat="49.10184" lon="2.0759">
        <ele>123</ele>
        <time>2022-09-25T11:02:51Z</time>
      </trkpt>
      <trkpt lat="49.10181" lon="2.07602">
        <ele>123.2</ele>
        <time>2022-09-25T11:02:57Z</time>
      </trkpt>
      <trkpt lat="49.10177" lon="2.07611">
        <ele>123.1</ele>
        <time>2022-09-25T11:03:02Z</time>
      </trkpt>
      <trkpt lat="49.10173" lon="2.07622">
        <ele>123.1</ele>
        <time>2022-09-25T11:03:08Z</time>
      </trkpt>
      <trkpt lat="49.1017" lon="2.07631">
        <ele>123.3</ele>
        <time>2022-09-25T11:03:13Z</time>
      </trkpt>
      <trkpt lat="49.10166" lon="2.07639">
        <ele>123.4</ele>
        <time>2022-09-25T11:03:18Z</time>
      </trkpt>
      <trkpt lat="49.10163" lon="2.0765">
        <ele>123.5</ele>
        <time>2022-09-25T11:03:24Z</time>
      </trkpt>
      <trkpt lat="49.10159" lon="2.07661">
        <ele>123.6</ele>
        <time>2022-09-25T11:03:30Z</time>
      </trkpt>
      <trkpt lat="49.10157" lon="2.07669">
        <ele>123.5</ele>
        <time>2022-09-25T11:03:35Z</time>
      </trkpt>
      <trkpt lat="49.10153" lon="2.07679">
        <ele>123.1</ele>
        <time>2022-09-25T11:03:41Z</time>
      </trkpt>
      <trkpt lat="49.10149" lon="2.07687">
        <ele>122.7</ele>
        <time>2022-09-25T11:03:46Z</time>
      </trkpt>
      <trkpt lat="49.10144" lon="2.07697">
        <ele>122.5</ele>
        <time>2022-09-25T11:03:52Z</time>
      </trkpt>
      <trkpt lat="49.1014" lon="2.07709">
        <ele>122.4</ele>
        <time>2022-09-25T11:03:58Z</time>
      </trkpt>
      <trkpt lat="49.10137" lon="2.07719">
        <ele>122.4</ele>
        <time>2022-09-25T11:04:04Z</time>
      </trkpt>
      <trkpt lat="49.10134" lon="2.07727">
        <ele>122.3</ele>
        <time>2022-09-25T11:04:09Z</time>
      </trkpt>
      <trkpt lat="49.10129" lon="2.07738">
        <ele>122.3</ele>
        <time>2022-09-25T11:04:15Z</time>
      </trkpt>
      <trkpt lat="49.10125" lon="2.07747">
        <ele>122.3</ele>
        <time>2022-09-25T11:04:20Z</time>
      </trkpt>
      <trkpt lat="49.10121" lon="2.07758">
        <ele>122.4</ele>
        <time>2022-09-25T11:04:26Z</time>
      </trkpt>
      <trkpt lat="49.10118" lon="2.07767">
        <ele>122.5</ele>
        <time>2022-09-25T11:04:31Z</time>
      </trkpt>
      <trkpt lat="49.10114" lon="2.0778">
        <ele>122.5</ele>
        <time>2022-09-25T11:04:37Z</time>
      </trkpt>
      <trkpt lat="49.10112" lon="2.07791">
        <ele>122.3</ele>
        <time>2022-09-25T11:04:43Z</time>
      </trkpt>
      <trkpt lat="49.10108" lon="2.07802">
        <ele>122.3</ele>
        <time>2022-09-25T11:04:49Z</time>
      </trkpt>
      <trkpt lat="49.10102" lon="2.07811">
        <ele>122.2</ele>
        <time>2022-09-25T11:04:54Z</time>
      </trkpt>
      <trkpt lat="49.10098" lon="2.07821">
        <ele>122.2</ele>
        <time>2022-09-25T11:05:00Z</time>
      </trkpt>
      <trkpt lat="49.1009" lon="2.07833">
        <ele>122.4</ele>
        <time>2022-09-25T11:05:05Z</time>
      </trkpt>
      <trkpt lat="49.10084" lon="2.07849">
        <ele>123.3</ele>
        <time>2022-09-25T11:05:11Z</time>
      </trkpt>
      <trkpt lat="49.10078" lon="2.07861">
        <ele>124.1</ele>
        <time>2022-09-25T11:05:16Z</time>
      </trkpt>
      <trkpt lat="49.10075" lon="2.07871">
        <ele>124.9</ele>
        <time>2022-09-25T11:05:22Z</time>
      </trkpt>
      <trkpt lat="49.10072" lon="2.07878">
        <ele>125.5</ele>
        <time>2022-09-25T11:05:27Z</time>
      </trkpt>
      <trkpt lat="49.10068" lon="2.07889">
        <ele>126</ele>
        <time>2022-09-25T11:05:33Z</time>
      </trkpt>
      <trkpt lat="49.10064" lon="2.07898">
        <ele>126.4</ele>
        <time>2022-09-25T11:05:38Z</time>
      </trkpt>
      <trkpt lat="49.1006" lon="2.07908">
        <ele>126.7</ele>
        <time>2022-09-25T11:05:43Z</time>
      </trkpt>
      <trkpt lat="49.10057" lon="2.07919">
        <ele>127</ele>
        <time>2022-09-25T11:05:48Z</time>
      </trkpt>
      <trkpt lat="49.10053" lon="2.0793">
        <ele>127.2</ele>
        <time>2022-09-25T11:05:54Z</time>
      </trkpt>
      <trkpt lat="49.1005" lon="2.07939">
        <ele>127.3</ele>
        <time>2022-09-25T11:05:59Z</time>
      </trkpt>
      <trkpt lat="49.10045" lon="2.0795">
        <ele>127.3</ele>
        <time>2022-09-25T11:06:05Z</time>
      </trkpt>
      <trkpt lat="49.10042" lon="2.07962">
        <ele>127.3</ele>
        <time>2022-09-25T11:06:10Z</time>
      </trkpt>
      <trkpt lat="49.10037" lon="2.07972">
        <ele>127.3</ele>
        <time>2022-09-25T11:06:16Z</time>
      </trkpt>
      <trkpt lat="49.10032" lon="2.07983">
        <ele>127.3</ele>
        <time>2022-09-25T11:06:21Z</time>
      </trkpt>
      <trkpt lat="49.10027" lon="2.07996">
        <ele>127.4</ele>
        <time>2022-09-25T11:06:27Z</time>
      </trkpt>
      <trkpt lat="49.10022" lon="2.08008">
        <ele>127.5</ele>
        <time>2022-09-25T11:06:33Z</time>
      </trkpt>
      <trkpt lat="49.10017" lon="2.08019">
        <ele>127.8</ele>
        <time>2022-09-25T11:06:39Z</time>
      </trkpt>
      <trkpt lat="49.10013" lon="2.08029">
        <ele>128</ele>
        <time>2022-09-25T11:06:44Z</time>
      </trkpt>
      <trkpt lat="49.1001" lon="2.08041">
        <ele>128.3</ele>
        <time>2022-09-25T11:06:50Z</time>
      </trkpt>
      <trkpt lat="49.10006" lon="2.08053">
        <ele>128.5</ele>
        <time>2022-09-25T11:06:56Z</time>
      </trkpt>
      <trkpt lat="49.1" lon="2.08065">
        <ele>128.5</ele>
        <time>2022-09-25T11:07:02Z</time>
      </trkpt>
      <trkpt lat="49.09995" lon="2.08076">
        <ele>128.6</ele>
        <time>2022-09-25T11:07:08Z</time>
      </trkpt>
      <trkpt lat="49.09992" lon="2.08087">
        <ele>128.5</ele>
        <time>2022-09-25T11:07:13Z</time>
      </trkpt>
      <trkpt lat="49.09986" lon="2.08097">
        <ele>128.4</ele>
        <time>2022-09-25T11:07:19Z</time>
      </trkpt>
      <trkpt lat="49.09982" lon="2.08108">
        <ele>128.2</ele>
        <time>2022-09-25T11:07:25Z</time>
      </trkpt>
      <trkpt lat="49.09977" lon="2.08121">
        <ele>128.1</ele>
        <time>2022-09-25T11:07:31Z</time>
      </trkpt>
      <trkpt lat="49.09972" lon="2.08135">
        <ele>128</ele>
        <time>2022-09-25T11:07:37Z</time>
      </trkpt>
      <trkpt lat="49.09969" lon="2.08146">
        <ele>127.8</ele>
        <time>2022-09-25T11:07:42Z</time>
      </trkpt>
      <trkpt lat="49.09964" lon="2.08159">
        <ele>127.8</ele>
        <time>2022-09-25T11:07:48Z</time>
      </trkpt>
      <trkpt lat="49.0996" lon="2.08168">
        <ele>127.8</ele>
        <time>2022-09-25T11:07:54Z</time>
      </trkpt>
      <trkpt lat="49.09956" lon="2.0818">
        <ele>127.8</ele>
        <time>2022-09-25T11:08:00Z</time>
      </trkpt>
      <trkpt lat="49.09954" lon="2.08189">
        <ele>127.8</ele>
        <time>2022-09-25T11:08:05Z</time>
      </trkpt>
      <trkpt lat="49.09952" lon="2.08201">
        <ele>127.7</ele>
        <time>2022-09-25T11:08:10Z</time>
      </trkpt>
      <trkpt lat="49.09949" lon="2.08214">
        <ele>127.5</ele>
        <time>2022-09-25T11:08:16Z</time>
      </trkpt>
      <trkpt lat="49.09946" lon="2.08228">
        <ele>127.3</ele>
        <time>2022-09-25T11:08:22Z</time>
      </trkpt>
      <trkpt lat="49.09943" lon="2.08242">
        <ele>127.2</ele>
        <time>2022-09-25T11:08:28Z</time>
      </trkpt>
      <trkpt lat="49.09941" lon="2.08254">
        <ele>127.2</ele>
        <time>2022-09-25T11:08:33Z</time>
      </trkpt>
      <trkpt lat="49.09939" lon="2.08267">
        <ele>127.2</ele>
        <time>2022-09-25T11:08:39Z</time>
      </trkpt>
      <trkpt lat="49.09936" lon="2.08283">
        <ele>127.1</ele>
        <time>2022-09-25T11:08:45Z</time>
      </trkpt>
      <trkpt lat="49.09933" lon="2.08294">
        <ele>127.1</ele>
        <time>2022-09-25T11:08:50Z</time>
      </trkpt>
      <trkpt lat="49.0993" lon="2.08301">
        <ele>127.1</ele>
        <time>2022-09-25T11:08:55Z</time>
      </trkpt>
      <trkpt lat="49.09926" lon="2.08313">
        <ele>126.9</ele>
        <time>2022-09-25T11:09:01Z</time>
      </trkpt>
      <trkpt lat="49.09922" lon="2.08324">
        <ele>126.7</ele>
        <time>2022-09-25T11:09:06Z</time>
      </trkpt>
      <trkpt lat="49.09918" lon="2.08334">
        <ele>126.7</ele>
        <time>2022-09-25T11:09:11Z</time>
      </trkpt>
      <trkpt lat="49.09912" lon="2.08346">
        <ele>126.8</ele>
        <time>2022-09-25T11:09:17Z</time>
      </trkpt>
      <trkpt lat="49.09907" lon="2.08353">
        <ele>126.8</ele>
        <time>2022-09-25T11:09:22Z</time>
      </trkpt>
      <trkpt lat="49.09901" lon="2.08361">
        <ele>126.7</ele>
        <time>2022-09-25T11:09:28Z</time>
      </trkpt>
      <trkpt lat="49.09897" lon="2.08371">
        <ele>126.7</ele>
        <time>2022-09-25T11:09:33Z</time>
      </trkpt>
      <trkpt lat="49.09892" lon="2.08383">
        <ele>126.7</ele>
        <time>2022-09-25T11:09:39Z</time>
      </trkpt>
      <trkpt lat="49.09886" lon="2.08396">
        <ele>126.6</ele>
        <time>2022-09-25T11:09:47Z</time>
      </trkpt>
      <trkpt lat="49.09882" lon="2.08403">
        <ele>126.5</ele>
        <time>2022-09-25T11:09:52Z</time>
      </trkpt>
      <trkpt lat="49.09877" lon="2.08412">
        <ele>126.5</ele>
        <time>2022-09-25T11:09:58Z</time>
      </trkpt>
      <trkpt lat="49.09871" lon="2.08424">
        <ele>126.5</ele>
        <time>2022-09-25T11:10:05Z</time>
      </trkpt>
      <trkpt lat="49.09868" lon="2.08434">
        <ele>126.4</ele>
        <time>2022-09-25T11:10:10Z</time>
      </trkpt>
      <trkpt lat="49.09863" lon="2.08444">
        <ele>126.3</ele>
        <time>2022-09-25T11:10:16Z</time>
      </trkpt>
      <trkpt lat="49.09857" lon="2.08456">
        <ele>126</ele>
        <time>2022-09-25T11:10:22Z</time>
      </trkpt>
      <trkpt lat="49.09853" lon="2.08467">
        <ele>125.8</ele>
        <time>2022-09-25T11:10:27Z</time>
      </trkpt>
      <trkpt lat="49.0985" lon="2.08478">
        <ele>125.6</ele>
        <time>2022-09-25T11:10:33Z</time>
      </trkpt>
      <trkpt lat="49.09845" lon="2.0849">
        <ele>125.5</ele>
        <time>2022-09-25T11:10:38Z</time>
      </trkpt>
      <trkpt lat="49.09843" lon="2.08502">
        <ele>125.3</ele>
        <time>2022-09-25T11:10:44Z</time>
      </trkpt>
      <trkpt lat="49.09839" lon="2.08512">
        <ele>125.2</ele>
        <time>2022-09-25T11:10:49Z</time>
      </trkpt>
      <trkpt lat="49.09836" lon="2.08524">
        <ele>125</ele>
        <time>2022-09-25T11:10:54Z</time>
      </trkpt>
      <trkpt lat="49.09832" lon="2.08537">
        <ele>124.9</ele>
        <time>2022-09-25T11:11:00Z</time>
      </trkpt>
      <trkpt lat="49.09829" lon="2.08547">
        <ele>125</ele>
        <time>2022-09-25T11:11:05Z</time>
      </trkpt>
      <trkpt lat="49.09824" lon="2.08561">
        <ele>125</ele>
        <time>2022-09-25T11:11:11Z</time>
      </trkpt>
      <trkpt lat="49.0982" lon="2.0857">
        <ele>124.8</ele>
        <time>2022-09-25T11:11:16Z</time>
      </trkpt>
      <trkpt lat="49.09816" lon="2.08582">
        <ele>124.4</ele>
        <time>2022-09-25T11:11:22Z</time>
      </trkpt>
      <trkpt lat="49.09813" lon="2.08592">
        <ele>124.2</ele>
        <time>2022-09-25T11:11:27Z</time>
      </trkpt>
      <trkpt lat="49.09809" lon="2.08603">
        <ele>124.1</ele>
        <time>2022-09-25T11:11:33Z</time>
      </trkpt>
      <trkpt lat="49.09806" lon="2.08613">
        <ele>123.6</ele>
        <time>2022-09-25T11:11:39Z</time>
      </trkpt>
      <trkpt lat="49.09803" lon="2.08623">
        <ele>123.2</ele>
        <time>2022-09-25T11:11:44Z</time>
      </trkpt>
      <trkpt lat="49.09797" lon="2.08631">
        <ele>122.9</ele>
        <time>2022-09-25T11:11:50Z</time>
      </trkpt>
      <trkpt lat="49.09795" lon="2.08643">
        <ele>122.8</ele>
        <time>2022-09-25T11:11:55Z</time>
      </trkpt>
      <trkpt lat="49.0979" lon="2.08656">
        <ele>123</ele>
        <time>2022-09-25T11:12:01Z</time>
      </trkpt>
      <trkpt lat="49.09784" lon="2.08667">
        <ele>123.3</ele>
        <time>2022-09-25T11:12:07Z</time>
      </trkpt>
      <trkpt lat="49.0978" lon="2.08678">
        <ele>123.7</ele>
        <time>2022-09-25T11:12:13Z</time>
      </trkpt>
      <trkpt lat="49.09776" lon="2.08685">
        <ele>123.7</ele>
        <time>2022-09-25T11:12:18Z</time>
      </trkpt>
      <trkpt lat="49.0977" lon="2.08697">
        <ele>123.4</ele>
        <time>2022-09-25T11:12:24Z</time>
      </trkpt>
      <trkpt lat="49.09764" lon="2.08706">
        <ele>123.2</ele>
        <time>2022-09-25T11:12:30Z</time>
      </trkpt>
      <trkpt lat="49.09759" lon="2.08716">
        <ele>123.1</ele>
        <time>2022-09-25T11:12:35Z</time>
      </trkpt>
      <trkpt lat="49.09754" lon="2.08727">
        <ele>123</ele>
        <time>2022-09-25T11:12:41Z</time>
      </trkpt>
      <trkpt lat="49.09749" lon="2.08736">
        <ele>122.8</ele>
        <time>2022-09-25T11:12:46Z</time>
      </trkpt>
      <trkpt lat="49.09743" lon="2.08748">
        <ele>122.9</ele>
        <time>2022-09-25T11:12:53Z</time>
      </trkpt>
      <trkpt lat="49.0974" lon="2.08756">
        <ele>123</ele>
        <time>2022-09-25T11:12:58Z</time>
      </trkpt>
      <trkpt lat="49.09735" lon="2.08765">
        <ele>123.2</ele>
        <time>2022-09-25T11:13:04Z</time>
      </trkpt>
      <trkpt lat="49.09735" lon="2.08773">
        <ele>123.3</ele>
        <time>2022-09-25T11:13:09Z</time>
      </trkpt>
      <trkpt lat="49.09734" lon="2.08779">
        <ele>123.3</ele>
        <time>2022-09-25T11:13:14Z</time>
      </trkpt>
      <trkpt lat="49.09731" lon="2.0879">
        <ele>123.3</ele>
        <time>2022-09-25T11:13:20Z</time>
      </trkpt>
      <trkpt lat="49.09728" lon="2.08806">
        <ele>123.5</ele>
        <time>2022-09-25T11:13:26Z</time>
      </trkpt>
      <trkpt lat="49.09726" lon="2.08816">
        <ele>123.7</ele>
        <time>2022-09-25T11:13:31Z</time>
      </trkpt>
      <trkpt lat="49.09722" lon="2.08826">
        <ele>123.9</ele>
        <time>2022-09-25T11:13:37Z</time>
      </trkpt>
      <trkpt lat="49.09721" lon="2.08839">
        <ele>124.3</ele>
        <time>2022-09-25T11:13:43Z</time>
      </trkpt>
      <trkpt lat="49.0972" lon="2.0885">
        <ele>124.7</ele>
        <time>2022-09-25T11:13:49Z</time>
      </trkpt>
      <trkpt lat="49.09718" lon="2.0886">
        <ele>124.9</ele>
        <time>2022-09-25T11:13:54Z</time>
      </trkpt>
      <trkpt lat="49.09716" lon="2.0887">
        <ele>125</ele>
        <time>2022-09-25T11:13:59Z</time>
      </trkpt>
      <trkpt lat="49.09714" lon="2.08882">
        <ele>125.1</ele>
        <time>2022-09-25T11:14:04Z</time>
      </trkpt>
      <trkpt lat="49.09713" lon="2.08891">
        <ele>125.3</ele>
        <time>2022-09-25T11:14:09Z</time>
      </trkpt>
      <trkpt lat="49.0971" lon="2.08901">
        <ele>125.7</ele>
        <time>2022-09-25T11:14:15Z</time>
      </trkpt>
      <trkpt lat="49.09707" lon="2.08911">
        <ele>126</ele>
        <time>2022-09-25T11:14:20Z</time>
      </trkpt>
      <trkpt lat="49.09703" lon="2.08922">
        <ele>126.1</ele>
        <time>2022-09-25T11:14:26Z</time>
      </trkpt>
      <trkpt lat="49.09698" lon="2.08931">
        <ele>126.1</ele>
        <time>2022-09-25T11:14:32Z</time>
      </trkpt>
      <trkpt lat="49.09694" lon="2.08943">
        <ele>126</ele>
        <time>2022-09-25T11:14:38Z</time>
      </trkpt>
      <trkpt lat="49.0969" lon="2.08952">
        <ele>126.1</ele>
        <time>2022-09-25T11:14:43Z</time>
      </trkpt>
      <trkpt lat="49.09688" lon="2.08963">
        <ele>126.2</ele>
        <time>2022-09-25T11:14:48Z</time>
      </trkpt>
      <trkpt lat="49.09685" lon="2.08976">
        <ele>126.3</ele>
        <time>2022-09-25T11:14:54Z</time>
      </trkpt>
      <trkpt lat="49.09681" lon="2.08988">
        <ele>126.5</ele>
        <time>2022-09-25T11:15:00Z</time>
      </trkpt>
      <trkpt lat="49.09676" lon="2.09">
        <ele>126.7</ele>
        <time>2022-09-25T11:15:06Z</time>
      </trkpt>
      <trkpt lat="49.09673" lon="2.09011">
        <ele>127</ele>
        <time>2022-09-25T11:15:11Z</time>
      </trkpt>
      <trkpt lat="49.09668" lon="2.09025">
        <ele>127.5</ele>
        <time>2022-09-25T11:15:17Z</time>
      </trkpt>
      <trkpt lat="49.09664" lon="2.09035">
        <ele>127.9</ele>
        <time>2022-09-25T11:15:22Z</time>
      </trkpt>
      <trkpt lat="49.09659" lon="2.09047">
        <ele>128.2</ele>
        <time>2022-09-25T11:15:28Z</time>
      </trkpt>
      <trkpt lat="49.09655" lon="2.09059">
        <ele>128.6</ele>
        <time>2022-09-25T11:15:34Z</time>
      </trkpt>
      <trkpt lat="49.09651" lon="2.09069">
        <ele>128.8</ele>
        <time>2022-09-25T11:15:39Z</time>
      </trkpt>
      <trkpt lat="49.09647" lon="2.0908">
        <ele>129</ele>
        <time>2022-09-25T11:15:45Z</time>
      </trkpt>
      <trkpt lat="49.09644" lon="2.09092">
        <ele>129.2</ele>
        <time>2022-09-25T11:15:51Z</time>
      </trkpt>
      <trkpt lat="49.0964" lon="2.09103">
        <ele>129.4</ele>
        <time>2022-09-25T11:15:57Z</time>
      </trkpt>
      <trkpt lat="49.09636" lon="2.09111">
        <ele>129.4</ele>
        <time>2022-09-25T11:16:02Z</time>
      </trkpt>
      <trkpt lat="49.09631" lon="2.0912">
        <ele>129.5</ele>
        <time>2022-09-25T11:16:07Z</time>
      </trkpt>
      <trkpt lat="49.09625" lon="2.09129">
        <ele>129.6</ele>
        <time>2022-09-25T11:16:13Z</time>
      </trkpt>
      <trkpt lat="49.0962" lon="2.09138">
        <ele>129.7</ele>
        <time>2022-09-25T11:16:19Z</time>
      </trkpt>
      <trkpt lat="49.09616" lon="2.09145">
        <ele>129.7</ele>
        <time>2022-09-25T11:16:24Z</time>
      </trkpt>
      <trkpt lat="49.09611" lon="2.09153">
        <ele>129.6</ele>
        <time>2022-09-25T11:16:30Z</time>
      </trkpt>
      <trkpt lat="49.09606" lon="2.09162">
        <ele>129.5</ele>
        <time>2022-09-25T11:16:35Z</time>
      </trkpt>
      <trkpt lat="49.09601" lon="2.09172">
        <ele>129.4</ele>
        <time>2022-09-25T11:16:40Z</time>
      </trkpt>
      <trkpt lat="49.09595" lon="2.09183">
        <ele>129.4</ele>
        <time>2022-09-25T11:16:46Z</time>
      </trkpt>
      <trkpt lat="49.09591" lon="2.09193">
        <ele>129.5</ele>
        <time>2022-09-25T11:16:52Z</time>
      </trkpt>
      <trkpt lat="49.09587" lon="2.09204">
        <ele>129.5</ele>
        <time>2022-09-25T11:16:58Z</time>
      </trkpt>
      <trkpt lat="49.09583" lon="2.09214">
        <ele>129.7</ele>
        <time>2022-09-25T11:17:03Z</time>
      </trkpt>
      <trkpt lat="49.09579" lon="2.09224">
        <ele>129.8</ele>
        <time>2022-09-25T11:17:08Z</time>
      </trkpt>
      <trkpt lat="49.09575" lon="2.09235">
        <ele>130.1</ele>
        <time>2022-09-25T11:17:14Z</time>
      </trkpt>
      <trkpt lat="49.09571" lon="2.09245">
        <ele>130.5</ele>
        <time>2022-09-25T11:17:20Z</time>
      </trkpt>
      <trkpt lat="49.09567" lon="2.09256">
        <ele>130.8</ele>
        <time>2022-09-25T11:17:25Z</time>
      </trkpt>
      <trkpt lat="49.09565" lon="2.09267">
        <ele>131.2</ele>
        <time>2022-09-25T11:17:30Z</time>
      </trkpt>
      <trkpt lat="49.09562" lon="2.09278">
        <ele>131.7</ele>
        <time>2022-09-25T11:17:36Z</time>
      </trkpt>
      <trkpt lat="49.09557" lon="2.09287">
        <ele>132.1</ele>
        <time>2022-09-25T11:17:41Z</time>
      </trkpt>
      <trkpt lat="49.09551" lon="2.09299">
        <ele>132.5</ele>
        <time>2022-09-25T11:17:47Z</time>
      </trkpt>
      <trkpt lat="49.09548" lon="2.09309">
        <ele>132.8</ele>
        <time>2022-09-25T11:17:52Z</time>
      </trkpt>
      <trkpt lat="49.09546" lon="2.09317">
        <ele>133</ele>
        <time>2022-09-25T11:17:57Z</time>
      </trkpt>
      <trkpt lat="49.09545" lon="2.09326">
        <ele>133.2</ele>
        <time>2022-09-25T11:18:02Z</time>
      </trkpt>
      <trkpt lat="49.09544" lon="2.0934">
        <ele>133.5</ele>
        <time>2022-09-25T11:18:08Z</time>
      </trkpt>
      <trkpt lat="49.09543" lon="2.09353">
        <ele>133.8</ele>
        <time>2022-09-25T11:18:13Z</time>
      </trkpt>
      <trkpt lat="49.0954" lon="2.09368">
        <ele>134.1</ele>
        <time>2022-09-25T11:18:19Z</time>
      </trkpt>
      <trkpt lat="49.09536" lon="2.09383">
        <ele>134.6</ele>
        <time>2022-09-25T11:18:25Z</time>
      </trkpt>
      <trkpt lat="49.09532" lon="2.09393">
        <ele>134.9</ele>
        <time>2022-09-25T11:18:30Z</time>
      </trkpt>
      <trkpt lat="49.0953" lon="2.09404">
        <ele>135.2</ele>
        <time>2022-09-25T11:18:36Z</time>
      </trkpt>
      <trkpt lat="49.09529" lon="2.09413">
        <ele>135.4</ele>
        <time>2022-09-25T11:18:41Z</time>
      </trkpt>
      <trkpt lat="49.0953" lon="2.09424">
        <ele>135.5</ele>
        <time>2022-09-25T11:18:47Z</time>
      </trkpt>
      <trkpt lat="49.09529" lon="2.0944">
        <ele>135.6</ele>
        <time>2022-09-25T11:18:53Z</time>
      </trkpt>
      <trkpt lat="49.09528" lon="2.09449">
        <ele>135.7</ele>
        <time>2022-09-25T11:18:58Z</time>
      </trkpt>
      <trkpt lat="49.09528" lon="2.09459">
        <ele>135.7</ele>
        <time>2022-09-25T11:19:04Z</time>
      </trkpt>
      <trkpt lat="49.09528" lon="2.09471">
        <ele>135.6</ele>
        <time>2022-09-25T11:19:09Z</time>
      </trkpt>
      <trkpt lat="49.09524" lon="2.09481">
        <ele>135.5</ele>
        <time>2022-09-25T11:19:15Z</time>
      </trkpt>
      <trkpt lat="49.09521" lon="2.09492">
        <ele>135.5</ele>
        <time>2022-09-25T11:19:20Z</time>
      </trkpt>
      <trkpt lat="49.09518" lon="2.09502">
        <ele>135.6</ele>
        <time>2022-09-25T11:19:25Z</time>
      </trkpt>
      <trkpt lat="49.09515" lon="2.0951">
        <ele>135.8</ele>
        <time>2022-09-25T11:19:30Z</time>
      </trkpt>
      <trkpt lat="49.0951" lon="2.09511">
        <ele>135.9</ele>
        <time>2022-09-25T11:19:36Z</time>
      </trkpt>
      <trkpt lat="49.09508" lon="2.09511">
        <ele>136.1</ele>
        <time>2022-09-25T11:19:41Z</time>
      </trkpt>
      <trkpt lat="49.09502" lon="2.09519">
        <ele>136.4</ele>
        <time>2022-09-25T11:19:47Z</time>
      </trkpt>
      <trkpt lat="49.09498" lon="2.09526">
        <ele>136.7</ele>
        <time>2022-09-25T11:19:52Z</time>
      </trkpt>
      <trkpt lat="49.09496" lon="2.09535">
        <ele>137</ele>
        <time>2022-09-25T11:19:58Z</time>
      </trkpt>
      <trkpt lat="49.09494" lon="2.09544">
        <ele>137.2</ele>
        <time>2022-09-25T11:20:03Z</time>
      </trkpt>
      <trkpt lat="49.09497" lon="2.09554">
        <ele>137.5</ele>
        <time>2022-09-25T11:20:09Z</time>
      </trkpt>
      <trkpt lat="49.095" lon="2.09559">
        <ele>137.8</ele>
        <time>2022-09-25T11:20:15Z</time>
      </trkpt>
      <trkpt lat="49.09503" lon="2.09562">
        <ele>138.2</ele>
        <time>2022-09-25T11:20:21Z</time>
      </trkpt>
      <trkpt lat="49.09507" lon="2.09565">
        <ele>138.4</ele>
        <time>2022-09-25T11:20:26Z</time>
      </trkpt>
      <trkpt lat="49.09511" lon="2.09571">
        <ele>138.4</ele>
        <time>2022-09-25T11:20:32Z</time>
      </trkpt>
      <trkpt lat="49.09514" lon="2.09579">
        <ele>138.6</ele>
        <time>2022-09-25T11:20:37Z</time>
      </trkpt>
      <trkpt lat="49.09519" lon="2.09588">
        <ele>139.1</ele>
        <time>2022-09-25T11:20:43Z</time>
      </trkpt>
      <trkpt lat="49.09523" lon="2.09595">
        <ele>139.4</ele>
        <time>2022-09-25T11:20:48Z</time>
      </trkpt>
      <trkpt lat="49.09528" lon="2.09598">
        <ele>139.6</ele>
        <time>2022-09-25T11:20:53Z</time>
      </trkpt>
      <trkpt lat="49.09535" lon="2.09598">
        <ele>139.9</ele>
        <time>2022-09-25T11:20:59Z</time>
      </trkpt>
      <trkpt lat="49.09539" lon="2.09597">
        <ele>140.1</ele>
        <time>2022-09-25T11:21:04Z</time>
      </trkpt>
      <trkpt lat="49.09541" lon="2.09596">
        <ele>140.3</ele>
        <time>2022-09-25T11:21:11Z</time>
      </trkpt>
      <trkpt lat="49.09537" lon="2.09597">
        <ele>150.2</ele>
        <time>2022-09-25T11:47:05Z</time>
      </trkpt>
      <trkpt lat="49.09537" lon="2.09596">
        <ele>150.2</ele>
        <time>2022-09-25T11:47:10Z</time>
      </trkpt>
      <trkpt lat="49.09535" lon="2.09596">
        <ele>150.3</ele>
        <time>2022-09-25T11:47:16Z</time>
      </trkpt>
      <trkpt lat="49.09535" lon="2.09596">
        <ele>150.2</ele>
        <time>2022-09-25T11:47:22Z</time>
      </trkpt>
      <trkpt lat="49.09535" lon="2.09595">
        <ele>150.2</ele>
        <time>2022-09-25T11:47:28Z</time>
      </trkpt>
      <trkpt lat="49.09533" lon="2.09595">
        <ele>149.9</ele>
        <time>2022-09-25T11:47:33Z</time>
      </trkpt>
      <trkpt lat="49.0953" lon="2.096">
        <ele>149.3</ele>
        <time>2022-09-25T11:47:38Z</time>
      </trkpt>
      <trkpt lat="49.09529" lon="2.09609">
        <ele>149.4</ele>
        <time>2022-09-25T11:47:44Z</time>
      </trkpt>
      <trkpt lat="49.0953" lon="2.09614">
        <ele>149.6</ele>
        <time>2022-09-25T11:47:49Z</time>
      </trkpt>
      <trkpt lat="49.09534" lon="2.09617">
        <ele>149.9</ele>
        <time>2022-09-25T11:47:55Z</time>
      </trkpt>
      <trkpt lat="49.09534" lon="2.09619">
        <ele>150.1</ele>
        <time>2022-09-25T11:48:00Z</time>
      </trkpt>
      <trkpt lat="49.0953" lon="2.09616">
        <ele>150.4</ele>
        <time>2022-09-25T11:48:06Z</time>
      </trkpt>
      <trkpt lat="49.09526" lon="2.09618">
        <ele>150.4</ele>
        <time>2022-09-25T11:48:11Z</time>
      </trkpt>
      <trkpt lat="49.09522" lon="2.09618">
        <ele>150.6</ele>
        <time>2022-09-25T11:48:17Z</time>
      </trkpt>
      <trkpt lat="49.09518" lon="2.09615">
        <ele>150.7</ele>
        <time>2022-09-25T11:48:23Z</time>
      </trkpt>
      <trkpt lat="49.09513" lon="2.09615">
        <ele>150.7</ele>
        <time>2022-09-25T11:48:28Z</time>
      </trkpt>
      <trkpt lat="49.09507" lon="2.09613">
        <ele>150.6</ele>
        <time>2022-09-25T11:48:33Z</time>
      </trkpt>
      <trkpt lat="49.095" lon="2.09612">
        <ele>150.6</ele>
        <time>2022-09-25T11:48:39Z</time>
      </trkpt>
      <trkpt lat="49.09492" lon="2.09616">
        <ele>150.6</ele>
        <time>2022-09-25T11:48:45Z</time>
      </trkpt>
      <trkpt lat="49.09491" lon="2.09622">
        <ele>150.7</ele>
        <time>2022-09-25T11:48:50Z</time>
      </trkpt>
      <trkpt lat="49.09489" lon="2.09631">
        <ele>150.9</ele>
        <time>2022-09-25T11:48:56Z</time>
      </trkpt>
      <trkpt lat="49.09487" lon="2.09641">
        <ele>151</ele>
        <time>2022-09-25T11:49:02Z</time>
      </trkpt>
      <trkpt lat="49.09485" lon="2.0965">
        <ele>150.8</ele>
        <time>2022-09-25T11:49:07Z</time>
      </trkpt>
      <trkpt lat="49.09485" lon="2.09661">
        <ele>150.7</ele>
        <time>2022-09-25T11:49:13Z</time>
      </trkpt>
      <trkpt lat="49.09485" lon="2.09672">
        <ele>150.8</ele>
        <time>2022-09-25T11:49:18Z</time>
      </trkpt>
      <trkpt lat="49.09486" lon="2.09683">
        <ele>151</ele>
        <time>2022-09-25T11:49:24Z</time>
      </trkpt>
      <trkpt lat="49.09487" lon="2.09691">
        <ele>151.1</ele>
        <time>2022-09-25T11:49:29Z</time>
      </trkpt>
      <trkpt lat="49.09487" lon="2.09703">
        <ele>151</ele>
        <time>2022-09-25T11:49:35Z</time>
      </trkpt>
      <trkpt lat="49.09489" lon="2.09712">
        <ele>150.8</ele>
        <time>2022-09-25T11:49:41Z</time>
      </trkpt>
      <trkpt lat="49.09491" lon="2.09722">
        <ele>150.4</ele>
        <time>2022-09-25T11:49:48Z</time>
      </trkpt>
      <trkpt lat="49.09495" lon="2.09733">
        <ele>150.3</ele>
        <time>2022-09-25T11:49:53Z</time>
      </trkpt>
      <trkpt lat="49.09499" lon="2.09745">
        <ele>150.3</ele>
        <time>2022-09-25T11:49:59Z</time>
      </trkpt>
      <trkpt lat="49.09502" lon="2.09753">
        <ele>150.5</ele>
        <time>2022-09-25T11:50:05Z</time>
      </trkpt>
      <trkpt lat="49.09505" lon="2.09763">
        <ele>150.4</ele>
        <time>2022-09-25T11:50:11Z</time>
      </trkpt>
      <trkpt lat="49.09509" lon="2.09771">
        <ele>150.1</ele>
        <time>2022-09-25T11:50:16Z</time>
      </trkpt>
      <trkpt lat="49.09508" lon="2.0978">
        <ele>149.5</ele>
        <time>2022-09-25T11:50:22Z</time>
      </trkpt>
      <trkpt lat="49.09502" lon="2.09786">
        <ele>149.2</ele>
        <time>2022-09-25T11:50:27Z</time>
      </trkpt>
      <trkpt lat="49.09496" lon="2.09791">
        <ele>149.1</ele>
        <time>2022-09-25T11:50:32Z</time>
      </trkpt>
      <trkpt lat="49.09488" lon="2.09797">
        <ele>149.1</ele>
        <time>2022-09-25T11:50:38Z</time>
      </trkpt>
      <trkpt lat="49.09478" lon="2.09802">
        <ele>149.2</ele>
        <time>2022-09-25T11:50:44Z</time>
      </trkpt>
      <trkpt lat="49.0947" lon="2.09808">
        <ele>149.5</ele>
        <time>2022-09-25T11:50:49Z</time>
      </trkpt>
      <trkpt lat="49.09463" lon="2.09812">
        <ele>149.7</ele>
        <time>2022-09-25T11:50:55Z</time>
      </trkpt>
      <trkpt lat="49.09455" lon="2.09816">
        <ele>150</ele>
        <time>2022-09-25T11:51:01Z</time>
      </trkpt>
      <trkpt lat="49.09447" lon="2.09821">
        <ele>150.2</ele>
        <time>2022-09-25T11:51:07Z</time>
      </trkpt>
      <trkpt lat="49.09442" lon="2.09825">
        <ele>150.6</ele>
        <time>2022-09-25T11:51:12Z</time>
      </trkpt>
      <trkpt lat="49.09435" lon="2.09828">
        <ele>151.1</ele>
        <time>2022-09-25T11:51:18Z</time>
      </trkpt>
      <trkpt lat="49.0943" lon="2.0983">
        <ele>151.3</ele>
        <time>2022-09-25T11:51:23Z</time>
      </trkpt>
      <trkpt lat="49.09423" lon="2.09835">
        <ele>151.5</ele>
        <time>2022-09-25T11:51:29Z</time>
      </trkpt>
      <trkpt lat="49.09416" lon="2.0984">
        <ele>151.5</ele>
        <time>2022-09-25T11:51:34Z</time>
      </trkpt>
      <trkpt lat="49.09408" lon="2.09844">
        <ele>151.4</ele>
        <time>2022-09-25T11:51:40Z</time>
      </trkpt>
      <trkpt lat="49.094" lon="2.09847">
        <ele>151.5</ele>
        <time>2022-09-25T11:51:46Z</time>
      </trkpt>
      <trkpt lat="49.09393" lon="2.0985">
        <ele>151.6</ele>
        <time>2022-09-25T11:51:51Z</time>
      </trkpt>
      <trkpt lat="49.09385" lon="2.09854">
        <ele>151.6</ele>
        <time>2022-09-25T11:51:57Z</time>
      </trkpt>
      <trkpt lat="49.09378" lon="2.09856">
        <ele>151.7</ele>
        <time>2022-09-25T11:52:02Z</time>
      </trkpt>
      <trkpt lat="49.09372" lon="2.09861">
        <ele>151.7</ele>
        <time>2022-09-25T11:52:07Z</time>
      </trkpt>
      <trkpt lat="49.09363" lon="2.09863">
        <ele>151.2</ele>
        <time>2022-09-25T11:52:13Z</time>
      </trkpt>
      <trkpt lat="49.09355" lon="2.09866">
        <ele>150.7</ele>
        <time>2022-09-25T11:52:18Z</time>
      </trkpt>
      <trkpt lat="49.09348" lon="2.09868">
        <ele>150.1</ele>
        <time>2022-09-25T11:52:24Z</time>
      </trkpt>
      <trkpt lat="49.0934" lon="2.0987">
        <ele>149.5</ele>
        <time>2022-09-25T11:52:29Z</time>
      </trkpt>
      <trkpt lat="49.09334" lon="2.09869">
        <ele>148.8</ele>
        <time>2022-09-25T11:52:34Z</time>
      </trkpt>
      <trkpt lat="49.09325" lon="2.09871">
        <ele>147.9</ele>
        <time>2022-09-25T11:52:40Z</time>
      </trkpt>
      <trkpt lat="49.09319" lon="2.09872">
        <ele>147.3</ele>
        <time>2022-09-25T11:52:45Z</time>
      </trkpt>
      <trkpt lat="49.09311" lon="2.09871">
        <ele>146.9</ele>
        <time>2022-09-25T11:52:51Z</time>
      </trkpt>
      <trkpt lat="49.09304" lon="2.09867">
        <ele>146.1</ele>
        <time>2022-09-25T11:52:57Z</time>
      </trkpt>
      <trkpt lat="49.09297" lon="2.09865">
        <ele>145.3</ele>
        <time>2022-09-25T11:53:02Z</time>
      </trkpt>
      <trkpt lat="49.0929" lon="2.09867">
        <ele>144.2</ele>
        <time>2022-09-25T11:53:08Z</time>
      </trkpt>
      <trkpt lat="49.09281" lon="2.0987">
        <ele>143.3</ele>
        <time>2022-09-25T11:53:13Z</time>
      </trkpt>
      <trkpt lat="49.09271" lon="2.0988">
        <ele>142.9</ele>
        <time>2022-09-25T11:53:19Z</time>
      </trkpt>
      <trkpt lat="49.09264" lon="2.09884">
        <ele>142.9</ele>
        <time>2022-09-25T11:53:24Z</time>
      </trkpt>
      <trkpt lat="49.09256" lon="2.09888">
        <ele>143.3</ele>
        <time>2022-09-25T11:53:30Z</time>
      </trkpt>
      <trkpt lat="49.09247" lon="2.09891">
        <ele>143.9</ele>
        <time>2022-09-25T11:53:35Z</time>
      </trkpt>
      <trkpt lat="49.09238" lon="2.09893">
        <ele>144.4</ele>
        <time>2022-09-25T11:53:40Z</time>
      </trkpt>
      <trkpt lat="49.0923" lon="2.09895">
        <ele>145</ele>
        <time>2022-09-25T11:53:46Z</time>
      </trkpt>
      <trkpt lat="49.09224" lon="2.09898">
        <ele>145.5</ele>
        <time>2022-09-25T11:53:51Z</time>
      </trkpt>
      <trkpt lat="49.09219" lon="2.09901">
        <ele>146.1</ele>
        <time>2022-09-25T11:53:57Z</time>
      </trkpt>
      <trkpt lat="49.09211" lon="2.09903">
        <ele>146.4</ele>
        <time>2022-09-25T11:54:02Z</time>
      </trkpt>
      <trkpt lat="49.09204" lon="2.09905">
        <ele>146.6</ele>
        <time>2022-09-25T11:54:07Z</time>
      </trkpt>
      <trkpt lat="49.09194" lon="2.09909">
        <ele>146.7</ele>
        <time>2022-09-25T11:54:13Z</time>
      </trkpt>
      <trkpt lat="49.09187" lon="2.09912">
        <ele>146.7</ele>
        <time>2022-09-25T11:54:18Z</time>
      </trkpt>
      <trkpt lat="49.09178" lon="2.09913">
        <ele>146.6</ele>
        <time>2022-09-25T11:54:24Z</time>
      </trkpt>
      <trkpt lat="49.09171" lon="2.09914">
        <ele>146.5</ele>
        <time>2022-09-25T11:54:29Z</time>
      </trkpt>
      <trkpt lat="49.09163" lon="2.09917">
        <ele>146.6</ele>
        <time>2022-09-25T11:54:35Z</time>
      </trkpt>
      <trkpt lat="49.09158" lon="2.09918">
        <ele>146.5</ele>
        <time>2022-09-25T11:54:40Z</time>
      </trkpt>
      <trkpt lat="49.0915" lon="2.09923">
        <ele>146.6</ele>
        <time>2022-09-25T11:54:46Z</time>
      </trkpt>
      <trkpt lat="49.09144" lon="2.09925">
        <ele>146.6</ele>
        <time>2022-09-25T11:54:51Z</time>
      </trkpt>
      <trkpt lat="49.09133" lon="2.09928">
        <ele>146.7</ele>
        <time>2022-09-25T11:54:57Z</time>
      </trkpt>
      <trkpt lat="49.09122" lon="2.09931">
        <ele>147.2</ele>
        <time>2022-09-25T11:55:02Z</time>
      </trkpt>
      <trkpt lat="49.09114" lon="2.09933">
        <ele>148.1</ele>
        <time>2022-09-25T11:55:08Z</time>
      </trkpt>
      <trkpt lat="49.09107" lon="2.09936">
        <ele>148.6</ele>
        <time>2022-09-25T11:55:13Z</time>
      </trkpt>
      <trkpt lat="49.09099" lon="2.09939">
        <ele>149.2</ele>
        <time>2022-09-25T11:55:19Z</time>
      </trkpt>
      <trkpt lat="49.09092" lon="2.09942">
        <ele>149.6</ele>
        <time>2022-09-25T11:55:25Z</time>
      </trkpt>
      <trkpt lat="49.09086" lon="2.09945">
        <ele>149.9</ele>
        <time>2022-09-25T11:55:30Z</time>
      </trkpt>
      <trkpt lat="49.09079" lon="2.0995">
        <ele>150.3</ele>
        <time>2022-09-25T11:55:35Z</time>
      </trkpt>
      <trkpt lat="49.09072" lon="2.09955">
        <ele>150.6</ele>
        <time>2022-09-25T11:55:41Z</time>
      </trkpt>
      <trkpt lat="49.09066" lon="2.09956">
        <ele>150.7</ele>
        <time>2022-09-25T11:55:46Z</time>
      </trkpt>
      <trkpt lat="49.09058" lon="2.09964">
        <ele>150.5</ele>
        <time>2022-09-25T11:55:52Z</time>
      </trkpt>
      <trkpt lat="49.09049" lon="2.09973">
        <ele>150.3</ele>
        <time>2022-09-25T11:55:58Z</time>
      </trkpt>
      <trkpt lat="49.09042" lon="2.0998">
        <ele>150.2</ele>
        <time>2022-09-25T11:56:04Z</time>
      </trkpt>
      <trkpt lat="49.09036" lon="2.09986">
        <ele>150.2</ele>
        <time>2022-09-25T11:56:09Z</time>
      </trkpt>
      <trkpt lat="49.09027" lon="2.09996">
        <ele>150.3</ele>
        <time>2022-09-25T11:56:15Z</time>
      </trkpt>
      <trkpt lat="49.0902" lon="2.10004">
        <ele>150.5</ele>
        <time>2022-09-25T11:56:20Z</time>
      </trkpt>
      <trkpt lat="49.09013" lon="2.10011">
        <ele>150.7</ele>
        <time>2022-09-25T11:56:26Z</time>
      </trkpt>
      <trkpt lat="49.09007" lon="2.10015">
        <ele>150.8</ele>
        <time>2022-09-25T11:56:31Z</time>
      </trkpt>
      <trkpt lat="49.09" lon="2.10019">
        <ele>150.6</ele>
        <time>2022-09-25T11:56:37Z</time>
      </trkpt>
      <trkpt lat="49.08994" lon="2.10023">
        <ele>150.2</ele>
        <time>2022-09-25T11:56:42Z</time>
      </trkpt>
      <trkpt lat="49.08986" lon="2.10031">
        <ele>150</ele>
        <time>2022-09-25T11:56:48Z</time>
      </trkpt>
      <trkpt lat="49.08979" lon="2.10037">
        <ele>149.8</ele>
        <time>2022-09-25T11:56:53Z</time>
      </trkpt>
      <trkpt lat="49.08971" lon="2.10043">
        <ele>149.6</ele>
        <time>2022-09-25T11:56:59Z</time>
      </trkpt>
      <trkpt lat="49.08965" lon="2.10049">
        <ele>149.4</ele>
        <time>2022-09-25T11:57:04Z</time>
      </trkpt>
      <trkpt lat="49.08957" lon="2.10056">
        <ele>149.1</ele>
        <time>2022-09-25T11:57:10Z</time>
      </trkpt>
      <trkpt lat="49.0895" lon="2.10061">
        <ele>149</ele>
        <time>2022-09-25T11:57:16Z</time>
      </trkpt>
      <trkpt lat="49.08943" lon="2.10066">
        <ele>148.8</ele>
        <time>2022-09-25T11:57:21Z</time>
      </trkpt>
      <trkpt lat="49.08938" lon="2.10072">
        <ele>148.7</ele>
        <time>2022-09-25T11:57:26Z</time>
      </trkpt>
      <trkpt lat="49.08941" lon="2.1008">
        <ele>148.3</ele>
        <time>2022-09-25T11:57:32Z</time>
      </trkpt>
      <trkpt lat="49.08945" lon="2.10087">
        <ele>147.7</ele>
        <time>2022-09-25T11:57:37Z</time>
      </trkpt>
      <trkpt lat="49.08946" lon="2.10095">
        <ele>147</ele>
        <time>2022-09-25T11:57:42Z</time>
      </trkpt>
      <trkpt lat="49.08949" lon="2.10107">
        <ele>146.2</ele>
        <time>2022-09-25T11:57:48Z</time>
      </trkpt>
      <trkpt lat="49.08951" lon="2.10119">
        <ele>145.6</ele>
        <time>2022-09-25T11:57:54Z</time>
      </trkpt>
      <trkpt lat="49.08954" lon="2.1013">
        <ele>144.6</ele>
        <time>2022-09-25T11:58:00Z</time>
      </trkpt>
      <trkpt lat="49.08957" lon="2.10141">
        <ele>143.7</ele>
        <time>2022-09-25T11:58:06Z</time>
      </trkpt>
      <trkpt lat="49.08958" lon="2.1015">
        <ele>142.7</ele>
        <time>2022-09-25T11:58:12Z</time>
      </trkpt>
      <trkpt lat="49.08959" lon="2.10158">
        <ele>142</ele>
        <time>2022-09-25T11:58:17Z</time>
      </trkpt>
      <trkpt lat="49.08962" lon="2.10168">
        <ele>141.3</ele>
        <time>2022-09-25T11:58:22Z</time>
      </trkpt>
      <trkpt lat="49.08968" lon="2.1018">
        <ele>140.5</ele>
        <time>2022-09-25T11:58:28Z</time>
      </trkpt>
      <trkpt lat="49.08973" lon="2.10193">
        <ele>139.9</ele>
        <time>2022-09-25T11:58:34Z</time>
      </trkpt>
      <trkpt lat="49.08975" lon="2.10205">
        <ele>139.5</ele>
        <time>2022-09-25T11:58:40Z</time>
      </trkpt>
      <trkpt lat="49.0898" lon="2.10216">
        <ele>139.5</ele>
        <time>2022-09-25T11:58:45Z</time>
      </trkpt>
      <trkpt lat="49.08981" lon="2.10227">
        <ele>139.5</ele>
        <time>2022-09-25T11:58:51Z</time>
      </trkpt>
      <trkpt lat="49.08983" lon="2.10235">
        <ele>139.6</ele>
        <time>2022-09-25T11:58:56Z</time>
      </trkpt>
      <trkpt lat="49.08988" lon="2.10246">
        <ele>139.6</ele>
        <time>2022-09-25T11:59:02Z</time>
      </trkpt>
      <trkpt lat="49.08991" lon="2.10256">
        <ele>139.6</ele>
        <time>2022-09-25T11:59:07Z</time>
      </trkpt>
      <trkpt lat="49.08995" lon="2.10271">
        <ele>139.6</ele>
        <time>2022-09-25T11:59:13Z</time>
      </trkpt>
      <trkpt lat="49.08997" lon="2.10283">
        <ele>139.7</ele>
        <time>2022-09-25T11:59:18Z</time>
      </trkpt>
      <trkpt lat="49.09001" lon="2.10295">
        <ele>139.9</ele>
        <time>2022-09-25T11:59:24Z</time>
      </trkpt>
      <trkpt lat="49.09006" lon="2.10308">
        <ele>140.1</ele>
        <time>2022-09-25T11:59:30Z</time>
      </trkpt>
      <trkpt lat="49.09008" lon="2.10317">
        <ele>140.3</ele>
        <time>2022-09-25T11:59:35Z</time>
      </trkpt>
      <trkpt lat="49.09011" lon="2.10329">
        <ele>140.2</ele>
        <time>2022-09-25T11:59:41Z</time>
      </trkpt>
      <trkpt lat="49.09013" lon="2.10339">
        <ele>140.1</ele>
        <time>2022-09-25T11:59:46Z</time>
      </trkpt>
      <trkpt lat="49.09015" lon="2.10351">
        <ele>140</ele>
        <time>2022-09-25T11:59:52Z</time>
      </trkpt>
      <trkpt lat="49.09018" lon="2.10364">
        <ele>140</ele>
        <time>2022-09-25T11:59:58Z</time>
      </trkpt>
      <trkpt lat="49.09021" lon="2.10376">
        <ele>140</ele>
        <time>2022-09-25T12:00:04Z</time>
      </trkpt>
      <trkpt lat="49.09023" lon="2.10387">
        <ele>140</ele>
        <time>2022-09-25T12:00:11Z</time>
      </trkpt>
      <trkpt lat="49.09027" lon="2.10398">
        <ele>140</ele>
        <time>2022-09-25T12:00:16Z</time>
      </trkpt>
      <trkpt lat="49.0903" lon="2.10409">
        <ele>140</ele>
        <time>2022-09-25T12:00:21Z</time>
      </trkpt>
      <trkpt lat="49.09032" lon="2.10421">
        <ele>140.2</ele>
        <time>2022-09-25T12:00:27Z</time>
      </trkpt>
      <trkpt lat="49.09034" lon="2.10431">
        <ele>140.4</ele>
        <time>2022-09-25T12:00:32Z</time>
      </trkpt>
      <trkpt lat="49.09038" lon="2.10443">
        <ele>140.5</ele>
        <time>2022-09-25T12:00:38Z</time>
      </trkpt>
      <trkpt lat="49.09041" lon="2.10454">
        <ele>140.7</ele>
        <time>2022-09-25T12:00:43Z</time>
      </trkpt>
      <trkpt lat="49.09044" lon="2.10468">
        <ele>140.9</ele>
        <time>2022-09-25T12:00:49Z</time>
      </trkpt>
      <trkpt lat="49.09048" lon="2.10478">
        <ele>141</ele>
        <time>2022-09-25T12:00:54Z</time>
      </trkpt>
      <trkpt lat="49.09051" lon="2.1049">
        <ele>140.9</ele>
        <time>2022-09-25T12:01:00Z</time>
      </trkpt>
      <trkpt lat="49.09053" lon="2.10501">
        <ele>140.6</ele>
        <time>2022-09-25T12:01:05Z</time>
      </trkpt>
      <trkpt lat="49.09057" lon="2.10511">
        <ele>140.3</ele>
        <time>2022-09-25T12:01:10Z</time>
      </trkpt>
      <trkpt lat="49.0906" lon="2.10523">
        <ele>140.2</ele>
        <time>2022-09-25T12:01:15Z</time>
      </trkpt>
      <trkpt lat="49.09063" lon="2.10532">
        <ele>140</ele>
        <time>2022-09-25T12:01:20Z</time>
      </trkpt>
      <trkpt lat="49.09065" lon="2.10544">
        <ele>140</ele>
        <time>2022-09-25T12:01:26Z</time>
      </trkpt>
      <trkpt lat="49.09067" lon="2.10554">
        <ele>140.1</ele>
        <time>2022-09-25T12:01:31Z</time>
      </trkpt>
      <trkpt lat="49.09072" lon="2.10567">
        <ele>140.3</ele>
        <time>2022-09-25T12:01:37Z</time>
      </trkpt>
      <trkpt lat="49.09075" lon="2.10578">
        <ele>140.4</ele>
        <time>2022-09-25T12:01:42Z</time>
      </trkpt>
      <trkpt lat="49.09077" lon="2.10589">
        <ele>140.4</ele>
        <time>2022-09-25T12:01:47Z</time>
      </trkpt>
      <trkpt lat="49.0908" lon="2.10599">
        <ele>140.5</ele>
        <time>2022-09-25T12:01:52Z</time>
      </trkpt>
      <trkpt lat="49.09082" lon="2.10612">
        <ele>140.7</ele>
        <time>2022-09-25T12:01:58Z</time>
      </trkpt>
      <trkpt lat="49.09086" lon="2.10626">
        <ele>140.8</ele>
        <time>2022-09-25T12:02:04Z</time>
      </trkpt>
      <trkpt lat="49.09089" lon="2.10636">
        <ele>140.9</ele>
        <time>2022-09-25T12:02:09Z</time>
      </trkpt>
      <trkpt lat="49.0909" lon="2.10648">
        <ele>141.1</ele>
        <time>2022-09-25T12:02:15Z</time>
      </trkpt>
      <trkpt lat="49.09092" lon="2.10659">
        <ele>141.1</ele>
        <time>2022-09-25T12:02:20Z</time>
      </trkpt>
      <trkpt lat="49.09095" lon="2.10672">
        <ele>141</ele>
        <time>2022-09-25T12:02:26Z</time>
      </trkpt>
      <trkpt lat="49.09098" lon="2.10684">
        <ele>141</ele>
        <time>2022-09-25T12:02:31Z</time>
      </trkpt>
      <trkpt lat="49.09101" lon="2.10697">
        <ele>141</ele>
        <time>2022-09-25T12:02:37Z</time>
      </trkpt>
      <trkpt lat="49.09105" lon="2.10707">
        <ele>141.1</ele>
        <time>2022-09-25T12:02:42Z</time>
      </trkpt>
      <trkpt lat="49.09108" lon="2.10719">
        <ele>141</ele>
        <time>2022-09-25T12:02:48Z</time>
      </trkpt>
      <trkpt lat="49.09111" lon="2.10729">
        <ele>140.7</ele>
        <time>2022-09-25T12:02:53Z</time>
      </trkpt>
      <trkpt lat="49.09113" lon="2.10741">
        <ele>140.3</ele>
        <time>2022-09-25T12:02:59Z</time>
      </trkpt>
      <trkpt lat="49.09116" lon="2.10752">
        <ele>140</ele>
        <time>2022-09-25T12:03:04Z</time>
      </trkpt>
      <trkpt lat="49.09119" lon="2.10762">
        <ele>139.5</ele>
        <time>2022-09-25T12:03:09Z</time>
      </trkpt>
      <trkpt lat="49.09124" lon="2.10774">
        <ele>139.2</ele>
        <time>2022-09-25T12:03:15Z</time>
      </trkpt>
      <trkpt lat="49.09128" lon="2.10787">
        <ele>139.1</ele>
        <time>2022-09-25T12:03:21Z</time>
      </trkpt>
      <trkpt lat="49.09132" lon="2.10798">
        <ele>138.9</ele>
        <time>2022-09-25T12:03:27Z</time>
      </trkpt>
      <trkpt lat="49.09135" lon="2.10811">
        <ele>138.8</ele>
        <time>2022-09-25T12:03:33Z</time>
      </trkpt>
      <trkpt lat="49.09138" lon="2.10825">
        <ele>138.5</ele>
        <time>2022-09-25T12:03:39Z</time>
      </trkpt>
      <trkpt lat="49.09141" lon="2.10835">
        <ele>137.9</ele>
        <time>2022-09-25T12:03:44Z</time>
      </trkpt>
      <trkpt lat="49.09142" lon="2.10844">
        <ele>137.1</ele>
        <time>2022-09-25T12:03:49Z</time>
      </trkpt>
      <trkpt lat="49.09145" lon="2.10855">
        <ele>136.4</ele>
        <time>2022-09-25T12:03:55Z</time>
      </trkpt>
      <trkpt lat="49.09148" lon="2.10866">
        <ele>136.1</ele>
        <time>2022-09-25T12:04:00Z</time>
      </trkpt>
      <trkpt lat="49.09152" lon="2.10878">
        <ele>135.7</ele>
        <time>2022-09-25T12:04:06Z</time>
      </trkpt>
      <trkpt lat="49.09155" lon="2.10891">
        <ele>135.2</ele>
        <time>2022-09-25T12:04:12Z</time>
      </trkpt>
      <trkpt lat="49.09157" lon="2.10902">
        <ele>135</ele>
        <time>2022-09-25T12:04:18Z</time>
      </trkpt>
      <trkpt lat="49.0916" lon="2.10912">
        <ele>135</ele>
        <time>2022-09-25T12:04:23Z</time>
      </trkpt>
      <trkpt lat="49.09164" lon="2.10926">
        <ele>134.8</ele>
        <time>2022-09-25T12:04:29Z</time>
      </trkpt>
      <trkpt lat="49.09166" lon="2.10937">
        <ele>134.5</ele>
        <time>2022-09-25T12:04:35Z</time>
      </trkpt>
      <trkpt lat="49.09169" lon="2.10949">
        <ele>134.2</ele>
        <time>2022-09-25T12:04:41Z</time>
      </trkpt>
      <trkpt lat="49.09172" lon="2.1096">
        <ele>133.8</ele>
        <time>2022-09-25T12:04:46Z</time>
      </trkpt>
      <trkpt lat="49.09175" lon="2.10973">
        <ele>133.3</ele>
        <time>2022-09-25T12:04:52Z</time>
      </trkpt>
      <trkpt lat="49.09181" lon="2.10985">
        <ele>133</ele>
        <time>2022-09-25T12:04:57Z</time>
      </trkpt>
      <trkpt lat="49.09184" lon="2.10996">
        <ele>132.8</ele>
        <time>2022-09-25T12:05:02Z</time>
      </trkpt>
      <trkpt lat="49.09187" lon="2.11005">
        <ele>132.7</ele>
        <time>2022-09-25T12:05:07Z</time>
      </trkpt>
      <trkpt lat="49.09189" lon="2.11014">
        <ele>132.6</ele>
        <time>2022-09-25T12:05:12Z</time>
      </trkpt>
      <trkpt lat="49.0919" lon="2.11024">
        <ele>132.4</ele>
        <time>2022-09-25T12:05:18Z</time>
      </trkpt>
      <trkpt lat="49.09192" lon="2.1104">
        <ele>132.1</ele>
        <time>2022-09-25T12:05:24Z</time>
      </trkpt>
      <trkpt lat="49.09196" lon="2.11051">
        <ele>131.9</ele>
        <time>2022-09-25T12:05:29Z</time>
      </trkpt>
      <trkpt lat="49.09201" lon="2.11062">
        <ele>131.7</ele>
        <time>2022-09-25T12:05:35Z</time>
      </trkpt>
      <trkpt lat="49.09205" lon="2.11074">
        <ele>131.7</ele>
        <time>2022-09-25T12:05:41Z</time>
      </trkpt>
      <trkpt lat="49.09207" lon="2.11084">
        <ele>131.5</ele>
        <time>2022-09-25T12:05:46Z</time>
      </trkpt>
      <trkpt lat="49.09209" lon="2.11097">
        <ele>131.5</ele>
        <time>2022-09-25T12:05:52Z</time>
      </trkpt>
      <trkpt lat="49.09211" lon="2.11107">
        <ele>131.6</ele>
        <time>2022-09-25T12:05:57Z</time>
      </trkpt>
      <trkpt lat="49.09214" lon="2.1112">
        <ele>132.1</ele>
        <time>2022-09-25T12:06:03Z</time>
      </trkpt>
      <trkpt lat="49.09217" lon="2.11129">
        <ele>132.6</ele>
        <time>2022-09-25T12:06:08Z</time>
      </trkpt>
      <trkpt lat="49.09222" lon="2.11139">
        <ele>133</ele>
        <time>2022-09-25T12:06:13Z</time>
      </trkpt>
      <trkpt lat="49.09225" lon="2.11151">
        <ele>133.5</ele>
        <time>2022-09-25T12:06:19Z</time>
      </trkpt>
      <trkpt lat="49.09228" lon="2.11161">
        <ele>133.9</ele>
        <time>2022-09-25T12:06:24Z</time>
      </trkpt>
      <trkpt lat="49.0923" lon="2.11175">
        <ele>134.2</ele>
        <time>2022-09-25T12:06:30Z</time>
      </trkpt>
      <trkpt lat="49.09232" lon="2.11186">
        <ele>134.6</ele>
        <time>2022-09-25T12:06:35Z</time>
      </trkpt>
      <trkpt lat="49.09236" lon="2.11198">
        <ele>135.1</ele>
        <time>2022-09-25T12:06:41Z</time>
      </trkpt>
      <trkpt lat="49.09239" lon="2.11208">
        <ele>135.7</ele>
        <time>2022-09-25T12:06:46Z</time>
      </trkpt>
      <trkpt lat="49.09241" lon="2.11219">
        <ele>136.3</ele>
        <time>2022-09-25T12:06:52Z</time>
      </trkpt>
      <trkpt lat="49.09243" lon="2.11231">
        <ele>136.7</ele>
        <time>2022-09-25T12:06:58Z</time>
      </trkpt>
      <trkpt lat="49.09247" lon="2.11244">
        <ele>137</ele>
        <time>2022-09-25T12:07:04Z</time>
      </trkpt>
      <trkpt lat="49.09252" lon="2.11256">
        <ele>137.3</ele>
        <time>2022-09-25T12:07:10Z</time>
      </trkpt>
      <trkpt lat="49.09254" lon="2.11265">
        <ele>137.6</ele>
        <time>2022-09-25T12:07:15Z</time>
      </trkpt>
      <trkpt lat="49.09257" lon="2.11275">
        <ele>137.7</ele>
        <time>2022-09-25T12:07:20Z</time>
      </trkpt>
      <trkpt lat="49.09259" lon="2.11286">
        <ele>137.9</ele>
        <time>2022-09-25T12:07:26Z</time>
      </trkpt>
      <trkpt lat="49.0926" lon="2.11296">
        <ele>137.9</ele>
        <time>2022-09-25T12:07:31Z</time>
      </trkpt>
      <trkpt lat="49.09257" lon="2.11306">
        <ele>138</ele>
        <time>2022-09-25T12:07:36Z</time>
      </trkpt>
      <trkpt lat="49.09251" lon="2.11319">
        <ele>138.3</ele>
        <time>2022-09-25T12:07:42Z</time>
      </trkpt>
      <trkpt lat="49.09246" lon="2.11328">
        <ele>138.8</ele>
        <time>2022-09-25T12:07:47Z</time>
      </trkpt>
      <trkpt lat="49.09242" lon="2.11339">
        <ele>139.5</ele>
        <time>2022-09-25T12:07:53Z</time>
      </trkpt>
      <trkpt lat="49.09236" lon="2.11352">
        <ele>140.3</ele>
        <time>2022-09-25T12:07:59Z</time>
      </trkpt>
      <trkpt lat="49.09231" lon="2.11367">
        <ele>141</ele>
        <time>2022-09-25T12:08:05Z</time>
      </trkpt>
      <trkpt lat="49.09226" lon="2.11377">
        <ele>141.6</ele>
        <time>2022-09-25T12:08:11Z</time>
      </trkpt>
      <trkpt lat="49.09223" lon="2.11386">
        <ele>142.1</ele>
        <time>2022-09-25T12:08:16Z</time>
      </trkpt>
      <trkpt lat="49.0922" lon="2.11394">
        <ele>142.3</ele>
        <time>2022-09-25T12:08:21Z</time>
      </trkpt>
      <trkpt lat="49.09216" lon="2.11406">
        <ele>142.7</ele>
        <time>2022-09-25T12:08:27Z</time>
      </trkpt>
      <trkpt lat="49.09211" lon="2.11415">
        <ele>143.5</ele>
        <time>2022-09-25T12:08:33Z</time>
      </trkpt>
      <trkpt lat="49.0921" lon="2.11423">
        <ele>143.7</ele>
        <time>2022-09-25T12:08:39Z</time>
      </trkpt>
      <trkpt lat="49.09209" lon="2.11428">
        <ele>143.6</ele>
        <time>2022-09-25T12:08:45Z</time>
      </trkpt>
      <trkpt lat="49.09206" lon="2.11435">
        <ele>143.2</ele>
        <time>2022-09-25T12:08:50Z</time>
      </trkpt>
      <trkpt lat="49.09203" lon="2.11443">
        <ele>142.8</ele>
        <time>2022-09-25T12:08:55Z</time>
      </trkpt>
      <trkpt lat="49.09199" lon="2.11452">
        <ele>142.6</ele>
        <time>2022-09-25T12:09:00Z</time>
      </trkpt>
      <trkpt lat="49.09196" lon="2.11463">
        <ele>142.6</ele>
        <time>2022-09-25T12:09:05Z</time>
      </trkpt>
      <trkpt lat="49.09191" lon="2.11476">
        <ele>142.6</ele>
        <time>2022-09-25T12:09:11Z</time>
      </trkpt>
      <trkpt lat="49.09187" lon="2.11487">
        <ele>142.7</ele>
        <time>2022-09-25T12:09:17Z</time>
      </trkpt>
      <trkpt lat="49.09182" lon="2.11498">
        <ele>143</ele>
        <time>2022-09-25T12:09:23Z</time>
      </trkpt>
      <trkpt lat="49.09177" lon="2.11508">
        <ele>143.4</ele>
        <time>2022-09-25T12:09:28Z</time>
      </trkpt>
      <trkpt lat="49.09172" lon="2.1152">
        <ele>144</ele>
        <time>2022-09-25T12:09:34Z</time>
      </trkpt>
      <trkpt lat="49.09168" lon="2.11531">
        <ele>144.6</ele>
        <time>2022-09-25T12:09:39Z</time>
      </trkpt>
      <trkpt lat="49.09164" lon="2.11543">
        <ele>145.1</ele>
        <time>2022-09-25T12:09:45Z</time>
      </trkpt>
      <trkpt lat="49.09161" lon="2.11552">
        <ele>145.3</ele>
        <time>2022-09-25T12:09:50Z</time>
      </trkpt>
      <trkpt lat="49.09157" lon="2.11563">
        <ele>145.5</ele>
        <time>2022-09-25T12:09:56Z</time>
      </trkpt>
      <trkpt lat="49.09153" lon="2.11574">
        <ele>145.3</ele>
        <time>2022-09-25T12:10:02Z</time>
      </trkpt>
      <trkpt lat="49.09149" lon="2.11585">
        <ele>145.2</ele>
        <time>2022-09-25T12:10:07Z</time>
      </trkpt>
      <trkpt lat="49.09147" lon="2.11596">
        <ele>145.1</ele>
        <time>2022-09-25T12:10:12Z</time>
      </trkpt>
      <trkpt lat="49.09142" lon="2.11609">
        <ele>145.1</ele>
        <time>2022-09-25T12:10:18Z</time>
      </trkpt>
      <trkpt lat="49.09138" lon="2.11619">
        <ele>145</ele>
        <time>2022-09-25T12:10:24Z</time>
      </trkpt>
      <trkpt lat="49.09133" lon="2.11631">
        <ele>145</ele>
        <time>2022-09-25T12:10:30Z</time>
      </trkpt>
      <trkpt lat="49.09128" lon="2.11641">
        <ele>145.1</ele>
        <time>2022-09-25T12:10:35Z</time>
      </trkpt>
      <trkpt lat="49.09124" lon="2.11652">
        <ele>145.2</ele>
        <time>2022-09-25T12:10:40Z</time>
      </trkpt>
      <trkpt lat="49.09119" lon="2.11665">
        <ele>145.6</ele>
        <time>2022-09-25T12:10:46Z</time>
      </trkpt>
      <trkpt lat="49.09116" lon="2.11678">
        <ele>145.9</ele>
        <time>2022-09-25T12:10:52Z</time>
      </trkpt>
      <trkpt lat="49.09113" lon="2.11687">
        <ele>146.2</ele>
        <time>2022-09-25T12:10:57Z</time>
      </trkpt>
      <trkpt lat="49.09109" lon="2.11695">
        <ele>146.4</ele>
        <time>2022-09-25T12:11:02Z</time>
      </trkpt>
      <trkpt lat="49.09104" lon="2.11705">
        <ele>146.7</ele>
        <time>2022-09-25T12:11:08Z</time>
      </trkpt>
      <trkpt lat="49.09099" lon="2.11715">
        <ele>146.8</ele>
        <time>2022-09-25T12:11:14Z</time>
      </trkpt>
      <trkpt lat="49.09095" lon="2.11725">
        <ele>147.2</ele>
        <time>2022-09-25T12:11:20Z</time>
      </trkpt>
      <trkpt lat="49.0909" lon="2.11734">
        <ele>147.4</ele>
        <time>2022-09-25T12:11:25Z</time>
      </trkpt>
      <trkpt lat="49.09085" lon="2.11747">
        <ele>147.6</ele>
        <time>2022-09-25T12:11:31Z</time>
      </trkpt>
      <trkpt lat="49.09082" lon="2.11757">
        <ele>147.7</ele>
        <time>2022-09-25T12:11:36Z</time>
      </trkpt>
      <trkpt lat="49.09081" lon="2.11759">
        <ele>147.8</ele>
        <time>2022-09-25T12:11:42Z</time>
      </trkpt>
      <trkpt lat="49.09079" lon="2.11764">
        <ele>147.8</ele>
        <time>2022-09-25T12:11:47Z</time>
      </trkpt>
      <trkpt lat="49.09074" lon="2.11777">
        <ele>147.8</ele>
        <time>2022-09-25T12:11:53Z</time>
      </trkpt>
      <trkpt lat="49.0907" lon="2.11786">
        <ele>148</ele>
        <time>2022-09-25T12:11:58Z</time>
      </trkpt>
      <trkpt lat="49.09065" lon="2.11796">
        <ele>148.3</ele>
        <time>2022-09-25T12:12:03Z</time>
      </trkpt>
      <trkpt lat="49.09058" lon="2.1181">
        <ele>148.6</ele>
        <time>2022-09-25T12:12:09Z</time>
      </trkpt>
      <trkpt lat="49.09054" lon="2.11821">
        <ele>148.9</ele>
        <time>2022-09-25T12:12:14Z</time>
      </trkpt>
      <trkpt lat="49.0905" lon="2.1183">
        <ele>149.2</ele>
        <time>2022-09-25T12:12:19Z</time>
      </trkpt>
      <trkpt lat="49.09046" lon="2.11839">
        <ele>149.3</ele>
        <time>2022-09-25T12:12:25Z</time>
      </trkpt>
      <trkpt lat="49.09041" lon="2.11849">
        <ele>149.2</ele>
        <time>2022-09-25T12:12:30Z</time>
      </trkpt>
      <trkpt lat="49.09037" lon="2.11861">
        <ele>149</ele>
        <time>2022-09-25T12:12:36Z</time>
      </trkpt>
      <trkpt lat="49.09033" lon="2.1187">
        <ele>148.8</ele>
        <time>2022-09-25T12:12:41Z</time>
      </trkpt>
      <trkpt lat="49.09029" lon="2.11879">
        <ele>148.6</ele>
        <time>2022-09-25T12:12:47Z</time>
      </trkpt>
      <trkpt lat="49.09024" lon="2.11892">
        <ele>148.5</ele>
        <time>2022-09-25T12:12:53Z</time>
      </trkpt>
      <trkpt lat="49.09018" lon="2.11902">
        <ele>148.5</ele>
        <time>2022-09-25T12:12:59Z</time>
      </trkpt>
      <trkpt lat="49.09013" lon="2.11913">
        <ele>148.4</ele>
        <time>2022-09-25T12:13:04Z</time>
      </trkpt>
      <trkpt lat="49.09008" lon="2.11925">
        <ele>148.1</ele>
        <time>2022-09-25T12:13:10Z</time>
      </trkpt>
      <trkpt lat="49.09004" lon="2.11939">
        <ele>147.8</ele>
        <time>2022-09-25T12:13:16Z</time>
      </trkpt>
      <trkpt lat="49.08999" lon="2.11948">
        <ele>147.3</ele>
        <time>2022-09-25T12:13:22Z</time>
      </trkpt>
      <trkpt lat="49.08995" lon="2.11957">
        <ele>146.9</ele>
        <time>2022-09-25T12:13:27Z</time>
      </trkpt>
      <trkpt lat="49.0899" lon="2.11968">
        <ele>146.3</ele>
        <time>2022-09-25T12:13:33Z</time>
      </trkpt>
      <trkpt lat="49.08985" lon="2.11979">
        <ele>146</ele>
        <time>2022-09-25T12:13:39Z</time>
      </trkpt>
      <trkpt lat="49.08981" lon="2.11988">
        <ele>145.9</ele>
        <time>2022-09-25T12:13:44Z</time>
      </trkpt>
      <trkpt lat="49.08977" lon="2.11995">
        <ele>145.9</ele>
        <time>2022-09-25T12:13:49Z</time>
      </trkpt>
      <trkpt lat="49.08972" lon="2.12005">
        <ele>145.9</ele>
        <time>2022-09-25T12:13:55Z</time>
      </trkpt>
      <trkpt lat="49.08968" lon="2.12018">
        <ele>146</ele>
        <time>2022-09-25T12:14:01Z</time>
      </trkpt>
      <trkpt lat="49.08964" lon="2.12028">
        <ele>146.1</ele>
        <time>2022-09-25T12:14:06Z</time>
      </trkpt>
      <trkpt lat="49.0896" lon="2.12037">
        <ele>146.4</ele>
        <time>2022-09-25T12:14:11Z</time>
      </trkpt>
      <trkpt lat="49.08955" lon="2.12047">
        <ele>146.8</ele>
        <time>2022-09-25T12:14:16Z</time>
      </trkpt>
      <trkpt lat="49.0895" lon="2.12059">
        <ele>147.4</ele>
        <time>2022-09-25T12:14:22Z</time>
      </trkpt>
      <trkpt lat="49.08944" lon="2.1207">
        <ele>147.9</ele>
        <time>2022-09-25T12:14:27Z</time>
      </trkpt>
      <trkpt lat="49.08939" lon="2.1208">
        <ele>148.5</ele>
        <time>2022-09-25T12:14:33Z</time>
      </trkpt>
      <trkpt lat="49.08935" lon="2.12087">
        <ele>149</ele>
        <time>2022-09-25T12:14:38Z</time>
      </trkpt>
      <trkpt lat="49.08931" lon="2.12098">
        <ele>149.1</ele>
        <time>2022-09-25T12:14:44Z</time>
      </trkpt>
      <trkpt lat="49.08927" lon="2.12106">
        <ele>149.1</ele>
        <time>2022-09-25T12:14:49Z</time>
      </trkpt>
      <trkpt lat="49.08922" lon="2.12119">
        <ele>148.7</ele>
        <time>2022-09-25T12:14:55Z</time>
      </trkpt>
      <trkpt lat="49.08918" lon="2.1213">
        <ele>148.1</ele>
        <time>2022-09-25T12:15:01Z</time>
      </trkpt>
      <trkpt lat="49.08915" lon="2.12137">
        <ele>147.5</ele>
        <time>2022-09-25T12:15:06Z</time>
      </trkpt>
      <trkpt lat="49.08911" lon="2.12146">
        <ele>146.8</ele>
        <time>2022-09-25T12:15:11Z</time>
      </trkpt>
      <trkpt lat="49.08905" lon="2.12156">
        <ele>146.4</ele>
        <time>2022-09-25T12:15:16Z</time>
      </trkpt>
      <trkpt lat="49.08901" lon="2.12167">
        <ele>146</ele>
        <time>2022-09-25T12:15:22Z</time>
      </trkpt>
      <trkpt lat="49.08895" lon="2.12173">
        <ele>145.8</ele>
        <time>2022-09-25T12:15:28Z</time>
      </trkpt>
      <trkpt lat="49.08889" lon="2.12169">
        <ele>145.5</ele>
        <time>2022-09-25T12:15:33Z</time>
      </trkpt>
      <trkpt lat="49.08882" lon="2.12161">
        <ele>145.1</ele>
        <time>2022-09-25T12:15:39Z</time>
      </trkpt>
      <trkpt lat="49.08876" lon="2.12154">
        <ele>144.9</ele>
        <time>2022-09-25T12:15:44Z</time>
      </trkpt>
      <trkpt lat="49.0887" lon="2.12146">
        <ele>144.7</ele>
        <time>2022-09-25T12:15:50Z</time>
      </trkpt>
      <trkpt lat="49.08862" lon="2.12139">
        <ele>144.6</ele>
        <time>2022-09-25T12:15:56Z</time>
      </trkpt>
      <trkpt lat="49.08855" lon="2.12132">
        <ele>144.4</ele>
        <time>2022-09-25T12:16:02Z</time>
      </trkpt>
      <trkpt lat="49.08849" lon="2.12126">
        <ele>144.1</ele>
        <time>2022-09-25T12:16:07Z</time>
      </trkpt>
      <trkpt lat="49.08843" lon="2.12119">
        <ele>143.9</ele>
        <time>2022-09-25T12:16:12Z</time>
      </trkpt>
      <trkpt lat="49.08837" lon="2.12113">
        <ele>143.5</ele>
        <time>2022-09-25T12:16:17Z</time>
      </trkpt>
      <trkpt lat="49.0883" lon="2.12104">
        <ele>143.1</ele>
        <time>2022-09-25T12:16:23Z</time>
      </trkpt>
      <trkpt lat="49.08823" lon="2.12096">
        <ele>142.7</ele>
        <time>2022-09-25T12:16:29Z</time>
      </trkpt>
      <trkpt lat="49.08817" lon="2.12091">
        <ele>142.5</ele>
        <time>2022-09-25T12:16:34Z</time>
      </trkpt>
      <trkpt lat="49.08809" lon="2.12083">
        <ele>142.3</ele>
        <time>2022-09-25T12:16:40Z</time>
      </trkpt>
      <trkpt lat="49.08803" lon="2.12076">
        <ele>142</ele>
        <time>2022-09-25T12:16:45Z</time>
      </trkpt>
      <trkpt lat="49.08796" lon="2.12068">
        <ele>141.7</ele>
        <time>2022-09-25T12:16:51Z</time>
      </trkpt>
      <trkpt lat="49.08788" lon="2.12062">
        <ele>141.5</ele>
        <time>2022-09-25T12:16:57Z</time>
      </trkpt>
      <trkpt lat="49.08782" lon="2.12053">
        <ele>141.3</ele>
        <time>2022-09-25T12:17:02Z</time>
      </trkpt>
      <trkpt lat="49.08775" lon="2.12045">
        <ele>141.1</ele>
        <time>2022-09-25T12:17:08Z</time>
      </trkpt>
      <trkpt lat="49.08768" lon="2.12037">
        <ele>140.8</ele>
        <time>2022-09-25T12:17:14Z</time>
      </trkpt>
      <trkpt lat="49.08759" lon="2.12028">
        <ele>140.5</ele>
        <time>2022-09-25T12:17:20Z</time>
      </trkpt>
      <trkpt lat="49.08753" lon="2.12023">
        <ele>140.4</ele>
        <time>2022-09-25T12:17:25Z</time>
      </trkpt>
      <trkpt lat="49.08748" lon="2.12019">
        <ele>140.1</ele>
        <time>2022-09-25T12:17:30Z</time>
      </trkpt>
      <trkpt lat="49.0874" lon="2.1201">
        <ele>139.9</ele>
        <time>2022-09-25T12:17:36Z</time>
      </trkpt>
      <trkpt lat="49.08734" lon="2.12002">
        <ele>139.7</ele>
        <time>2022-09-25T12:17:41Z</time>
      </trkpt>
      <trkpt lat="49.08727" lon="2.11992">
        <ele>139.5</ele>
        <time>2022-09-25T12:17:47Z</time>
      </trkpt>
      <trkpt lat="49.08721" lon="2.11982">
        <ele>139.3</ele>
        <time>2022-09-25T12:17:53Z</time>
      </trkpt>
      <trkpt lat="49.08716" lon="2.11973">
        <ele>139.3</ele>
        <time>2022-09-25T12:17:58Z</time>
      </trkpt>
      <trkpt lat="49.08712" lon="2.11963">
        <ele>139.4</ele>
        <time>2022-09-25T12:18:04Z</time>
      </trkpt>
      <trkpt lat="49.08707" lon="2.11953">
        <ele>139.5</ele>
        <time>2022-09-25T12:18:09Z</time>
      </trkpt>
      <trkpt lat="49.08701" lon="2.11942">
        <ele>139.4</ele>
        <time>2022-09-25T12:18:14Z</time>
      </trkpt>
      <trkpt lat="49.08697" lon="2.11934">
        <ele>139.3</ele>
        <time>2022-09-25T12:18:19Z</time>
      </trkpt>
      <trkpt lat="49.08694" lon="2.11926">
        <ele>139.2</ele>
        <time>2022-09-25T12:18:24Z</time>
      </trkpt>
      <trkpt lat="49.08689" lon="2.11915">
        <ele>139</ele>
        <time>2022-09-25T12:18:30Z</time>
      </trkpt>
      <trkpt lat="49.08684" lon="2.11903">
        <ele>138.8</ele>
        <time>2022-09-25T12:18:36Z</time>
      </trkpt>
      <trkpt lat="49.08681" lon="2.11894">
        <ele>138.6</ele>
        <time>2022-09-25T12:18:41Z</time>
      </trkpt>
      <trkpt lat="49.08676" lon="2.11883">
        <ele>138.3</ele>
        <time>2022-09-25T12:18:47Z</time>
      </trkpt>
      <trkpt lat="49.08671" lon="2.11874">
        <ele>138.1</ele>
        <time>2022-09-25T12:18:52Z</time>
      </trkpt>
      <trkpt lat="49.08666" lon="2.11863">
        <ele>137.9</ele>
        <time>2022-09-25T12:18:58Z</time>
      </trkpt>
      <trkpt lat="49.08661" lon="2.11852">
        <ele>137.7</ele>
        <time>2022-09-25T12:19:04Z</time>
      </trkpt>
      <trkpt lat="49.08657" lon="2.11843">
        <ele>137.7</ele>
        <time>2022-09-25T12:19:09Z</time>
      </trkpt>
      <trkpt lat="49.08651" lon="2.11832">
        <ele>137.7</ele>
        <time>2022-09-25T12:19:15Z</time>
      </trkpt>
      <trkpt lat="49.08645" lon="2.11821">
        <ele>137.6</ele>
        <time>2022-09-25T12:19:21Z</time>
      </trkpt>
      <trkpt lat="49.0864" lon="2.11812">
        <ele>137.7</ele>
        <time>2022-09-25T12:19:26Z</time>
      </trkpt>
      <trkpt lat="49.08635" lon="2.11803">
        <ele>137.8</ele>
        <time>2022-09-25T12:19:32Z</time>
      </trkpt>
      <trkpt lat="49.0863" lon="2.11796">
        <ele>137.9</ele>
        <time>2022-09-25T12:19:37Z</time>
      </trkpt>
      <trkpt lat="49.08626" lon="2.11787">
        <ele>138</ele>
        <time>2022-09-25T12:19:42Z</time>
      </trkpt>
      <trkpt lat="49.08619" lon="2.11778">
        <ele>137.9</ele>
        <time>2022-09-25T12:19:48Z</time>
      </trkpt>
      <trkpt lat="49.08611" lon="2.11768">
        <ele>137.8</ele>
        <time>2022-09-25T12:19:54Z</time>
      </trkpt>
      <trkpt lat="49.08605" lon="2.11756">
        <ele>137.9</ele>
        <time>2022-09-25T12:20:00Z</time>
      </trkpt>
      <trkpt lat="49.08598" lon="2.11747">
        <ele>138</ele>
        <time>2022-09-25T12:20:06Z</time>
      </trkpt>
      <trkpt lat="49.08591" lon="2.11736">
        <ele>138.1</ele>
        <time>2022-09-25T12:20:12Z</time>
      </trkpt>
      <trkpt lat="49.08585" lon="2.11727">
        <ele>138.3</ele>
        <time>2022-09-25T12:20:18Z</time>
      </trkpt>
      <trkpt lat="49.08579" lon="2.11716">
        <ele>138.5</ele>
        <time>2022-09-25T12:20:24Z</time>
      </trkpt>
      <trkpt lat="49.08572" lon="2.11707">
        <ele>138.8</ele>
        <time>2022-09-25T12:20:30Z</time>
      </trkpt>
      <trkpt lat="49.08566" lon="2.11697">
        <ele>138.9</ele>
        <time>2022-09-25T12:20:36Z</time>
      </trkpt>
      <trkpt lat="49.08561" lon="2.1169">
        <ele>138.9</ele>
        <time>2022-09-25T12:20:41Z</time>
      </trkpt>
      <trkpt lat="49.08557" lon="2.11683">
        <ele>138.9</ele>
        <time>2022-09-25T12:20:46Z</time>
      </trkpt>
      <trkpt lat="49.08553" lon="2.11676">
        <ele>138.8</ele>
        <time>2022-09-25T12:20:51Z</time>
      </trkpt>
      <trkpt lat="49.0855" lon="2.11668">
        <ele>138.9</ele>
        <time>2022-09-25T12:20:56Z</time>
      </trkpt>
      <trkpt lat="49.08543" lon="2.11656">
        <ele>138.8</ele>
        <time>2022-09-25T12:21:02Z</time>
      </trkpt>
      <trkpt lat="49.08539" lon="2.11647">
        <ele>138.6</ele>
        <time>2022-09-25T12:21:07Z</time>
      </trkpt>
      <trkpt lat="49.08535" lon="2.11638">
        <ele>138.6</ele>
        <time>2022-09-25T12:21:12Z</time>
      </trkpt>
      <trkpt lat="49.0853" lon="2.11628">
        <ele>138.8</ele>
        <time>2022-09-25T12:21:18Z</time>
      </trkpt>
      <trkpt lat="49.08523" lon="2.11618">
        <ele>139</ele>
        <time>2022-09-25T12:21:23Z</time>
      </trkpt>
      <trkpt lat="49.08519" lon="2.1161">
        <ele>139.3</ele>
        <time>2022-09-25T12:21:28Z</time>
      </trkpt>
      <trkpt lat="49.08514" lon="2.11601">
        <ele>139.6</ele>
        <time>2022-09-25T12:21:34Z</time>
      </trkpt>
      <trkpt lat="49.08509" lon="2.11591">
        <ele>139.9</ele>
        <time>2022-09-25T12:21:40Z</time>
      </trkpt>
      <trkpt lat="49.08502" lon="2.1158">
        <ele>140</ele>
        <time>2022-09-25T12:21:46Z</time>
      </trkpt>
      <trkpt lat="49.08498" lon="2.11574">
        <ele>140.1</ele>
        <time>2022-09-25T12:21:51Z</time>
      </trkpt>
      <trkpt lat="49.08496" lon="2.11566">
        <ele>140.2</ele>
        <time>2022-09-25T12:21:57Z</time>
      </trkpt>
      <trkpt lat="49.08494" lon="2.11563">
        <ele>140.3</ele>
        <time>2022-09-25T12:22:03Z</time>
      </trkpt>
      <trkpt lat="49.0849" lon="2.11556">
        <ele>140.3</ele>
        <time>2022-09-25T12:22:08Z</time>
      </trkpt>
      <trkpt lat="49.08485" lon="2.11547">
        <ele>140.2</ele>
        <time>2022-09-25T12:22:14Z</time>
      </trkpt>
      <trkpt lat="49.08479" lon="2.11538">
        <ele>140.2</ele>
        <time>2022-09-25T12:22:19Z</time>
      </trkpt>
      <trkpt lat="49.08472" lon="2.1153">
        <ele>140.1</ele>
        <time>2022-09-25T12:22:25Z</time>
      </trkpt>
      <trkpt lat="49.08464" lon="2.11526">
        <ele>140.1</ele>
        <time>2022-09-25T12:22:31Z</time>
      </trkpt>
      <trkpt lat="49.08456" lon="2.11524">
        <ele>140.1</ele>
        <time>2022-09-25T12:22:36Z</time>
      </trkpt>
      <trkpt lat="49.08445" lon="2.1152">
        <ele>140.1</ele>
        <time>2022-09-25T12:22:42Z</time>
      </trkpt>
      <trkpt lat="49.08437" lon="2.11514">
        <ele>140.2</ele>
        <time>2022-09-25T12:22:48Z</time>
      </trkpt>
      <trkpt lat="49.08431" lon="2.1151">
        <ele>140.3</ele>
        <time>2022-09-25T12:22:53Z</time>
      </trkpt>
      <trkpt lat="49.08422" lon="2.11506">
        <ele>140.4</ele>
        <time>2022-09-25T12:22:59Z</time>
      </trkpt>
      <trkpt lat="49.08415" lon="2.11503">
        <ele>140.7</ele>
        <time>2022-09-25T12:23:05Z</time>
      </trkpt>
      <trkpt lat="49.08406" lon="2.11498">
        <ele>140.8</ele>
        <time>2022-09-25T12:23:11Z</time>
      </trkpt>
      <trkpt lat="49.08398" lon="2.11494">
        <ele>141</ele>
        <time>2022-09-25T12:23:17Z</time>
      </trkpt>
      <trkpt lat="49.0839" lon="2.11491">
        <ele>141.1</ele>
        <time>2022-09-25T12:23:22Z</time>
      </trkpt>
      <trkpt lat="49.08383" lon="2.11488">
        <ele>141.2</ele>
        <time>2022-09-25T12:23:27Z</time>
      </trkpt>
      <trkpt lat="49.08375" lon="2.11483">
        <ele>141.5</ele>
        <time>2022-09-25T12:23:33Z</time>
      </trkpt>
      <trkpt lat="49.08366" lon="2.11478">
        <ele>141.5</ele>
        <time>2022-09-25T12:23:38Z</time>
      </trkpt>
      <trkpt lat="49.08357" lon="2.11475">
        <ele>141.7</ele>
        <time>2022-09-25T12:23:44Z</time>
      </trkpt>
      <trkpt lat="49.08351" lon="2.11474">
        <ele>141.7</ele>
        <time>2022-09-25T12:23:49Z</time>
      </trkpt>
      <trkpt lat="49.08345" lon="2.1147">
        <ele>141.5</ele>
        <time>2022-09-25T12:23:54Z</time>
      </trkpt>
      <trkpt lat="49.08336" lon="2.11465">
        <ele>141.5</ele>
        <time>2022-09-25T12:24:00Z</time>
      </trkpt>
      <trkpt lat="49.08329" lon="2.11462">
        <ele>141.4</ele>
        <time>2022-09-25T12:24:05Z</time>
      </trkpt>
      <trkpt lat="49.08322" lon="2.11457">
        <ele>141.3</ele>
        <time>2022-09-25T12:24:10Z</time>
      </trkpt>
      <trkpt lat="49.08313" lon="2.11454">
        <ele>141.2</ele>
        <time>2022-09-25T12:24:16Z</time>
      </trkpt>
      <trkpt lat="49.08304" lon="2.11449">
        <ele>141.1</ele>
        <time>2022-09-25T12:24:22Z</time>
      </trkpt>
      <trkpt lat="49.08296" lon="2.11446">
        <ele>141</ele>
        <time>2022-09-25T12:24:27Z</time>
      </trkpt>
      <trkpt lat="49.08288" lon="2.1144">
        <ele>141</ele>
        <time>2022-09-25T12:24:33Z</time>
      </trkpt>
      <trkpt lat="49.08283" lon="2.11438">
        <ele>141.1</ele>
        <time>2022-09-25T12:24:38Z</time>
      </trkpt>
      <trkpt lat="49.08275" lon="2.11433">
        <ele>141.2</ele>
        <time>2022-09-25T12:24:43Z</time>
      </trkpt>
      <trkpt lat="49.08267" lon="2.11428">
        <ele>141.3</ele>
        <time>2022-09-25T12:24:49Z</time>
      </trkpt>
      <trkpt lat="49.08257" lon="2.11425">
        <ele>141.4</ele>
        <time>2022-09-25T12:24:55Z</time>
      </trkpt>
      <trkpt lat="49.08248" lon="2.11421">
        <ele>141.4</ele>
        <time>2022-09-25T12:25:01Z</time>
      </trkpt>
      <trkpt lat="49.0824" lon="2.11417">
        <ele>141.6</ele>
        <time>2022-09-25T12:25:06Z</time>
      </trkpt>
      <trkpt lat="49.08233" lon="2.11414">
        <ele>141.8</ele>
        <time>2022-09-25T12:25:11Z</time>
      </trkpt>
      <trkpt lat="49.08226" lon="2.11411">
        <ele>142.1</ele>
        <time>2022-09-25T12:25:16Z</time>
      </trkpt>
      <trkpt lat="49.08218" lon="2.11406">
        <ele>142.3</ele>
        <time>2022-09-25T12:25:22Z</time>
      </trkpt>
      <trkpt lat="49.08209" lon="2.11402">
        <ele>142.4</ele>
        <time>2022-09-25T12:25:28Z</time>
      </trkpt>
      <trkpt lat="49.08201" lon="2.11397">
        <ele>142.4</ele>
        <time>2022-09-25T12:25:34Z</time>
      </trkpt>
      <trkpt lat="49.08195" lon="2.11393">
        <ele>142.2</ele>
        <time>2022-09-25T12:25:39Z</time>
      </trkpt>
      <trkpt lat="49.08187" lon="2.11389">
        <ele>141.9</ele>
        <time>2022-09-25T12:25:45Z</time>
      </trkpt>
      <trkpt lat="49.08177" lon="2.11385">
        <ele>141.7</ele>
        <time>2022-09-25T12:25:51Z</time>
      </trkpt>
      <trkpt lat="49.08168" lon="2.11381">
        <ele>141.5</ele>
        <time>2022-09-25T12:25:57Z</time>
      </trkpt>
      <trkpt lat="49.08161" lon="2.11377">
        <ele>141.4</ele>
        <time>2022-09-25T12:26:02Z</time>
      </trkpt>
      <trkpt lat="49.08154" lon="2.11373">
        <ele>141.1</ele>
        <time>2022-09-25T12:26:08Z</time>
      </trkpt>
      <trkpt lat="49.08148" lon="2.11369">
        <ele>141</ele>
        <time>2022-09-25T12:26:13Z</time>
      </trkpt>
      <trkpt lat="49.08137" lon="2.11365">
        <ele>141</ele>
        <time>2022-09-25T12:26:19Z</time>
      </trkpt>
      <trkpt lat="49.08129" lon="2.11362">
        <ele>141.2</ele>
        <time>2022-09-25T12:26:25Z</time>
      </trkpt>
      <trkpt lat="49.0812" lon="2.11359">
        <ele>141.4</ele>
        <time>2022-09-25T12:26:30Z</time>
      </trkpt>
      <trkpt lat="49.08112" lon="2.11358">
        <ele>141.6</ele>
        <time>2022-09-25T12:26:35Z</time>
      </trkpt>
      <trkpt lat="49.08103" lon="2.11353">
        <ele>141.7</ele>
        <time>2022-09-25T12:26:41Z</time>
      </trkpt>
      <trkpt lat="49.08094" lon="2.11351">
        <ele>141.8</ele>
        <time>2022-09-25T12:26:47Z</time>
      </trkpt>
      <trkpt lat="49.08087" lon="2.11348">
        <ele>142</ele>
        <time>2022-09-25T12:26:52Z</time>
      </trkpt>
      <trkpt lat="49.08077" lon="2.11346">
        <ele>142.1</ele>
        <time>2022-09-25T12:26:58Z</time>
      </trkpt>
      <trkpt lat="49.08069" lon="2.11344">
        <ele>142.2</ele>
        <time>2022-09-25T12:27:04Z</time>
      </trkpt>
      <trkpt lat="49.08062" lon="2.11341">
        <ele>142.1</ele>
        <time>2022-09-25T12:27:09Z</time>
      </trkpt>
      <trkpt lat="49.08053" lon="2.11338">
        <ele>142</ele>
        <time>2022-09-25T12:27:15Z</time>
      </trkpt>
      <trkpt lat="49.08047" lon="2.11334">
        <ele>141.9</ele>
        <time>2022-09-25T12:27:20Z</time>
      </trkpt>
      <trkpt lat="49.0804" lon="2.11333">
        <ele>141.5</ele>
        <time>2022-09-25T12:27:26Z</time>
      </trkpt>
      <trkpt lat="49.08032" lon="2.11329">
        <ele>141.2</ele>
        <time>2022-09-25T12:27:31Z</time>
      </trkpt>
      <trkpt lat="49.08024" lon="2.11325">
        <ele>140.8</ele>
        <time>2022-09-25T12:27:37Z</time>
      </trkpt>
      <trkpt lat="49.08016" lon="2.11323">
        <ele>140.7</ele>
        <time>2022-09-25T12:27:42Z</time>
      </trkpt>
      <trkpt lat="49.08007" lon="2.11321">
        <ele>140.6</ele>
        <time>2022-09-25T12:27:48Z</time>
      </trkpt>
      <trkpt lat="49.08" lon="2.11319">
        <ele>140.5</ele>
        <time>2022-09-25T12:27:53Z</time>
      </trkpt>
      <trkpt lat="49.07993" lon="2.11316">
        <ele>140.5</ele>
        <time>2022-09-25T12:27:59Z</time>
      </trkpt>
      <trkpt lat="49.07983" lon="2.11315">
        <ele>140.4</ele>
        <time>2022-09-25T12:28:05Z</time>
      </trkpt>
      <trkpt lat="49.07974" lon="2.11314">
        <ele>140.3</ele>
        <time>2022-09-25T12:28:11Z</time>
      </trkpt>
      <trkpt lat="49.07964" lon="2.11311">
        <ele>140.2</ele>
        <time>2022-09-25T12:28:17Z</time>
      </trkpt>
      <trkpt lat="49.07954" lon="2.1131">
        <ele>140.4</ele>
        <time>2022-09-25T12:28:23Z</time>
      </trkpt>
      <trkpt lat="49.07948" lon="2.11312">
        <ele>140.6</ele>
        <time>2022-09-25T12:28:28Z</time>
      </trkpt>
      <trkpt lat="49.07939" lon="2.11311">
        <ele>140.7</ele>
        <time>2022-09-25T12:28:34Z</time>
      </trkpt>
      <trkpt lat="49.07931" lon="2.11311">
        <ele>140.8</ele>
        <time>2022-09-25T12:28:40Z</time>
      </trkpt>
      <trkpt lat="49.07922" lon="2.11311">
        <ele>140.9</ele>
        <time>2022-09-25T12:28:46Z</time>
      </trkpt>
      <trkpt lat="49.07917" lon="2.11309">
        <ele>140.9</ele>
        <time>2022-09-25T12:28:51Z</time>
      </trkpt>
      <trkpt lat="49.07911" lon="2.11306">
        <ele>140.7</ele>
        <time>2022-09-25T12:28:56Z</time>
      </trkpt>
      <trkpt lat="49.07905" lon="2.11306">
        <ele>140.5</ele>
        <time>2022-09-25T12:29:02Z</time>
      </trkpt>
      <trkpt lat="49.07898" lon="2.11307">
        <ele>140.3</ele>
        <time>2022-09-25T12:29:07Z</time>
      </trkpt>
      <trkpt lat="49.07888" lon="2.11308">
        <ele>140</ele>
        <time>2022-09-25T12:29:13Z</time>
      </trkpt>
      <trkpt lat="49.07878" lon="2.11308">
        <ele>139.9</ele>
        <time>2022-09-25T12:29:18Z</time>
      </trkpt>
      <trkpt lat="49.0787" lon="2.11308">
        <ele>139.8</ele>
        <time>2022-09-25T12:29:24Z</time>
      </trkpt>
      <trkpt lat="49.07863" lon="2.11307">
        <ele>139.3</ele>
        <time>2022-09-25T12:29:29Z</time>
      </trkpt>
      <trkpt lat="49.07856" lon="2.11307">
        <ele>138.9</ele>
        <time>2022-09-25T12:29:34Z</time>
      </trkpt>
      <trkpt lat="49.07846" lon="2.11307">
        <ele>138.3</ele>
        <time>2022-09-25T12:29:40Z</time>
      </trkpt>
      <trkpt lat="49.07836" lon="2.11308">
        <ele>138</ele>
        <time>2022-09-25T12:29:45Z</time>
      </trkpt>
      <trkpt lat="49.07828" lon="2.11309">
        <ele>137.9</ele>
        <time>2022-09-25T12:29:50Z</time>
      </trkpt>
      <trkpt lat="49.07819" lon="2.11311">
        <ele>137.8</ele>
        <time>2022-09-25T12:29:56Z</time>
      </trkpt>
      <trkpt lat="49.07811" lon="2.11313">
        <ele>137.7</ele>
        <time>2022-09-25T12:30:01Z</time>
      </trkpt>
      <trkpt lat="49.07804" lon="2.11313">
        <ele>137.8</ele>
        <time>2022-09-25T12:30:06Z</time>
      </trkpt>
      <trkpt lat="49.07794" lon="2.11315">
        <ele>137.9</ele>
        <time>2022-09-25T12:30:12Z</time>
      </trkpt>
      <trkpt lat="49.07786" lon="2.11315">
        <ele>138.2</ele>
        <time>2022-09-25T12:30:18Z</time>
      </trkpt>
      <trkpt lat="49.07776" lon="2.11314">
        <ele>138.5</ele>
        <time>2022-09-25T12:30:24Z</time>
      </trkpt>
      <trkpt lat="49.07768" lon="2.11311">
        <ele>138.5</ele>
        <time>2022-09-25T12:30:30Z</time>
      </trkpt>
      <trkpt lat="49.07761" lon="2.11307">
        <ele>138.2</ele>
        <time>2022-09-25T12:30:35Z</time>
      </trkpt>
      <trkpt lat="49.07753" lon="2.11307">
        <ele>138</ele>
        <time>2022-09-25T12:30:41Z</time>
      </trkpt>
      <trkpt lat="49.07748" lon="2.11306">
        <ele>137.6</ele>
        <time>2022-09-25T12:30:46Z</time>
      </trkpt>
      <trkpt lat="49.0774" lon="2.11305">
        <ele>137.2</ele>
        <time>2022-09-25T12:30:51Z</time>
      </trkpt>
      <trkpt lat="49.07729" lon="2.11308">
        <ele>137.1</ele>
        <time>2022-09-25T12:30:57Z</time>
      </trkpt>
      <trkpt lat="49.07722" lon="2.11311">
        <ele>137.4</ele>
        <time>2022-09-25T12:31:03Z</time>
      </trkpt>
      <trkpt lat="49.07713" lon="2.11312">
        <ele>137.4</ele>
        <time>2022-09-25T12:31:09Z</time>
      </trkpt>
      <trkpt lat="49.07705" lon="2.1131">
        <ele>137.5</ele>
        <time>2022-09-25T12:31:15Z</time>
      </trkpt>
      <trkpt lat="49.07702" lon="2.11311">
        <ele>137.7</ele>
        <time>2022-09-25T12:31:20Z</time>
      </trkpt>
      <trkpt lat="49.07702" lon="2.11311">
        <ele>137.7</ele>
        <time>2022-09-25T12:31:26Z</time>
      </trkpt>
      <trkpt lat="49.07702" lon="2.11311">
        <ele>137.7</ele>
        <time>2022-09-25T12:31:31Z</time>
      </trkpt>
      <trkpt lat="49.07702" lon="2.11311">
        <ele>137.7</ele>
        <time>2022-09-25T12:31:36Z</time>
      </trkpt>
      <trkpt lat="49.07701" lon="2.11311">
        <ele>137.8</ele>
        <time>2022-09-25T12:31:41Z</time>
      </trkpt>
      <trkpt lat="49.07701" lon="2.1131">
        <ele>137.8</ele>
        <time>2022-09-25T12:31:47Z</time>
      </trkpt>
      <trkpt lat="49.07701" lon="2.11309">
        <ele>137.8</ele>
        <time>2022-09-25T12:31:52Z</time>
      </trkpt>
      <trkpt lat="49.07701" lon="2.11309">
        <ele>137.8</ele>
        <time>2022-09-25T12:31:57Z</time>
      </trkpt>
      <trkpt lat="49.07701" lon="2.11308">
        <ele>137.8</ele>
        <time>2022-09-25T12:32:03Z</time>
      </trkpt>
      <trkpt lat="49.07702" lon="2.11308">
        <ele>137.8</ele>
        <time>2022-09-25T12:32:08Z</time>
      </trkpt>
      <trkpt lat="49.07701" lon="2.11308">
        <ele>137.8</ele>
        <time>2022-09-25T12:32:14Z</time>
      </trkpt>
      <trkpt lat="49.07701" lon="2.11309">
        <ele>137.7</ele>
        <time>2022-09-25T12:32:20Z</time>
      </trkpt>
      <trkpt lat="49.07696" lon="2.11316">
        <ele>137.7</ele>
        <time>2022-09-25T12:32:25Z</time>
      </trkpt>
      <trkpt lat="49.07692" lon="2.11327">
        <ele>137.7</ele>
        <time>2022-09-25T12:32:31Z</time>
      </trkpt>
      <trkpt lat="49.07687" lon="2.11335">
        <ele>137.7</ele>
        <time>2022-09-25T12:32:36Z</time>
      </trkpt>
      <trkpt lat="49.07683" lon="2.11344">
        <ele>138</ele>
        <time>2022-09-25T12:32:42Z</time>
      </trkpt>
      <trkpt lat="49.07677" lon="2.11353">
        <ele>138</ele>
        <time>2022-09-25T12:32:48Z</time>
      </trkpt>
      <trkpt lat="49.07671" lon="2.11364">
        <ele>138.1</ele>
        <time>2022-09-25T12:32:54Z</time>
      </trkpt>
      <trkpt lat="49.07665" lon="2.11373">
        <ele>138.2</ele>
        <time>2022-09-25T12:32:59Z</time>
      </trkpt>
      <trkpt lat="49.0766" lon="2.11383">
        <ele>138.5</ele>
        <time>2022-09-25T12:33:05Z</time>
      </trkpt>
      <trkpt lat="49.07654" lon="2.11397">
        <ele>138.9</ele>
        <time>2022-09-25T12:33:11Z</time>
      </trkpt>
      <trkpt lat="49.07648" lon="2.11406">
        <ele>139.3</ele>
        <time>2022-09-25T12:33:16Z</time>
      </trkpt>
      <trkpt lat="49.07643" lon="2.11415">
        <ele>139.6</ele>
        <time>2022-09-25T12:33:21Z</time>
      </trkpt>
      <trkpt lat="49.07638" lon="2.11424">
        <ele>139.8</ele>
        <time>2022-09-25T12:33:26Z</time>
      </trkpt>
      <trkpt lat="49.07634" lon="2.11432">
        <ele>140</ele>
        <time>2022-09-25T12:33:31Z</time>
      </trkpt>
      <trkpt lat="49.07629" lon="2.11442">
        <ele>140.3</ele>
        <time>2022-09-25T12:33:37Z</time>
      </trkpt>
      <trkpt lat="49.07625" lon="2.1145">
        <ele>140.5</ele>
        <time>2022-09-25T12:33:42Z</time>
      </trkpt>
      <trkpt lat="49.0762" lon="2.11457">
        <ele>140.6</ele>
        <time>2022-09-25T12:33:48Z</time>
      </trkpt>
      <trkpt lat="49.07614" lon="2.11469">
        <ele>140.6</ele>
        <time>2022-09-25T12:33:54Z</time>
      </trkpt>
      <trkpt lat="49.07608" lon="2.11482">
        <ele>140.6</ele>
        <time>2022-09-25T12:34:00Z</time>
      </trkpt>
      <trkpt lat="49.07604" lon="2.11492">
        <ele>140.7</ele>
        <time>2022-09-25T12:34:05Z</time>
      </trkpt>
      <trkpt lat="49.07599" lon="2.115">
        <ele>140.6</ele>
        <time>2022-09-25T12:34:10Z</time>
      </trkpt>
      <trkpt lat="49.07595" lon="2.11508">
        <ele>140.5</ele>
        <time>2022-09-25T12:34:15Z</time>
      </trkpt>
      <trkpt lat="49.07589" lon="2.11518">
        <ele>140.2</ele>
        <time>2022-09-25T12:34:21Z</time>
      </trkpt>
      <trkpt lat="49.07585" lon="2.11525">
        <ele>139.9</ele>
        <time>2022-09-25T12:34:26Z</time>
      </trkpt>
      <trkpt lat="49.07579" lon="2.11536">
        <ele>139.7</ele>
        <time>2022-09-25T12:34:32Z</time>
      </trkpt>
      <trkpt lat="49.07572" lon="2.11548">
        <ele>139.7</ele>
        <time>2022-09-25T12:34:38Z</time>
      </trkpt>
      <trkpt lat="49.07566" lon="2.11556">
        <ele>139.7</ele>
        <time>2022-09-25T12:34:43Z</time>
      </trkpt>
      <trkpt lat="49.0756" lon="2.11567">
        <ele>139.6</ele>
        <time>2022-09-25T12:34:49Z</time>
      </trkpt>
      <trkpt lat="49.07557" lon="2.11576">
        <ele>139.6</ele>
        <time>2022-09-25T12:34:54Z</time>
      </trkpt>
      <trkpt lat="49.07551" lon="2.11584">
        <ele>139.6</ele>
        <time>2022-09-25T12:35:00Z</time>
      </trkpt>
      <trkpt lat="49.07546" lon="2.11592">
        <ele>139.3</ele>
        <time>2022-09-25T12:35:06Z</time>
      </trkpt>
      <trkpt lat="49.0754" lon="2.11601">
        <ele>139</ele>
        <time>2022-09-25T12:35:12Z</time>
      </trkpt>
      <trkpt lat="49.07536" lon="2.11608">
        <ele>138.6</ele>
        <time>2022-09-25T12:35:17Z</time>
      </trkpt>
      <trkpt lat="49.07531" lon="2.11616">
        <ele>138.3</ele>
        <time>2022-09-25T12:35:22Z</time>
      </trkpt>
      <trkpt lat="49.07526" lon="2.11627">
        <ele>137.9</ele>
        <time>2022-09-25T12:35:28Z</time>
      </trkpt>
      <trkpt lat="49.0752" lon="2.11638">
        <ele>137.2</ele>
        <time>2022-09-25T12:35:34Z</time>
      </trkpt>
      <trkpt lat="49.07516" lon="2.11646">
        <ele>136.7</ele>
        <time>2022-09-25T12:35:39Z</time>
      </trkpt>
      <trkpt lat="49.0751" lon="2.11655">
        <ele>136.3</ele>
        <time>2022-09-25T12:35:45Z</time>
      </trkpt>
      <trkpt lat="49.07505" lon="2.11663">
        <ele>135.8</ele>
        <time>2022-09-25T12:35:50Z</time>
      </trkpt>
      <trkpt lat="49.07501" lon="2.11672">
        <ele>135.4</ele>
        <time>2022-09-25T12:35:55Z</time>
      </trkpt>
      <trkpt lat="49.07495" lon="2.1168">
        <ele>135.2</ele>
        <time>2022-09-25T12:36:01Z</time>
      </trkpt>
      <trkpt lat="49.07489" lon="2.1169">
        <ele>135.1</ele>
        <time>2022-09-25T12:36:07Z</time>
      </trkpt>
      <trkpt lat="49.07484" lon="2.117">
        <ele>135.1</ele>
        <time>2022-09-25T12:36:13Z</time>
      </trkpt>
      <trkpt lat="49.0748" lon="2.11709">
        <ele>135.2</ele>
        <time>2022-09-25T12:36:18Z</time>
      </trkpt>
      <trkpt lat="49.07475" lon="2.1172">
        <ele>135.3</ele>
        <time>2022-09-25T12:36:24Z</time>
      </trkpt>
      <trkpt lat="49.0747" lon="2.11729">
        <ele>135.4</ele>
        <time>2022-09-25T12:36:29Z</time>
      </trkpt>
      <trkpt lat="49.07463" lon="2.11741">
        <ele>135.4</ele>
        <time>2022-09-25T12:36:35Z</time>
      </trkpt>
      <trkpt lat="49.07458" lon="2.11751">
        <ele>135.3</ele>
        <time>2022-09-25T12:36:41Z</time>
      </trkpt>
      <trkpt lat="49.07452" lon="2.11761">
        <ele>135.3</ele>
        <time>2022-09-25T12:36:47Z</time>
      </trkpt>
      <trkpt lat="49.07446" lon="2.11773">
        <ele>135.2</ele>
        <time>2022-09-25T12:36:53Z</time>
      </trkpt>
      <trkpt lat="49.07442" lon="2.11781">
        <ele>135.2</ele>
        <time>2022-09-25T12:36:58Z</time>
      </trkpt>
      <trkpt lat="49.07437" lon="2.11789">
        <ele>135.1</ele>
        <time>2022-09-25T12:37:04Z</time>
      </trkpt>
      <trkpt lat="49.0743" lon="2.11799">
        <ele>135</ele>
        <time>2022-09-25T12:37:10Z</time>
      </trkpt>
      <trkpt lat="49.07427" lon="2.11806">
        <ele>134.7</ele>
        <time>2022-09-25T12:37:15Z</time>
      </trkpt>
      <trkpt lat="49.07426" lon="2.11812">
        <ele>134.2</ele>
        <time>2022-09-25T12:37:20Z</time>
      </trkpt>
      <trkpt lat="49.07424" lon="2.11824">
        <ele>133.2</ele>
        <time>2022-09-25T12:37:26Z</time>
      </trkpt>
      <trkpt lat="49.07421" lon="2.11834">
        <ele>132.3</ele>
        <time>2022-09-25T12:37:31Z</time>
      </trkpt>
      <trkpt lat="49.07418" lon="2.11843">
        <ele>131.5</ele>
        <time>2022-09-25T12:37:36Z</time>
      </trkpt>
      <trkpt lat="49.07414" lon="2.11853">
        <ele>130.8</ele>
        <time>2022-09-25T12:37:42Z</time>
      </trkpt>
      <trkpt lat="49.07411" lon="2.11863">
        <ele>130.2</ele>
        <time>2022-09-25T12:37:48Z</time>
      </trkpt>
      <trkpt lat="49.07408" lon="2.11876">
        <ele>129.5</ele>
        <time>2022-09-25T12:37:54Z</time>
      </trkpt>
      <trkpt lat="49.07405" lon="2.1189">
        <ele>128.8</ele>
        <time>2022-09-25T12:38:00Z</time>
      </trkpt>
      <trkpt lat="49.07404" lon="2.11899">
        <ele>128.1</ele>
        <time>2022-09-25T12:38:05Z</time>
      </trkpt>
      <trkpt lat="49.07404" lon="2.11909">
        <ele>127.3</ele>
        <time>2022-09-25T12:38:10Z</time>
      </trkpt>
      <trkpt lat="49.07402" lon="2.11919">
        <ele>126.5</ele>
        <time>2022-09-25T12:38:15Z</time>
      </trkpt>
      <trkpt lat="49.07401" lon="2.11929">
        <ele>125.5</ele>
        <time>2022-09-25T12:38:21Z</time>
      </trkpt>
      <trkpt lat="49.07402" lon="2.1194">
        <ele>124.7</ele>
        <time>2022-09-25T12:38:26Z</time>
      </trkpt>
      <trkpt lat="49.07402" lon="2.11955">
        <ele>123.7</ele>
        <time>2022-09-25T12:38:32Z</time>
      </trkpt>
      <trkpt lat="49.07402" lon="2.11966">
        <ele>122.7</ele>
        <time>2022-09-25T12:38:37Z</time>
      </trkpt>
      <trkpt lat="49.074" lon="2.11978">
        <ele>121.8</ele>
        <time>2022-09-25T12:38:43Z</time>
      </trkpt>
      <trkpt lat="49.07399" lon="2.1199">
        <ele>121.1</ele>
        <time>2022-09-25T12:38:48Z</time>
      </trkpt>
      <trkpt lat="49.07399" lon="2.12002">
        <ele>120.4</ele>
        <time>2022-09-25T12:38:54Z</time>
      </trkpt>
      <trkpt lat="49.07396" lon="2.12016">
        <ele>119.7</ele>
        <time>2022-09-25T12:39:00Z</time>
      </trkpt>
      <trkpt lat="49.07393" lon="2.12028">
        <ele>119.1</ele>
        <time>2022-09-25T12:39:05Z</time>
      </trkpt>
      <trkpt lat="49.0739" lon="2.12041">
        <ele>118.4</ele>
        <time>2022-09-25T12:39:11Z</time>
      </trkpt>
      <trkpt lat="49.07387" lon="2.1205">
        <ele>118</ele>
        <time>2022-09-25T12:39:16Z</time>
      </trkpt>
      <trkpt lat="49.07382" lon="2.12063">
        <ele>117.6</ele>
        <time>2022-09-25T12:39:22Z</time>
      </trkpt>
      <trkpt lat="49.07379" lon="2.12072">
        <ele>117.3</ele>
        <time>2022-09-25T12:39:28Z</time>
      </trkpt>
      <trkpt lat="49.07375" lon="2.12081">
        <ele>117</ele>
        <time>2022-09-25T12:39:33Z</time>
      </trkpt>
      <trkpt lat="49.0737" lon="2.1209">
        <ele>116.5</ele>
        <time>2022-09-25T12:39:39Z</time>
      </trkpt>
      <trkpt lat="49.07365" lon="2.12101">
        <ele>116.1</ele>
        <time>2022-09-25T12:39:45Z</time>
      </trkpt>
      <trkpt lat="49.07359" lon="2.1211">
        <ele>115.8</ele>
        <time>2022-09-25T12:39:51Z</time>
      </trkpt>
      <trkpt lat="49.07353" lon="2.12117">
        <ele>115.4</ele>
        <time>2022-09-25T12:39:57Z</time>
      </trkpt>
      <trkpt lat="49.07349" lon="2.1212">
        <ele>114.9</ele>
        <time>2022-09-25T12:40:02Z</time>
      </trkpt>
      <trkpt lat="49.07345" lon="2.12126">
        <ele>114.3</ele>
        <time>2022-09-25T12:40:07Z</time>
      </trkpt>
      <trkpt lat="49.0734" lon="2.12135">
        <ele>113.6</ele>
        <time>2022-09-25T12:40:13Z</time>
      </trkpt>
      <trkpt lat="49.07337" lon="2.12145">
        <ele>113.3</ele>
        <time>2022-09-25T12:40:19Z</time>
      </trkpt>
      <trkpt lat="49.07337" lon="2.12155">
        <ele>113</ele>
        <time>2022-09-25T12:40:24Z</time>
      </trkpt>
      <trkpt lat="49.07337" lon="2.12166">
        <ele>112.9</ele>
        <time>2022-09-25T12:40:30Z</time>
      </trkpt>
      <trkpt lat="49.07338" lon="2.12174">
        <ele>112.7</ele>
        <time>2022-09-25T12:40:36Z</time>
      </trkpt>
      <trkpt lat="49.07339" lon="2.12185">
        <ele>112.6</ele>
        <time>2022-09-25T12:40:42Z</time>
      </trkpt>
      <trkpt lat="49.07339" lon="2.12197">
        <ele>112.4</ele>
        <time>2022-09-25T12:40:47Z</time>
      </trkpt>
      <trkpt lat="49.07341" lon="2.12206">
        <ele>112.2</ele>
        <time>2022-09-25T12:40:53Z</time>
      </trkpt>
      <trkpt lat="49.07342" lon="2.12214">
        <ele>112</ele>
        <time>2022-09-25T12:40:58Z</time>
      </trkpt>
      <trkpt lat="49.07343" lon="2.1222">
        <ele>111.1</ele>
        <time>2022-09-25T12:41:04Z</time>
      </trkpt>
      <trkpt lat="49.07344" lon="2.1223">
        <ele>109.8</ele>
        <time>2022-09-25T12:41:10Z</time>
      </trkpt>
      <trkpt lat="49.07344" lon="2.12235">
        <ele>108.8</ele>
        <time>2022-09-25T12:41:15Z</time>
      </trkpt>
      <trkpt lat="49.07344" lon="2.12247">
        <ele>106.9</ele>
        <time>2022-09-25T12:41:21Z</time>
      </trkpt>
      <trkpt lat="49.07346" lon="2.12258">
        <ele>105.5</ele>
        <time>2022-09-25T12:41:27Z</time>
      </trkpt>
      <trkpt lat="49.07346" lon="2.12267">
        <ele>103.9</ele>
        <time>2022-09-25T12:41:32Z</time>
      </trkpt>
      <trkpt lat="49.07346" lon="2.12277">
        <ele>102.1</ele>
        <time>2022-09-25T12:41:37Z</time>
      </trkpt>
      <trkpt lat="49.07342" lon="2.12293">
        <ele>100.6</ele>
        <time>2022-09-25T12:41:43Z</time>
      </trkpt>
      <trkpt lat="49.07342" lon="2.12298">
        <ele>99.9</ele>
        <time>2022-09-25T12:41:48Z</time>
      </trkpt>
      <trkpt lat="49.07341" lon="2.12301">
        <ele>99.6</ele>
        <time>2022-09-25T12:41:53Z</time>
      </trkpt>
      <trkpt lat="49.07341" lon="2.12306">
        <ele>99.1</ele>
        <time>2022-09-25T12:41:58Z</time>
      </trkpt>
      <trkpt lat="49.0734" lon="2.12313">
        <ele>98.2</ele>
        <time>2022-09-25T12:42:04Z</time>
      </trkpt>
      <trkpt lat="49.07339" lon="2.12318">
        <ele>97.7</ele>
        <time>2022-09-25T12:42:09Z</time>
      </trkpt>
      <trkpt lat="49.07338" lon="2.12326">
        <ele>97.3</ele>
        <time>2022-09-25T12:42:15Z</time>
      </trkpt>
      <trkpt lat="49.07338" lon="2.12334">
        <ele>96.9</ele>
        <time>2022-09-25T12:42:21Z</time>
      </trkpt>
      <trkpt lat="49.07337" lon="2.12342">
        <ele>96.4</ele>
        <time>2022-09-25T12:42:26Z</time>
      </trkpt>
      <trkpt lat="49.07336" lon="2.12347">
        <ele>96.4</ele>
        <time>2022-09-25T12:42:31Z</time>
      </trkpt>
      <trkpt lat="49.07335" lon="2.1235">
        <ele>96.3</ele>
        <time>2022-09-25T12:42:37Z</time>
      </trkpt>
      <trkpt lat="49.07335" lon="2.12352">
        <ele>96.3</ele>
        <time>2022-09-25T12:42:43Z</time>
      </trkpt>
      <trkpt lat="49.07336" lon="2.12352">
        <ele>96.4</ele>
        <time>2022-09-25T12:42:49Z</time>
      </trkpt>
      <trkpt lat="49.07336" lon="2.12352">
        <ele>96.4</ele>
        <time>2022-09-25T12:42:55Z</time>
      </trkpt>
      <trkpt lat="49.07337" lon="2.12353">
        <ele>96.4</ele>
        <time>2022-09-25T12:43:01Z</time>
      </trkpt>
      <trkpt lat="49.07338" lon="2.12354">
        <ele>96.3</ele>
        <time>2022-09-25T12:43:07Z</time>
      </trkpt>
      <trkpt lat="49.07338" lon="2.12353">
        <ele>96.3</ele>
        <time>2022-09-25T12:43:13Z</time>
      </trkpt>
      <trkpt lat="49.07337" lon="2.12355">
        <ele>95.8</ele>
        <time>2022-09-25T12:43:18Z</time>
      </trkpt>
      <trkpt lat="49.07336" lon="2.1236">
        <ele>95.2</ele>
        <time>2022-09-25T12:43:23Z</time>
      </trkpt>
      <trkpt lat="49.07334" lon="2.12368">
        <ele>93.8</ele>
        <time>2022-09-25T12:43:28Z</time>
      </trkpt>
      <trkpt lat="49.07332" lon="2.12377">
        <ele>92.2</ele>
        <time>2022-09-25T12:43:34Z</time>
      </trkpt>
      <trkpt lat="49.0733" lon="2.12382">
        <ele>91.5</ele>
        <time>2022-09-25T12:43:40Z</time>
      </trkpt>
      <trkpt lat="49.0733" lon="2.12384">
        <ele>91.3</ele>
        <time>2022-09-25T12:43:46Z</time>
      </trkpt>
      <trkpt lat="49.07328" lon="2.12385">
        <ele>90.5</ele>
        <time>2022-09-25T12:43:51Z</time>
      </trkpt>
      <trkpt lat="49.07327" lon="2.12386">
        <ele>90.3</ele>
        <time>2022-09-25T12:43:57Z</time>
      </trkpt>
      <trkpt lat="49.07327" lon="2.12386">
        <ele>90.2</ele>
        <time>2022-09-25T12:44:02Z</time>
      </trkpt>
      <trkpt lat="49.07325" lon="2.12387">
        <ele>89.8</ele>
        <time>2022-09-25T12:44:08Z</time>
      </trkpt>
      <trkpt lat="49.07323" lon="2.12387">
        <ele>89.5</ele>
        <time>2022-09-25T12:44:13Z</time>
      </trkpt>
      <trkpt lat="49.07322" lon="2.12387">
        <ele>89</ele>
        <time>2022-09-25T12:44:19Z</time>
      </trkpt>
      <trkpt lat="49.07323" lon="2.12386">
        <ele>88.8</ele>
        <time>2022-09-25T12:44:24Z</time>
      </trkpt>
      <trkpt lat="49.07324" lon="2.12385">
        <ele>88.7</ele>
        <time>2022-09-25T12:44:29Z</time>
      </trkpt>
      <trkpt lat="49.07324" lon="2.12384">
        <ele>88.6</ele>
        <time>2022-09-25T12:44:34Z</time>
      </trkpt>
      <trkpt lat="49.07324" lon="2.12382">
        <ele>88.7</ele>
        <time>2022-09-25T12:44:40Z</time>
      </trkpt>
      <trkpt lat="49.07324" lon="2.12382">
        <ele>88.7</ele>
        <time>2022-09-25T12:44:46Z</time>
      </trkpt>
      <trkpt lat="49.07323" lon="2.12381">
        <ele>89.3</ele>
        <time>2022-09-25T12:44:51Z</time>
      </trkpt>
      <trkpt lat="49.07323" lon="2.12381">
        <ele>89.8</ele>
        <time>2022-09-25T12:44:57Z</time>
      </trkpt>
      <trkpt lat="49.07323" lon="2.12382">
        <ele>90.6</ele>
        <time>2022-09-25T12:45:03Z</time>
      </trkpt>
      <trkpt lat="49.07323" lon="2.12387">
        <ele>91</ele>
        <time>2022-09-25T12:45:08Z</time>
      </trkpt>
      <trkpt lat="49.07324" lon="2.12392">
        <ele>91</ele>
        <time>2022-09-25T12:45:14Z</time>
      </trkpt>
      <trkpt lat="49.07324" lon="2.12394">
        <ele>90.9</ele>
        <time>2022-09-25T12:45:19Z</time>
      </trkpt>
      <trkpt lat="49.07325" lon="2.12405">
        <ele>90.2</ele>
        <time>2022-09-25T12:45:25Z</time>
      </trkpt>
      <trkpt lat="49.07324" lon="2.12418">
        <ele>89.4</ele>
        <time>2022-09-25T12:45:30Z</time>
      </trkpt>
      <trkpt lat="49.07323" lon="2.1243">
        <ele>88.8</ele>
        <time>2022-09-25T12:45:36Z</time>
      </trkpt>
      <trkpt lat="49.07323" lon="2.12437">
        <ele>88</ele>
        <time>2022-09-25T12:45:42Z</time>
      </trkpt>
      <trkpt lat="49.07322" lon="2.12445">
        <ele>87</ele>
        <time>2022-09-25T12:45:48Z</time>
      </trkpt>
      <trkpt lat="49.07323" lon="2.12455">
        <ele>86</ele>
        <time>2022-09-25T12:45:54Z</time>
      </trkpt>
      <trkpt lat="49.07323" lon="2.12469">
        <ele>84.9</ele>
        <time>2022-09-25T12:46:00Z</time>
      </trkpt>
      <trkpt lat="49.07321" lon="2.12481">
        <ele>83.9</ele>
        <time>2022-09-25T12:46:05Z</time>
      </trkpt>
      <trkpt lat="49.07318" lon="2.12494">
        <ele>82.8</ele>
        <time>2022-09-25T12:46:11Z</time>
      </trkpt>
      <trkpt lat="49.07316" lon="2.12504">
        <ele>82</ele>
        <time>2022-09-25T12:46:16Z</time>
      </trkpt>
      <trkpt lat="49.07316" lon="2.12516">
        <ele>81</ele>
        <time>2022-09-25T12:46:22Z</time>
      </trkpt>
      <trkpt lat="49.07317" lon="2.12522">
        <ele>80.3</ele>
        <time>2022-09-25T12:46:27Z</time>
      </trkpt>
      <trkpt lat="49.07318" lon="2.1253">
        <ele>79.2</ele>
        <time>2022-09-25T12:46:32Z</time>
      </trkpt>
      <trkpt lat="49.07318" lon="2.1254">
        <ele>78.2</ele>
        <time>2022-09-25T12:46:38Z</time>
      </trkpt>
      <trkpt lat="49.07316" lon="2.12549">
        <ele>77.5</ele>
        <time>2022-09-25T12:46:43Z</time>
      </trkpt>
      <trkpt lat="49.07314" lon="2.12558">
        <ele>77</ele>
        <time>2022-09-25T12:46:49Z</time>
      </trkpt>
      <trkpt lat="49.0731" lon="2.12565">
        <ele>76.7</ele>
        <time>2022-09-25T12:46:55Z</time>
      </trkpt>
      <trkpt lat="49.07305" lon="2.12569">
        <ele>76.2</ele>
        <time>2022-09-25T12:47:01Z</time>
      </trkpt>
      <trkpt lat="49.07301" lon="2.12573">
        <ele>75.5</ele>
        <time>2022-09-25T12:47:06Z</time>
      </trkpt>
      <trkpt lat="49.07295" lon="2.12577">
        <ele>74.7</ele>
        <time>2022-09-25T12:47:12Z</time>
      </trkpt>
      <trkpt lat="49.07289" lon="2.1258">
        <ele>73.4</ele>
        <time>2022-09-25T12:47:18Z</time>
      </trkpt>
      <trkpt lat="49.07284" lon="2.12585">
        <ele>71.8</ele>
        <time>2022-09-25T12:47:24Z</time>
      </trkpt>
      <trkpt lat="49.07278" lon="2.1259">
        <ele>70.2</ele>
        <time>2022-09-25T12:47:30Z</time>
      </trkpt>
      <trkpt lat="49.07273" lon="2.12595">
        <ele>69</ele>
        <time>2022-09-25T12:47:35Z</time>
      </trkpt>
      <trkpt lat="49.07264" lon="2.12602">
        <ele>67.8</ele>
        <time>2022-09-25T12:47:41Z</time>
      </trkpt>
      <trkpt lat="49.07257" lon="2.12609">
        <ele>67.3</ele>
        <time>2022-09-25T12:47:47Z</time>
      </trkpt>
      <trkpt lat="49.0725" lon="2.12617">
        <ele>66.7</ele>
        <time>2022-09-25T12:47:53Z</time>
      </trkpt>
      <trkpt lat="49.07244" lon="2.12623">
        <ele>66.1</ele>
        <time>2022-09-25T12:47:58Z</time>
      </trkpt>
      <trkpt lat="49.07237" lon="2.12628">
        <ele>65.5</ele>
        <time>2022-09-25T12:48:04Z</time>
      </trkpt>
      <trkpt lat="49.07231" lon="2.12633">
        <ele>64.9</ele>
        <time>2022-09-25T12:48:09Z</time>
      </trkpt>
      <trkpt lat="49.07225" lon="2.1264">
        <ele>64</ele>
        <time>2022-09-25T12:48:15Z</time>
      </trkpt>
      <trkpt lat="49.07219" lon="2.12644">
        <ele>62.5</ele>
        <time>2022-09-25T12:48:21Z</time>
      </trkpt>
      <trkpt lat="49.07214" lon="2.12649">
        <ele>61.1</ele>
        <time>2022-09-25T12:48:26Z</time>
      </trkpt>
      <trkpt lat="49.07209" lon="2.12654">
        <ele>58.9</ele>
        <time>2022-09-25T12:48:32Z</time>
      </trkpt>
      <trkpt lat="49.07204" lon="2.12657">
        <ele>57</ele>
        <time>2022-09-25T12:48:37Z</time>
      </trkpt>
      <trkpt lat="49.07198" lon="2.12664">
        <ele>54.8</ele>
        <time>2022-09-25T12:48:43Z</time>
      </trkpt>
      <trkpt lat="49.07192" lon="2.12673">
        <ele>52.8</ele>
        <time>2022-09-25T12:48:48Z</time>
      </trkpt>
      <trkpt lat="49.07182" lon="2.12682">
        <ele>50.8</ele>
        <time>2022-09-25T12:48:54Z</time>
      </trkpt>
      <trkpt lat="49.07175" lon="2.12688">
        <ele>49.4</ele>
        <time>2022-09-25T12:49:00Z</time>
      </trkpt>
      <trkpt lat="49.07169" lon="2.12692">
        <ele>48.4</ele>
        <time>2022-09-25T12:49:05Z</time>
      </trkpt>
      <trkpt lat="49.07161" lon="2.12696">
        <ele>47.2</ele>
        <time>2022-09-25T12:49:11Z</time>
      </trkpt>
      <trkpt lat="49.07151" lon="2.12702">
        <ele>46.9</ele>
        <time>2022-09-25T12:49:17Z</time>
      </trkpt>
      <trkpt lat="49.07144" lon="2.12705">
        <ele>46.9</ele>
        <time>2022-09-25T12:49:22Z</time>
      </trkpt>
      <trkpt lat="49.07137" lon="2.12706">
        <ele>47.2</ele>
        <time>2022-09-25T12:49:28Z</time>
      </trkpt>
      <trkpt lat="49.0713" lon="2.12707">
        <ele>47.9</ele>
        <time>2022-09-25T12:49:33Z</time>
      </trkpt>
      <trkpt lat="49.07121" lon="2.12709">
        <ele>48.8</ele>
        <time>2022-09-25T12:49:39Z</time>
      </trkpt>
      <trkpt lat="49.07111" lon="2.1271">
        <ele>49.8</ele>
        <time>2022-09-25T12:49:44Z</time>
      </trkpt>
      <trkpt lat="49.07101" lon="2.12711">
        <ele>51.2</ele>
        <time>2022-09-25T12:49:50Z</time>
      </trkpt>
      <trkpt lat="49.0709" lon="2.12711">
        <ele>53</ele>
        <time>2022-09-25T12:49:56Z</time>
      </trkpt>
      <trkpt lat="49.07081" lon="2.1271">
        <ele>54.8</ele>
        <time>2022-09-25T12:50:02Z</time>
      </trkpt>
      <trkpt lat="49.07071" lon="2.12711">
        <ele>56.6</ele>
        <time>2022-09-25T12:50:08Z</time>
      </trkpt>
      <trkpt lat="49.07063" lon="2.12709">
        <ele>58.3</ele>
        <time>2022-09-25T12:50:14Z</time>
      </trkpt>
      <trkpt lat="49.07053" lon="2.12706">
        <ele>60.1</ele>
        <time>2022-09-25T12:50:20Z</time>
      </trkpt>
      <trkpt lat="49.07044" lon="2.12703">
        <ele>61.6</ele>
        <time>2022-09-25T12:50:26Z</time>
      </trkpt>
      <trkpt lat="49.07038" lon="2.12702">
        <ele>62.8</ele>
        <time>2022-09-25T12:50:31Z</time>
      </trkpt>
      <trkpt lat="49.07032" lon="2.127">
        <ele>63.8</ele>
        <time>2022-09-25T12:50:36Z</time>
      </trkpt>
      <trkpt lat="49.07025" lon="2.12698">
        <ele>64.9</ele>
        <time>2022-09-25T12:50:42Z</time>
      </trkpt>
      <trkpt lat="49.07018" lon="2.12695">
        <ele>65.7</ele>
        <time>2022-09-25T12:50:48Z</time>
      </trkpt>
      <trkpt lat="49.07011" lon="2.12693">
        <ele>66.2</ele>
        <time>2022-09-25T12:50:53Z</time>
      </trkpt>
      <trkpt lat="49.07003" lon="2.1269">
        <ele>66.4</ele>
        <time>2022-09-25T12:50:59Z</time>
      </trkpt>
      <trkpt lat="49.06995" lon="2.12687">
        <ele>66.6</ele>
        <time>2022-09-25T12:51:04Z</time>
      </trkpt>
      <trkpt lat="49.06987" lon="2.12683">
        <ele>66.8</ele>
        <time>2022-09-25T12:51:09Z</time>
      </trkpt>
      <trkpt lat="49.06978" lon="2.12678">
        <ele>67</ele>
        <time>2022-09-25T12:51:15Z</time>
      </trkpt>
      <trkpt lat="49.06967" lon="2.12674">
        <ele>67.4</ele>
        <time>2022-09-25T12:51:21Z</time>
      </trkpt>
      <trkpt lat="49.06959" lon="2.12674">
        <ele>67.8</ele>
        <time>2022-09-25T12:51:26Z</time>
      </trkpt>
      <trkpt lat="49.0695" lon="2.12673">
        <ele>68</ele>
        <time>2022-09-25T12:51:32Z</time>
      </trkpt>
      <trkpt lat="49.06944" lon="2.12672">
        <ele>68</ele>
        <time>2022-09-25T12:51:37Z</time>
      </trkpt>
      <trkpt lat="49.06937" lon="2.12671">
        <ele>68</ele>
        <time>2022-09-25T12:51:42Z</time>
      </trkpt>
      <trkpt lat="49.06929" lon="2.12671">
        <ele>67.7</ele>
        <time>2022-09-25T12:51:48Z</time>
      </trkpt>
      <trkpt lat="49.06923" lon="2.1267">
        <ele>67.3</ele>
        <time>2022-09-25T12:51:53Z</time>
      </trkpt>
      <trkpt lat="49.06913" lon="2.12671">
        <ele>66.9</ele>
        <time>2022-09-25T12:51:59Z</time>
      </trkpt>
      <trkpt lat="49.06906" lon="2.12674">
        <ele>66.7</ele>
        <time>2022-09-25T12:52:04Z</time>
      </trkpt>
      <trkpt lat="49.06896" lon="2.12679">
        <ele>66.8</ele>
        <time>2022-09-25T12:52:09Z</time>
      </trkpt>
      <trkpt lat="49.06886" lon="2.12683">
        <ele>66.9</ele>
        <time>2022-09-25T12:52:15Z</time>
      </trkpt>
      <trkpt lat="49.06876" lon="2.12684">
        <ele>67.1</ele>
        <time>2022-09-25T12:52:21Z</time>
      </trkpt>
      <trkpt lat="49.06868" lon="2.12684">
        <ele>67.2</ele>
        <time>2022-09-25T12:52:26Z</time>
      </trkpt>
      <trkpt lat="49.06859" lon="2.12683">
        <ele>67.4</ele>
        <time>2022-09-25T12:52:32Z</time>
      </trkpt>
      <trkpt lat="49.06852" lon="2.12682">
        <ele>67.4</ele>
        <time>2022-09-25T12:52:37Z</time>
      </trkpt>
      <trkpt lat="49.06844" lon="2.12682">
        <ele>67.3</ele>
        <time>2022-09-25T12:52:42Z</time>
      </trkpt>
      <trkpt lat="49.06836" lon="2.12681">
        <ele>67.1</ele>
        <time>2022-09-25T12:52:47Z</time>
      </trkpt>
      <trkpt lat="49.06829" lon="2.12681">
        <ele>67.2</ele>
        <time>2022-09-25T12:52:53Z</time>
      </trkpt>
      <trkpt lat="49.0682" lon="2.12682">
        <ele>67.4</ele>
        <time>2022-09-25T12:53:00Z</time>
      </trkpt>
      <trkpt lat="49.06811" lon="2.12685">
        <ele>67.6</ele>
        <time>2022-09-25T12:53:06Z</time>
      </trkpt>
      <trkpt lat="49.06802" lon="2.12688">
        <ele>67.8</ele>
        <time>2022-09-25T12:53:12Z</time>
      </trkpt>
      <trkpt lat="49.06794" lon="2.12693">
        <ele>67.8</ele>
        <time>2022-09-25T12:53:19Z</time>
      </trkpt>
      <trkpt lat="49.06788" lon="2.12697">
        <ele>67.4</ele>
        <time>2022-09-25T12:53:24Z</time>
      </trkpt>
      <trkpt lat="49.06782" lon="2.12701">
        <ele>67.1</ele>
        <time>2022-09-25T12:53:29Z</time>
      </trkpt>
      <trkpt lat="49.06775" lon="2.12706">
        <ele>66.7</ele>
        <time>2022-09-25T12:53:35Z</time>
      </trkpt>
      <trkpt lat="49.06769" lon="2.12711">
        <ele>66.3</ele>
        <time>2022-09-25T12:53:41Z</time>
      </trkpt>
      <trkpt lat="49.06763" lon="2.12712">
        <ele>65.8</ele>
        <time>2022-09-25T12:53:46Z</time>
      </trkpt>
      <trkpt lat="49.06758" lon="2.12712">
        <ele>65.4</ele>
        <time>2022-09-25T12:53:51Z</time>
      </trkpt>
      <trkpt lat="49.06751" lon="2.12714">
        <ele>65.1</ele>
        <time>2022-09-25T12:53:56Z</time>
      </trkpt>
      <trkpt lat="49.06744" lon="2.12715">
        <ele>65.2</ele>
        <time>2022-09-25T12:54:01Z</time>
      </trkpt>
      <trkpt lat="49.06734" lon="2.12717">
        <ele>65.3</ele>
        <time>2022-09-25T12:54:07Z</time>
      </trkpt>
      <trkpt lat="49.06724" lon="2.12718">
        <ele>65.5</ele>
        <time>2022-09-25T12:54:13Z</time>
      </trkpt>
      <trkpt lat="49.06716" lon="2.1272">
        <ele>65.6</ele>
        <time>2022-09-25T12:54:18Z</time>
      </trkpt>
      <trkpt lat="49.06707" lon="2.12721">
        <ele>65.6</ele>
        <time>2022-09-25T12:54:24Z</time>
      </trkpt>
      <trkpt lat="49.06698" lon="2.12723">
        <ele>65.6</ele>
        <time>2022-09-25T12:54:30Z</time>
      </trkpt>
      <trkpt lat="49.06691" lon="2.12724">
        <ele>65.7</ele>
        <time>2022-09-25T12:54:35Z</time>
      </trkpt>
      <trkpt lat="49.06682" lon="2.12723">
        <ele>66</ele>
        <time>2022-09-25T12:54:41Z</time>
      </trkpt>
      <trkpt lat="49.06675" lon="2.12722">
        <ele>66.5</ele>
        <time>2022-09-25T12:54:46Z</time>
      </trkpt>
      <trkpt lat="49.06668" lon="2.12722">
        <ele>66.8</ele>
        <time>2022-09-25T12:54:51Z</time>
      </trkpt>
      <trkpt lat="49.0666" lon="2.1272">
        <ele>67.1</ele>
        <time>2022-09-25T12:54:57Z</time>
      </trkpt>
      <trkpt lat="49.06651" lon="2.12716">
        <ele>67.2</ele>
        <time>2022-09-25T12:55:03Z</time>
      </trkpt>
      <trkpt lat="49.06643" lon="2.12713">
        <ele>67.3</ele>
        <time>2022-09-25T12:55:08Z</time>
      </trkpt>
      <trkpt lat="49.06636" lon="2.12708">
        <ele>67.4</ele>
        <time>2022-09-25T12:55:13Z</time>
      </trkpt>
      <trkpt lat="49.06628" lon="2.127">
        <ele>67.7</ele>
        <time>2022-09-25T12:55:19Z</time>
      </trkpt>
      <trkpt lat="49.06624" lon="2.12691">
        <ele>67.8</ele>
        <time>2022-09-25T12:55:24Z</time>
      </trkpt>
      <trkpt lat="49.06619" lon="2.12678">
        <ele>68</ele>
        <time>2022-09-25T12:55:30Z</time>
      </trkpt>
      <trkpt lat="49.06616" lon="2.12665">
        <ele>67.9</ele>
        <time>2022-09-25T12:55:35Z</time>
      </trkpt>
      <trkpt lat="49.06609" lon="2.12656">
        <ele>67.8</ele>
        <time>2022-09-25T12:55:41Z</time>
      </trkpt>
      <trkpt lat="49.06602" lon="2.12645">
        <ele>67.8</ele>
        <time>2022-09-25T12:55:47Z</time>
      </trkpt>
      <trkpt lat="49.06597" lon="2.12636">
        <ele>67.9</ele>
        <time>2022-09-25T12:55:52Z</time>
      </trkpt>
      <trkpt lat="49.06592" lon="2.12625">
        <ele>68</ele>
        <time>2022-09-25T12:55:58Z</time>
      </trkpt>
      <trkpt lat="49.06586" lon="2.12614">
        <ele>68</ele>
        <time>2022-09-25T12:56:04Z</time>
      </trkpt>
      <trkpt lat="49.06582" lon="2.12606">
        <ele>68.2</ele>
        <time>2022-09-25T12:56:09Z</time>
      </trkpt>
      <trkpt lat="49.06576" lon="2.12595">
        <ele>68.7</ele>
        <time>2022-09-25T12:56:15Z</time>
      </trkpt>
      <trkpt lat="49.0657" lon="2.12583">
        <ele>69.4</ele>
        <time>2022-09-25T12:56:21Z</time>
      </trkpt>
      <trkpt lat="49.06567" lon="2.12573">
        <ele>69.9</ele>
        <time>2022-09-25T12:56:26Z</time>
      </trkpt>
      <trkpt lat="49.06562" lon="2.12562">
        <ele>70.4</ele>
        <time>2022-09-25T12:56:32Z</time>
      </trkpt>
      <trkpt lat="49.06558" lon="2.12551">
        <ele>70.8</ele>
        <time>2022-09-25T12:56:38Z</time>
      </trkpt>
      <trkpt lat="49.06554" lon="2.1254">
        <ele>70.9</ele>
        <time>2022-09-25T12:56:43Z</time>
      </trkpt>
      <trkpt lat="49.06547" lon="2.12532">
        <ele>71.2</ele>
        <time>2022-09-25T12:56:49Z</time>
      </trkpt>
      <trkpt lat="49.06544" lon="2.12523">
        <ele>71.4</ele>
        <time>2022-09-25T12:56:54Z</time>
      </trkpt>
      <trkpt lat="49.06538" lon="2.12512">
        <ele>71.6</ele>
        <time>2022-09-25T12:57:00Z</time>
      </trkpt>
      <trkpt lat="49.06532" lon="2.12502">
        <ele>71.6</ele>
        <time>2022-09-25T12:57:06Z</time>
      </trkpt>
      <trkpt lat="49.06528" lon="2.12491">
        <ele>71.4</ele>
        <time>2022-09-25T12:57:12Z</time>
      </trkpt>
      <trkpt lat="49.06522" lon="2.12478">
        <ele>71.2</ele>
        <time>2022-09-25T12:57:18Z</time>
      </trkpt>
      <trkpt lat="49.06518" lon="2.12471">
        <ele>71</ele>
        <time>2022-09-25T12:57:23Z</time>
      </trkpt>
      <trkpt lat="49.06512" lon="2.12462">
        <ele>70.9</ele>
        <time>2022-09-25T12:57:29Z</time>
      </trkpt>
      <trkpt lat="49.06506" lon="2.1245">
        <ele>70.7</ele>
        <time>2022-09-25T12:57:35Z</time>
      </trkpt>
      <trkpt lat="49.06501" lon="2.12441">
        <ele>70.6</ele>
        <time>2022-09-25T12:57:40Z</time>
      </trkpt>
      <trkpt lat="49.06496" lon="2.12429">
        <ele>70.5</ele>
        <time>2022-09-25T12:57:45Z</time>
      </trkpt>
      <trkpt lat="49.06491" lon="2.12419">
        <ele>70.3</ele>
        <time>2022-09-25T12:57:50Z</time>
      </trkpt>
      <trkpt lat="49.06487" lon="2.12409">
        <ele>69.9</ele>
        <time>2022-09-25T12:57:56Z</time>
      </trkpt>
      <trkpt lat="49.06482" lon="2.12398">
        <ele>69.4</ele>
        <time>2022-09-25T12:58:01Z</time>
      </trkpt>
      <trkpt lat="49.06478" lon="2.12388">
        <ele>68.8</ele>
        <time>2022-09-25T12:58:06Z</time>
      </trkpt>
      <trkpt lat="49.06475" lon="2.1238">
        <ele>68.3</ele>
        <time>2022-09-25T12:58:11Z</time>
      </trkpt>
      <trkpt lat="49.06469" lon="2.12371">
        <ele>67.7</ele>
        <time>2022-09-25T12:58:17Z</time>
      </trkpt>
      <trkpt lat="49.06461" lon="2.12362">
        <ele>67.6</ele>
        <time>2022-09-25T12:58:23Z</time>
      </trkpt>
      <trkpt lat="49.06453" lon="2.12353">
        <ele>67.7</ele>
        <time>2022-09-25T12:58:29Z</time>
      </trkpt>
      <trkpt lat="49.06445" lon="2.12341">
        <ele>67.9</ele>
        <time>2022-09-25T12:58:36Z</time>
      </trkpt>
      <trkpt lat="49.06437" lon="2.12333">
        <ele>67.5</ele>
        <time>2022-09-25T12:58:42Z</time>
      </trkpt>
      <trkpt lat="49.06427" lon="2.12322">
        <ele>67.5</ele>
        <time>2022-09-25T12:58:48Z</time>
      </trkpt>
      <trkpt lat="49.06422" lon="2.12316">
        <ele>67.7</ele>
        <time>2022-09-25T12:58:53Z</time>
      </trkpt>
      <trkpt lat="49.06419" lon="2.1231">
        <ele>68</ele>
        <time>2022-09-25T12:58:58Z</time>
      </trkpt>
      <trkpt lat="49.06412" lon="2.12302">
        <ele>68.1</ele>
        <time>2022-09-25T12:59:04Z</time>
      </trkpt>
      <trkpt lat="49.06406" lon="2.12291">
        <ele>68.5</ele>
        <time>2022-09-25T12:59:10Z</time>
      </trkpt>
      <trkpt lat="49.06399" lon="2.12285">
        <ele>68.7</ele>
        <time>2022-09-25T12:59:15Z</time>
      </trkpt>
      <trkpt lat="49.06393" lon="2.12276">
        <ele>68.7</ele>
        <time>2022-09-25T12:59:21Z</time>
      </trkpt>
      <trkpt lat="49.0639" lon="2.12268">
        <ele>68.6</ele>
        <time>2022-09-25T12:59:26Z</time>
      </trkpt>
      <trkpt lat="49.06385" lon="2.12258">
        <ele>68.4</ele>
        <time>2022-09-25T12:59:32Z</time>
      </trkpt>
      <trkpt lat="49.06382" lon="2.12247">
        <ele>68.2</ele>
        <time>2022-09-25T12:59:38Z</time>
      </trkpt>
      <trkpt lat="49.06377" lon="2.12235">
        <ele>67.7</ele>
        <time>2022-09-25T12:59:44Z</time>
      </trkpt>
      <trkpt lat="49.06373" lon="2.12226">
        <ele>67.4</ele>
        <time>2022-09-25T12:59:49Z</time>
      </trkpt>
      <trkpt lat="49.06368" lon="2.12214">
        <ele>67.2</ele>
        <time>2022-09-25T12:59:55Z</time>
      </trkpt>
      <trkpt lat="49.06362" lon="2.12203">
        <ele>67.3</ele>
        <time>2022-09-25T13:00:01Z</time>
      </trkpt>
      <trkpt lat="49.06359" lon="2.12195">
        <ele>67.8</ele>
        <time>2022-09-25T13:00:06Z</time>
      </trkpt>
      <trkpt lat="49.06354" lon="2.12183">
        <ele>68.5</ele>
        <time>2022-09-25T13:00:12Z</time>
      </trkpt>
      <trkpt lat="49.06348" lon="2.12173">
        <ele>68.8</ele>
        <time>2022-09-25T13:00:17Z</time>
      </trkpt>
      <trkpt lat="49.06342" lon="2.12165">
        <ele>69.2</ele>
        <time>2022-09-25T13:00:23Z</time>
      </trkpt>
      <trkpt lat="49.06336" lon="2.12159">
        <ele>69.5</ele>
        <time>2022-09-25T13:00:29Z</time>
      </trkpt>
      <trkpt lat="49.06329" lon="2.1215">
        <ele>69.5</ele>
        <time>2022-09-25T13:00:34Z</time>
      </trkpt>
      <trkpt lat="49.06321" lon="2.1214">
        <ele>70.1</ele>
        <time>2022-09-25T13:00:40Z</time>
      </trkpt>
      <trkpt lat="49.06316" lon="2.12125">
        <ele>70.6</ele>
        <time>2022-09-25T13:00:46Z</time>
      </trkpt>
      <trkpt lat="49.06311" lon="2.12115">
        <ele>70.8</ele>
        <time>2022-09-25T13:00:52Z</time>
      </trkpt>
      <trkpt lat="49.06307" lon="2.12107">
        <ele>70.8</ele>
        <time>2022-09-25T13:00:57Z</time>
      </trkpt>
      <trkpt lat="49.06303" lon="2.12099">
        <ele>70.7</ele>
        <time>2022-09-25T13:01:03Z</time>
      </trkpt>
      <trkpt lat="49.06296" lon="2.12087">
        <ele>70.6</ele>
        <time>2022-09-25T13:01:09Z</time>
      </trkpt>
      <trkpt lat="49.0629" lon="2.12078">
        <ele>70.7</ele>
        <time>2022-09-25T13:01:14Z</time>
      </trkpt>
      <trkpt lat="49.06283" lon="2.12068">
        <ele>70.8</ele>
        <time>2022-09-25T13:01:20Z</time>
      </trkpt>
      <trkpt lat="49.06274" lon="2.12059">
        <ele>71.3</ele>
        <time>2022-09-25T13:01:26Z</time>
      </trkpt>
      <trkpt lat="49.06268" lon="2.12052">
        <ele>71.9</ele>
        <time>2022-09-25T13:01:31Z</time>
      </trkpt>
      <trkpt lat="49.06261" lon="2.12041">
        <ele>72.2</ele>
        <time>2022-09-25T13:01:37Z</time>
      </trkpt>
      <trkpt lat="49.06254" lon="2.12034">
        <ele>72.2</ele>
        <time>2022-09-25T13:01:42Z</time>
      </trkpt>
      <trkpt lat="49.06248" lon="2.12025">
        <ele>72.1</ele>
        <time>2022-09-25T13:01:48Z</time>
      </trkpt>
      <trkpt lat="49.06242" lon="2.12018">
        <ele>71.9</ele>
        <time>2022-09-25T13:01:53Z</time>
      </trkpt>
      <trkpt lat="49.06236" lon="2.12007">
        <ele>72</ele>
        <time>2022-09-25T13:01:59Z</time>
      </trkpt>
      <trkpt lat="49.06229" lon="2.12">
        <ele>72.2</ele>
        <time>2022-09-25T13:02:05Z</time>
      </trkpt>
      <trkpt lat="49.06222" lon="2.11993">
        <ele>72.1</ele>
        <time>2022-09-25T13:02:11Z</time>
      </trkpt>
      <trkpt lat="49.06215" lon="2.11985">
        <ele>71.9</ele>
        <time>2022-09-25T13:02:17Z</time>
      </trkpt>
      <trkpt lat="49.06208" lon="2.11979">
        <ele>71.4</ele>
        <time>2022-09-25T13:02:22Z</time>
      </trkpt>
      <trkpt lat="49.06201" lon="2.11971">
        <ele>70.8</ele>
        <time>2022-09-25T13:02:27Z</time>
      </trkpt>
      <trkpt lat="49.06195" lon="2.11962">
        <ele>70.4</ele>
        <time>2022-09-25T13:02:32Z</time>
      </trkpt>
      <trkpt lat="49.06189" lon="2.11952">
        <ele>70.1</ele>
        <time>2022-09-25T13:02:38Z</time>
      </trkpt>
      <trkpt lat="49.06182" lon="2.11946">
        <ele>70</ele>
        <time>2022-09-25T13:02:43Z</time>
      </trkpt>
      <trkpt lat="49.06175" lon="2.11939">
        <ele>69.8</ele>
        <time>2022-09-25T13:02:49Z</time>
      </trkpt>
      <trkpt lat="49.06167" lon="2.1193">
        <ele>69.7</ele>
        <time>2022-09-25T13:02:55Z</time>
      </trkpt>
      <trkpt lat="49.06161" lon="2.11919">
        <ele>69.5</ele>
        <time>2022-09-25T13:03:01Z</time>
      </trkpt>
      <trkpt lat="49.06156" lon="2.11911">
        <ele>69.4</ele>
        <time>2022-09-25T13:03:06Z</time>
      </trkpt>
      <trkpt lat="49.0615" lon="2.11902">
        <ele>69.3</ele>
        <time>2022-09-25T13:03:12Z</time>
      </trkpt>
      <trkpt lat="49.06145" lon="2.11894">
        <ele>69.2</ele>
        <time>2022-09-25T13:03:17Z</time>
      </trkpt>
      <trkpt lat="49.06138" lon="2.11883">
        <ele>69.2</ele>
        <time>2022-09-25T13:03:23Z</time>
      </trkpt>
      <trkpt lat="49.06132" lon="2.11873">
        <ele>69.1</ele>
        <time>2022-09-25T13:03:29Z</time>
      </trkpt>
      <trkpt lat="49.06127" lon="2.11863">
        <ele>69.1</ele>
        <time>2022-09-25T13:03:35Z</time>
      </trkpt>
      <trkpt lat="49.06124" lon="2.11855">
        <ele>69.3</ele>
        <time>2022-09-25T13:03:41Z</time>
      </trkpt>
      <trkpt lat="49.06118" lon="2.11843">
        <ele>69.4</ele>
        <time>2022-09-25T13:03:47Z</time>
      </trkpt>
      <trkpt lat="49.06114" lon="2.11834">
        <ele>69.4</ele>
        <time>2022-09-25T13:03:52Z</time>
      </trkpt>
      <trkpt lat="49.06109" lon="2.11827">
        <ele>69.5</ele>
        <time>2022-09-25T13:03:57Z</time>
      </trkpt>
      <trkpt lat="49.06102" lon="2.11816">
        <ele>69.7</ele>
        <time>2022-09-25T13:04:03Z</time>
      </trkpt>
      <trkpt lat="49.06096" lon="2.11807">
        <ele>69.8</ele>
        <time>2022-09-25T13:04:08Z</time>
      </trkpt>
      <trkpt lat="49.06092" lon="2.11797">
        <ele>69.8</ele>
        <time>2022-09-25T13:04:13Z</time>
      </trkpt>
      <trkpt lat="49.06086" lon="2.11788">
        <ele>70</ele>
        <time>2022-09-25T13:04:19Z</time>
      </trkpt>
      <trkpt lat="49.06081" lon="2.11779">
        <ele>70</ele>
        <time>2022-09-25T13:04:24Z</time>
      </trkpt>
      <trkpt lat="49.06076" lon="2.11768">
        <ele>69.8</ele>
        <time>2022-09-25T13:04:30Z</time>
      </trkpt>
      <trkpt lat="49.0607" lon="2.11759">
        <ele>69.7</ele>
        <time>2022-09-25T13:04:35Z</time>
      </trkpt>
      <trkpt lat="49.06065" lon="2.11748">
        <ele>69.7</ele>
        <time>2022-09-25T13:04:41Z</time>
      </trkpt>
      <trkpt lat="49.06062" lon="2.11741">
        <ele>69.8</ele>
        <time>2022-09-25T13:04:46Z</time>
      </trkpt>
      <trkpt lat="49.06056" lon="2.1173">
        <ele>70.2</ele>
        <time>2022-09-25T13:04:52Z</time>
      </trkpt>
      <trkpt lat="49.06051" lon="2.11719">
        <ele>70.3</ele>
        <time>2022-09-25T13:04:58Z</time>
      </trkpt>
      <trkpt lat="49.06045" lon="2.1171">
        <ele>70.2</ele>
        <time>2022-09-25T13:05:03Z</time>
      </trkpt>
      <trkpt lat="49.0604" lon="2.11701">
        <ele>70</ele>
        <time>2022-09-25T13:05:08Z</time>
      </trkpt>
      <trkpt lat="49.06032" lon="2.11691">
        <ele>70</ele>
        <time>2022-09-25T13:05:14Z</time>
      </trkpt>
      <trkpt lat="49.06027" lon="2.11683">
        <ele>70.2</ele>
        <time>2022-09-25T13:05:19Z</time>
      </trkpt>
      <trkpt lat="49.06019" lon="2.11675">
        <ele>70.6</ele>
        <time>2022-09-25T13:05:25Z</time>
      </trkpt>
      <trkpt lat="49.06013" lon="2.11666">
        <ele>71.1</ele>
        <time>2022-09-25T13:05:31Z</time>
      </trkpt>
      <trkpt lat="49.06006" lon="2.11661">
        <ele>71.5</ele>
        <time>2022-09-25T13:05:36Z</time>
      </trkpt>
      <trkpt lat="49.05999" lon="2.11652">
        <ele>71.8</ele>
        <time>2022-09-25T13:05:42Z</time>
      </trkpt>
      <trkpt lat="49.05994" lon="2.11645">
        <ele>72.1</ele>
        <time>2022-09-25T13:05:47Z</time>
      </trkpt>
      <trkpt lat="49.05987" lon="2.11635">
        <ele>72.1</ele>
        <time>2022-09-25T13:05:53Z</time>
      </trkpt>
      <trkpt lat="49.05981" lon="2.11627">
        <ele>72</ele>
        <time>2022-09-25T13:05:58Z</time>
      </trkpt>
      <trkpt lat="49.05974" lon="2.11617">
        <ele>71.8</ele>
        <time>2022-09-25T13:06:04Z</time>
      </trkpt>
      <trkpt lat="49.05967" lon="2.11609">
        <ele>71.8</ele>
        <time>2022-09-25T13:06:10Z</time>
      </trkpt>
      <trkpt lat="49.05961" lon="2.11599">
        <ele>71.7</ele>
        <time>2022-09-25T13:06:16Z</time>
      </trkpt>
      <trkpt lat="49.05954" lon="2.11589">
        <ele>71.6</ele>
        <time>2022-09-25T13:06:22Z</time>
      </trkpt>
      <trkpt lat="49.0595" lon="2.11581">
        <ele>71</ele>
        <time>2022-09-25T13:06:28Z</time>
      </trkpt>
      <trkpt lat="49.05944" lon="2.11572">
        <ele>70.5</ele>
        <time>2022-09-25T13:06:33Z</time>
      </trkpt>
      <trkpt lat="49.05937" lon="2.11564">
        <ele>70</ele>
        <time>2022-09-25T13:06:38Z</time>
      </trkpt>
      <trkpt lat="49.0593" lon="2.11557">
        <ele>69.7</ele>
        <time>2022-09-25T13:06:43Z</time>
      </trkpt>
      <trkpt lat="49.05924" lon="2.11549">
        <ele>69.4</ele>
        <time>2022-09-25T13:06:49Z</time>
      </trkpt>
      <trkpt lat="49.05917" lon="2.11539">
        <ele>69.5</ele>
        <time>2022-09-25T13:06:55Z</time>
      </trkpt>
      <trkpt lat="49.05911" lon="2.11531">
        <ele>69.9</ele>
        <time>2022-09-25T13:07:00Z</time>
      </trkpt>
      <trkpt lat="49.05903" lon="2.11525">
        <ele>70.3</ele>
        <time>2022-09-25T13:07:06Z</time>
      </trkpt>
      <trkpt lat="49.05896" lon="2.11519">
        <ele>70.3</ele>
        <time>2022-09-25T13:07:11Z</time>
      </trkpt>
      <trkpt lat="49.0589" lon="2.11511">
        <ele>70.5</ele>
        <time>2022-09-25T13:07:16Z</time>
      </trkpt>
      <trkpt lat="49.05882" lon="2.11501">
        <ele>70.7</ele>
        <time>2022-09-25T13:07:22Z</time>
      </trkpt>
      <trkpt lat="49.05876" lon="2.1149">
        <ele>70.3</ele>
        <time>2022-09-25T13:07:28Z</time>
      </trkpt>
      <trkpt lat="49.0587" lon="2.11483">
        <ele>69.4</ele>
        <time>2022-09-25T13:07:34Z</time>
      </trkpt>
      <trkpt lat="49.05863" lon="2.11476">
        <ele>68.8</ele>
        <time>2022-09-25T13:07:40Z</time>
      </trkpt>
      <trkpt lat="49.05858" lon="2.11468">
        <ele>68.6</ele>
        <time>2022-09-25T13:07:45Z</time>
      </trkpt>
      <trkpt lat="49.05852" lon="2.11455">
        <ele>68.5</ele>
        <time>2022-09-25T13:07:51Z</time>
      </trkpt>
      <trkpt lat="49.05846" lon="2.11447">
        <ele>68.8</ele>
        <time>2022-09-25T13:07:57Z</time>
      </trkpt>
      <trkpt lat="49.05841" lon="2.1144">
        <ele>69</ele>
        <time>2022-09-25T13:08:03Z</time>
      </trkpt>
      <trkpt lat="49.05835" lon="2.11433">
        <ele>69</ele>
        <time>2022-09-25T13:08:08Z</time>
      </trkpt>
      <trkpt lat="49.05828" lon="2.11424">
        <ele>68.9</ele>
        <time>2022-09-25T13:08:14Z</time>
      </trkpt>
      <trkpt lat="49.05821" lon="2.11414">
        <ele>69.1</ele>
        <time>2022-09-25T13:08:20Z</time>
      </trkpt>
      <trkpt lat="49.05814" lon="2.11405">
        <ele>69.2</ele>
        <time>2022-09-25T13:08:25Z</time>
      </trkpt>
      <trkpt lat="49.05809" lon="2.11395">
        <ele>69.5</ele>
        <time>2022-09-25T13:08:31Z</time>
      </trkpt>
      <trkpt lat="49.05803" lon="2.11387">
        <ele>69.7</ele>
        <time>2022-09-25T13:08:36Z</time>
      </trkpt>
      <trkpt lat="49.05799" lon="2.11379">
        <ele>69.9</ele>
        <time>2022-09-25T13:08:41Z</time>
      </trkpt>
      <trkpt lat="49.05794" lon="2.11369">
        <ele>70.2</ele>
        <time>2022-09-25T13:08:47Z</time>
      </trkpt>
      <trkpt lat="49.05787" lon="2.11359">
        <ele>70.4</ele>
        <time>2022-09-25T13:08:52Z</time>
      </trkpt>
      <trkpt lat="49.05782" lon="2.11349">
        <ele>70.4</ele>
        <time>2022-09-25T13:08:57Z</time>
      </trkpt>
      <trkpt lat="49.05776" lon="2.11337">
        <ele>70.5</ele>
        <time>2022-09-25T13:09:03Z</time>
      </trkpt>
      <trkpt lat="49.05771" lon="2.11331">
        <ele>70.5</ele>
        <time>2022-09-25T13:09:09Z</time>
      </trkpt>
      <trkpt lat="49.05765" lon="2.11322">
        <ele>70.8</ele>
        <time>2022-09-25T13:09:14Z</time>
      </trkpt>
      <trkpt lat="49.05758" lon="2.11312">
        <ele>71.3</ele>
        <time>2022-09-25T13:09:20Z</time>
      </trkpt>
      <trkpt lat="49.05751" lon="2.11305">
        <ele>71.5</ele>
        <time>2022-09-25T13:09:25Z</time>
      </trkpt>
      <trkpt lat="49.05746" lon="2.11298">
        <ele>71.6</ele>
        <time>2022-09-25T13:09:31Z</time>
      </trkpt>
      <trkpt lat="49.05741" lon="2.11288">
        <ele>71.9</ele>
        <time>2022-09-25T13:09:37Z</time>
      </trkpt>
      <trkpt lat="49.05734" lon="2.11282">
        <ele>71.8</ele>
        <time>2022-09-25T13:09:42Z</time>
      </trkpt>
      <trkpt lat="49.05728" lon="2.11276">
        <ele>71.8</ele>
        <time>2022-09-25T13:09:47Z</time>
      </trkpt>
      <trkpt lat="49.0572" lon="2.11267">
        <ele>71.7</ele>
        <time>2022-09-25T13:09:53Z</time>
      </trkpt>
      <trkpt lat="49.05712" lon="2.11258">
        <ele>71.4</ele>
        <time>2022-09-25T13:09:59Z</time>
      </trkpt>
      <trkpt lat="49.05705" lon="2.11247">
        <ele>71.2</ele>
        <time>2022-09-25T13:10:05Z</time>
      </trkpt>
      <trkpt lat="49.057" lon="2.11238">
        <ele>71.1</ele>
        <time>2022-09-25T13:10:10Z</time>
      </trkpt>
      <trkpt lat="49.05696" lon="2.1123">
        <ele>71</ele>
        <time>2022-09-25T13:10:15Z</time>
      </trkpt>
      <trkpt lat="49.05689" lon="2.11217">
        <ele>70.9</ele>
        <time>2022-09-25T13:10:21Z</time>
      </trkpt>
      <trkpt lat="49.05683" lon="2.11208">
        <ele>70.8</ele>
        <time>2022-09-25T13:10:27Z</time>
      </trkpt>
      <trkpt lat="49.05678" lon="2.112">
        <ele>70.7</ele>
        <time>2022-09-25T13:10:32Z</time>
      </trkpt>
      <trkpt lat="49.05671" lon="2.11194">
        <ele>70.8</ele>
        <time>2022-09-25T13:10:38Z</time>
      </trkpt>
      <trkpt lat="49.05665" lon="2.11188">
        <ele>70.9</ele>
        <time>2022-09-25T13:10:43Z</time>
      </trkpt>
      <trkpt lat="49.0566" lon="2.11181">
        <ele>71</ele>
        <time>2022-09-25T13:10:48Z</time>
      </trkpt>
      <trkpt lat="49.05652" lon="2.11172">
        <ele>70.9</ele>
        <time>2022-09-25T13:10:54Z</time>
      </trkpt>
      <trkpt lat="49.05646" lon="2.11169">
        <ele>70.7</ele>
        <time>2022-09-25T13:10:59Z</time>
      </trkpt>
      <trkpt lat="49.05644" lon="2.11167">
        <ele>70.5</ele>
        <time>2022-09-25T13:11:04Z</time>
      </trkpt>
      <trkpt lat="49.05638" lon="2.11154">
        <ele>69.9</ele>
        <time>2022-09-25T13:11:10Z</time>
      </trkpt>
      <trkpt lat="49.05634" lon="2.11145">
        <ele>69.3</ele>
        <time>2022-09-25T13:11:15Z</time>
      </trkpt>
      <trkpt lat="49.05628" lon="2.11138">
        <ele>68.9</ele>
        <time>2022-09-25T13:11:20Z</time>
      </trkpt>
      <trkpt lat="49.05621" lon="2.11128">
        <ele>68.5</ele>
        <time>2022-09-25T13:11:26Z</time>
      </trkpt>
      <trkpt lat="49.05613" lon="2.11119">
        <ele>68.2</ele>
        <time>2022-09-25T13:11:32Z</time>
      </trkpt>
      <trkpt lat="49.05605" lon="2.1111">
        <ele>68</ele>
        <time>2022-09-25T13:11:38Z</time>
      </trkpt>
      <trkpt lat="49.05597" lon="2.11101">
        <ele>68</ele>
        <time>2022-09-25T13:11:44Z</time>
      </trkpt>
      <trkpt lat="49.0559" lon="2.11094">
        <ele>68.2</ele>
        <time>2022-09-25T13:11:49Z</time>
      </trkpt>
      <trkpt lat="49.05586" lon="2.11087">
        <ele>68.4</ele>
        <time>2022-09-25T13:11:54Z</time>
      </trkpt>
      <trkpt lat="49.05578" lon="2.11079">
        <ele>68.5</ele>
        <time>2022-09-25T13:12:00Z</time>
      </trkpt>
      <trkpt lat="49.05572" lon="2.11073">
        <ele>68.6</ele>
        <time>2022-09-25T13:12:05Z</time>
      </trkpt>
      <trkpt lat="49.05566" lon="2.11064">
        <ele>68.5</ele>
        <time>2022-09-25T13:12:10Z</time>
      </trkpt>
      <trkpt lat="49.0556" lon="2.11054">
        <ele>68.5</ele>
        <time>2022-09-25T13:12:16Z</time>
      </trkpt>
      <trkpt lat="49.05554" lon="2.11047">
        <ele>68.5</ele>
        <time>2022-09-25T13:12:21Z</time>
      </trkpt>
      <trkpt lat="49.05548" lon="2.11037">
        <ele>68.4</ele>
        <time>2022-09-25T13:12:27Z</time>
      </trkpt>
      <trkpt lat="49.05541" lon="2.11026">
        <ele>68.4</ele>
        <time>2022-09-25T13:12:33Z</time>
      </trkpt>
      <trkpt lat="49.05535" lon="2.11018">
        <ele>68.6</ele>
        <time>2022-09-25T13:12:38Z</time>
      </trkpt>
      <trkpt lat="49.05528" lon="2.11009">
        <ele>68.9</ele>
        <time>2022-09-25T13:12:44Z</time>
      </trkpt>
      <trkpt lat="49.0552" lon="2.10999">
        <ele>69.2</ele>
        <time>2022-09-25T13:12:50Z</time>
      </trkpt>
      <trkpt lat="49.05514" lon="2.10991">
        <ele>69.4</ele>
        <time>2022-09-25T13:12:55Z</time>
      </trkpt>
      <trkpt lat="49.05507" lon="2.10986">
        <ele>69.6</ele>
        <time>2022-09-25T13:13:00Z</time>
      </trkpt>
      <trkpt lat="49.055" lon="2.10979">
        <ele>70.3</ele>
        <time>2022-09-25T13:13:06Z</time>
      </trkpt>
      <trkpt lat="49.05492" lon="2.10967">
        <ele>71.2</ele>
        <time>2022-09-25T13:13:12Z</time>
      </trkpt>
      <trkpt lat="49.05486" lon="2.10958">
        <ele>72</ele>
        <time>2022-09-25T13:13:17Z</time>
      </trkpt>
      <trkpt lat="49.05481" lon="2.10952">
        <ele>72.8</ele>
        <time>2022-09-25T13:13:22Z</time>
      </trkpt>
      <trkpt lat="49.05476" lon="2.10948">
        <ele>73.5</ele>
        <time>2022-09-25T13:13:28Z</time>
      </trkpt>
      <trkpt lat="49.05472" lon="2.10945">
        <ele>73.8</ele>
        <time>2022-09-25T13:13:34Z</time>
      </trkpt>
      <trkpt lat="49.05466" lon="2.1094">
        <ele>73.7</ele>
        <time>2022-09-25T13:13:39Z</time>
      </trkpt>
      <trkpt lat="49.05459" lon="2.10934">
        <ele>73.1</ele>
        <time>2022-09-25T13:13:45Z</time>
      </trkpt>
      <trkpt lat="49.05455" lon="2.10931">
        <ele>72.6</ele>
        <time>2022-09-25T13:13:50Z</time>
      </trkpt>
      <trkpt lat="49.0545" lon="2.10923">
        <ele>71.8</ele>
        <time>2022-09-25T13:13:56Z</time>
      </trkpt>
      <trkpt lat="49.05445" lon="2.10912">
        <ele>71.1</ele>
        <time>2022-09-25T13:14:02Z</time>
      </trkpt>
      <trkpt lat="49.05439" lon="2.10904">
        <ele>70.4</ele>
        <time>2022-09-25T13:14:07Z</time>
      </trkpt>
      <trkpt lat="49.05433" lon="2.10893">
        <ele>69.8</ele>
        <time>2022-09-25T13:14:13Z</time>
      </trkpt>
      <trkpt lat="49.05428" lon="2.10885">
        <ele>69.1</ele>
        <time>2022-09-25T13:14:19Z</time>
      </trkpt>
      <trkpt lat="49.05422" lon="2.10876">
        <ele>68.9</ele>
        <time>2022-09-25T13:14:24Z</time>
      </trkpt>
      <trkpt lat="49.05418" lon="2.10867">
        <ele>68.7</ele>
        <time>2022-09-25T13:14:29Z</time>
      </trkpt>
      <trkpt lat="49.05412" lon="2.10859">
        <ele>68.8</ele>
        <time>2022-09-25T13:14:34Z</time>
      </trkpt>
      <trkpt lat="49.05406" lon="2.10848">
        <ele>68.8</ele>
        <time>2022-09-25T13:14:40Z</time>
      </trkpt>
      <trkpt lat="49.05401" lon="2.1084">
        <ele>68.8</ele>
        <time>2022-09-25T13:14:45Z</time>
      </trkpt>
      <trkpt lat="49.05397" lon="2.1083">
        <ele>68.6</ele>
        <time>2022-09-25T13:14:51Z</time>
      </trkpt>
      <trkpt lat="49.05391" lon="2.10822">
        <ele>68.4</ele>
        <time>2022-09-25T13:14:56Z</time>
      </trkpt>
      <trkpt lat="49.05386" lon="2.10813">
        <ele>68.2</ele>
        <time>2022-09-25T13:15:02Z</time>
      </trkpt>
      <trkpt lat="49.05382" lon="2.10807">
        <ele>67.7</ele>
        <time>2022-09-25T13:15:07Z</time>
      </trkpt>
      <trkpt lat="49.05374" lon="2.10796">
        <ele>67.4</ele>
        <time>2022-09-25T13:15:13Z</time>
      </trkpt>
      <trkpt lat="49.05366" lon="2.10799">
        <ele>67.3</ele>
        <time>2022-09-25T13:15:19Z</time>
      </trkpt>
      <trkpt lat="49.05358" lon="2.10807">
        <ele>67.2</ele>
        <time>2022-09-25T13:15:25Z</time>
      </trkpt>
      <trkpt lat="49.05352" lon="2.10812">
        <ele>67</ele>
        <time>2022-09-25T13:15:30Z</time>
      </trkpt>
      <trkpt lat="49.05344" lon="2.10819">
        <ele>66.5</ele>
        <time>2022-09-25T13:15:35Z</time>
      </trkpt>
      <trkpt lat="49.05336" lon="2.10828">
        <ele>66.2</ele>
        <time>2022-09-25T13:15:41Z</time>
      </trkpt>
      <trkpt lat="49.05328" lon="2.10837">
        <ele>66</ele>
        <time>2022-09-25T13:15:47Z</time>
      </trkpt>
      <trkpt lat="49.05322" lon="2.10843">
        <ele>65.8</ele>
        <time>2022-09-25T13:15:52Z</time>
      </trkpt>
      <trkpt lat="49.05316" lon="2.10847">
        <ele>65.6</ele>
        <time>2022-09-25T13:15:58Z</time>
      </trkpt>
      <trkpt lat="49.05312" lon="2.10852">
        <ele>65.2</ele>
        <time>2022-09-25T13:16:03Z</time>
      </trkpt>
      <trkpt lat="49.05304" lon="2.1086">
        <ele>64.8</ele>
        <time>2022-09-25T13:16:09Z</time>
      </trkpt>
      <trkpt lat="49.05298" lon="2.10864">
        <ele>64.7</ele>
        <time>2022-09-25T13:16:14Z</time>
      </trkpt>
      <trkpt lat="49.05289" lon="2.10861">
        <ele>64.7</ele>
        <time>2022-09-25T13:16:20Z</time>
      </trkpt>
      <trkpt lat="49.05284" lon="2.10858">
        <ele>64.6</ele>
        <time>2022-09-25T13:16:25Z</time>
      </trkpt>
      <trkpt lat="49.05279" lon="2.10853">
        <ele>64.4</ele>
        <time>2022-09-25T13:16:30Z</time>
      </trkpt>
      <trkpt lat="49.05273" lon="2.10847">
        <ele>64.3</ele>
        <time>2022-09-25T13:16:36Z</time>
      </trkpt>
      <trkpt lat="49.05268" lon="2.1085">
        <ele>64.5</ele>
        <time>2022-09-25T13:16:42Z</time>
      </trkpt>
      <trkpt lat="49.05261" lon="2.10858">
        <ele>64.6</ele>
        <time>2022-09-25T13:16:48Z</time>
      </trkpt>
      <trkpt lat="49.05254" lon="2.10863">
        <ele>64.6</ele>
        <time>2022-09-25T13:16:53Z</time>
      </trkpt>
      <trkpt lat="49.0525" lon="2.10871">
        <ele>64.2</ele>
        <time>2022-09-25T13:16:59Z</time>
      </trkpt>
      <trkpt lat="49.05243" lon="2.10876">
        <ele>64.2</ele>
        <time>2022-09-25T13:17:05Z</time>
      </trkpt>
      <trkpt lat="49.0524" lon="2.10879">
        <ele>64.4</ele>
        <time>2022-09-25T13:17:10Z</time>
      </trkpt>
      <trkpt lat="49.05234" lon="2.10883">
        <ele>64.3</ele>
        <time>2022-09-25T13:17:16Z</time>
      </trkpt>
      <trkpt lat="49.0523" lon="2.1088">
        <ele>64.3</ele>
        <time>2022-09-25T13:17:21Z</time>
      </trkpt>
      <trkpt lat="49.05227" lon="2.1087">
        <ele>64.3</ele>
        <time>2022-09-25T13:17:27Z</time>
      </trkpt>
      <trkpt lat="49.05221" lon="2.10864">
        <ele>64.4</ele>
        <time>2022-09-25T13:17:32Z</time>
      </trkpt>
      <trkpt lat="49.05217" lon="2.10859">
        <ele>64.5</ele>
        <time>2022-09-25T13:17:37Z</time>
      </trkpt>
      <trkpt lat="49.05211" lon="2.10849">
        <ele>64.5</ele>
        <time>2022-09-25T13:17:43Z</time>
      </trkpt>
      <trkpt lat="49.05208" lon="2.10841">
        <ele>64.4</ele>
        <time>2022-09-25T13:17:48Z</time>
      </trkpt>
      <trkpt lat="49.05203" lon="2.10828">
        <ele>64.6</ele>
        <time>2022-09-25T13:17:54Z</time>
      </trkpt>
      <trkpt lat="49.05199" lon="2.10819">
        <ele>64.8</ele>
        <time>2022-09-25T13:18:00Z</time>
      </trkpt>
      <trkpt lat="49.05194" lon="2.10808">
        <ele>65</ele>
        <time>2022-09-25T13:18:05Z</time>
      </trkpt>
      <trkpt lat="49.05188" lon="2.10796">
        <ele>65.5</ele>
        <time>2022-09-25T13:18:11Z</time>
      </trkpt>
      <trkpt lat="49.05183" lon="2.10789">
        <ele>65.7</ele>
        <time>2022-09-25T13:18:17Z</time>
      </trkpt>
      <trkpt lat="49.05179" lon="2.10785">
        <ele>65.4</ele>
        <time>2022-09-25T13:18:22Z</time>
      </trkpt>
      <trkpt lat="49.05172" lon="2.10773">
        <ele>65.2</ele>
        <time>2022-09-25T13:18:28Z</time>
      </trkpt>
      <trkpt lat="49.05166" lon="2.1076">
        <ele>65.4</ele>
        <time>2022-09-25T13:18:34Z</time>
      </trkpt>
      <trkpt lat="49.05161" lon="2.10747">
        <ele>65.8</ele>
        <time>2022-09-25T13:18:40Z</time>
      </trkpt>
      <trkpt lat="49.05156" lon="2.10738">
        <ele>66</ele>
        <time>2022-09-25T13:18:46Z</time>
      </trkpt>
      <trkpt lat="49.05151" lon="2.10729">
        <ele>65.9</ele>
        <time>2022-09-25T13:18:51Z</time>
      </trkpt>
      <trkpt lat="49.05147" lon="2.10723">
        <ele>66</ele>
        <time>2022-09-25T13:18:56Z</time>
      </trkpt>
      <trkpt lat="49.05141" lon="2.1071">
        <ele>66.2</ele>
        <time>2022-09-25T13:19:02Z</time>
      </trkpt>
      <trkpt lat="49.05137" lon="2.107">
        <ele>66.7</ele>
        <time>2022-09-25T13:19:08Z</time>
      </trkpt>
      <trkpt lat="49.05131" lon="2.1069">
        <ele>67.1</ele>
        <time>2022-09-25T13:19:13Z</time>
      </trkpt>
      <trkpt lat="49.05125" lon="2.10677">
        <ele>67.7</ele>
        <time>2022-09-25T13:19:19Z</time>
      </trkpt>
      <trkpt lat="49.05121" lon="2.10667">
        <ele>68.1</ele>
        <time>2022-09-25T13:19:24Z</time>
      </trkpt>
      <trkpt lat="49.05117" lon="2.10659">
        <ele>68.3</ele>
        <time>2022-09-25T13:19:29Z</time>
      </trkpt>
      <trkpt lat="49.05113" lon="2.10649">
        <ele>68.7</ele>
        <time>2022-09-25T13:19:35Z</time>
      </trkpt>
      <trkpt lat="49.05109" lon="2.1064">
        <ele>68.8</ele>
        <time>2022-09-25T13:19:40Z</time>
      </trkpt>
      <trkpt lat="49.05104" lon="2.10625">
        <ele>68.7</ele>
        <time>2022-09-25T13:19:46Z</time>
      </trkpt>
      <trkpt lat="49.051" lon="2.10616">
        <ele>68.8</ele>
        <time>2022-09-25T13:19:51Z</time>
      </trkpt>
      <trkpt lat="49.05097" lon="2.10607">
        <ele>68.7</ele>
        <time>2022-09-25T13:19:56Z</time>
      </trkpt>
      <trkpt lat="49.05092" lon="2.10596">
        <ele>68.4</ele>
        <time>2022-09-25T13:20:02Z</time>
      </trkpt>
      <trkpt lat="49.05087" lon="2.10585">
        <ele>67.9</ele>
        <time>2022-09-25T13:20:07Z</time>
      </trkpt>
      <trkpt lat="49.05082" lon="2.10572">
        <ele>67.3</ele>
        <time>2022-09-25T13:20:13Z</time>
      </trkpt>
      <trkpt lat="49.05079" lon="2.10562">
        <ele>67.4</ele>
        <time>2022-09-25T13:20:18Z</time>
      </trkpt>
      <trkpt lat="49.05074" lon="2.10555">
        <ele>67.3</ele>
        <time>2022-09-25T13:20:24Z</time>
      </trkpt>
      <trkpt lat="49.05072" lon="2.10546">
        <ele>67.2</ele>
        <time>2022-09-25T13:20:29Z</time>
      </trkpt>
      <trkpt lat="49.05067" lon="2.10533">
        <ele>67.1</ele>
        <time>2022-09-25T13:20:35Z</time>
      </trkpt>
      <trkpt lat="49.05061" lon="2.10522">
        <ele>67.1</ele>
        <time>2022-09-25T13:20:41Z</time>
      </trkpt>
      <trkpt lat="49.05053" lon="2.10512">
        <ele>67.2</ele>
        <time>2022-09-25T13:20:47Z</time>
      </trkpt>
      <trkpt lat="49.05049" lon="2.10502">
        <ele>67.5</ele>
        <time>2022-09-25T13:20:52Z</time>
      </trkpt>
      <trkpt lat="49.05044" lon="2.1049">
        <ele>67.7</ele>
        <time>2022-09-25T13:20:58Z</time>
      </trkpt>
      <trkpt lat="49.0504" lon="2.10481">
        <ele>67.7</ele>
        <time>2022-09-25T13:21:03Z</time>
      </trkpt>
      <trkpt lat="49.05036" lon="2.10473">
        <ele>67.6</ele>
        <time>2022-09-25T13:21:08Z</time>
      </trkpt>
      <trkpt lat="49.0503" lon="2.10462">
        <ele>67.6</ele>
        <time>2022-09-25T13:21:14Z</time>
      </trkpt>
      <trkpt lat="49.05026" lon="2.10452">
        <ele>67.5</ele>
        <time>2022-09-25T13:21:19Z</time>
      </trkpt>
      <trkpt lat="49.05022" lon="2.10443">
        <ele>67.6</ele>
        <time>2022-09-25T13:21:25Z</time>
      </trkpt>
      <trkpt lat="49.05018" lon="2.10433">
        <ele>67.7</ele>
        <time>2022-09-25T13:21:30Z</time>
      </trkpt>
      <trkpt lat="49.05012" lon="2.10421">
        <ele>68</ele>
        <time>2022-09-25T13:21:36Z</time>
      </trkpt>
      <trkpt lat="49.05006" lon="2.1041">
        <ele>68.3</ele>
        <time>2022-09-25T13:21:42Z</time>
      </trkpt>
      <trkpt lat="49.05001" lon="2.104">
        <ele>68.6</ele>
        <time>2022-09-25T13:21:48Z</time>
      </trkpt>
      <trkpt lat="49.04996" lon="2.10392">
        <ele>68.7</ele>
        <time>2022-09-25T13:21:53Z</time>
      </trkpt>
      <trkpt lat="49.04988" lon="2.10383">
        <ele>68.9</ele>
        <time>2022-09-25T13:21:59Z</time>
      </trkpt>
      <trkpt lat="49.04983" lon="2.10375">
        <ele>69.2</ele>
        <time>2022-09-25T13:22:04Z</time>
      </trkpt>
      <trkpt lat="49.04978" lon="2.10364">
        <ele>69.6</ele>
        <time>2022-09-25T13:22:10Z</time>
      </trkpt>
      <trkpt lat="49.04973" lon="2.10356">
        <ele>69.9</ele>
        <time>2022-09-25T13:22:15Z</time>
      </trkpt>
      <trkpt lat="49.04968" lon="2.10347">
        <ele>70</ele>
        <time>2022-09-25T13:22:20Z</time>
      </trkpt>
      <trkpt lat="49.04964" lon="2.10339">
        <ele>70</ele>
        <time>2022-09-25T13:22:25Z</time>
      </trkpt>
      <trkpt lat="49.04957" lon="2.10329">
        <ele>70.2</ele>
        <time>2022-09-25T13:22:31Z</time>
      </trkpt>
      <trkpt lat="49.04952" lon="2.1032">
        <ele>70.4</ele>
        <time>2022-09-25T13:22:37Z</time>
      </trkpt>
      <trkpt lat="49.04946" lon="2.10309">
        <ele>70.6</ele>
        <time>2022-09-25T13:22:43Z</time>
      </trkpt>
      <trkpt lat="49.04939" lon="2.10298">
        <ele>70.9</ele>
        <time>2022-09-25T13:22:49Z</time>
      </trkpt>
      <trkpt lat="49.04934" lon="2.1029">
        <ele>70.9</ele>
        <time>2022-09-25T13:22:54Z</time>
      </trkpt>
      <trkpt lat="49.04929" lon="2.10279">
        <ele>71.1</ele>
        <time>2022-09-25T13:23:00Z</time>
      </trkpt>
      <trkpt lat="49.04924" lon="2.10271">
        <ele>71.3</ele>
        <time>2022-09-25T13:23:05Z</time>
      </trkpt>
      <trkpt lat="49.04919" lon="2.10263">
        <ele>71.4</ele>
        <time>2022-09-25T13:23:10Z</time>
      </trkpt>
      <trkpt lat="49.04914" lon="2.10253">
        <ele>71.4</ele>
        <time>2022-09-25T13:23:15Z</time>
      </trkpt>
      <trkpt lat="49.04907" lon="2.10244">
        <ele>71.6</ele>
        <time>2022-09-25T13:23:21Z</time>
      </trkpt>
      <trkpt lat="49.04902" lon="2.10237">
        <ele>71.6</ele>
        <time>2022-09-25T13:23:26Z</time>
      </trkpt>
      <trkpt lat="49.04896" lon="2.10227">
        <ele>71.5</ele>
        <time>2022-09-25T13:23:32Z</time>
      </trkpt>
      <trkpt lat="49.04892" lon="2.10217">
        <ele>71.4</ele>
        <time>2022-09-25T13:23:38Z</time>
      </trkpt>
      <trkpt lat="49.04887" lon="2.10208">
        <ele>71.3</ele>
        <time>2022-09-25T13:23:43Z</time>
      </trkpt>
      <trkpt lat="49.0488" lon="2.10197">
        <ele>71.3</ele>
        <time>2022-09-25T13:23:49Z</time>
      </trkpt>
      <trkpt lat="49.04874" lon="2.10189">
        <ele>71.2</ele>
        <time>2022-09-25T13:23:54Z</time>
      </trkpt>
      <trkpt lat="49.0487" lon="2.10182">
        <ele>71.2</ele>
        <time>2022-09-25T13:23:59Z</time>
      </trkpt>
      <trkpt lat="49.04864" lon="2.10177">
        <ele>71</ele>
        <time>2022-09-25T13:24:04Z</time>
      </trkpt>
      <trkpt lat="49.04855" lon="2.10168">
        <ele>71.1</ele>
        <time>2022-09-25T13:24:10Z</time>
      </trkpt>
      <trkpt lat="49.0485" lon="2.10161">
        <ele>71.2</ele>
        <time>2022-09-25T13:24:15Z</time>
      </trkpt>
      <trkpt lat="49.04845" lon="2.10152">
        <ele>71.2</ele>
        <time>2022-09-25T13:24:21Z</time>
      </trkpt>
      <trkpt lat="49.04841" lon="2.10155">
        <ele>71.2</ele>
        <time>2022-09-25T13:24:26Z</time>
      </trkpt>
      <trkpt lat="49.04836" lon="2.10164">
        <ele>71.2</ele>
        <time>2022-09-25T13:24:31Z</time>
      </trkpt>
      <trkpt lat="49.04831" lon="2.10175">
        <ele>71.3</ele>
        <time>2022-09-25T13:24:36Z</time>
      </trkpt>
      <trkpt lat="49.04825" lon="2.10189">
        <ele>71.2</ele>
        <time>2022-09-25T13:24:42Z</time>
      </trkpt>
      <trkpt lat="49.04822" lon="2.10198">
        <ele>71.2</ele>
        <time>2022-09-25T13:24:47Z</time>
      </trkpt>
      <trkpt lat="49.04817" lon="2.10208">
        <ele>71.2</ele>
        <time>2022-09-25T13:24:53Z</time>
      </trkpt>
      <trkpt lat="49.04813" lon="2.10218">
        <ele>71.1</ele>
        <time>2022-09-25T13:24:58Z</time>
      </trkpt>
      <trkpt lat="49.04809" lon="2.10228">
        <ele>70.6</ele>
        <time>2022-09-25T13:25:04Z</time>
      </trkpt>
      <trkpt lat="49.04805" lon="2.10239">
        <ele>70.1</ele>
        <time>2022-09-25T13:25:09Z</time>
      </trkpt>
      <trkpt lat="49.04802" lon="2.10249">
        <ele>69.6</ele>
        <time>2022-09-25T13:25:14Z</time>
      </trkpt>
      <trkpt lat="49.04797" lon="2.10261">
        <ele>69</ele>
        <time>2022-09-25T13:25:20Z</time>
      </trkpt>
      <trkpt lat="49.04794" lon="2.1027">
        <ele>68.5</ele>
        <time>2022-09-25T13:25:25Z</time>
      </trkpt>
      <trkpt lat="49.04793" lon="2.1028">
        <ele>68.2</ele>
        <time>2022-09-25T13:25:31Z</time>
      </trkpt>
      <trkpt lat="49.04799" lon="2.10288">
        <ele>68</ele>
        <time>2022-09-25T13:25:36Z</time>
      </trkpt>
      <trkpt lat="49.04808" lon="2.10294">
        <ele>67.7</ele>
        <time>2022-09-25T13:25:42Z</time>
      </trkpt>
      <trkpt lat="49.04816" lon="2.10303">
        <ele>67.5</ele>
        <time>2022-09-25T13:25:48Z</time>
      </trkpt>
      <trkpt lat="49.04821" lon="2.10311">
        <ele>67.3</ele>
        <time>2022-09-25T13:25:53Z</time>
      </trkpt>
      <trkpt lat="49.04825" lon="2.10321">
        <ele>67</ele>
        <time>2022-09-25T13:25:59Z</time>
      </trkpt>
      <trkpt lat="49.04828" lon="2.10333">
        <ele>66.6</ele>
        <time>2022-09-25T13:26:05Z</time>
      </trkpt>
      <trkpt lat="49.04831" lon="2.10343">
        <ele>66.4</ele>
        <time>2022-09-25T13:26:10Z</time>
      </trkpt>
      <trkpt lat="49.04834" lon="2.10351">
        <ele>66.1</ele>
        <time>2022-09-25T13:26:15Z</time>
      </trkpt>
      <trkpt lat="49.04837" lon="2.10363">
        <ele>65.5</ele>
        <time>2022-09-25T13:26:21Z</time>
      </trkpt>
      <trkpt lat="49.04844" lon="2.10373">
        <ele>65</ele>
        <time>2022-09-25T13:26:27Z</time>
      </trkpt>
      <trkpt lat="49.04848" lon="2.10383">
        <ele>64.5</ele>
        <time>2022-09-25T13:26:33Z</time>
      </trkpt>
      <trkpt lat="49.04855" lon="2.10395">
        <ele>64</ele>
        <time>2022-09-25T13:26:39Z</time>
      </trkpt>
      <trkpt lat="49.04861" lon="2.10405">
        <ele>63.4</ele>
        <time>2022-09-25T13:26:44Z</time>
      </trkpt>
      <trkpt lat="49.04866" lon="2.10415">
        <ele>63.1</ele>
        <time>2022-09-25T13:26:49Z</time>
      </trkpt>
      <trkpt lat="49.04871" lon="2.10423">
        <ele>63</ele>
        <time>2022-09-25T13:26:55Z</time>
      </trkpt>
      <trkpt lat="49.04876" lon="2.10434">
        <ele>62.8</ele>
        <time>2022-09-25T13:27:01Z</time>
      </trkpt>
      <trkpt lat="49.04879" lon="2.10444">
        <ele>62.4</ele>
        <time>2022-09-25T13:27:07Z</time>
      </trkpt>
      <trkpt lat="49.04884" lon="2.10453">
        <ele>62.1</ele>
        <time>2022-09-25T13:27:12Z</time>
      </trkpt>
      <trkpt lat="49.04891" lon="2.10467">
        <ele>62.1</ele>
        <time>2022-09-25T13:27:18Z</time>
      </trkpt>
      <trkpt lat="49.04897" lon="2.10477">
        <ele>62.2</ele>
        <time>2022-09-25T13:27:24Z</time>
      </trkpt>
      <trkpt lat="49.04902" lon="2.10489">
        <ele>61.8</ele>
        <time>2022-09-25T13:27:30Z</time>
      </trkpt>
      <trkpt lat="49.04906" lon="2.10498">
        <ele>61.5</ele>
        <time>2022-09-25T13:27:35Z</time>
      </trkpt>
      <trkpt lat="49.04911" lon="2.10509">
        <ele>60.9</ele>
        <time>2022-09-25T13:27:41Z</time>
      </trkpt>
      <trkpt lat="49.04914" lon="2.10518">
        <ele>60.3</ele>
        <time>2022-09-25T13:27:47Z</time>
      </trkpt>
      <trkpt lat="49.04917" lon="2.10528">
        <ele>59.6</ele>
        <time>2022-09-25T13:27:52Z</time>
      </trkpt>
      <trkpt lat="49.04919" lon="2.10538">
        <ele>58.9</ele>
        <time>2022-09-25T13:27:57Z</time>
      </trkpt>
      <trkpt lat="49.04923" lon="2.10551">
        <ele>58.4</ele>
        <time>2022-09-25T13:28:03Z</time>
      </trkpt>
      <trkpt lat="49.04929" lon="2.10562">
        <ele>58</ele>
        <time>2022-09-25T13:28:08Z</time>
      </trkpt>
      <trkpt lat="49.04935" lon="2.10573">
        <ele>57.7</ele>
        <time>2022-09-25T13:28:14Z</time>
      </trkpt>
      <trkpt lat="49.0494" lon="2.10585">
        <ele>57.7</ele>
        <time>2022-09-25T13:28:20Z</time>
      </trkpt>
      <trkpt lat="49.04944" lon="2.10595">
        <ele>57.8</ele>
        <time>2022-09-25T13:28:25Z</time>
      </trkpt>
      <trkpt lat="49.04948" lon="2.10608">
        <ele>57.8</ele>
        <time>2022-09-25T13:28:31Z</time>
      </trkpt>
      <trkpt lat="49.04952" lon="2.1062">
        <ele>57.8</ele>
        <time>2022-09-25T13:28:37Z</time>
      </trkpt>
      <trkpt lat="49.04956" lon="2.10631">
        <ele>57.7</ele>
        <time>2022-09-25T13:28:43Z</time>
      </trkpt>
      <trkpt lat="49.04959" lon="2.1064">
        <ele>57.6</ele>
        <time>2022-09-25T13:28:48Z</time>
      </trkpt>
      <trkpt lat="49.04962" lon="2.10651">
        <ele>57.5</ele>
        <time>2022-09-25T13:28:54Z</time>
      </trkpt>
      <trkpt lat="49.04966" lon="2.10663">
        <ele>57.4</ele>
        <time>2022-09-25T13:29:00Z</time>
      </trkpt>
      <trkpt lat="49.04971" lon="2.10675">
        <ele>57.2</ele>
        <time>2022-09-25T13:29:06Z</time>
      </trkpt>
      <trkpt lat="49.04974" lon="2.10687">
        <ele>57.2</ele>
        <time>2022-09-25T13:29:12Z</time>
      </trkpt>
      <trkpt lat="49.04979" lon="2.107">
        <ele>57.3</ele>
        <time>2022-09-25T13:29:17Z</time>
      </trkpt>
      <trkpt lat="49.04984" lon="2.10712">
        <ele>57.6</ele>
        <time>2022-09-25T13:29:23Z</time>
      </trkpt>
      <trkpt lat="49.04988" lon="2.10719">
        <ele>57.9</ele>
        <time>2022-09-25T13:29:28Z</time>
      </trkpt>
      <trkpt lat="49.04992" lon="2.10728">
        <ele>58.4</ele>
        <time>2022-09-25T13:29:33Z</time>
      </trkpt>
      <trkpt lat="49.04995" lon="2.10741">
        <ele>58.6</ele>
        <time>2022-09-25T13:29:39Z</time>
      </trkpt>
      <trkpt lat="49.05" lon="2.10751">
        <ele>58.6</ele>
        <time>2022-09-25T13:29:45Z</time>
      </trkpt>
      <trkpt lat="49.05004" lon="2.10762">
        <ele>58.7</ele>
        <time>2022-09-25T13:29:50Z</time>
      </trkpt>
      <trkpt lat="49.05006" lon="2.10775">
        <ele>58.9</ele>
        <time>2022-09-25T13:29:56Z</time>
      </trkpt>
      <trkpt lat="49.05007" lon="2.10782">
        <ele>59.1</ele>
        <time>2022-09-25T13:30:01Z</time>
      </trkpt>
      <trkpt lat="49.0501" lon="2.10792">
        <ele>59.2</ele>
        <time>2022-09-25T13:30:07Z</time>
      </trkpt>
      <trkpt lat="49.05015" lon="2.10802">
        <ele>59.4</ele>
        <time>2022-09-25T13:30:12Z</time>
      </trkpt>
      <trkpt lat="49.0502" lon="2.10811">
        <ele>59.8</ele>
        <time>2022-09-25T13:30:17Z</time>
      </trkpt>
      <trkpt lat="49.05028" lon="2.10821">
        <ele>60.2</ele>
        <time>2022-09-25T13:30:23Z</time>
      </trkpt>
      <trkpt lat="49.05034" lon="2.10831">
        <ele>61</ele>
        <time>2022-09-25T13:30:29Z</time>
      </trkpt>
      <trkpt lat="49.05041" lon="2.10839">
        <ele>62.1</ele>
        <time>2022-09-25T13:30:34Z</time>
      </trkpt>
      <trkpt lat="49.05045" lon="2.10847">
        <ele>63.2</ele>
        <time>2022-09-25T13:30:39Z</time>
      </trkpt>
      <trkpt lat="49.05051" lon="2.10857">
        <ele>64.2</ele>
        <time>2022-09-25T13:30:45Z</time>
      </trkpt>
      <trkpt lat="49.05058" lon="2.10869">
        <ele>64.4</ele>
        <time>2022-09-25T13:30:51Z</time>
      </trkpt>
      <trkpt lat="49.05062" lon="2.10879">
        <ele>64.5</ele>
        <time>2022-09-25T13:30:56Z</time>
      </trkpt>
      <trkpt lat="49.05062" lon="2.10887">
        <ele>64.3</ele>
        <time>2022-09-25T13:31:02Z</time>
      </trkpt>
      <trkpt lat="49.05061" lon="2.10893">
        <ele>64.3</ele>
        <time>2022-09-25T13:31:07Z</time>
      </trkpt>
      <trkpt lat="49.05056" lon="2.109">
        <ele>64.6</ele>
        <time>2022-09-25T13:31:13Z</time>
      </trkpt>
      <trkpt lat="49.05051" lon="2.10907">
        <ele>64.3</ele>
        <time>2022-09-25T13:31:19Z</time>
      </trkpt>
      <trkpt lat="49.05044" lon="2.10912">
        <ele>63.5</ele>
        <time>2022-09-25T13:31:25Z</time>
      </trkpt>
      <trkpt lat="49.05037" lon="2.10909">
        <ele>63.1</ele>
        <time>2022-09-25T13:31:30Z</time>
      </trkpt>
      <trkpt lat="49.05028" lon="2.10906">
        <ele>62.9</ele>
        <time>2022-09-25T13:31:36Z</time>
      </trkpt>
      <trkpt lat="49.05019" lon="2.1091">
        <ele>63.2</ele>
        <time>2022-09-25T13:31:42Z</time>
      </trkpt>
      <trkpt lat="49.05011" lon="2.10918">
        <ele>63.6</ele>
        <time>2022-09-25T13:31:48Z</time>
      </trkpt>
      <trkpt lat="49.05003" lon="2.10927">
        <ele>64.1</ele>
        <time>2022-09-25T13:31:54Z</time>
      </trkpt>
      <trkpt lat="49.04996" lon="2.10937">
        <ele>64</ele>
        <time>2022-09-25T13:32:00Z</time>
      </trkpt>
      <trkpt lat="49.04989" lon="2.10946">
        <ele>63.5</ele>
        <time>2022-09-25T13:32:06Z</time>
      </trkpt>
      <trkpt lat="49.04989" lon="2.10955">
        <ele>62.9</ele>
        <time>2022-09-25T13:32:12Z</time>
      </trkpt>
      <trkpt lat="49.04991" lon="2.10968">
        <ele>62.8</ele>
        <time>2022-09-25T13:32:18Z</time>
      </trkpt>
      <trkpt lat="49.04994" lon="2.10976">
        <ele>62.7</ele>
        <time>2022-09-25T13:32:23Z</time>
      </trkpt>
      <trkpt lat="49.04998" lon="2.10987">
        <ele>62.8</ele>
        <time>2022-09-25T13:32:29Z</time>
      </trkpt>
      <trkpt lat="49.05003" lon="2.10996">
        <ele>62.7</ele>
        <time>2022-09-25T13:32:35Z</time>
      </trkpt>
      <trkpt lat="49.05006" lon="2.11005">
        <ele>62.7</ele>
        <time>2022-09-25T13:32:40Z</time>
      </trkpt>
      <trkpt lat="49.05011" lon="2.11017">
        <ele>62.7</ele>
        <time>2022-09-25T13:32:46Z</time>
      </trkpt>
      <trkpt lat="49.05016" lon="2.11028">
        <ele>62.5</ele>
        <time>2022-09-25T13:32:52Z</time>
      </trkpt>
      <trkpt lat="49.0502" lon="2.11038">
        <ele>62.3</ele>
        <time>2022-09-25T13:32:58Z</time>
      </trkpt>
      <trkpt lat="49.05024" lon="2.11047">
        <ele>62.2</ele>
        <time>2022-09-25T13:33:03Z</time>
      </trkpt>
      <trkpt lat="49.05029" lon="2.11057">
        <ele>62.1</ele>
        <time>2022-09-25T13:33:08Z</time>
      </trkpt>
      <trkpt lat="49.05037" lon="2.11069">
        <ele>62.3</ele>
        <time>2022-09-25T13:33:14Z</time>
      </trkpt>
      <trkpt lat="49.05042" lon="2.11077">
        <ele>62.7</ele>
        <time>2022-09-25T13:33:19Z</time>
      </trkpt>
      <trkpt lat="49.05044" lon="2.11085">
        <ele>63</ele>
        <time>2022-09-25T13:33:24Z</time>
      </trkpt>
      <trkpt lat="49.05049" lon="2.11096">
        <ele>63.3</ele>
        <time>2022-09-25T13:33:30Z</time>
      </trkpt>
      <trkpt lat="49.05053" lon="2.11105">
        <ele>63.4</ele>
        <time>2022-09-25T13:33:35Z</time>
      </trkpt>
      <trkpt lat="49.05058" lon="2.11117">
        <ele>63.8</ele>
        <time>2022-09-25T13:33:41Z</time>
      </trkpt>
      <trkpt lat="49.05064" lon="2.11126">
        <ele>64.3</ele>
        <time>2022-09-25T13:33:46Z</time>
      </trkpt>
      <trkpt lat="49.05068" lon="2.11137">
        <ele>64.7</ele>
        <time>2022-09-25T13:33:52Z</time>
      </trkpt>
      <trkpt lat="49.05072" lon="2.11146">
        <ele>64.6</ele>
        <time>2022-09-25T13:33:57Z</time>
      </trkpt>
      <trkpt lat="49.05076" lon="2.11156">
        <ele>64.4</ele>
        <time>2022-09-25T13:34:03Z</time>
      </trkpt>
      <trkpt lat="49.0508" lon="2.11167">
        <ele>64.3</ele>
        <time>2022-09-25T13:34:08Z</time>
      </trkpt>
      <trkpt lat="49.05086" lon="2.11179">
        <ele>64.1</ele>
        <time>2022-09-25T13:34:14Z</time>
      </trkpt>
      <trkpt lat="49.05093" lon="2.1119">
        <ele>64.3</ele>
        <time>2022-09-25T13:34:20Z</time>
      </trkpt>
      <trkpt lat="49.05098" lon="2.11197">
        <ele>64.7</ele>
        <time>2022-09-25T13:34:26Z</time>
      </trkpt>
      <trkpt lat="49.05103" lon="2.1121">
        <ele>65.1</ele>
        <time>2022-09-25T13:34:32Z</time>
      </trkpt>
      <trkpt lat="49.05104" lon="2.11215">
        <ele>65.4</ele>
        <time>2022-09-25T13:34:38Z</time>
      </trkpt>
      <trkpt lat="49.05103" lon="2.11215">
        <ele>65.5</ele>
        <time>2022-09-25T13:34:43Z</time>
      </trkpt>
      <trkpt lat="49.05103" lon="2.11215">
        <ele>65.6</ele>
        <time>2022-09-25T13:34:49Z</time>
      </trkpt>
      <trkpt lat="49.05101" lon="2.1122">
        <ele>65.8</ele>
        <time>2022-09-25T13:34:54Z</time>
      </trkpt>
      <trkpt lat="49.05097" lon="2.11232">
        <ele>66.2</ele>
        <time>2022-09-25T13:35:00Z</time>
      </trkpt>
      <trkpt lat="49.05094" lon="2.11244">
        <ele>66.6</ele>
        <time>2022-09-25T13:35:06Z</time>
      </trkpt>
      <trkpt lat="49.05091" lon="2.11258">
        <ele>66.9</ele>
        <time>2022-09-25T13:35:12Z</time>
      </trkpt>
      <trkpt lat="49.05087" lon="2.11265">
        <ele>66.8</ele>
        <time>2022-09-25T13:35:17Z</time>
      </trkpt>
      <trkpt lat="49.0508" lon="2.11271">
        <ele>66.6</ele>
        <time>2022-09-25T13:35:23Z</time>
      </trkpt>
      <trkpt lat="49.05073" lon="2.11279">
        <ele>66.3</ele>
        <time>2022-09-25T13:35:29Z</time>
      </trkpt>
      <trkpt lat="49.05067" lon="2.11287">
        <ele>66.2</ele>
        <time>2022-09-25T13:35:34Z</time>
      </trkpt>
      <trkpt lat="49.0506" lon="2.11298">
        <ele>66.2</ele>
        <time>2022-09-25T13:35:40Z</time>
      </trkpt>
      <trkpt lat="49.05055" lon="2.11306">
        <ele>66.3</ele>
        <time>2022-09-25T13:35:45Z</time>
      </trkpt>
      <trkpt lat="49.05049" lon="2.11314">
        <ele>66.5</ele>
        <time>2022-09-25T13:35:51Z</time>
      </trkpt>
      <trkpt lat="49.05045" lon="2.11321">
        <ele>66.6</ele>
        <time>2022-09-25T13:35:56Z</time>
      </trkpt>
      <trkpt lat="49.0504" lon="2.11328">
        <ele>66.7</ele>
        <time>2022-09-25T13:36:02Z</time>
      </trkpt>
      <trkpt lat="49.05033" lon="2.11337">
        <ele>66.5</ele>
        <time>2022-09-25T13:36:08Z</time>
      </trkpt>
      <trkpt lat="49.05023" lon="2.11348">
        <ele>66.3</ele>
        <time>2022-09-25T13:36:14Z</time>
      </trkpt>
      <trkpt lat="49.05016" lon="2.11358">
        <ele>66.3</ele>
        <time>2022-09-25T13:36:19Z</time>
      </trkpt>
      <trkpt lat="49.05012" lon="2.1137">
        <ele>66.6</ele>
        <time>2022-09-25T13:36:25Z</time>
      </trkpt>
      <trkpt lat="49.0501" lon="2.11381">
        <ele>66.8</ele>
        <time>2022-09-25T13:36:30Z</time>
      </trkpt>
      <trkpt lat="49.05009" lon="2.11395">
        <ele>66.9</ele>
        <time>2022-09-25T13:36:36Z</time>
      </trkpt>
      <trkpt lat="49.05009" lon="2.11406">
        <ele>67.1</ele>
        <time>2022-09-25T13:36:41Z</time>
      </trkpt>
      <trkpt lat="49.05008" lon="2.11415">
        <ele>67.2</ele>
        <time>2022-09-25T13:36:46Z</time>
      </trkpt>
      <trkpt lat="49.05004" lon="2.11425">
        <ele>67</ele>
        <time>2022-09-25T13:36:52Z</time>
      </trkpt>
      <trkpt lat="49.04997" lon="2.11436">
        <ele>66.7</ele>
        <time>2022-09-25T13:36:58Z</time>
      </trkpt>
      <trkpt lat="49.04992" lon="2.11438">
        <ele>66.6</ele>
        <time>2022-09-25T13:37:03Z</time>
      </trkpt>
      <trkpt lat="49.04985" lon="2.1144">
        <ele>66.6</ele>
        <time>2022-09-25T13:37:08Z</time>
      </trkpt>
      <trkpt lat="49.04979" lon="2.1144">
        <ele>66.8</ele>
        <time>2022-09-25T13:37:13Z</time>
      </trkpt>
      <trkpt lat="49.04971" lon="2.1145">
        <ele>67.3</ele>
        <time>2022-09-25T13:37:19Z</time>
      </trkpt>
      <trkpt lat="49.04965" lon="2.11464">
        <ele>67.7</ele>
        <time>2022-09-25T13:37:25Z</time>
      </trkpt>
      <trkpt lat="49.04957" lon="2.11471">
        <ele>67.5</ele>
        <time>2022-09-25T13:37:31Z</time>
      </trkpt>
      <trkpt lat="49.04951" lon="2.11475">
        <ele>67.1</ele>
        <time>2022-09-25T13:37:37Z</time>
      </trkpt>
      <trkpt lat="49.04945" lon="2.11484">
        <ele>67</ele>
        <time>2022-09-25T13:37:43Z</time>
      </trkpt>
      <trkpt lat="49.0494" lon="2.11491">
        <ele>66.8</ele>
        <time>2022-09-25T13:37:48Z</time>
      </trkpt>
      <trkpt lat="49.04933" lon="2.11499">
        <ele>66.6</ele>
        <time>2022-09-25T13:37:54Z</time>
      </trkpt>
      <trkpt lat="49.04925" lon="2.11507">
        <ele>66.3</ele>
        <time>2022-09-25T13:38:00Z</time>
      </trkpt>
      <trkpt lat="49.04919" lon="2.11512">
        <ele>65.7</ele>
        <time>2022-09-25T13:38:05Z</time>
      </trkpt>
      <trkpt lat="49.04911" lon="2.1152">
        <ele>65.1</ele>
        <time>2022-09-25T13:38:11Z</time>
      </trkpt>
      <trkpt lat="49.04906" lon="2.11527">
        <ele>64.3</ele>
        <time>2022-09-25T13:38:16Z</time>
      </trkpt>
      <trkpt lat="49.04899" lon="2.11546">
        <ele>63.5</ele>
        <time>2022-09-25T13:38:22Z</time>
      </trkpt>
      <trkpt lat="49.04894" lon="2.11554">
        <ele>63.1</ele>
        <time>2022-09-25T13:38:27Z</time>
      </trkpt>
      <trkpt lat="49.04887" lon="2.11563">
        <ele>62.8</ele>
        <time>2022-09-25T13:38:33Z</time>
      </trkpt>
      <trkpt lat="49.04882" lon="2.11569">
        <ele>62.6</ele>
        <time>2022-09-25T13:38:38Z</time>
      </trkpt>
      <trkpt lat="49.0487" lon="2.11581">
        <ele>63.1</ele>
        <time>2022-09-25T13:38:50Z</time>
      </trkpt>
      <trkpt lat="49.04864" lon="2.11594">
        <ele>62.6</ele>
        <time>2022-09-25T13:38:56Z</time>
      </trkpt>
      <trkpt lat="49.04858" lon="2.11602">
        <ele>62.7</ele>
        <time>2022-09-25T13:39:01Z</time>
      </trkpt>
      <trkpt lat="49.04854" lon="2.11611">
        <ele>62.9</ele>
        <time>2022-09-25T13:39:07Z</time>
      </trkpt>
      <trkpt lat="49.04851" lon="2.11623">
        <ele>63.2</ele>
        <time>2022-09-25T13:39:13Z</time>
      </trkpt>
      <trkpt lat="49.04847" lon="2.11632">
        <ele>63.5</ele>
        <time>2022-09-25T13:39:18Z</time>
      </trkpt>
      <trkpt lat="49.04843" lon="2.11638">
        <ele>63.8</ele>
        <time>2022-09-25T13:39:23Z</time>
      </trkpt>
      <trkpt lat="49.0484" lon="2.11647">
        <ele>64.3</ele>
        <time>2022-09-25T13:39:28Z</time>
      </trkpt>
      <trkpt lat="49.04833" lon="2.11656">
        <ele>64.7</ele>
        <time>2022-09-25T13:39:34Z</time>
      </trkpt>
      <trkpt lat="49.0483" lon="2.11662">
        <ele>64.7</ele>
        <time>2022-09-25T13:39:39Z</time>
      </trkpt>
      <trkpt lat="49.04828" lon="2.11671">
        <ele>64.6</ele>
        <time>2022-09-25T13:39:44Z</time>
      </trkpt>
      <trkpt lat="49.04823" lon="2.11679">
        <ele>64.2</ele>
        <time>2022-09-25T13:39:50Z</time>
      </trkpt>
      <trkpt lat="49.04816" lon="2.11687">
        <ele>63.9</ele>
        <time>2022-09-25T13:39:55Z</time>
      </trkpt>
      <trkpt lat="49.04807" lon="2.11697">
        <ele>63.4</ele>
        <time>2022-09-25T13:40:01Z</time>
      </trkpt>
      <trkpt lat="49.04801" lon="2.11701">
        <ele>63.1</ele>
        <time>2022-09-25T13:40:06Z</time>
      </trkpt>
      <trkpt lat="49.0479" lon="2.11704">
        <ele>63</ele>
        <time>2022-09-25T13:40:12Z</time>
      </trkpt>
      <trkpt lat="49.04781" lon="2.11706">
        <ele>62.9</ele>
        <time>2022-09-25T13:40:17Z</time>
      </trkpt>
      <trkpt lat="49.04777" lon="2.11708">
        <ele>63.3</ele>
        <time>2022-09-25T13:40:23Z</time>
      </trkpt>
      <trkpt lat="49.04768" lon="2.11704">
        <ele>64</ele>
        <time>2022-09-25T13:40:28Z</time>
      </trkpt>
      <trkpt lat="49.04759" lon="2.11705">
        <ele>65.2</ele>
        <time>2022-09-25T13:40:34Z</time>
      </trkpt>
      <trkpt lat="49.04751" lon="2.11715">
        <ele>66.3</ele>
        <time>2022-09-25T13:40:40Z</time>
      </trkpt>
      <trkpt lat="49.04747" lon="2.11725">
        <ele>67</ele>
        <time>2022-09-25T13:40:45Z</time>
      </trkpt>
      <trkpt lat="49.04739" lon="2.11735">
        <ele>67.6</ele>
        <time>2022-09-25T13:40:51Z</time>
      </trkpt>
      <trkpt lat="49.0473" lon="2.11734">
        <ele>68.1</ele>
        <time>2022-09-25T13:40:56Z</time>
      </trkpt>
      <trkpt lat="49.04721" lon="2.11725">
        <ele>68.8</ele>
        <time>2022-09-25T13:41:01Z</time>
      </trkpt>
      <trkpt lat="49.04716" lon="2.11717">
        <ele>69.6</ele>
        <time>2022-09-25T13:41:07Z</time>
      </trkpt>
      <trkpt lat="49.04711" lon="2.11714">
        <ele>69.9</ele>
        <time>2022-09-25T13:41:12Z</time>
      </trkpt>
      <trkpt lat="49.04705" lon="2.11709">
        <ele>69.6</ele>
        <time>2022-09-25T13:41:18Z</time>
      </trkpt>
      <trkpt lat="49.04701" lon="2.117">
        <ele>69.4</ele>
        <time>2022-09-25T13:41:23Z</time>
      </trkpt>
      <trkpt lat="49.04696" lon="2.1169">
        <ele>69.3</ele>
        <time>2022-09-25T13:41:29Z</time>
      </trkpt>
      <trkpt lat="49.04689" lon="2.11679">
        <ele>69</ele>
        <time>2022-09-25T13:41:35Z</time>
      </trkpt>
      <trkpt lat="49.04685" lon="2.11671">
        <ele>69</ele>
        <time>2022-09-25T13:41:40Z</time>
      </trkpt>
      <trkpt lat="49.04679" lon="2.11664">
        <ele>69.1</ele>
        <time>2022-09-25T13:41:45Z</time>
      </trkpt>
      <trkpt lat="49.04674" lon="2.11658">
        <ele>69.3</ele>
        <time>2022-09-25T13:41:50Z</time>
      </trkpt>
      <trkpt lat="49.04668" lon="2.11649">
        <ele>69.6</ele>
        <time>2022-09-25T13:41:56Z</time>
      </trkpt>
      <trkpt lat="49.04661" lon="2.11639">
        <ele>70.1</ele>
        <time>2022-09-25T13:42:02Z</time>
      </trkpt>
      <trkpt lat="49.04654" lon="2.11631">
        <ele>70.6</ele>
        <time>2022-09-25T13:42:08Z</time>
      </trkpt>
      <trkpt lat="49.04646" lon="2.11627">
        <ele>71.2</ele>
        <time>2022-09-25T13:42:14Z</time>
      </trkpt>
      <trkpt lat="49.04638" lon="2.11626">
        <ele>71.7</ele>
        <time>2022-09-25T13:42:20Z</time>
      </trkpt>
      <trkpt lat="49.0463" lon="2.11621">
        <ele>71.8</ele>
        <time>2022-09-25T13:42:26Z</time>
      </trkpt>
      <trkpt lat="49.04624" lon="2.11613">
        <ele>71.6</ele>
        <time>2022-09-25T13:42:31Z</time>
      </trkpt>
      <trkpt lat="49.04618" lon="2.11605">
        <ele>71.4</ele>
        <time>2022-09-25T13:42:37Z</time>
      </trkpt>
      <trkpt lat="49.04613" lon="2.1161">
        <ele>71.5</ele>
        <time>2022-09-25T13:42:42Z</time>
      </trkpt>
      <trkpt lat="49.04609" lon="2.11624">
        <ele>71.7</ele>
        <time>2022-09-25T13:42:48Z</time>
      </trkpt>
      <trkpt lat="49.04605" lon="2.11635">
        <ele>71.8</ele>
        <time>2022-09-25T13:42:53Z</time>
      </trkpt>
      <trkpt lat="49.04599" lon="2.11637">
        <ele>71.9</ele>
        <time>2022-09-25T13:42:59Z</time>
      </trkpt>
      <trkpt lat="49.04594" lon="2.1164">
        <ele>72.1</ele>
        <time>2022-09-25T13:43:04Z</time>
      </trkpt>
      <trkpt lat="49.0459" lon="2.11649">
        <ele>72.3</ele>
        <time>2022-09-25T13:43:10Z</time>
      </trkpt>
      <trkpt lat="49.04588" lon="2.11655">
        <ele>72.3</ele>
        <time>2022-09-25T13:43:16Z</time>
      </trkpt>
      <trkpt lat="49.04587" lon="2.11655">
        <ele>72.4</ele>
        <time>2022-09-25T13:43:22Z</time>
      </trkpt>
      <trkpt lat="49.04586" lon="2.11655">
        <ele>72.7</ele>
        <time>2022-09-25T13:43:28Z</time>
      </trkpt>
      <trkpt lat="49.04586" lon="2.11655">
        <ele>72.8</ele>
        <time>2022-09-25T13:43:33Z</time>
      </trkpt>
      <trkpt lat="49.04587" lon="2.11654">
        <ele>73.4</ele>
        <time>2022-09-25T13:43:39Z</time>
      </trkpt>
      <trkpt lat="49.04588" lon="2.11652">
        <ele>73.5</ele>
        <time>2022-09-25T13:43:44Z</time>
      </trkpt>
      <trkpt lat="49.04588" lon="2.11652">
        <ele>73.5</ele>
        <time>2022-09-25T13:43:50Z</time>
      </trkpt>
      <trkpt lat="49.04589" lon="2.11652">
        <ele>73.6</ele>
        <time>2022-09-25T13:43:56Z</time>
      </trkpt>
      <trkpt lat="49.0459" lon="2.11652">
        <ele>73.6</ele>
        <time>2022-09-25T13:44:01Z</time>
      </trkpt>
      <trkpt lat="49.04591" lon="2.11652">
        <ele>74</ele>
        <time>2022-09-25T13:44:07Z</time>
      </trkpt>
      <trkpt lat="49.04592" lon="2.1166">
        <ele>74.8</ele>
        <time>2022-09-25T13:44:13Z</time>
      </trkpt>
      <trkpt lat="49.04596" lon="2.11667">
        <ele>75.2</ele>
        <time>2022-09-25T13:44:18Z</time>
      </trkpt>
      <trkpt lat="49.04602" lon="2.11671">
        <ele>75.4</ele>
        <time>2022-09-25T13:44:24Z</time>
      </trkpt>
      <trkpt lat="49.04609" lon="2.11674">
        <ele>75.6</ele>
        <time>2022-09-25T13:44:29Z</time>
      </trkpt>
      <trkpt lat="49.04615" lon="2.1168">
        <ele>75.7</ele>
        <time>2022-09-25T13:44:35Z</time>
      </trkpt>
      <trkpt lat="49.04621" lon="2.1169">
        <ele>75.6</ele>
        <time>2022-09-25T13:44:41Z</time>
      </trkpt>
      <trkpt lat="49.04618" lon="2.11701">
        <ele>75.4</ele>
        <time>2022-09-25T13:44:46Z</time>
      </trkpt>
      <trkpt lat="49.04612" lon="2.11712">
        <ele>75.1</ele>
        <time>2022-09-25T13:44:52Z</time>
      </trkpt>
      <trkpt lat="49.04606" lon="2.11724">
        <ele>74.7</ele>
        <time>2022-09-25T13:44:58Z</time>
      </trkpt>
      <trkpt lat="49.04601" lon="2.11737">
        <ele>74.4</ele>
        <time>2022-09-25T13:45:04Z</time>
      </trkpt>
      <trkpt lat="49.04597" lon="2.11748">
        <ele>74.1</ele>
        <time>2022-09-25T13:45:10Z</time>
      </trkpt>
      <trkpt lat="49.04595" lon="2.11758">
        <ele>73.6</ele>
        <time>2022-09-25T13:45:16Z</time>
      </trkpt>
      <trkpt lat="49.04599" lon="2.11766">
        <ele>73</ele>
        <time>2022-09-25T13:45:21Z</time>
      </trkpt>
      <trkpt lat="49.04605" lon="2.11777">
        <ele>72.3</ele>
        <time>2022-09-25T13:45:27Z</time>
      </trkpt>
      <trkpt lat="49.04611" lon="2.11784">
        <ele>71.9</ele>
        <time>2022-09-25T13:45:32Z</time>
      </trkpt>
      <trkpt lat="49.04611" lon="2.11793">
        <ele>71.5</ele>
        <time>2022-09-25T13:45:38Z</time>
      </trkpt>
      <trkpt lat="49.04609" lon="2.11802">
        <ele>71.2</ele>
        <time>2022-09-25T13:45:44Z</time>
      </trkpt>
      <trkpt lat="49.04602" lon="2.11808">
        <ele>70.8</ele>
        <time>2022-09-25T13:45:49Z</time>
      </trkpt>
      <trkpt lat="49.04592" lon="2.11816">
        <ele>70.4</ele>
        <time>2022-09-25T13:45:55Z</time>
      </trkpt>
      <trkpt lat="49.04585" lon="2.11821">
        <ele>70.2</ele>
        <time>2022-09-25T13:46:00Z</time>
      </trkpt>
      <trkpt lat="49.04577" lon="2.11827">
        <ele>70.2</ele>
        <time>2022-09-25T13:46:06Z</time>
      </trkpt>
      <trkpt lat="49.04574" lon="2.11832">
        <ele>70.3</ele>
        <time>2022-09-25T13:46:11Z</time>
      </trkpt>
      <trkpt lat="49.04574" lon="2.11833">
        <ele>70.7</ele>
        <time>2022-09-25T13:46:16Z</time>
      </trkpt>
      <trkpt lat="49.04574" lon="2.11836">
        <ele>71.6</ele>
        <time>2022-09-25T13:46:22Z</time>
      </trkpt>
      <trkpt lat="49.04565" lon="2.11837">
        <ele>72.4</ele>
        <time>2022-09-25T13:46:28Z</time>
      </trkpt>
      <trkpt lat="49.0456" lon="2.11839">
        <ele>73.1</ele>
        <time>2022-09-25T13:46:34Z</time>
      </trkpt>
      <trkpt lat="49.04554" lon="2.11843">
        <ele>73.7</ele>
        <time>2022-09-25T13:46:39Z</time>
      </trkpt>
      <trkpt lat="49.04544" lon="2.1185">
        <ele>74.2</ele>
        <time>2022-09-25T13:46:45Z</time>
      </trkpt>
      <trkpt lat="49.04543" lon="2.11841">
        <ele>74.3</ele>
        <time>2022-09-25T13:46:50Z</time>
      </trkpt>
      <trkpt lat="49.04541" lon="2.1183">
        <ele>74.3</ele>
        <time>2022-09-25T13:46:55Z</time>
      </trkpt>
      <trkpt lat="49.04538" lon="2.1182">
        <ele>74.3</ele>
        <time>2022-09-25T13:47:01Z</time>
      </trkpt>
      <trkpt lat="49.04537" lon="2.11811">
        <ele>74.1</ele>
        <time>2022-09-25T13:47:06Z</time>
      </trkpt>
      <trkpt lat="49.04534" lon="2.118">
        <ele>73.7</ele>
        <time>2022-09-25T13:47:11Z</time>
      </trkpt>
      <trkpt lat="49.04531" lon="2.11787">
        <ele>73.3</ele>
        <time>2022-09-25T13:47:16Z</time>
      </trkpt>
      <trkpt lat="49.04528" lon="2.11773">
        <ele>73</ele>
        <time>2022-09-25T13:47:22Z</time>
      </trkpt>
      <trkpt lat="49.04524" lon="2.1176">
        <ele>72.8</ele>
        <time>2022-09-25T13:47:28Z</time>
      </trkpt>
      <trkpt lat="49.04522" lon="2.1175">
        <ele>72.7</ele>
        <time>2022-09-25T13:47:33Z</time>
      </trkpt>
      <trkpt lat="49.04519" lon="2.11737">
        <ele>72.7</ele>
        <time>2022-09-25T13:47:39Z</time>
      </trkpt>
      <trkpt lat="49.04517" lon="2.11725">
        <ele>72.9</ele>
        <time>2022-09-25T13:47:45Z</time>
      </trkpt>
      <trkpt lat="49.04515" lon="2.11718">
        <ele>72.8</ele>
        <time>2022-09-25T13:47:50Z</time>
      </trkpt>
      <trkpt lat="49.04512" lon="2.11706">
        <ele>72.6</ele>
        <time>2022-09-25T13:47:56Z</time>
      </trkpt>
      <trkpt lat="49.04508" lon="2.11694">
        <ele>72.4</ele>
        <time>2022-09-25T13:48:02Z</time>
      </trkpt>
      <trkpt lat="49.04506" lon="2.11683">
        <ele>72.2</ele>
        <time>2022-09-25T13:48:07Z</time>
      </trkpt>
      <trkpt lat="49.04502" lon="2.11669">
        <ele>72.5</ele>
        <time>2022-09-25T13:48:13Z</time>
      </trkpt>
      <trkpt lat="49.045" lon="2.11659">
        <ele>73.1</ele>
        <time>2022-09-25T13:48:19Z</time>
      </trkpt>
      <trkpt lat="49.04497" lon="2.11649">
        <ele>73.5</ele>
        <time>2022-09-25T13:48:24Z</time>
      </trkpt>
      <trkpt lat="49.0449" lon="2.11646">
        <ele>74.1</ele>
        <time>2022-09-25T13:48:29Z</time>
      </trkpt>
      <trkpt lat="49.04482" lon="2.11648">
        <ele>74.8</ele>
        <time>2022-09-25T13:48:35Z</time>
      </trkpt>
      <trkpt lat="49.04475" lon="2.11654">
        <ele>75.2</ele>
        <time>2022-09-25T13:48:40Z</time>
      </trkpt>
      <trkpt lat="49.04467" lon="2.11658">
        <ele>75.4</ele>
        <time>2022-09-25T13:48:45Z</time>
      </trkpt>
      <trkpt lat="49.04461" lon="2.11661">
        <ele>75.5</ele>
        <time>2022-09-25T13:48:51Z</time>
      </trkpt>
      <trkpt lat="49.04459" lon="2.11663">
        <ele>75.6</ele>
        <time>2022-09-25T13:48:56Z</time>
      </trkpt>
      <trkpt lat="49.04459" lon="2.11664">
        <ele>75.6</ele>
        <time>2022-09-25T13:49:02Z</time>
      </trkpt>
      <trkpt lat="49.0446" lon="2.11665">
        <ele>75.5</ele>
        <time>2022-09-25T13:49:07Z</time>
      </trkpt>
      <trkpt lat="49.04457" lon="2.11666">
        <ele>75.3</ele>
        <time>2022-09-25T13:49:13Z</time>
      </trkpt>
      <trkpt lat="49.04455" lon="2.11675">
        <ele>75.4</ele>
        <time>2022-09-25T13:49:18Z</time>
      </trkpt>
      <trkpt lat="49.04452" lon="2.11686">
        <ele>75.4</ele>
        <time>2022-09-25T13:49:23Z</time>
      </trkpt>
      <trkpt lat="49.04447" lon="2.11697">
        <ele>75.3</ele>
        <time>2022-09-25T13:49:29Z</time>
      </trkpt>
      <trkpt lat="49.04443" lon="2.11707">
        <ele>75.3</ele>
        <time>2022-09-25T13:49:35Z</time>
      </trkpt>
      <trkpt lat="49.04438" lon="2.1172">
        <ele>75.4</ele>
        <time>2022-09-25T13:49:41Z</time>
      </trkpt>
      <trkpt lat="49.04432" lon="2.11733">
        <ele>75.2</ele>
        <time>2022-09-25T13:49:47Z</time>
      </trkpt>
      <trkpt lat="49.04425" lon="2.11744">
        <ele>74.8</ele>
        <time>2022-09-25T13:49:53Z</time>
      </trkpt>
      <trkpt lat="49.04423" lon="2.11753">
        <ele>74.6</ele>
        <time>2022-09-25T13:49:58Z</time>
      </trkpt>
      <trkpt lat="49.04421" lon="2.11762">
        <ele>74.4</ele>
        <time>2022-09-25T13:50:03Z</time>
      </trkpt>
      <trkpt lat="49.04419" lon="2.11772">
        <ele>74.2</ele>
        <time>2022-09-25T13:50:08Z</time>
      </trkpt>
      <trkpt lat="49.04416" lon="2.11782">
        <ele>74</ele>
        <time>2022-09-25T13:50:13Z</time>
      </trkpt>
      <trkpt lat="49.0441" lon="2.11794">
        <ele>73.9</ele>
        <time>2022-09-25T13:50:19Z</time>
      </trkpt>
      <trkpt lat="49.04406" lon="2.11804">
        <ele>74</ele>
        <time>2022-09-25T13:50:25Z</time>
      </trkpt>
      <trkpt lat="49.04401" lon="2.11815">
        <ele>74.4</ele>
        <time>2022-09-25T13:50:31Z</time>
      </trkpt>
      <trkpt lat="49.04396" lon="2.11825">
        <ele>74.8</ele>
        <time>2022-09-25T13:50:37Z</time>
      </trkpt>
      <trkpt lat="49.04397" lon="2.11833">
        <ele>75.2</ele>
        <time>2022-09-25T13:50:42Z</time>
      </trkpt>
      <trkpt lat="49.04393" lon="2.11842">
        <ele>75.5</ele>
        <time>2022-09-25T13:50:48Z</time>
      </trkpt>
      <trkpt lat="49.04388" lon="2.11855">
        <ele>75.7</ele>
        <time>2022-09-25T13:50:54Z</time>
      </trkpt>
      <trkpt lat="49.04382" lon="2.11871">
        <ele>76.2</ele>
        <time>2022-09-25T13:51:00Z</time>
      </trkpt>
      <trkpt lat="49.04378" lon="2.11879">
        <ele>77.1</ele>
        <time>2022-09-25T13:51:06Z</time>
      </trkpt>
      <trkpt lat="49.04373" lon="2.11888">
        <ele>77.5</ele>
        <time>2022-09-25T13:51:11Z</time>
      </trkpt>
      <trkpt lat="49.04368" lon="2.11898">
        <ele>77.7</ele>
        <time>2022-09-25T13:51:16Z</time>
      </trkpt>
      <trkpt lat="49.04361" lon="2.1191">
        <ele>77.9</ele>
        <time>2022-09-25T13:51:22Z</time>
      </trkpt>
      <trkpt lat="49.04354" lon="2.11922">
        <ele>77.9</ele>
        <time>2022-09-25T13:51:28Z</time>
      </trkpt>
      <trkpt lat="49.0435" lon="2.11932">
        <ele>77.6</ele>
        <time>2022-09-25T13:51:33Z</time>
      </trkpt>
      <trkpt lat="49.04342" lon="2.11942">
        <ele>77.4</ele>
        <time>2022-09-25T13:51:39Z</time>
      </trkpt>
      <trkpt lat="49.04336" lon="2.1195">
        <ele>76.8</ele>
        <time>2022-09-25T13:51:44Z</time>
      </trkpt>
      <trkpt lat="49.0433" lon="2.11958">
        <ele>75.9</ele>
        <time>2022-09-25T13:51:49Z</time>
      </trkpt>
      <trkpt lat="49.04324" lon="2.11968">
        <ele>75</ele>
        <time>2022-09-25T13:51:54Z</time>
      </trkpt>
      <trkpt lat="49.04317" lon="2.1198">
        <ele>74.2</ele>
        <time>2022-09-25T13:52:00Z</time>
      </trkpt>
      <trkpt lat="49.04313" lon="2.11989">
        <ele>73.4</ele>
        <time>2022-09-25T13:52:06Z</time>
      </trkpt>
      <trkpt lat="49.04308" lon="2.12001">
        <ele>72.8</ele>
        <time>2022-09-25T13:52:11Z</time>
      </trkpt>
      <trkpt lat="49.04302" lon="2.1201">
        <ele>72.5</ele>
        <time>2022-09-25T13:52:17Z</time>
      </trkpt>
      <trkpt lat="49.04297" lon="2.12019">
        <ele>72.3</ele>
        <time>2022-09-25T13:52:22Z</time>
      </trkpt>
      <trkpt lat="49.04291" lon="2.12026">
        <ele>72</ele>
        <time>2022-09-25T13:52:28Z</time>
      </trkpt>
      <trkpt lat="49.04285" lon="2.12034">
        <ele>71.9</ele>
        <time>2022-09-25T13:52:33Z</time>
      </trkpt>
      <trkpt lat="49.0428" lon="2.12045">
        <ele>71.7</ele>
        <time>2022-09-25T13:52:39Z</time>
      </trkpt>
      <trkpt lat="49.04275" lon="2.12054">
        <ele>71.3</ele>
        <time>2022-09-25T13:52:44Z</time>
      </trkpt>
      <trkpt lat="49.04269" lon="2.12062">
        <ele>70.5</ele>
        <time>2022-09-25T13:52:50Z</time>
      </trkpt>
      <trkpt lat="49.04265" lon="2.12065">
        <ele>70.1</ele>
        <time>2022-09-25T13:52:55Z</time>
      </trkpt>
      <trkpt lat="49.0426" lon="2.12067">
        <ele>70</ele>
        <time>2022-09-25T13:53:00Z</time>
      </trkpt>
      <trkpt lat="49.04257" lon="2.12074">
        <ele>70.2</ele>
        <time>2022-09-25T13:53:06Z</time>
      </trkpt>
      <trkpt lat="49.0425" lon="2.12088">
        <ele>70</ele>
        <time>2022-09-25T13:53:12Z</time>
      </trkpt>
      <trkpt lat="49.04241" lon="2.12097">
        <ele>69.7</ele>
        <time>2022-09-25T13:53:18Z</time>
      </trkpt>
      <trkpt lat="49.04234" lon="2.12109">
        <ele>69.6</ele>
        <time>2022-09-25T13:53:24Z</time>
      </trkpt>
      <trkpt lat="49.04232" lon="2.1212">
        <ele>69.6</ele>
        <time>2022-09-25T13:53:29Z</time>
      </trkpt>
      <trkpt lat="49.04237" lon="2.12128">
        <ele>69.4</ele>
        <time>2022-09-25T13:53:35Z</time>
      </trkpt>
      <trkpt lat="49.04247" lon="2.12136">
        <ele>69.1</ele>
        <time>2022-09-25T13:53:41Z</time>
      </trkpt>
      <trkpt lat="49.04255" lon="2.12141">
        <ele>69</ele>
        <time>2022-09-25T13:53:46Z</time>
      </trkpt>
      <trkpt lat="49.04263" lon="2.12149">
        <ele>68.6</ele>
        <time>2022-09-25T13:53:52Z</time>
      </trkpt>
      <trkpt lat="49.04268" lon="2.12152">
        <ele>68.3</ele>
        <time>2022-09-25T13:53:57Z</time>
      </trkpt>
      <trkpt lat="49.04278" lon="2.12152">
        <ele>67.8</ele>
        <time>2022-09-25T13:54:03Z</time>
      </trkpt>
      <trkpt lat="49.04286" lon="2.12153">
        <ele>67.9</ele>
        <time>2022-09-25T13:54:09Z</time>
      </trkpt>
      <trkpt lat="49.0429" lon="2.12159">
        <ele>67.9</ele>
        <time>2022-09-25T13:54:14Z</time>
      </trkpt>
      <trkpt lat="49.04296" lon="2.12166">
        <ele>67.9</ele>
        <time>2022-09-25T13:54:19Z</time>
      </trkpt>
      <trkpt lat="49.04306" lon="2.12173">
        <ele>68</ele>
        <time>2022-09-25T13:54:25Z</time>
      </trkpt>
      <trkpt lat="49.04314" lon="2.12176">
        <ele>68.5</ele>
        <time>2022-09-25T13:54:30Z</time>
      </trkpt>
      <trkpt lat="49.04323" lon="2.12181">
        <ele>69.1</ele>
        <time>2022-09-25T13:54:36Z</time>
      </trkpt>
      <trkpt lat="49.0433" lon="2.12188">
        <ele>69.7</ele>
        <time>2022-09-25T13:54:42Z</time>
      </trkpt>
      <trkpt lat="49.04333" lon="2.12193">
        <ele>70.2</ele>
        <time>2022-09-25T13:54:47Z</time>
      </trkpt>
      <trkpt lat="49.04329" lon="2.12244">
        <ele>74.9</ele>
        <time>2022-09-25T13:55:06Z</time>
      </trkpt>
      <trkpt lat="49.04328" lon="2.12239">
        <ele>74.8</ele>
        <time>2022-09-25T13:55:11Z</time>
      </trkpt>
      <trkpt lat="49.04324" lon="2.12242">
        <ele>74.8</ele>
        <time>2022-09-25T13:55:16Z</time>
      </trkpt>
      <trkpt lat="49.04319" lon="2.12246">
        <ele>74.4</ele>
        <time>2022-09-25T13:55:22Z</time>
      </trkpt>
      <trkpt lat="49.04312" lon="2.12247">
        <ele>73.8</ele>
        <time>2022-09-25T13:55:28Z</time>
      </trkpt>
      <trkpt lat="49.04305" lon="2.1225">
        <ele>73.1</ele>
        <time>2022-09-25T13:55:34Z</time>
      </trkpt>
      <trkpt lat="49.04299" lon="2.12252">
        <ele>72.2</ele>
        <time>2022-09-25T13:55:40Z</time>
      </trkpt>
      <trkpt lat="49.0429" lon="2.12254">
        <ele>71.4</ele>
        <time>2022-09-25T13:55:45Z</time>
      </trkpt>
      <trkpt lat="49.04281" lon="2.12258">
        <ele>70.5</ele>
        <time>2022-09-25T13:55:51Z</time>
      </trkpt>
      <trkpt lat="49.04271" lon="2.12261">
        <ele>70.1</ele>
        <time>2022-09-25T13:55:57Z</time>
      </trkpt>
      <trkpt lat="49.04263" lon="2.12261">
        <ele>70.3</ele>
        <time>2022-09-25T13:56:02Z</time>
      </trkpt>
      <trkpt lat="49.04253" lon="2.12265">
        <ele>71</ele>
        <time>2022-09-25T13:56:08Z</time>
      </trkpt>
      <trkpt lat="49.04243" lon="2.12271">
        <ele>71.6</ele>
        <time>2022-09-25T13:56:14Z</time>
      </trkpt>
      <trkpt lat="49.04237" lon="2.12273">
        <ele>71.8</ele>
        <time>2022-09-25T13:56:19Z</time>
      </trkpt>
      <trkpt lat="49.0423" lon="2.12275">
        <ele>71.9</ele>
        <time>2022-09-25T13:56:25Z</time>
      </trkpt>
      <trkpt lat="49.04223" lon="2.12279">
        <ele>72</ele>
        <time>2022-09-25T13:56:31Z</time>
      </trkpt>
      <trkpt lat="49.04224" lon="2.12284">
        <ele>72</ele>
        <time>2022-09-25T13:56:36Z</time>
      </trkpt>
      <trkpt lat="49.04229" lon="2.12292">
        <ele>71.9</ele>
        <time>2022-09-25T13:56:42Z</time>
      </trkpt>
      <trkpt lat="49.04237" lon="2.12295">
        <ele>71.7</ele>
        <time>2022-09-25T13:56:47Z</time>
      </trkpt>
      <trkpt lat="49.04246" lon="2.12294">
        <ele>71.2</ele>
        <time>2022-09-25T13:56:52Z</time>
      </trkpt>
      <trkpt lat="49.04253" lon="2.1229">
        <ele>70.9</ele>
        <time>2022-09-25T13:56:58Z</time>
      </trkpt>
      <trkpt lat="49.04259" lon="2.12288">
        <ele>70.8</ele>
        <time>2022-09-25T13:57:03Z</time>
      </trkpt>
      <trkpt lat="49.04266" lon="2.12292">
        <ele>70.6</ele>
        <time>2022-09-25T13:57:09Z</time>
      </trkpt>
      <trkpt lat="49.0427" lon="2.12303">
        <ele>70.6</ele>
        <time>2022-09-25T13:57:14Z</time>
      </trkpt>
      <trkpt lat="49.04272" lon="2.12318">
        <ele>71</ele>
        <time>2022-09-25T13:57:20Z</time>
      </trkpt>
      <trkpt lat="49.04273" lon="2.12328">
        <ele>71.6</ele>
        <time>2022-09-25T13:57:25Z</time>
      </trkpt>
      <trkpt lat="49.04274" lon="2.12337">
        <ele>72.1</ele>
        <time>2022-09-25T13:57:30Z</time>
      </trkpt>
      <trkpt lat="49.04271" lon="2.12353">
        <ele>72.1</ele>
        <time>2022-09-25T13:57:36Z</time>
      </trkpt>
      <trkpt lat="49.04268" lon="2.1237">
        <ele>71.9</ele>
        <time>2022-09-25T13:57:42Z</time>
      </trkpt>
      <trkpt lat="49.04267" lon="2.12384">
        <ele>71.8</ele>
        <time>2022-09-25T13:57:48Z</time>
      </trkpt>
      <trkpt lat="49.04268" lon="2.12396">
        <ele>71.5</ele>
        <time>2022-09-25T13:57:53Z</time>
      </trkpt>
      <trkpt lat="49.04267" lon="2.12406">
        <ele>71.2</ele>
        <time>2022-09-25T13:57:58Z</time>
      </trkpt>
      <trkpt lat="49.04267" lon="2.12418">
        <ele>71.2</ele>
        <time>2022-09-25T13:58:04Z</time>
      </trkpt>
      <trkpt lat="49.0427" lon="2.12428">
        <ele>71.8</ele>
        <time>2022-09-25T13:58:09Z</time>
      </trkpt>
      <trkpt lat="49.04269" lon="2.12438">
        <ele>72.8</ele>
        <time>2022-09-25T13:58:14Z</time>
      </trkpt>
      <trkpt lat="49.04268" lon="2.12451">
        <ele>73.8</ele>
        <time>2022-09-25T13:58:20Z</time>
      </trkpt>
      <trkpt lat="49.04268" lon="2.12464">
        <ele>74.8</ele>
        <time>2022-09-25T13:58:26Z</time>
      </trkpt>
      <trkpt lat="49.04268" lon="2.12477">
        <ele>75.6</ele>
        <time>2022-09-25T13:58:32Z</time>
      </trkpt>
      <trkpt lat="49.04265" lon="2.12484">
        <ele>75.5</ele>
        <time>2022-09-25T13:58:38Z</time>
      </trkpt>
      <trkpt lat="49.04264" lon="2.12495">
        <ele>75.1</ele>
        <time>2022-09-25T13:58:43Z</time>
      </trkpt>
      <trkpt lat="49.04265" lon="2.12508">
        <ele>74.3</ele>
        <time>2022-09-25T13:58:49Z</time>
      </trkpt>
      <trkpt lat="49.04266" lon="2.12518">
        <ele>74</ele>
        <time>2022-09-25T13:58:54Z</time>
      </trkpt>
      <trkpt lat="49.04266" lon="2.12533">
        <ele>73.9</ele>
        <time>2022-09-25T13:58:59Z</time>
      </trkpt>
      <trkpt lat="49.04265" lon="2.12546">
        <ele>73.8</ele>
        <time>2022-09-25T13:59:05Z</time>
      </trkpt>
      <trkpt lat="49.04263" lon="2.12555">
        <ele>73.5</ele>
        <time>2022-09-25T13:59:10Z</time>
      </trkpt>
      <trkpt lat="49.04262" lon="2.12566">
        <ele>73</ele>
        <time>2022-09-25T13:59:15Z</time>
      </trkpt>
      <trkpt lat="49.04262" lon="2.12581">
        <ele>72.7</ele>
        <time>2022-09-25T13:59:21Z</time>
      </trkpt>
      <trkpt lat="49.04259" lon="2.12592">
        <ele>72.2</ele>
        <time>2022-09-25T13:59:26Z</time>
      </trkpt>
      <trkpt lat="49.04258" lon="2.12604">
        <ele>72</ele>
        <time>2022-09-25T13:59:32Z</time>
      </trkpt>
      <trkpt lat="49.04257" lon="2.12611">
        <ele>72.1</ele>
        <time>2022-09-25T13:59:37Z</time>
      </trkpt>
      <trkpt lat="49.04254" lon="2.12618">
        <ele>72.4</ele>
        <time>2022-09-25T13:59:43Z</time>
      </trkpt>
      <trkpt lat="49.0425" lon="2.12625">
        <ele>73</ele>
        <time>2022-09-25T13:59:48Z</time>
      </trkpt>
      <trkpt lat="49.04243" lon="2.12636">
        <ele>73.8</ele>
        <time>2022-09-25T13:59:54Z</time>
      </trkpt>
      <trkpt lat="49.04236" lon="2.12647">
        <ele>74.2</ele>
        <time>2022-09-25T14:00:00Z</time>
      </trkpt>
      <trkpt lat="49.04231" lon="2.12654">
        <ele>74.4</ele>
        <time>2022-09-25T14:00:05Z</time>
      </trkpt>
      <trkpt lat="49.04227" lon="2.12663">
        <ele>74.6</ele>
        <time>2022-09-25T14:00:10Z</time>
      </trkpt>
      <trkpt lat="49.04223" lon="2.12668">
        <ele>74.9</ele>
        <time>2022-09-25T14:00:16Z</time>
      </trkpt>
      <trkpt lat="49.04219" lon="2.12675">
        <ele>75.1</ele>
        <time>2022-09-25T14:00:21Z</time>
      </trkpt>
      <trkpt lat="49.04213" lon="2.12686">
        <ele>75.1</ele>
        <time>2022-09-25T14:00:27Z</time>
      </trkpt>
      <trkpt lat="49.04208" lon="2.12689">
        <ele>74.9</ele>
        <time>2022-09-25T14:00:33Z</time>
      </trkpt>
      <trkpt lat="49.04204" lon="2.12698">
        <ele>74.5</ele>
        <time>2022-09-25T14:00:39Z</time>
      </trkpt>
      <trkpt lat="49.04191" lon="2.12702">
        <ele>74.4</ele>
        <time>2022-09-25T14:00:45Z</time>
      </trkpt>
      <trkpt lat="49.04181" lon="2.12705">
        <ele>74.2</ele>
        <time>2022-09-25T14:00:50Z</time>
      </trkpt>
      <trkpt lat="49.04173" lon="2.12703">
        <ele>74</ele>
        <time>2022-09-25T14:00:56Z</time>
      </trkpt>
      <trkpt lat="49.04166" lon="2.12706">
        <ele>73.6</ele>
        <time>2022-09-25T14:01:01Z</time>
      </trkpt>
      <trkpt lat="49.04156" lon="2.12703">
        <ele>73</ele>
        <time>2022-09-25T14:01:07Z</time>
      </trkpt>
      <trkpt lat="49.04149" lon="2.12696">
        <ele>72.5</ele>
        <time>2022-09-25T14:01:12Z</time>
      </trkpt>
      <trkpt lat="49.04139" lon="2.12693">
        <ele>72.3</ele>
        <time>2022-09-25T14:01:18Z</time>
      </trkpt>
      <trkpt lat="49.04131" lon="2.1269">
        <ele>72.4</ele>
        <time>2022-09-25T14:01:23Z</time>
      </trkpt>
      <trkpt lat="49.04123" lon="2.12687">
        <ele>73</ele>
        <time>2022-09-25T14:01:29Z</time>
      </trkpt>
      <trkpt lat="49.04114" lon="2.12682">
        <ele>73.6</ele>
        <time>2022-09-25T14:01:35Z</time>
      </trkpt>
      <trkpt lat="49.04108" lon="2.12675">
        <ele>74.4</ele>
        <time>2022-09-25T14:01:41Z</time>
      </trkpt>
      <trkpt lat="49.04103" lon="2.1267">
        <ele>75.1</ele>
        <time>2022-09-25T14:01:46Z</time>
      </trkpt>
      <trkpt lat="49.04096" lon="2.12663">
        <ele>76</ele>
        <time>2022-09-25T14:01:52Z</time>
      </trkpt>
      <trkpt lat="49.04089" lon="2.12659">
        <ele>76.8</ele>
        <time>2022-09-25T14:01:57Z</time>
      </trkpt>
      <trkpt lat="49.04083" lon="2.12656">
        <ele>77.3</ele>
        <time>2022-09-25T14:02:02Z</time>
      </trkpt>
      <trkpt lat="49.04076" lon="2.12651">
        <ele>77.5</ele>
        <time>2022-09-25T14:02:08Z</time>
      </trkpt>
      <trkpt lat="49.04068" lon="2.12652">
        <ele>77.1</ele>
        <time>2022-09-25T14:02:13Z</time>
      </trkpt>
      <trkpt lat="49.0406" lon="2.12647">
        <ele>76.3</ele>
        <time>2022-09-25T14:02:19Z</time>
      </trkpt>
      <trkpt lat="49.04053" lon="2.12641">
        <ele>75.6</ele>
        <time>2022-09-25T14:02:24Z</time>
      </trkpt>
      <trkpt lat="49.04046" lon="2.12636">
        <ele>74.9</ele>
        <time>2022-09-25T14:02:29Z</time>
      </trkpt>
      <trkpt lat="49.04038" lon="2.12627">
        <ele>74.6</ele>
        <time>2022-09-25T14:02:35Z</time>
      </trkpt>
      <trkpt lat="49.04033" lon="2.12621">
        <ele>74.5</ele>
        <time>2022-09-25T14:02:40Z</time>
      </trkpt>
      <trkpt lat="49.04027" lon="2.12614">
        <ele>74.7</ele>
        <time>2022-09-25T14:02:45Z</time>
      </trkpt>
      <trkpt lat="49.04021" lon="2.12608">
        <ele>74.8</ele>
        <time>2022-09-25T14:02:51Z</time>
      </trkpt>
      <trkpt lat="49.04016" lon="2.12598">
        <ele>74.9</ele>
        <time>2022-09-25T14:02:57Z</time>
      </trkpt>
      <trkpt lat="49.04012" lon="2.12589">
        <ele>74.7</ele>
        <time>2022-09-25T14:03:03Z</time>
      </trkpt>
      <trkpt lat="49.04008" lon="2.12582">
        <ele>74.2</ele>
        <time>2022-09-25T14:03:08Z</time>
      </trkpt>
      <trkpt lat="49.04002" lon="2.12573">
        <ele>73.9</ele>
        <time>2022-09-25T14:03:14Z</time>
      </trkpt>
      <trkpt lat="49.04" lon="2.12564">
        <ele>73.9</ele>
        <time>2022-09-25T14:03:19Z</time>
      </trkpt>
      <trkpt lat="49.03996" lon="2.12553">
        <ele>74.1</ele>
        <time>2022-09-25T14:03:25Z</time>
      </trkpt>
      <trkpt lat="49.03992" lon="2.12546">
        <ele>74.4</ele>
        <time>2022-09-25T14:03:30Z</time>
      </trkpt>
      <trkpt lat="49.03985" lon="2.12539">
        <ele>74.6</ele>
        <time>2022-09-25T14:03:36Z</time>
      </trkpt>
      <trkpt lat="49.03981" lon="2.12532">
        <ele>74.6</ele>
        <time>2022-09-25T14:03:42Z</time>
      </trkpt>
      <trkpt lat="49.03974" lon="2.12531">
        <ele>74.8</ele>
        <time>2022-09-25T14:03:47Z</time>
      </trkpt>
      <trkpt lat="49.03966" lon="2.12527">
        <ele>75.4</ele>
        <time>2022-09-25T14:03:53Z</time>
      </trkpt>
      <trkpt lat="49.03964" lon="2.12528">
        <ele>76</ele>
        <time>2022-09-25T14:03:59Z</time>
      </trkpt>
      <trkpt lat="49.03964" lon="2.12538">
        <ele>76.6</ele>
        <time>2022-09-25T14:04:05Z</time>
      </trkpt>
      <trkpt lat="49.03963" lon="2.12549">
        <ele>77.1</ele>
        <time>2022-09-25T14:04:10Z</time>
      </trkpt>
      <trkpt lat="49.03961" lon="2.12565">
        <ele>77.4</ele>
        <time>2022-09-25T14:04:16Z</time>
      </trkpt>
      <trkpt lat="49.03962" lon="2.12575">
        <ele>77.9</ele>
        <time>2022-09-25T14:04:21Z</time>
      </trkpt>
      <trkpt lat="49.03963" lon="2.12586">
        <ele>78.8</ele>
        <time>2022-09-25T14:04:27Z</time>
      </trkpt>
      <trkpt lat="49.03963" lon="2.12601">
        <ele>79.9</ele>
        <time>2022-09-25T14:04:33Z</time>
      </trkpt>
      <trkpt lat="49.03963" lon="2.12609">
        <ele>81</ele>
        <time>2022-09-25T14:04:40Z</time>
      </trkpt>
      <trkpt lat="49.03979" lon="2.12646">
        <ele>84.9</ele>
        <time>2022-09-25T14:05:07Z</time>
      </trkpt>
      <trkpt lat="49.03962" lon="2.12674">
        <ele>84.9</ele>
        <time>2022-09-25T14:05:12Z</time>
      </trkpt>
      <trkpt lat="49.03956" lon="2.12695">
        <ele>86.1</ele>
        <time>2022-09-25T14:05:17Z</time>
      </trkpt>
      <trkpt lat="49.03947" lon="2.12698">
        <ele>87.3</ele>
        <time>2022-09-25T14:05:23Z</time>
      </trkpt>
      <trkpt lat="49.03939" lon="2.12698">
        <ele>87.7</ele>
        <time>2022-09-25T14:05:29Z</time>
      </trkpt>
      <trkpt lat="49.03933" lon="2.12701">
        <ele>87.8</ele>
        <time>2022-09-25T14:05:35Z</time>
      </trkpt>
      <trkpt lat="49.03925" lon="2.12709">
        <ele>87.8</ele>
        <time>2022-09-25T14:05:41Z</time>
      </trkpt>
      <trkpt lat="49.03917" lon="2.12715">
        <ele>87.8</ele>
        <time>2022-09-25T14:05:46Z</time>
      </trkpt>
      <trkpt lat="49.03906" lon="2.12719">
        <ele>87.8</ele>
        <time>2022-09-25T14:05:52Z</time>
      </trkpt>
      <trkpt lat="49.03896" lon="2.12719">
        <ele>87.6</ele>
        <time>2022-09-25T14:05:58Z</time>
      </trkpt>
      <trkpt lat="49.03888" lon="2.12718">
        <ele>87.5</ele>
        <time>2022-09-25T14:06:04Z</time>
      </trkpt>
      <trkpt lat="49.0388" lon="2.12717">
        <ele>87.4</ele>
        <time>2022-09-25T14:06:10Z</time>
      </trkpt>
      <trkpt lat="49.03873" lon="2.12716">
        <ele>87.4</ele>
        <time>2022-09-25T14:06:15Z</time>
      </trkpt>
      <trkpt lat="49.03865" lon="2.12717">
        <ele>87.3</ele>
        <time>2022-09-25T14:06:21Z</time>
      </trkpt>
      <trkpt lat="49.03858" lon="2.12715">
        <ele>87.1</ele>
        <time>2022-09-25T14:06:26Z</time>
      </trkpt>
      <trkpt lat="49.03847" lon="2.12712">
        <ele>87</ele>
        <time>2022-09-25T14:06:31Z</time>
      </trkpt>
      <trkpt lat="49.0384" lon="2.12709">
        <ele>86.8</ele>
        <time>2022-09-25T14:06:37Z</time>
      </trkpt>
      <trkpt lat="49.03833" lon="2.12708">
        <ele>86.8</ele>
        <time>2022-09-25T14:06:42Z</time>
      </trkpt>
      <trkpt lat="49.03825" lon="2.12707">
        <ele>86.6</ele>
        <time>2022-09-25T14:06:48Z</time>
      </trkpt>
      <trkpt lat="49.03819" lon="2.12708">
        <ele>86.6</ele>
        <time>2022-09-25T14:06:53Z</time>
      </trkpt>
      <trkpt lat="49.03811" lon="2.1271">
        <ele>86.7</ele>
        <time>2022-09-25T14:06:58Z</time>
      </trkpt>
      <trkpt lat="49.03802" lon="2.12714">
        <ele>86.8</ele>
        <time>2022-09-25T14:07:04Z</time>
      </trkpt>
      <trkpt lat="49.03793" lon="2.12721">
        <ele>86.7</ele>
        <time>2022-09-25T14:07:09Z</time>
      </trkpt>
      <trkpt lat="49.03787" lon="2.12726">
        <ele>86.7</ele>
        <time>2022-09-25T14:07:14Z</time>
      </trkpt>
      <trkpt lat="49.03781" lon="2.12728">
        <ele>86.7</ele>
        <time>2022-09-25T14:07:19Z</time>
      </trkpt>
      <trkpt lat="49.03775" lon="2.1273">
        <ele>86.5</ele>
        <time>2022-09-25T14:07:24Z</time>
      </trkpt>
      <trkpt lat="49.03767" lon="2.12733">
        <ele>86.2</ele>
        <time>2022-09-25T14:07:30Z</time>
      </trkpt>
      <trkpt lat="49.03759" lon="2.12738">
        <ele>85.7</ele>
        <time>2022-09-25T14:07:36Z</time>
      </trkpt>
      <trkpt lat="49.03752" lon="2.12742">
        <ele>85.3</ele>
        <time>2022-09-25T14:07:41Z</time>
      </trkpt>
      <trkpt lat="49.03745" lon="2.12746">
        <ele>85.1</ele>
        <time>2022-09-25T14:07:47Z</time>
      </trkpt>
      <trkpt lat="49.03739" lon="2.12752">
        <ele>84.9</ele>
        <time>2022-09-25T14:07:52Z</time>
      </trkpt>
      <trkpt lat="49.03729" lon="2.12753">
        <ele>84.8</ele>
        <time>2022-09-25T14:07:58Z</time>
      </trkpt>
      <trkpt lat="49.03722" lon="2.12751">
        <ele>84.9</ele>
        <time>2022-09-25T14:08:03Z</time>
      </trkpt>
      <trkpt lat="49.03714" lon="2.12748">
        <ele>85</ele>
        <time>2022-09-25T14:08:09Z</time>
      </trkpt>
      <trkpt lat="49.03711" lon="2.12752">
        <ele>85.2</ele>
        <time>2022-09-25T14:08:14Z</time>
      </trkpt>
      <trkpt lat="49.03709" lon="2.12761">
        <ele>85.3</ele>
        <time>2022-09-25T14:08:20Z</time>
      </trkpt>
      <trkpt lat="49.03706" lon="2.12773">
        <ele>85.3</ele>
        <time>2022-09-25T14:08:26Z</time>
      </trkpt>
      <trkpt lat="49.03702" lon="2.12787">
        <ele>84.9</ele>
        <time>2022-09-25T14:08:32Z</time>
      </trkpt>
      <trkpt lat="49.03696" lon="2.12794">
        <ele>84.3</ele>
        <time>2022-09-25T14:08:37Z</time>
      </trkpt>
      <trkpt lat="49.03695" lon="2.12806">
        <ele>83.5</ele>
        <time>2022-09-25T14:08:43Z</time>
      </trkpt>
      <trkpt lat="49.03695" lon="2.12816">
        <ele>83.3</ele>
        <time>2022-09-25T14:08:48Z</time>
      </trkpt>
      <trkpt lat="49.03693" lon="2.12824">
        <ele>83.1</ele>
        <time>2022-09-25T14:08:53Z</time>
      </trkpt>
      <trkpt lat="49.03687" lon="2.1283">
        <ele>82.9</ele>
        <time>2022-09-25T14:08:58Z</time>
      </trkpt>
      <trkpt lat="49.03682" lon="2.12841">
        <ele>82.5</ele>
        <time>2022-09-25T14:09:03Z</time>
      </trkpt>
      <trkpt lat="49.03679" lon="2.12854">
        <ele>81.9</ele>
        <time>2022-09-25T14:09:09Z</time>
      </trkpt>
      <trkpt lat="49.03678" lon="2.12868">
        <ele>81.5</ele>
        <time>2022-09-25T14:09:15Z</time>
      </trkpt>
      <trkpt lat="49.03675" lon="2.12879">
        <ele>81.5</ele>
        <time>2022-09-25T14:09:21Z</time>
      </trkpt>
      <trkpt lat="49.03671" lon="2.12888">
        <ele>81.7</ele>
        <time>2022-09-25T14:09:26Z</time>
      </trkpt>
      <trkpt lat="49.03668" lon="2.12898">
        <ele>81.7</ele>
        <time>2022-09-25T14:09:32Z</time>
      </trkpt>
      <trkpt lat="49.03666" lon="2.12909">
        <ele>81.4</ele>
        <time>2022-09-25T14:09:38Z</time>
      </trkpt>
      <trkpt lat="49.03662" lon="2.12922">
        <ele>81.1</ele>
        <time>2022-09-25T14:09:43Z</time>
      </trkpt>
      <trkpt lat="49.03658" lon="2.12934">
        <ele>80.8</ele>
        <time>2022-09-25T14:09:49Z</time>
      </trkpt>
      <trkpt lat="49.03656" lon="2.12942">
        <ele>80.7</ele>
        <time>2022-09-25T14:09:54Z</time>
      </trkpt>
      <trkpt lat="49.03651" lon="2.12937">
        <ele>80.6</ele>
        <time>2022-09-25T14:09:59Z</time>
      </trkpt>
      <trkpt lat="49.03643" lon="2.12935">
        <ele>80.4</ele>
        <time>2022-09-25T14:10:05Z</time>
      </trkpt>
      <trkpt lat="49.0363" lon="2.12935">
        <ele>80.1</ele>
        <time>2022-09-25T14:10:11Z</time>
      </trkpt>
      <trkpt lat="49.03622" lon="2.12934">
        <ele>79.8</ele>
        <time>2022-09-25T14:10:16Z</time>
      </trkpt>
      <trkpt lat="49.03615" lon="2.12931">
        <ele>79.2</ele>
        <time>2022-09-25T14:10:21Z</time>
      </trkpt>
      <trkpt lat="49.03608" lon="2.12927">
        <ele>78.4</ele>
        <time>2022-09-25T14:10:27Z</time>
      </trkpt>
      <trkpt lat="49.03602" lon="2.12923">
        <ele>77.9</ele>
        <time>2022-09-25T14:10:33Z</time>
      </trkpt>
      <trkpt lat="49.03593" lon="2.12917">
        <ele>77.5</ele>
        <time>2022-09-25T14:10:39Z</time>
      </trkpt>
      <trkpt lat="49.03587" lon="2.12913">
        <ele>77.2</ele>
        <time>2022-09-25T14:10:44Z</time>
      </trkpt>
      <trkpt lat="49.03579" lon="2.12909">
        <ele>76.8</ele>
        <time>2022-09-25T14:10:50Z</time>
      </trkpt>
      <trkpt lat="49.03572" lon="2.12905">
        <ele>76.7</ele>
        <time>2022-09-25T14:10:55Z</time>
      </trkpt>
      <trkpt lat="49.03569" lon="2.1291">
        <ele>77.2</ele>
        <time>2022-09-25T14:11:01Z</time>
      </trkpt>
      <trkpt lat="49.03569" lon="2.12923">
        <ele>78</ele>
        <time>2022-09-25T14:11:07Z</time>
      </trkpt>
      <trkpt lat="49.03566" lon="2.12932">
        <ele>78.6</ele>
        <time>2022-09-25T14:11:12Z</time>
      </trkpt>
      <trkpt lat="49.03565" lon="2.12943">
        <ele>79.3</ele>
        <time>2022-09-25T14:11:18Z</time>
      </trkpt>
      <trkpt lat="49.03564" lon="2.12956">
        <ele>79.6</ele>
        <time>2022-09-25T14:11:24Z</time>
      </trkpt>
      <trkpt lat="49.03563" lon="2.12965">
        <ele>79.5</ele>
        <time>2022-09-25T14:11:29Z</time>
      </trkpt>
      <trkpt lat="49.03562" lon="2.12975">
        <ele>79.1</ele>
        <time>2022-09-25T14:11:35Z</time>
      </trkpt>
      <trkpt lat="49.0356" lon="2.12992">
        <ele>78.7</ele>
        <time>2022-09-25T14:11:41Z</time>
      </trkpt>
      <trkpt lat="49.03558" lon="2.13004">
        <ele>78.4</ele>
        <time>2022-09-25T14:11:46Z</time>
      </trkpt>
      <trkpt lat="49.03559" lon="2.13019">
        <ele>78</ele>
        <time>2022-09-25T14:11:52Z</time>
      </trkpt>
      <trkpt lat="49.03557" lon="2.1303">
        <ele>77.8</ele>
        <time>2022-09-25T14:11:58Z</time>
      </trkpt>
      <trkpt lat="49.03556" lon="2.13041">
        <ele>77.7</ele>
        <time>2022-09-25T14:12:03Z</time>
      </trkpt>
      <trkpt lat="49.03558" lon="2.13054">
        <ele>77.3</ele>
        <time>2022-09-25T14:12:09Z</time>
      </trkpt>
      <trkpt lat="49.03557" lon="2.13064">
        <ele>76.8</ele>
        <time>2022-09-25T14:12:14Z</time>
      </trkpt>
      <trkpt lat="49.03557" lon="2.13075">
        <ele>76.3</ele>
        <time>2022-09-25T14:12:20Z</time>
      </trkpt>
      <trkpt lat="49.03553" lon="2.13091">
        <ele>76.1</ele>
        <time>2022-09-25T14:12:26Z</time>
      </trkpt>
      <trkpt lat="49.0355" lon="2.131">
        <ele>76.1</ele>
        <time>2022-09-25T14:12:31Z</time>
      </trkpt>
      <trkpt lat="49.0355" lon="2.1311">
        <ele>76.4</ele>
        <time>2022-09-25T14:12:36Z</time>
      </trkpt>
      <trkpt lat="49.03551" lon="2.13121">
        <ele>76.8</ele>
        <time>2022-09-25T14:12:41Z</time>
      </trkpt>
      <trkpt lat="49.03552" lon="2.13138">
        <ele>77.1</ele>
        <time>2022-09-25T14:12:47Z</time>
      </trkpt>
      <trkpt lat="49.0355" lon="2.13148">
        <ele>77.6</ele>
        <time>2022-09-25T14:12:52Z</time>
      </trkpt>
      <trkpt lat="49.03547" lon="2.13157">
        <ele>77.9</ele>
        <time>2022-09-25T14:12:57Z</time>
      </trkpt>
      <trkpt lat="49.03541" lon="2.13169">
        <ele>78.5</ele>
        <time>2022-09-25T14:13:03Z</time>
      </trkpt>
      <trkpt lat="49.03537" lon="2.13178">
        <ele>79</ele>
        <time>2022-09-25T14:13:08Z</time>
      </trkpt>
      <trkpt lat="49.03531" lon="2.1319">
        <ele>80</ele>
        <time>2022-09-25T14:13:14Z</time>
      </trkpt>
      <trkpt lat="49.03523" lon="2.132">
        <ele>80.6</ele>
        <time>2022-09-25T14:13:20Z</time>
      </trkpt>
      <trkpt lat="49.03516" lon="2.13208">
        <ele>80.8</ele>
        <time>2022-09-25T14:13:25Z</time>
      </trkpt>
      <trkpt lat="49.03508" lon="2.13215">
        <ele>81</ele>
        <time>2022-09-25T14:13:31Z</time>
      </trkpt>
      <trkpt lat="49.03502" lon="2.13215">
        <ele>81.3</ele>
        <time>2022-09-25T14:13:37Z</time>
      </trkpt>
      <trkpt lat="49.03495" lon="2.13207">
        <ele>81.7</ele>
        <time>2022-09-25T14:13:43Z</time>
      </trkpt>
      <trkpt lat="49.03488" lon="2.132">
        <ele>82.2</ele>
        <time>2022-09-25T14:13:48Z</time>
      </trkpt>
      <trkpt lat="49.0348" lon="2.13195">
        <ele>82.6</ele>
        <time>2022-09-25T14:13:54Z</time>
      </trkpt>
      <trkpt lat="49.03472" lon="2.13187">
        <ele>82.8</ele>
        <time>2022-09-25T14:14:00Z</time>
      </trkpt>
      <trkpt lat="49.03467" lon="2.13181">
        <ele>83</ele>
        <time>2022-09-25T14:14:05Z</time>
      </trkpt>
      <trkpt lat="49.03461" lon="2.13175">
        <ele>83.1</ele>
        <time>2022-09-25T14:14:11Z</time>
      </trkpt>
      <trkpt lat="49.03452" lon="2.13168">
        <ele>83</ele>
        <time>2022-09-25T14:14:17Z</time>
      </trkpt>
      <trkpt lat="49.03446" lon="2.1316">
        <ele>83.1</ele>
        <time>2022-09-25T14:14:23Z</time>
      </trkpt>
      <trkpt lat="49.03443" lon="2.13154">
        <ele>83</ele>
        <time>2022-09-25T14:14:29Z</time>
      </trkpt>
      <trkpt lat="49.03441" lon="2.1315">
        <ele>83</ele>
        <time>2022-09-25T14:14:35Z</time>
      </trkpt>
      <trkpt lat="49.0344" lon="2.13147">
        <ele>83.2</ele>
        <time>2022-09-25T14:14:40Z</time>
      </trkpt>
      <trkpt lat="49.0344" lon="2.13146">
        <ele>83.4</ele>
        <time>2022-09-25T14:14:46Z</time>
      </trkpt>
      <trkpt lat="49.03441" lon="2.13146">
        <ele>83.4</ele>
        <time>2022-09-25T14:14:52Z</time>
      </trkpt>
      <trkpt lat="49.03441" lon="2.13146">
        <ele>83.4</ele>
        <time>2022-09-25T14:14:57Z</time>
      </trkpt>
      <trkpt lat="49.03441" lon="2.13146">
        <ele>83.4</ele>
        <time>2022-09-25T14:15:02Z</time>
      </trkpt>
    </trkseg>
  </trk>
</gpx>